<?xml version="1.0" encoding="UTF-8" standalone="no" ?>
<gpx xmlns="http://www.topografix.com/GPX/1/1" xmlns:xsi="http://www.w3.org/2001/XMLSchema-instance" xsi:schemaLocation="http://www.topografix.com/GPX/1/1 http://www.topografix.com/GPX/1/1/gpx.xsd" version="1.1" creator="VisuGPX - https://www.visugpx.com">
  <metadata>
    <name>Jour 3</name>
  </metadata>
  <trk>
    <name><![CDATA[J3]]></name>
    <extensions>
      <line xmlns="http://www.topografix.com/GPX/gpx_style/0/2">
        <color>0000FF</color>
        <width>4</width>
      </line>
    </extensions>
    <trkseg>
      <trkpt lat="42.17243" lon="1.32037">
        <ele>494.56</ele>
        <time>2021-08-01T06:53:25Z</time>
      </trkpt>
      <trkpt lat="42.17243" lon="1.32037">
        <ele>494.26</ele>
        <time>2021-08-01T06:53:26Z</time>
      </trkpt>
      <trkpt lat="42.17243" lon="1.32037">
        <ele>494.07</ele>
        <time>2021-08-01T06:53:27Z</time>
      </trkpt>
      <trkpt lat="42.17243" lon="1.32037">
        <ele>493.79</ele>
        <time>2021-08-01T06:53:28Z</time>
      </trkpt>
      <trkpt lat="42.17243" lon="1.32037">
        <ele>493.53</ele>
        <time>2021-08-01T06:53:29Z</time>
      </trkpt>
      <trkpt lat="42.17243" lon="1.32037">
        <ele>493.49</ele>
        <time>2021-08-01T06:53:30Z</time>
      </trkpt>
      <trkpt lat="42.17243" lon="1.32037">
        <ele>493.52</ele>
        <time>2021-08-01T06:53:31Z</time>
      </trkpt>
      <trkpt lat="42.17262" lon="1.31978">
        <ele>489.37</ele>
        <time>2021-08-01T08:56:44Z</time>
      </trkpt>
      <trkpt lat="42.1725" lon="1.32022">
        <ele>489.37</ele>
        <time>2021-08-01T08:57:32Z</time>
      </trkpt>
      <trkpt lat="42.17249" lon="1.32022">
        <ele>489.37</ele>
        <time>2021-08-01T08:58:13Z</time>
      </trkpt>
      <trkpt lat="42.17243" lon="1.32029">
        <ele>489.22</ele>
        <time>2021-08-01T08:58:27Z</time>
      </trkpt>
      <trkpt lat="42.17239" lon="1.31994">
        <ele>488.19</ele>
        <time>2021-08-01T08:58:34Z</time>
      </trkpt>
      <trkpt lat="42.17242" lon="1.31989">
        <ele>488.25</ele>
        <time>2021-08-01T08:58:35Z</time>
      </trkpt>
      <trkpt lat="42.17291" lon="1.31899">
        <ele>491.9</ele>
        <time>2021-08-01T08:58:45Z</time>
      </trkpt>
      <trkpt lat="42.17319" lon="1.31852">
        <ele>494.98</ele>
        <time>2021-08-01T08:58:50Z</time>
      </trkpt>
      <trkpt lat="42.17332" lon="1.31829">
        <ele>496.71</ele>
        <time>2021-08-01T08:58:53Z</time>
      </trkpt>
      <trkpt lat="42.17341" lon="1.31776">
        <ele>499.97</ele>
        <time>2021-08-01T08:58:59Z</time>
      </trkpt>
      <trkpt lat="42.1733" lon="1.31712">
        <ele>503.63</ele>
        <time>2021-08-01T08:59:06Z</time>
      </trkpt>
      <trkpt lat="42.17323" lon="1.31659">
        <ele>507.03</ele>
        <time>2021-08-01T08:59:13Z</time>
      </trkpt>
      <trkpt lat="42.1732" lon="1.31645">
        <ele>507.86</ele>
        <time>2021-08-01T08:59:15Z</time>
      </trkpt>
      <trkpt lat="42.17279" lon="1.31554">
        <ele>509.86</ele>
        <time>2021-08-01T08:59:27Z</time>
      </trkpt>
      <trkpt lat="42.17237" lon="1.31439">
        <ele>508.87</ele>
        <time>2021-08-01T08:59:39Z</time>
      </trkpt>
      <trkpt lat="42.17197" lon="1.31348">
        <ele>509.32</ele>
        <time>2021-08-01T08:59:49Z</time>
      </trkpt>
      <trkpt lat="42.17193" lon="1.3134">
        <ele>509.72</ele>
        <time>2021-08-01T08:59:54Z</time>
      </trkpt>
      <trkpt lat="42.17192" lon="1.31337">
        <ele>509.77</ele>
        <time>2021-08-01T08:59:56Z</time>
      </trkpt>
      <trkpt lat="42.1721" lon="1.31319">
        <ele>510.24</ele>
        <time>2021-08-01T09:00:02Z</time>
      </trkpt>
      <trkpt lat="42.1727" lon="1.31302">
        <ele>514</ele>
        <time>2021-08-01T09:00:11Z</time>
      </trkpt>
      <trkpt lat="42.17303" lon="1.31296">
        <ele>517.81</ele>
        <time>2021-08-01T09:00:16Z</time>
      </trkpt>
      <trkpt lat="42.17308" lon="1.31296">
        <ele>517.81</ele>
        <time>2021-08-01T09:00:17Z</time>
      </trkpt>
      <trkpt lat="42.17332" lon="1.31296">
        <ele>521.39</ele>
        <time>2021-08-01T09:00:21Z</time>
      </trkpt>
      <trkpt lat="42.17337" lon="1.31296">
        <ele>522.02</ele>
        <time>2021-08-01T09:00:22Z</time>
      </trkpt>
      <trkpt lat="42.1736" lon="1.31285">
        <ele>525.61</ele>
        <time>2021-08-01T09:00:28Z</time>
      </trkpt>
      <trkpt lat="42.17372" lon="1.31267">
        <ele>528.18</ele>
        <time>2021-08-01T09:00:32Z</time>
      </trkpt>
      <trkpt lat="42.17377" lon="1.31266">
        <ele>528.8</ele>
        <time>2021-08-01T09:00:33Z</time>
      </trkpt>
      <trkpt lat="42.17398" lon="1.31268">
        <ele>532.93</ele>
        <time>2021-08-01T09:00:39Z</time>
      </trkpt>
      <trkpt lat="42.174" lon="1.31273">
        <ele>533.63</ele>
        <time>2021-08-01T09:00:40Z</time>
      </trkpt>
      <trkpt lat="42.17403" lon="1.31279">
        <ele>534.32</ele>
        <time>2021-08-01T09:00:41Z</time>
      </trkpt>
      <trkpt lat="42.17406" lon="1.31285">
        <ele>534.96</ele>
        <time>2021-08-01T09:00:42Z</time>
      </trkpt>
      <trkpt lat="42.17409" lon="1.31291">
        <ele>535.49</ele>
        <time>2021-08-01T09:00:43Z</time>
      </trkpt>
      <trkpt lat="42.17439" lon="1.31336">
        <ele>539.02</ele>
        <time>2021-08-01T09:00:51Z</time>
      </trkpt>
      <trkpt lat="42.17469" lon="1.31373">
        <ele>541.74</ele>
        <time>2021-08-01T09:00:58Z</time>
      </trkpt>
      <trkpt lat="42.17523" lon="1.31418">
        <ele>545.38</ele>
        <time>2021-08-01T09:01:08Z</time>
      </trkpt>
      <trkpt lat="42.17556" lon="1.31451">
        <ele>548.9</ele>
        <time>2021-08-01T09:01:14Z</time>
      </trkpt>
      <trkpt lat="42.1758" lon="1.31468">
        <ele>551.62</ele>
        <time>2021-08-01T09:01:18Z</time>
      </trkpt>
      <trkpt lat="42.17585" lon="1.3147">
        <ele>552.37</ele>
        <time>2021-08-01T09:01:19Z</time>
      </trkpt>
      <trkpt lat="42.17603" lon="1.3146">
        <ele>555.45</ele>
        <time>2021-08-01T09:01:23Z</time>
      </trkpt>
      <trkpt lat="42.17602" lon="1.31454">
        <ele>556.18</ele>
        <time>2021-08-01T09:01:24Z</time>
      </trkpt>
      <trkpt lat="42.17599" lon="1.31449">
        <ele>557.01</ele>
        <time>2021-08-01T09:01:25Z</time>
      </trkpt>
      <trkpt lat="42.17578" lon="1.31423">
        <ele>562.1</ele>
        <time>2021-08-01T09:01:31Z</time>
      </trkpt>
      <trkpt lat="42.17555" lon="1.31398">
        <ele>565.73</ele>
        <time>2021-08-01T09:01:41Z</time>
      </trkpt>
      <trkpt lat="42.1755" lon="1.31389">
        <ele>566.64</ele>
        <time>2021-08-01T09:01:50Z</time>
      </trkpt>
      <trkpt lat="42.17541" lon="1.31377">
        <ele>566.66</ele>
        <time>2021-08-01T09:02:04Z</time>
      </trkpt>
      <trkpt lat="42.17538" lon="1.31367">
        <ele>566.61</ele>
        <time>2021-08-01T09:02:09Z</time>
      </trkpt>
      <trkpt lat="42.17503" lon="1.31293">
        <ele>566.74</ele>
        <time>2021-08-01T09:02:21Z</time>
      </trkpt>
      <trkpt lat="42.17495" lon="1.31233">
        <ele>567.93</ele>
        <time>2021-08-01T09:02:29Z</time>
      </trkpt>
      <trkpt lat="42.17501" lon="1.31207">
        <ele>569.05</ele>
        <time>2021-08-01T09:02:32Z</time>
      </trkpt>
      <trkpt lat="42.1751" lon="1.31149">
        <ele>573</ele>
        <time>2021-08-01T09:02:38Z</time>
      </trkpt>
      <trkpt lat="42.1751" lon="1.31109">
        <ele>576.88</ele>
        <time>2021-08-01T09:02:42Z</time>
      </trkpt>
      <trkpt lat="42.17505" lon="1.31085">
        <ele>579.53</ele>
        <time>2021-08-01T09:02:45Z</time>
      </trkpt>
      <trkpt lat="42.17513" lon="1.3104">
        <ele>583.61</ele>
        <time>2021-08-01T09:02:51Z</time>
      </trkpt>
      <trkpt lat="42.17529" lon="1.30996">
        <ele>587.39</ele>
        <time>2021-08-01T09:02:58Z</time>
      </trkpt>
      <trkpt lat="42.17542" lon="1.30946">
        <ele>590.63</ele>
        <time>2021-08-01T09:03:08Z</time>
      </trkpt>
      <trkpt lat="42.17553" lon="1.30882">
        <ele>593.53</ele>
        <time>2021-08-01T09:03:20Z</time>
      </trkpt>
      <trkpt lat="42.17566" lon="1.30813">
        <ele>596.61</ele>
        <time>2021-08-01T09:03:32Z</time>
      </trkpt>
      <trkpt lat="42.17573" lon="1.30774">
        <ele>599.23</ele>
        <time>2021-08-01T09:03:38Z</time>
      </trkpt>
      <trkpt lat="42.17583" lon="1.3075">
        <ele>600.97</ele>
        <time>2021-08-01T09:03:44Z</time>
      </trkpt>
      <trkpt lat="42.17591" lon="1.30742">
        <ele>601.22</ele>
        <time>2021-08-01T09:03:46Z</time>
      </trkpt>
      <trkpt lat="42.17634" lon="1.30669">
        <ele>600.4</ele>
        <time>2021-08-01T09:04:00Z</time>
      </trkpt>
      <trkpt lat="42.17673" lon="1.30612">
        <ele>602.95</ele>
        <time>2021-08-01T09:04:14Z</time>
      </trkpt>
      <trkpt lat="42.17691" lon="1.30586">
        <ele>606.06</ele>
        <time>2021-08-01T09:04:21Z</time>
      </trkpt>
      <trkpt lat="42.17705" lon="1.30572">
        <ele>609.37</ele>
        <time>2021-08-01T09:04:28Z</time>
      </trkpt>
      <trkpt lat="42.17723" lon="1.30552">
        <ele>611.56</ele>
        <time>2021-08-01T09:04:38Z</time>
      </trkpt>
      <trkpt lat="42.17725" lon="1.30544">
        <ele>612.78</ele>
        <time>2021-08-01T09:04:47Z</time>
      </trkpt>
      <trkpt lat="42.17725" lon="1.30544">
        <ele>615.79</ele>
        <time>2021-08-01T09:06:04Z</time>
      </trkpt>
      <trkpt lat="42.1773" lon="1.30512">
        <ele>616.62</ele>
        <time>2021-08-01T09:06:23Z</time>
      </trkpt>
      <trkpt lat="42.17731" lon="1.30496">
        <ele>616.76</ele>
        <time>2021-08-01T09:06:26Z</time>
      </trkpt>
      <trkpt lat="42.17733" lon="1.3049">
        <ele>616.8</ele>
        <time>2021-08-01T09:06:27Z</time>
      </trkpt>
      <trkpt lat="42.17749" lon="1.30436">
        <ele>618.27</ele>
        <time>2021-08-01T09:06:37Z</time>
      </trkpt>
      <trkpt lat="42.17765" lon="1.30413">
        <ele>619.04</ele>
        <time>2021-08-01T09:06:42Z</time>
      </trkpt>
      <trkpt lat="42.17792" lon="1.30345">
        <ele>619.31</ele>
        <time>2021-08-01T09:06:53Z</time>
      </trkpt>
      <trkpt lat="42.1781" lon="1.30314">
        <ele>619.17</ele>
        <time>2021-08-01T09:07:00Z</time>
      </trkpt>
      <trkpt lat="42.17832" lon="1.30287">
        <ele>619.01</ele>
        <time>2021-08-01T09:07:08Z</time>
      </trkpt>
      <trkpt lat="42.17854" lon="1.30247">
        <ele>620.22</ele>
        <time>2021-08-01T09:07:17Z</time>
      </trkpt>
      <trkpt lat="42.17859" lon="1.30209">
        <ele>621.91</ele>
        <time>2021-08-01T09:07:23Z</time>
      </trkpt>
      <trkpt lat="42.17855" lon="1.30178">
        <ele>624.06</ele>
        <time>2021-08-01T09:07:27Z</time>
      </trkpt>
      <trkpt lat="42.17857" lon="1.30136">
        <ele>628.05</ele>
        <time>2021-08-01T09:07:32Z</time>
      </trkpt>
      <trkpt lat="42.17862" lon="1.30101">
        <ele>631.55</ele>
        <time>2021-08-01T09:07:36Z</time>
      </trkpt>
      <trkpt lat="42.17869" lon="1.30078">
        <ele>634.02</ele>
        <time>2021-08-01T09:07:39Z</time>
      </trkpt>
      <trkpt lat="42.17875" lon="1.30037">
        <ele>638.52</ele>
        <time>2021-08-01T09:07:44Z</time>
      </trkpt>
      <trkpt lat="42.17877" lon="1.30011">
        <ele>641.42</ele>
        <time>2021-08-01T09:07:47Z</time>
      </trkpt>
      <trkpt lat="42.17893" lon="1.29979">
        <ele>645.43</ele>
        <time>2021-08-01T09:07:52Z</time>
      </trkpt>
      <trkpt lat="42.1788" lon="1.29942">
        <ele>649.07</ele>
        <time>2021-08-01T09:07:57Z</time>
      </trkpt>
      <trkpt lat="42.17876" lon="1.29917">
        <ele>651.1</ele>
        <time>2021-08-01T09:08:00Z</time>
      </trkpt>
      <trkpt lat="42.17875" lon="1.29878">
        <ele>654.18</ele>
        <time>2021-08-01T09:08:05Z</time>
      </trkpt>
      <trkpt lat="42.17858" lon="1.29829">
        <ele>657.99</ele>
        <time>2021-08-01T09:08:12Z</time>
      </trkpt>
      <trkpt lat="42.17851" lon="1.29809">
        <ele>659.74</ele>
        <time>2021-08-01T09:08:15Z</time>
      </trkpt>
      <trkpt lat="42.17849" lon="1.29774">
        <ele>663.47</ele>
        <time>2021-08-01T09:08:21Z</time>
      </trkpt>
      <trkpt lat="42.17845" lon="1.29754">
        <ele>665.3</ele>
        <time>2021-08-01T09:08:24Z</time>
      </trkpt>
      <trkpt lat="42.17847" lon="1.2971">
        <ele>669.82</ele>
        <time>2021-08-01T09:08:30Z</time>
      </trkpt>
      <trkpt lat="42.17853" lon="1.29683">
        <ele>673.07</ele>
        <time>2021-08-01T09:08:34Z</time>
      </trkpt>
      <trkpt lat="42.17853" lon="1.29676">
        <ele>674.76</ele>
        <time>2021-08-01T09:08:35Z</time>
      </trkpt>
      <trkpt lat="42.17854" lon="1.2966">
        <ele>676.33</ele>
        <time>2021-08-01T09:08:37Z</time>
      </trkpt>
      <trkpt lat="42.1787" lon="1.29638">
        <ele>680.32</ele>
        <time>2021-08-01T09:08:42Z</time>
      </trkpt>
      <trkpt lat="42.17879" lon="1.29611">
        <ele>684.26</ele>
        <time>2021-08-01T09:08:48Z</time>
      </trkpt>
      <trkpt lat="42.17873" lon="1.29599">
        <ele>685.56</ele>
        <time>2021-08-01T09:08:50Z</time>
      </trkpt>
      <trkpt lat="42.1786" lon="1.29573">
        <ele>689.62</ele>
        <time>2021-08-01T09:08:56Z</time>
      </trkpt>
      <trkpt lat="42.17884" lon="1.29582">
        <ele>693</ele>
        <time>2021-08-01T09:09:02Z</time>
      </trkpt>
      <trkpt lat="42.17907" lon="1.29594">
        <ele>696.08</ele>
        <time>2021-08-01T09:09:07Z</time>
      </trkpt>
      <trkpt lat="42.17916" lon="1.29591">
        <ele>697.15</ele>
        <time>2021-08-01T09:09:09Z</time>
      </trkpt>
      <trkpt lat="42.17927" lon="1.29585">
        <ele>698.43</ele>
        <time>2021-08-01T09:09:11Z</time>
      </trkpt>
      <trkpt lat="42.17958" lon="1.29582">
        <ele>701.98</ele>
        <time>2021-08-01T09:09:16Z</time>
      </trkpt>
      <trkpt lat="42.17978" lon="1.29582">
        <ele>705.92</ele>
        <time>2021-08-01T09:09:22Z</time>
      </trkpt>
      <trkpt lat="42.17966" lon="1.29568">
        <ele>708.96</ele>
        <time>2021-08-01T09:09:27Z</time>
      </trkpt>
      <trkpt lat="42.17924" lon="1.29558">
        <ele>713.49</ele>
        <time>2021-08-01T09:09:35Z</time>
      </trkpt>
      <trkpt lat="42.17919" lon="1.29557">
        <ele>714.02</ele>
        <time>2021-08-01T09:09:36Z</time>
      </trkpt>
      <trkpt lat="42.17895" lon="1.2952">
        <ele>717.84</ele>
        <time>2021-08-01T09:09:43Z</time>
      </trkpt>
      <trkpt lat="42.17891" lon="1.29505">
        <ele>719.04</ele>
        <time>2021-08-01T09:09:45Z</time>
      </trkpt>
      <trkpt lat="42.17888" lon="1.29473">
        <ele>722.87</ele>
        <time>2021-08-01T09:09:51Z</time>
      </trkpt>
      <trkpt lat="42.17873" lon="1.29424">
        <ele>727.59</ele>
        <time>2021-08-01T09:09:59Z</time>
      </trkpt>
      <trkpt lat="42.1786" lon="1.29409">
        <ele>729.39</ele>
        <time>2021-08-01T09:10:02Z</time>
      </trkpt>
      <trkpt lat="42.17832" lon="1.29376">
        <ele>733.14</ele>
        <time>2021-08-01T09:10:08Z</time>
      </trkpt>
      <trkpt lat="42.17821" lon="1.29345">
        <ele>737.18</ele>
        <time>2021-08-01T09:10:13Z</time>
      </trkpt>
      <trkpt lat="42.17821" lon="1.29334">
        <ele>738.49</ele>
        <time>2021-08-01T09:10:15Z</time>
      </trkpt>
      <trkpt lat="42.1782" lon="1.2932">
        <ele>740.64</ele>
        <time>2021-08-01T09:10:18Z</time>
      </trkpt>
      <trkpt lat="42.17829" lon="1.29284">
        <ele>743.73</ele>
        <time>2021-08-01T09:10:24Z</time>
      </trkpt>
      <trkpt lat="42.1785" lon="1.29265">
        <ele>745.62</ele>
        <time>2021-08-01T09:10:29Z</time>
      </trkpt>
      <trkpt lat="42.17873" lon="1.29253">
        <ele>747</ele>
        <time>2021-08-01T09:10:34Z</time>
      </trkpt>
      <trkpt lat="42.1788" lon="1.29222">
        <ele>748.23</ele>
        <time>2021-08-01T09:10:39Z</time>
      </trkpt>
      <trkpt lat="42.17876" lon="1.29206">
        <ele>748.48</ele>
        <time>2021-08-01T09:10:41Z</time>
      </trkpt>
      <trkpt lat="42.17878" lon="1.29182">
        <ele>749.26</ele>
        <time>2021-08-01T09:10:45Z</time>
      </trkpt>
      <trkpt lat="42.17884" lon="1.29152">
        <ele>750.76</ele>
        <time>2021-08-01T09:10:50Z</time>
      </trkpt>
      <trkpt lat="42.17902" lon="1.2912">
        <ele>752.81</ele>
        <time>2021-08-01T09:10:56Z</time>
      </trkpt>
      <trkpt lat="42.17916" lon="1.291">
        <ele>754.42</ele>
        <time>2021-08-01T09:11:00Z</time>
      </trkpt>
      <trkpt lat="42.17949" lon="1.29062">
        <ele>757.31</ele>
        <time>2021-08-01T09:11:10Z</time>
      </trkpt>
      <trkpt lat="42.17959" lon="1.29035">
        <ele>758.96</ele>
        <time>2021-08-01T09:11:15Z</time>
      </trkpt>
      <trkpt lat="42.17969" lon="1.29022">
        <ele>760.26</ele>
        <time>2021-08-01T09:11:18Z</time>
      </trkpt>
      <trkpt lat="42.17983" lon="1.2898">
        <ele>763.23</ele>
        <time>2021-08-01T09:11:26Z</time>
      </trkpt>
      <trkpt lat="42.17991" lon="1.28899">
        <ele>766.75</ele>
        <time>2021-08-01T09:11:38Z</time>
      </trkpt>
      <trkpt lat="42.17992" lon="1.2887">
        <ele>768.38</ele>
        <time>2021-08-01T09:11:47Z</time>
      </trkpt>
      <trkpt lat="42.18008" lon="1.2885">
        <ele>769.86</ele>
        <time>2021-08-01T09:11:58Z</time>
      </trkpt>
      <trkpt lat="42.18039" lon="1.28841">
        <ele>771.68</ele>
        <time>2021-08-01T09:12:07Z</time>
      </trkpt>
      <trkpt lat="42.18078" lon="1.28815">
        <ele>775.07</ele>
        <time>2021-08-01T09:12:17Z</time>
      </trkpt>
      <trkpt lat="42.18093" lon="1.28787">
        <ele>777.69</ele>
        <time>2021-08-01T09:12:24Z</time>
      </trkpt>
      <trkpt lat="42.18099" lon="1.28774">
        <ele>778.56</ele>
        <time>2021-08-01T09:12:26Z</time>
      </trkpt>
      <trkpt lat="42.18103" lon="1.28701">
        <ele>782.4</ele>
        <time>2021-08-01T09:12:34Z</time>
      </trkpt>
      <trkpt lat="42.18108" lon="1.28668">
        <ele>784.55</ele>
        <time>2021-08-01T09:12:38Z</time>
      </trkpt>
      <trkpt lat="42.18123" lon="1.28626">
        <ele>788.48</ele>
        <time>2021-08-01T09:12:45Z</time>
      </trkpt>
      <trkpt lat="42.18144" lon="1.28592">
        <ele>792.12</ele>
        <time>2021-08-01T09:12:53Z</time>
      </trkpt>
      <trkpt lat="42.1816" lon="1.28561">
        <ele>795.17</ele>
        <time>2021-08-01T09:12:59Z</time>
      </trkpt>
      <trkpt lat="42.18174" lon="1.2854">
        <ele>798.21</ele>
        <time>2021-08-01T09:13:06Z</time>
      </trkpt>
      <trkpt lat="42.18179" lon="1.28534">
        <ele>798.95</ele>
        <time>2021-08-01T09:13:08Z</time>
      </trkpt>
      <trkpt lat="42.18207" lon="1.28509">
        <ele>802.4</ele>
        <time>2021-08-01T09:13:19Z</time>
      </trkpt>
      <trkpt lat="42.18234" lon="1.28483">
        <ele>805.45</ele>
        <time>2021-08-01T09:13:31Z</time>
      </trkpt>
      <trkpt lat="42.1824" lon="1.28476">
        <ele>806.2</ele>
        <time>2021-08-01T09:13:33Z</time>
      </trkpt>
      <trkpt lat="42.18268" lon="1.28455">
        <ele>809.88</ele>
        <time>2021-08-01T09:13:43Z</time>
      </trkpt>
      <trkpt lat="42.18294" lon="1.28435">
        <ele>812.89</ele>
        <time>2021-08-01T09:13:52Z</time>
      </trkpt>
      <trkpt lat="42.18329" lon="1.28417">
        <ele>816.17</ele>
        <time>2021-08-01T09:14:01Z</time>
      </trkpt>
      <trkpt lat="42.1835" lon="1.28404">
        <ele>819.34</ele>
        <time>2021-08-01T09:14:07Z</time>
      </trkpt>
      <trkpt lat="42.18372" lon="1.28385">
        <ele>822.35</ele>
        <time>2021-08-01T09:14:13Z</time>
      </trkpt>
      <trkpt lat="42.18396" lon="1.28369">
        <ele>824.88</ele>
        <time>2021-08-01T09:14:18Z</time>
      </trkpt>
      <trkpt lat="42.18428" lon="1.28361">
        <ele>828.67</ele>
        <time>2021-08-01T09:14:24Z</time>
      </trkpt>
      <trkpt lat="42.18432" lon="1.2836">
        <ele>829.34</ele>
        <time>2021-08-01T09:14:25Z</time>
      </trkpt>
      <trkpt lat="42.18448" lon="1.28339">
        <ele>833.46</ele>
        <time>2021-08-01T09:14:31Z</time>
      </trkpt>
      <trkpt lat="42.18447" lon="1.28333">
        <ele>833.99</ele>
        <time>2021-08-01T09:14:32Z</time>
      </trkpt>
      <trkpt lat="42.18462" lon="1.28312">
        <ele>838.1</ele>
        <time>2021-08-01T09:14:39Z</time>
      </trkpt>
      <trkpt lat="42.18467" lon="1.28322">
        <ele>839.31</ele>
        <time>2021-08-01T09:14:41Z</time>
      </trkpt>
      <trkpt lat="42.18477" lon="1.28355">
        <ele>843.39</ele>
        <time>2021-08-01T09:14:48Z</time>
      </trkpt>
      <trkpt lat="42.18493" lon="1.28374">
        <ele>846.14</ele>
        <time>2021-08-01T09:14:54Z</time>
      </trkpt>
      <trkpt lat="42.18497" lon="1.28357">
        <ele>848.03</ele>
        <time>2021-08-01T09:14:58Z</time>
      </trkpt>
      <trkpt lat="42.18488" lon="1.28325">
        <ele>851.58</ele>
        <time>2021-08-01T09:15:05Z</time>
      </trkpt>
      <trkpt lat="42.18486" lon="1.28325">
        <ele>854.7</ele>
        <time>2021-08-01T09:15:14Z</time>
      </trkpt>
      <trkpt lat="42.18486" lon="1.28318">
        <ele>855.98</ele>
        <time>2021-08-01T09:16:13Z</time>
      </trkpt>
      <trkpt lat="42.18483" lon="1.28274">
        <ele>857.78</ele>
        <time>2021-08-01T09:16:21Z</time>
      </trkpt>
      <trkpt lat="42.18499" lon="1.28301">
        <ele>861.15</ele>
        <time>2021-08-01T09:16:26Z</time>
      </trkpt>
      <trkpt lat="42.18523" lon="1.28352">
        <ele>865.06</ele>
        <time>2021-08-01T09:16:33Z</time>
      </trkpt>
      <trkpt lat="42.18546" lon="1.28385">
        <ele>868.14</ele>
        <time>2021-08-01T09:16:39Z</time>
      </trkpt>
      <trkpt lat="42.18569" lon="1.28411">
        <ele>871.37</ele>
        <time>2021-08-01T09:16:45Z</time>
      </trkpt>
      <trkpt lat="42.18602" lon="1.28438">
        <ele>874.81</ele>
        <time>2021-08-01T09:16:51Z</time>
      </trkpt>
      <trkpt lat="42.18617" lon="1.28463">
        <ele>878.09</ele>
        <time>2021-08-01T09:16:57Z</time>
      </trkpt>
      <trkpt lat="42.18648" lon="1.28484">
        <ele>881.66</ele>
        <time>2021-08-01T09:17:03Z</time>
      </trkpt>
      <trkpt lat="42.18682" lon="1.28479">
        <ele>885.42</ele>
        <time>2021-08-01T09:17:08Z</time>
      </trkpt>
      <trkpt lat="42.18702" lon="1.28465">
        <ele>888</ele>
        <time>2021-08-01T09:17:11Z</time>
      </trkpt>
      <trkpt lat="42.18728" lon="1.28453">
        <ele>891.83</ele>
        <time>2021-08-01T09:17:16Z</time>
      </trkpt>
      <trkpt lat="42.18746" lon="1.28425">
        <ele>895.6</ele>
        <time>2021-08-01T09:17:21Z</time>
      </trkpt>
      <trkpt lat="42.18726" lon="1.28409">
        <ele>899.09</ele>
        <time>2021-08-01T09:17:26Z</time>
      </trkpt>
      <trkpt lat="42.1871" lon="1.28396">
        <ele>902.2</ele>
        <time>2021-08-01T09:17:30Z</time>
      </trkpt>
      <trkpt lat="42.18722" lon="1.28383">
        <ele>905.19</ele>
        <time>2021-08-01T09:17:34Z</time>
      </trkpt>
      <trkpt lat="42.18748" lon="1.28368">
        <ele>908.15</ele>
        <time>2021-08-01T09:17:39Z</time>
      </trkpt>
      <trkpt lat="42.18767" lon="1.2835">
        <ele>910</ele>
        <time>2021-08-01T09:17:42Z</time>
      </trkpt>
      <trkpt lat="42.18795" lon="1.28336">
        <ele>913.72</ele>
        <time>2021-08-01T09:17:47Z</time>
      </trkpt>
      <trkpt lat="42.18819" lon="1.28329">
        <ele>917.34</ele>
        <time>2021-08-01T09:17:52Z</time>
      </trkpt>
      <trkpt lat="42.18834" lon="1.28331">
        <ele>919.54</ele>
        <time>2021-08-01T09:17:55Z</time>
      </trkpt>
      <trkpt lat="42.18851" lon="1.28302">
        <ele>923.43</ele>
        <time>2021-08-01T09:18:01Z</time>
      </trkpt>
      <trkpt lat="42.18865" lon="1.28286">
        <ele>927.04</ele>
        <time>2021-08-01T09:18:06Z</time>
      </trkpt>
      <trkpt lat="42.18875" lon="1.28285">
        <ele>928.38</ele>
        <time>2021-08-01T09:18:08Z</time>
      </trkpt>
      <trkpt lat="42.18932" lon="1.28266">
        <ele>932.98</ele>
        <time>2021-08-01T09:18:16Z</time>
      </trkpt>
      <trkpt lat="42.18959" lon="1.28257">
        <ele>936.45</ele>
        <time>2021-08-01T09:18:21Z</time>
      </trkpt>
      <trkpt lat="42.18986" lon="1.28248">
        <ele>939.71</ele>
        <time>2021-08-01T09:18:29Z</time>
      </trkpt>
      <trkpt lat="42.19029" lon="1.28226">
        <ele>942.96</ele>
        <time>2021-08-01T09:18:36Z</time>
      </trkpt>
      <trkpt lat="42.19035" lon="1.28221">
        <ele>943.56</ele>
        <time>2021-08-01T09:18:37Z</time>
      </trkpt>
      <trkpt lat="42.19062" lon="1.28209">
        <ele>945.97</ele>
        <time>2021-08-01T09:18:41Z</time>
      </trkpt>
      <trkpt lat="42.19103" lon="1.28186">
        <ele>949.54</ele>
        <time>2021-08-01T09:18:47Z</time>
      </trkpt>
      <trkpt lat="42.19142" lon="1.28182">
        <ele>953.42</ele>
        <time>2021-08-01T09:18:53Z</time>
      </trkpt>
      <trkpt lat="42.19178" lon="1.2818">
        <ele>956.85</ele>
        <time>2021-08-01T09:18:59Z</time>
      </trkpt>
      <trkpt lat="42.19213" lon="1.28182">
        <ele>960.01</ele>
        <time>2021-08-01T09:19:05Z</time>
      </trkpt>
      <trkpt lat="42.1924" lon="1.28184">
        <ele>962.3</ele>
        <time>2021-08-01T09:19:10Z</time>
      </trkpt>
      <trkpt lat="42.19258" lon="1.28193">
        <ele>964.09</ele>
        <time>2021-08-01T09:19:14Z</time>
      </trkpt>
      <trkpt lat="42.19292" lon="1.28161">
        <ele>967.66</ele>
        <time>2021-08-01T09:19:22Z</time>
      </trkpt>
      <trkpt lat="42.19295" lon="1.28147">
        <ele>968.71</ele>
        <time>2021-08-01T09:19:24Z</time>
      </trkpt>
      <trkpt lat="42.19298" lon="1.28117">
        <ele>970.8</ele>
        <time>2021-08-01T09:19:28Z</time>
      </trkpt>
      <trkpt lat="42.1931" lon="1.28083">
        <ele>973.59</ele>
        <time>2021-08-01T09:19:34Z</time>
      </trkpt>
      <trkpt lat="42.19314" lon="1.28056">
        <ele>975.23</ele>
        <time>2021-08-01T09:19:38Z</time>
      </trkpt>
      <trkpt lat="42.19311" lon="1.27974">
        <ele>978.72</ele>
        <time>2021-08-01T09:19:49Z</time>
      </trkpt>
      <trkpt lat="42.19306" lon="1.27915">
        <ele>981.72</ele>
        <time>2021-08-01T09:19:58Z</time>
      </trkpt>
      <trkpt lat="42.19314" lon="1.27881">
        <ele>985.15</ele>
        <time>2021-08-01T09:20:06Z</time>
      </trkpt>
      <trkpt lat="42.19316" lon="1.27875">
        <ele>986.13</ele>
        <time>2021-08-01T09:20:08Z</time>
      </trkpt>
      <trkpt lat="42.19317" lon="1.27864">
        <ele>986.88</ele>
        <time>2021-08-01T09:20:10Z</time>
      </trkpt>
      <trkpt lat="42.19313" lon="1.27838">
        <ele>988.19</ele>
        <time>2021-08-01T09:20:14Z</time>
      </trkpt>
      <trkpt lat="42.19297" lon="1.27751">
        <ele>989.93</ele>
        <time>2021-08-01T09:20:28Z</time>
      </trkpt>
      <trkpt lat="42.19296" lon="1.27733">
        <ele>990.45</ele>
        <time>2021-08-01T09:20:30Z</time>
      </trkpt>
      <trkpt lat="42.19277" lon="1.27642">
        <ele>992.65</ele>
        <time>2021-08-01T09:20:42Z</time>
      </trkpt>
      <trkpt lat="42.1928" lon="1.27614">
        <ele>993.72</ele>
        <time>2021-08-01T09:20:46Z</time>
      </trkpt>
      <trkpt lat="42.19277" lon="1.27521">
        <ele>996.63</ele>
        <time>2021-08-01T09:20:58Z</time>
      </trkpt>
      <trkpt lat="42.19277" lon="1.27515">
        <ele>996.87</ele>
        <time>2021-08-01T09:20:59Z</time>
      </trkpt>
      <trkpt lat="42.19282" lon="1.2748">
        <ele>997.98</ele>
        <time>2021-08-01T09:21:04Z</time>
      </trkpt>
      <trkpt lat="42.19282" lon="1.27445">
        <ele>999.28</ele>
        <time>2021-08-01T09:21:09Z</time>
      </trkpt>
      <trkpt lat="42.19275" lon="1.27392">
        <ele>1001.34</ele>
        <time>2021-08-01T09:21:16Z</time>
      </trkpt>
      <trkpt lat="42.19266" lon="1.2737">
        <ele>1002.09</ele>
        <time>2021-08-01T09:21:19Z</time>
      </trkpt>
      <trkpt lat="42.19261" lon="1.2729">
        <ele>1004.29</ele>
        <time>2021-08-01T09:21:28Z</time>
      </trkpt>
      <trkpt lat="42.19266" lon="1.27234">
        <ele>1005.77</ele>
        <time>2021-08-01T09:21:34Z</time>
      </trkpt>
      <trkpt lat="42.19284" lon="1.27169">
        <ele>1008.88</ele>
        <time>2021-08-01T09:21:47Z</time>
      </trkpt>
      <trkpt lat="42.19274" lon="1.27125">
        <ele>1010.59</ele>
        <time>2021-08-01T09:21:57Z</time>
      </trkpt>
      <trkpt lat="42.19269" lon="1.27112">
        <ele>1010.72</ele>
        <time>2021-08-01T09:21:59Z</time>
      </trkpt>
      <trkpt lat="42.19266" lon="1.27074">
        <ele>1010.33</ele>
        <time>2021-08-01T09:22:04Z</time>
      </trkpt>
      <trkpt lat="42.19266" lon="1.2699">
        <ele>1007.13</ele>
        <time>2021-08-01T09:22:13Z</time>
      </trkpt>
      <trkpt lat="42.1927" lon="1.26945">
        <ele>1004.82</ele>
        <time>2021-08-01T09:22:18Z</time>
      </trkpt>
      <trkpt lat="42.1926" lon="1.26895">
        <ele>1000.94</ele>
        <time>2021-08-01T09:22:24Z</time>
      </trkpt>
      <trkpt lat="42.1925" lon="1.26867">
        <ele>998.51</ele>
        <time>2021-08-01T09:22:28Z</time>
      </trkpt>
      <trkpt lat="42.19253" lon="1.26823">
        <ele>996.05</ele>
        <time>2021-08-01T09:22:33Z</time>
      </trkpt>
      <trkpt lat="42.19279" lon="1.26767">
        <ele>992.78</ele>
        <time>2021-08-01T09:22:44Z</time>
      </trkpt>
      <trkpt lat="42.19284" lon="1.26761">
        <ele>992.54</ele>
        <time>2021-08-01T09:22:46Z</time>
      </trkpt>
      <trkpt lat="42.1929" lon="1.26734">
        <ele>991.66</ele>
        <time>2021-08-01T09:22:51Z</time>
      </trkpt>
      <trkpt lat="42.1929" lon="1.26654">
        <ele>988.31</ele>
        <time>2021-08-01T09:23:03Z</time>
      </trkpt>
      <trkpt lat="42.19292" lon="1.26587">
        <ele>985.13</ele>
        <time>2021-08-01T09:23:12Z</time>
      </trkpt>
      <trkpt lat="42.193" lon="1.26521">
        <ele>981.92</ele>
        <time>2021-08-01T09:23:21Z</time>
      </trkpt>
      <trkpt lat="42.19307" lon="1.26465">
        <ele>978.52</ele>
        <time>2021-08-01T09:23:28Z</time>
      </trkpt>
      <trkpt lat="42.19314" lon="1.26406">
        <ele>975.18</ele>
        <time>2021-08-01T09:23:35Z</time>
      </trkpt>
      <trkpt lat="42.19327" lon="1.26343">
        <ele>971.4</ele>
        <time>2021-08-01T09:23:42Z</time>
      </trkpt>
      <trkpt lat="42.19332" lon="1.26326">
        <ele>970.48</ele>
        <time>2021-08-01T09:23:44Z</time>
      </trkpt>
      <trkpt lat="42.19332" lon="1.26249">
        <ele>967.87</ele>
        <time>2021-08-01T09:23:54Z</time>
      </trkpt>
      <trkpt lat="42.19333" lon="1.26242">
        <ele>967.77</ele>
        <time>2021-08-01T09:23:55Z</time>
      </trkpt>
      <trkpt lat="42.19347" lon="1.26208">
        <ele>967.39</ele>
        <time>2021-08-01T09:24:00Z</time>
      </trkpt>
      <trkpt lat="42.19391" lon="1.26147">
        <ele>965.5</ele>
        <time>2021-08-01T09:24:10Z</time>
      </trkpt>
      <trkpt lat="42.19398" lon="1.26068">
        <ele>962.47</ele>
        <time>2021-08-01T09:24:19Z</time>
      </trkpt>
      <trkpt lat="42.19391" lon="1.26052">
        <ele>961.97</ele>
        <time>2021-08-01T09:24:21Z</time>
      </trkpt>
      <trkpt lat="42.1938" lon="1.26026">
        <ele>961.07</ele>
        <time>2021-08-01T09:24:25Z</time>
      </trkpt>
      <trkpt lat="42.19377" lon="1.25995">
        <ele>961.02</ele>
        <time>2021-08-01T09:24:29Z</time>
      </trkpt>
      <trkpt lat="42.1937" lon="1.25949">
        <ele>962.05</ele>
        <time>2021-08-01T09:24:35Z</time>
      </trkpt>
      <trkpt lat="42.19368" lon="1.25923">
        <ele>962.67</ele>
        <time>2021-08-01T09:24:38Z</time>
      </trkpt>
      <trkpt lat="42.19352" lon="1.25859">
        <ele>965.75</ele>
        <time>2021-08-01T09:24:48Z</time>
      </trkpt>
      <trkpt lat="42.19336" lon="1.25801">
        <ele>968.67</ele>
        <time>2021-08-01T09:25:00Z</time>
      </trkpt>
      <trkpt lat="42.19331" lon="1.25766">
        <ele>970.92</ele>
        <time>2021-08-01T09:25:06Z</time>
      </trkpt>
      <trkpt lat="42.19322" lon="1.25746">
        <ele>972.64</ele>
        <time>2021-08-01T09:25:10Z</time>
      </trkpt>
      <trkpt lat="42.19312" lon="1.25719">
        <ele>974.38</ele>
        <time>2021-08-01T09:25:15Z</time>
      </trkpt>
      <trkpt lat="42.19313" lon="1.25657">
        <ele>977.68</ele>
        <time>2021-08-01T09:25:24Z</time>
      </trkpt>
      <trkpt lat="42.1931" lon="1.25622">
        <ele>979.45</ele>
        <time>2021-08-01T09:25:30Z</time>
      </trkpt>
      <trkpt lat="42.1932" lon="1.2559">
        <ele>980.76</ele>
        <time>2021-08-01T09:25:36Z</time>
      </trkpt>
      <trkpt lat="42.19333" lon="1.25535">
        <ele>984.02</ele>
        <time>2021-08-01T09:25:47Z</time>
      </trkpt>
      <trkpt lat="42.19332" lon="1.25509">
        <ele>985.23</ele>
        <time>2021-08-01T09:25:51Z</time>
      </trkpt>
      <trkpt lat="42.19323" lon="1.25483">
        <ele>986.59</ele>
        <time>2021-08-01T09:25:56Z</time>
      </trkpt>
      <trkpt lat="42.19328" lon="1.25448">
        <ele>988.98</ele>
        <time>2021-08-01T09:26:04Z</time>
      </trkpt>
      <trkpt lat="42.1934" lon="1.25443">
        <ele>992.29</ele>
        <time>2021-08-01T09:26:16Z</time>
      </trkpt>
      <trkpt lat="42.19362" lon="1.25434">
        <ele>995.01</ele>
        <time>2021-08-01T09:28:26Z</time>
      </trkpt>
      <trkpt lat="42.19389" lon="1.25422">
        <ele>998.16</ele>
        <time>2021-08-01T09:28:38Z</time>
      </trkpt>
      <trkpt lat="42.19428" lon="1.25408">
        <ele>1001.12</ele>
        <time>2021-08-01T09:28:49Z</time>
      </trkpt>
      <trkpt lat="42.19442" lon="1.25407">
        <ele>1001.98</ele>
        <time>2021-08-01T09:28:52Z</time>
      </trkpt>
      <trkpt lat="42.19464" lon="1.25396">
        <ele>1003.12</ele>
        <time>2021-08-01T09:28:57Z</time>
      </trkpt>
      <trkpt lat="42.19474" lon="1.25387">
        <ele>1003.81</ele>
        <time>2021-08-01T09:28:59Z</time>
      </trkpt>
      <trkpt lat="42.1949" lon="1.2538">
        <ele>1004.68</ele>
        <time>2021-08-01T09:29:02Z</time>
      </trkpt>
      <trkpt lat="42.19504" lon="1.25369">
        <ele>1005.42</ele>
        <time>2021-08-01T09:29:05Z</time>
      </trkpt>
      <trkpt lat="42.19521" lon="1.2536">
        <ele>1006.63</ele>
        <time>2021-08-01T09:29:09Z</time>
      </trkpt>
      <trkpt lat="42.19554" lon="1.25344">
        <ele>1010.08</ele>
        <time>2021-08-01T09:29:17Z</time>
      </trkpt>
      <trkpt lat="42.19572" lon="1.25338">
        <ele>1012.99</ele>
        <time>2021-08-01T09:29:24Z</time>
      </trkpt>
      <trkpt lat="42.19572" lon="1.25365">
        <ele>1015.35</ele>
        <time>2021-08-01T09:29:29Z</time>
      </trkpt>
      <trkpt lat="42.19553" lon="1.25391">
        <ele>1019.31</ele>
        <time>2021-08-01T09:29:36Z</time>
      </trkpt>
      <trkpt lat="42.19549" lon="1.25395">
        <ele>1022.16</ele>
        <time>2021-08-01T09:29:50Z</time>
      </trkpt>
      <trkpt lat="42.19532" lon="1.25414">
        <ele>1023.83</ele>
        <time>2021-08-01T09:30:24Z</time>
      </trkpt>
      <trkpt lat="42.19512" lon="1.25455">
        <ele>1026.84</ele>
        <time>2021-08-01T09:30:37Z</time>
      </trkpt>
      <trkpt lat="42.19513" lon="1.25457">
        <ele>1027.04</ele>
        <time>2021-08-01T09:30:38Z</time>
      </trkpt>
      <trkpt lat="42.19535" lon="1.25439">
        <ele>1029.35</ele>
        <time>2021-08-01T09:30:46Z</time>
      </trkpt>
      <trkpt lat="42.19554" lon="1.25434">
        <ele>1030.31</ele>
        <time>2021-08-01T09:30:49Z</time>
      </trkpt>
      <trkpt lat="42.19575" lon="1.2543">
        <ele>1031.56</ele>
        <time>2021-08-01T09:30:52Z</time>
      </trkpt>
      <trkpt lat="42.19609" lon="1.25413">
        <ele>1035.44</ele>
        <time>2021-08-01T09:30:59Z</time>
      </trkpt>
      <trkpt lat="42.19633" lon="1.254">
        <ele>1039.74</ele>
        <time>2021-08-01T09:31:07Z</time>
      </trkpt>
      <trkpt lat="42.19631" lon="1.25401">
        <ele>1042.77</ele>
        <time>2021-08-01T09:31:26Z</time>
      </trkpt>
      <trkpt lat="42.19654" lon="1.25386">
        <ele>1043.64</ele>
        <time>2021-08-01T09:31:51Z</time>
      </trkpt>
      <trkpt lat="42.19686" lon="1.25376">
        <ele>1046.66</ele>
        <time>2021-08-01T09:32:00Z</time>
      </trkpt>
      <trkpt lat="42.19716" lon="1.25381">
        <ele>1049.84</ele>
        <time>2021-08-01T09:32:09Z</time>
      </trkpt>
      <trkpt lat="42.19731" lon="1.25379">
        <ele>1051.08</ele>
        <time>2021-08-01T09:32:13Z</time>
      </trkpt>
      <trkpt lat="42.19759" lon="1.25353">
        <ele>1054.36</ele>
        <time>2021-08-01T09:32:22Z</time>
      </trkpt>
      <trkpt lat="42.19783" lon="1.25343">
        <ele>1057.46</ele>
        <time>2021-08-01T09:32:29Z</time>
      </trkpt>
      <trkpt lat="42.19818" lon="1.25322">
        <ele>1060.7</ele>
        <time>2021-08-01T09:32:38Z</time>
      </trkpt>
      <trkpt lat="42.19822" lon="1.25319">
        <ele>1060.99</ele>
        <time>2021-08-01T09:32:39Z</time>
      </trkpt>
      <trkpt lat="42.19838" lon="1.25312">
        <ele>1061.57</ele>
        <time>2021-08-01T09:32:42Z</time>
      </trkpt>
      <trkpt lat="42.19858" lon="1.25291">
        <ele>1061.87</ele>
        <time>2021-08-01T09:32:46Z</time>
      </trkpt>
      <trkpt lat="42.19869" lon="1.25279">
        <ele>1061.89</ele>
        <time>2021-08-01T09:32:49Z</time>
      </trkpt>
      <trkpt lat="42.19907" lon="1.25257">
        <ele>1062.61</ele>
        <time>2021-08-01T09:33:00Z</time>
      </trkpt>
      <trkpt lat="42.19927" lon="1.25247">
        <ele>1063.17</ele>
        <time>2021-08-01T09:33:06Z</time>
      </trkpt>
      <trkpt lat="42.19933" lon="1.25246">
        <ele>1063.21</ele>
        <time>2021-08-01T09:33:07Z</time>
      </trkpt>
      <trkpt lat="42.19956" lon="1.25256">
        <ele>1063.64</ele>
        <time>2021-08-01T09:33:11Z</time>
      </trkpt>
      <trkpt lat="42.19978" lon="1.25267">
        <ele>1066.31</ele>
        <time>2021-08-01T09:33:21Z</time>
      </trkpt>
      <trkpt lat="42.20003" lon="1.25248">
        <ele>1069.51</ele>
        <time>2021-08-01T09:33:31Z</time>
      </trkpt>
      <trkpt lat="42.20037" lon="1.25253">
        <ele>1072.54</ele>
        <time>2021-08-01T09:33:39Z</time>
      </trkpt>
      <trkpt lat="42.20059" lon="1.25253">
        <ele>1074.27</ele>
        <time>2021-08-01T09:33:43Z</time>
      </trkpt>
      <trkpt lat="42.20081" lon="1.25257">
        <ele>1075.7</ele>
        <time>2021-08-01T09:33:46Z</time>
      </trkpt>
      <trkpt lat="42.20096" lon="1.25258">
        <ele>1076.96</ele>
        <time>2021-08-01T09:33:48Z</time>
      </trkpt>
      <trkpt lat="42.20109" lon="1.2526">
        <ele>1078.43</ele>
        <time>2021-08-01T09:33:50Z</time>
      </trkpt>
      <trkpt lat="42.20115" lon="1.25263">
        <ele>1079.14</ele>
        <time>2021-08-01T09:33:51Z</time>
      </trkpt>
      <trkpt lat="42.20139" lon="1.25278">
        <ele>1082.55</ele>
        <time>2021-08-01T09:33:56Z</time>
      </trkpt>
      <trkpt lat="42.2016" lon="1.25293">
        <ele>1085.17</ele>
        <time>2021-08-01T09:34:00Z</time>
      </trkpt>
      <trkpt lat="42.2018" lon="1.2531">
        <ele>1088.11</ele>
        <time>2021-08-01T09:34:04Z</time>
      </trkpt>
      <trkpt lat="42.20186" lon="1.25313">
        <ele>1088.71</ele>
        <time>2021-08-01T09:34:05Z</time>
      </trkpt>
      <trkpt lat="42.20191" lon="1.25315">
        <ele>1089.29</ele>
        <time>2021-08-01T09:34:06Z</time>
      </trkpt>
      <trkpt lat="42.20196" lon="1.25316">
        <ele>1089.85</ele>
        <time>2021-08-01T09:34:07Z</time>
      </trkpt>
      <trkpt lat="42.202" lon="1.25317">
        <ele>1090.35</ele>
        <time>2021-08-01T09:34:08Z</time>
      </trkpt>
      <trkpt lat="42.20204" lon="1.25318">
        <ele>1090.89</ele>
        <time>2021-08-01T09:34:09Z</time>
      </trkpt>
      <trkpt lat="42.20225" lon="1.25326">
        <ele>1094.36</ele>
        <time>2021-08-01T09:34:16Z</time>
      </trkpt>
      <trkpt lat="42.20258" lon="1.25337">
        <ele>1097.44</ele>
        <time>2021-08-01T09:34:23Z</time>
      </trkpt>
      <trkpt lat="42.20277" lon="1.25339">
        <ele>1098.91</ele>
        <time>2021-08-01T09:34:26Z</time>
      </trkpt>
      <trkpt lat="42.20318" lon="1.25325">
        <ele>1102.91</ele>
        <time>2021-08-01T09:34:33Z</time>
      </trkpt>
      <trkpt lat="42.20347" lon="1.25319">
        <ele>1106.24</ele>
        <time>2021-08-01T09:34:38Z</time>
      </trkpt>
      <trkpt lat="42.20377" lon="1.25319">
        <ele>1109.56</ele>
        <time>2021-08-01T09:34:44Z</time>
      </trkpt>
      <trkpt lat="42.20393" lon="1.25329">
        <ele>1111.86</ele>
        <time>2021-08-01T09:34:48Z</time>
      </trkpt>
      <trkpt lat="42.20414" lon="1.25334">
        <ele>1114.36</ele>
        <time>2021-08-01T09:34:53Z</time>
      </trkpt>
      <trkpt lat="42.20449" lon="1.25335">
        <ele>1118.51</ele>
        <time>2021-08-01T09:35:00Z</time>
      </trkpt>
      <trkpt lat="42.20475" lon="1.25341">
        <ele>1121.72</ele>
        <time>2021-08-01T09:35:06Z</time>
      </trkpt>
      <trkpt lat="42.20496" lon="1.25343">
        <ele>1124.25</ele>
        <time>2021-08-01T09:35:11Z</time>
      </trkpt>
      <trkpt lat="42.2053" lon="1.25359">
        <ele>1127.94</ele>
        <time>2021-08-01T09:35:18Z</time>
      </trkpt>
      <trkpt lat="42.20552" lon="1.25363">
        <ele>1130.97</ele>
        <time>2021-08-01T09:35:24Z</time>
      </trkpt>
      <trkpt lat="42.20572" lon="1.25361">
        <ele>1133.92</ele>
        <time>2021-08-01T09:35:33Z</time>
      </trkpt>
      <trkpt lat="42.20575" lon="1.25394">
        <ele>1135.55</ele>
        <time>2021-08-01T09:35:39Z</time>
      </trkpt>
      <trkpt lat="42.20556" lon="1.2547">
        <ele>1139.13</ele>
        <time>2021-08-01T09:35:48Z</time>
      </trkpt>
      <trkpt lat="42.20549" lon="1.2551">
        <ele>1142.6</ele>
        <time>2021-08-01T09:35:54Z</time>
      </trkpt>
      <trkpt lat="42.20543" lon="1.25546">
        <ele>1146.19</ele>
        <time>2021-08-01T09:36:00Z</time>
      </trkpt>
      <trkpt lat="42.20543" lon="1.25575">
        <ele>1149.27</ele>
        <time>2021-08-01T09:36:06Z</time>
      </trkpt>
      <trkpt lat="42.20546" lon="1.25629">
        <ele>1152.35</ele>
        <time>2021-08-01T09:36:13Z</time>
      </trkpt>
      <trkpt lat="42.20542" lon="1.25671">
        <ele>1155.64</ele>
        <time>2021-08-01T09:36:18Z</time>
      </trkpt>
      <trkpt lat="42.20536" lon="1.25712">
        <ele>1158.89</ele>
        <time>2021-08-01T09:36:23Z</time>
      </trkpt>
      <trkpt lat="42.20533" lon="1.25741">
        <ele>1161.98</ele>
        <time>2021-08-01T09:36:28Z</time>
      </trkpt>
      <trkpt lat="42.20532" lon="1.25753">
        <ele>1165.06</ele>
        <time>2021-08-01T09:36:34Z</time>
      </trkpt>
      <trkpt lat="42.20532" lon="1.25754">
        <ele>1165.83</ele>
        <time>2021-08-01T09:36:36Z</time>
      </trkpt>
      <trkpt lat="42.20549" lon="1.25758">
        <ele>1168.63</ele>
        <time>2021-08-01T09:36:45Z</time>
      </trkpt>
      <trkpt lat="42.20548" lon="1.25757">
        <ele>1170.59</ele>
        <time>2021-08-01T09:36:56Z</time>
      </trkpt>
      <trkpt lat="42.20549" lon="1.25755">
        <ele>1171.57</ele>
        <time>2021-08-01T09:37:39Z</time>
      </trkpt>
      <trkpt lat="42.20547" lon="1.25738">
        <ele>1172.56</ele>
        <time>2021-08-01T09:37:57Z</time>
      </trkpt>
      <trkpt lat="42.20551" lon="1.25708">
        <ele>1173.55</ele>
        <time>2021-08-01T09:38:15Z</time>
      </trkpt>
      <trkpt lat="42.20563" lon="1.2568">
        <ele>1175.81</ele>
        <time>2021-08-01T09:38:27Z</time>
      </trkpt>
      <trkpt lat="42.20574" lon="1.25645">
        <ele>1177.37</ele>
        <time>2021-08-01T09:38:55Z</time>
      </trkpt>
      <trkpt lat="42.20585" lon="1.256">
        <ele>1180.58</ele>
        <time>2021-08-01T09:39:03Z</time>
      </trkpt>
      <trkpt lat="42.20594" lon="1.25572">
        <ele>1183.83</ele>
        <time>2021-08-01T09:39:11Z</time>
      </trkpt>
      <trkpt lat="42.20597" lon="1.25548">
        <ele>1185.37</ele>
        <time>2021-08-01T09:39:16Z</time>
      </trkpt>
      <trkpt lat="42.20615" lon="1.25506">
        <ele>1188.87</ele>
        <time>2021-08-01T09:39:25Z</time>
      </trkpt>
      <trkpt lat="42.20631" lon="1.25471">
        <ele>1192.08</ele>
        <time>2021-08-01T09:39:33Z</time>
      </trkpt>
      <trkpt lat="42.20646" lon="1.25434">
        <ele>1195.34</ele>
        <time>2021-08-01T09:39:41Z</time>
      </trkpt>
      <trkpt lat="42.20652" lon="1.25396">
        <ele>1198.78</ele>
        <time>2021-08-01T09:39:49Z</time>
      </trkpt>
      <trkpt lat="42.20652" lon="1.25358">
        <ele>1202.67</ele>
        <time>2021-08-01T09:39:57Z</time>
      </trkpt>
      <trkpt lat="42.20654" lon="1.25316">
        <ele>1205.91</ele>
        <time>2021-08-01T09:40:05Z</time>
      </trkpt>
      <trkpt lat="42.20654" lon="1.25289">
        <ele>1208.95</ele>
        <time>2021-08-01T09:40:14Z</time>
      </trkpt>
      <trkpt lat="42.20654" lon="1.25274">
        <ele>1211.97</ele>
        <time>2021-08-01T09:40:54Z</time>
      </trkpt>
      <trkpt lat="42.2067" lon="1.25217">
        <ele>1214.1</ele>
        <time>2021-08-01T09:41:07Z</time>
      </trkpt>
      <trkpt lat="42.20675" lon="1.25194">
        <ele>1216.51</ele>
        <time>2021-08-01T09:41:19Z</time>
      </trkpt>
      <trkpt lat="42.20669" lon="1.2518">
        <ele>1217.23</ele>
        <time>2021-08-01T09:41:26Z</time>
      </trkpt>
      <trkpt lat="42.20656" lon="1.25169">
        <ele>1218.78</ele>
        <time>2021-08-01T09:41:36Z</time>
      </trkpt>
      <trkpt lat="42.20656" lon="1.25167">
        <ele>1219.96</ele>
        <time>2021-08-01T09:41:54Z</time>
      </trkpt>
      <trkpt lat="42.20654" lon="1.25168">
        <ele>1220.3</ele>
        <time>2021-08-01T09:42:24Z</time>
      </trkpt>
      <trkpt lat="42.2063" lon="1.2519">
        <ele>1221.1</ele>
        <time>2021-08-01T09:42:46Z</time>
      </trkpt>
      <trkpt lat="42.20598" lon="1.25215">
        <ele>1221.4</ele>
        <time>2021-08-01T09:42:53Z</time>
      </trkpt>
      <trkpt lat="42.20568" lon="1.25228">
        <ele>1221.97</ele>
        <time>2021-08-01T09:42:59Z</time>
      </trkpt>
      <trkpt lat="42.20557" lon="1.2521">
        <ele>1223.16</ele>
        <time>2021-08-01T09:43:05Z</time>
      </trkpt>
      <trkpt lat="42.20568" lon="1.25207">
        <ele>1223.53</ele>
        <time>2021-08-01T09:43:07Z</time>
      </trkpt>
      <trkpt lat="42.2059" lon="1.25194">
        <ele>1227.51</ele>
        <time>2021-08-01T09:43:17Z</time>
      </trkpt>
      <trkpt lat="42.20611" lon="1.25168">
        <ele>1229.5</ele>
        <time>2021-08-01T09:43:26Z</time>
      </trkpt>
      <trkpt lat="42.20632" lon="1.25138">
        <ele>1232.66</ele>
        <time>2021-08-01T09:43:36Z</time>
      </trkpt>
      <trkpt lat="42.20648" lon="1.2511">
        <ele>1235.9</ele>
        <time>2021-08-01T09:43:46Z</time>
      </trkpt>
      <trkpt lat="42.20654" lon="1.25105">
        <ele>1237.63</ele>
        <time>2021-08-01T09:43:52Z</time>
      </trkpt>
      <trkpt lat="42.20668" lon="1.25118">
        <ele>1239.03</ele>
        <time>2021-08-01T09:44:00Z</time>
      </trkpt>
      <trkpt lat="42.20698" lon="1.25141">
        <ele>1242.41</ele>
        <time>2021-08-01T09:44:13Z</time>
      </trkpt>
      <trkpt lat="42.20708" lon="1.25145">
        <ele>1243.49</ele>
        <time>2021-08-01T09:44:16Z</time>
      </trkpt>
      <trkpt lat="42.20719" lon="1.25127">
        <ele>1245.94</ele>
        <time>2021-08-01T09:44:22Z</time>
      </trkpt>
      <trkpt lat="42.20735" lon="1.2509">
        <ele>1249.57</ele>
        <time>2021-08-01T09:44:32Z</time>
      </trkpt>
      <trkpt lat="42.20738" lon="1.25054">
        <ele>1252.68</ele>
        <time>2021-08-01T09:44:40Z</time>
      </trkpt>
      <trkpt lat="42.2074" lon="1.25007">
        <ele>1255.96</ele>
        <time>2021-08-01T09:44:48Z</time>
      </trkpt>
      <trkpt lat="42.20743" lon="1.24973">
        <ele>1258.21</ele>
        <time>2021-08-01T09:44:53Z</time>
      </trkpt>
      <trkpt lat="42.20743" lon="1.2495">
        <ele>1261.25</ele>
        <time>2021-08-01T09:44:58Z</time>
      </trkpt>
      <trkpt lat="42.20741" lon="1.24921">
        <ele>1264.32</ele>
        <time>2021-08-01T09:45:06Z</time>
      </trkpt>
      <trkpt lat="42.20738" lon="1.24889">
        <ele>1267.49</ele>
        <time>2021-08-01T09:45:17Z</time>
      </trkpt>
      <trkpt lat="42.20736" lon="1.24843">
        <ele>1270.67</ele>
        <time>2021-08-01T09:45:28Z</time>
      </trkpt>
      <trkpt lat="42.20741" lon="1.24803">
        <ele>1273.86</ele>
        <time>2021-08-01T09:45:39Z</time>
      </trkpt>
      <trkpt lat="42.20762" lon="1.24787">
        <ele>1275.9</ele>
        <time>2021-08-01T09:45:48Z</time>
      </trkpt>
      <trkpt lat="42.20765" lon="1.2479">
        <ele>1276.06</ele>
        <time>2021-08-01T09:45:49Z</time>
      </trkpt>
      <trkpt lat="42.20776" lon="1.2485">
        <ele>1279.34</ele>
        <time>2021-08-01T09:46:02Z</time>
      </trkpt>
      <trkpt lat="42.20786" lon="1.24912">
        <ele>1282.49</ele>
        <time>2021-08-01T09:46:14Z</time>
      </trkpt>
      <trkpt lat="42.208" lon="1.24953">
        <ele>1285.63</ele>
        <time>2021-08-01T09:46:25Z</time>
      </trkpt>
      <trkpt lat="42.20817" lon="1.24996">
        <ele>1288.68</ele>
        <time>2021-08-01T09:46:35Z</time>
      </trkpt>
      <trkpt lat="42.20836" lon="1.25023">
        <ele>1290.99</ele>
        <time>2021-08-01T09:46:42Z</time>
      </trkpt>
      <trkpt lat="42.20871" lon="1.25055">
        <ele>1294.52</ele>
        <time>2021-08-01T09:46:51Z</time>
      </trkpt>
      <trkpt lat="42.20878" lon="1.25056">
        <ele>1295.2</ele>
        <time>2021-08-01T09:46:53Z</time>
      </trkpt>
      <trkpt lat="42.20884" lon="1.25027">
        <ele>1297.19</ele>
        <time>2021-08-01T09:46:59Z</time>
      </trkpt>
      <trkpt lat="42.20883" lon="1.24999">
        <ele>1298.5</ele>
        <time>2021-08-01T09:47:03Z</time>
      </trkpt>
      <trkpt lat="42.20857" lon="1.24979">
        <ele>1300.85</ele>
        <time>2021-08-01T09:47:10Z</time>
      </trkpt>
      <trkpt lat="42.2084" lon="1.24956">
        <ele>1302.91</ele>
        <time>2021-08-01T09:47:16Z</time>
      </trkpt>
      <trkpt lat="42.20838" lon="1.24889">
        <ele>1306.97</ele>
        <time>2021-08-01T09:47:28Z</time>
      </trkpt>
      <trkpt lat="42.20846" lon="1.2484">
        <ele>1310.29</ele>
        <time>2021-08-01T09:47:36Z</time>
      </trkpt>
      <trkpt lat="42.2085" lon="1.24805">
        <ele>1313.68</ele>
        <time>2021-08-01T09:47:43Z</time>
      </trkpt>
      <trkpt lat="42.20849" lon="1.24799">
        <ele>1316.55</ele>
        <time>2021-08-01T09:47:59Z</time>
      </trkpt>
      <trkpt lat="42.20846" lon="1.24766">
        <ele>1317.67</ele>
        <time>2021-08-01T09:48:07Z</time>
      </trkpt>
      <trkpt lat="42.20856" lon="1.24717">
        <ele>1320.88</ele>
        <time>2021-08-01T09:48:18Z</time>
      </trkpt>
      <trkpt lat="42.20863" lon="1.2467">
        <ele>1323.92</ele>
        <time>2021-08-01T09:48:28Z</time>
      </trkpt>
      <trkpt lat="42.20862" lon="1.24649">
        <ele>1324.89</ele>
        <time>2021-08-01T09:48:31Z</time>
      </trkpt>
      <trkpt lat="42.20854" lon="1.24626">
        <ele>1326.23</ele>
        <time>2021-08-01T09:48:34Z</time>
      </trkpt>
      <trkpt lat="42.20829" lon="1.24576">
        <ele>1329.69</ele>
        <time>2021-08-01T09:48:42Z</time>
      </trkpt>
      <trkpt lat="42.20802" lon="1.24491">
        <ele>1332.67</ele>
        <time>2021-08-01T09:48:55Z</time>
      </trkpt>
      <trkpt lat="42.20786" lon="1.24423">
        <ele>1335.95</ele>
        <time>2021-08-01T09:49:07Z</time>
      </trkpt>
      <trkpt lat="42.20785" lon="1.2437">
        <ele>1339.47</ele>
        <time>2021-08-01T09:49:13Z</time>
      </trkpt>
      <trkpt lat="42.20774" lon="1.24326">
        <ele>1342.76</ele>
        <time>2021-08-01T09:49:18Z</time>
      </trkpt>
      <trkpt lat="42.20772" lon="1.2431">
        <ele>1344.24</ele>
        <time>2021-08-01T09:49:20Z</time>
      </trkpt>
      <trkpt lat="42.20774" lon="1.24269">
        <ele>1348.35</ele>
        <time>2021-08-01T09:49:26Z</time>
      </trkpt>
      <trkpt lat="42.20775" lon="1.24262">
        <ele>1348.96</ele>
        <time>2021-08-01T09:49:27Z</time>
      </trkpt>
      <trkpt lat="42.20784" lon="1.24234">
        <ele>1351.34</ele>
        <time>2021-08-01T09:49:31Z</time>
      </trkpt>
      <trkpt lat="42.20782" lon="1.24194">
        <ele>1355.13</ele>
        <time>2021-08-01T09:49:38Z</time>
      </trkpt>
      <trkpt lat="42.20765" lon="1.24141">
        <ele>1358.95</ele>
        <time>2021-08-01T09:49:45Z</time>
      </trkpt>
      <trkpt lat="42.20755" lon="1.24104">
        <ele>1362.03</ele>
        <time>2021-08-01T09:49:50Z</time>
      </trkpt>
      <trkpt lat="42.20752" lon="1.24072">
        <ele>1365.11</ele>
        <time>2021-08-01T09:49:54Z</time>
      </trkpt>
      <trkpt lat="42.2074" lon="1.24018">
        <ele>1369.31</ele>
        <time>2021-08-01T09:50:01Z</time>
      </trkpt>
      <trkpt lat="42.20741" lon="1.23962">
        <ele>1373.3</ele>
        <time>2021-08-01T09:50:07Z</time>
      </trkpt>
      <trkpt lat="42.20738" lon="1.23924">
        <ele>1376.32</ele>
        <time>2021-08-01T09:50:12Z</time>
      </trkpt>
      <trkpt lat="42.20727" lon="1.23881">
        <ele>1379.82</ele>
        <time>2021-08-01T09:50:18Z</time>
      </trkpt>
      <trkpt lat="42.20712" lon="1.2384">
        <ele>1383.06</ele>
        <time>2021-08-01T09:50:23Z</time>
      </trkpt>
      <trkpt lat="42.20697" lon="1.23802">
        <ele>1386.41</ele>
        <time>2021-08-01T09:50:28Z</time>
      </trkpt>
      <trkpt lat="42.20688" lon="1.23773">
        <ele>1389.48</ele>
        <time>2021-08-01T09:50:33Z</time>
      </trkpt>
      <trkpt lat="42.20671" lon="1.23731">
        <ele>1392.81</ele>
        <time>2021-08-01T09:50:38Z</time>
      </trkpt>
      <trkpt lat="42.2066" lon="1.23698">
        <ele>1396.03</ele>
        <time>2021-08-01T09:50:42Z</time>
      </trkpt>
      <trkpt lat="42.20658" lon="1.23679">
        <ele>1397.53</ele>
        <time>2021-08-01T09:50:44Z</time>
      </trkpt>
      <trkpt lat="42.20639" lon="1.23639">
        <ele>1400.77</ele>
        <time>2021-08-01T09:50:49Z</time>
      </trkpt>
      <trkpt lat="42.20633" lon="1.23626">
        <ele>1402.35</ele>
        <time>2021-08-01T09:50:51Z</time>
      </trkpt>
      <trkpt lat="42.2063" lon="1.23604">
        <ele>1405.12</ele>
        <time>2021-08-01T09:50:55Z</time>
      </trkpt>
      <trkpt lat="42.20627" lon="1.23601">
        <ele>1408.82</ele>
        <time>2021-08-01T09:51:05Z</time>
      </trkpt>
      <trkpt lat="42.20627" lon="1.23601">
        <ele>1410.57</ele>
        <time>2021-08-01T09:51:39Z</time>
      </trkpt>
      <trkpt lat="42.20637" lon="1.23577">
        <ele>1409.58</ele>
        <time>2021-08-01T10:12:57Z</time>
      </trkpt>
      <trkpt lat="42.20637" lon="1.23577">
        <ele>1409.58</ele>
        <time>2021-08-01T10:12:58Z</time>
      </trkpt>
      <trkpt lat="42.20645" lon="1.2358">
        <ele>1409.58</ele>
        <time>2021-08-01T10:13:29Z</time>
      </trkpt>
      <trkpt lat="42.20635" lon="1.23589">
        <ele>1411.59</ele>
        <time>2021-08-01T10:46:03Z</time>
      </trkpt>
      <trkpt lat="42.20632" lon="1.23588">
        <ele>1409.94</ele>
        <time>2021-08-01T10:46:09Z</time>
      </trkpt>
      <trkpt lat="42.20631" lon="1.23587">
        <ele>1409.79</ele>
        <time>2021-08-01T10:46:10Z</time>
      </trkpt>
      <trkpt lat="42.20624" lon="1.23553">
        <ele>1411.13</ele>
        <time>2021-08-01T10:46:19Z</time>
      </trkpt>
      <trkpt lat="42.20617" lon="1.23499">
        <ele>1414.41</ele>
        <time>2021-08-01T10:46:29Z</time>
      </trkpt>
      <trkpt lat="42.20616" lon="1.23492">
        <ele>1414.85</ele>
        <time>2021-08-01T10:46:30Z</time>
      </trkpt>
      <trkpt lat="42.20612" lon="1.23451">
        <ele>1418.52</ele>
        <time>2021-08-01T10:46:38Z</time>
      </trkpt>
      <trkpt lat="42.20613" lon="1.23405">
        <ele>1421.77</ele>
        <time>2021-08-01T10:46:45Z</time>
      </trkpt>
      <trkpt lat="42.20611" lon="1.23358">
        <ele>1424.89</ele>
        <time>2021-08-01T10:46:51Z</time>
      </trkpt>
      <trkpt lat="42.20609" lon="1.23326">
        <ele>1427.93</ele>
        <time>2021-08-01T10:46:56Z</time>
      </trkpt>
      <trkpt lat="42.20614" lon="1.23293">
        <ele>1431.36</ele>
        <time>2021-08-01T10:47:02Z</time>
      </trkpt>
      <trkpt lat="42.20616" lon="1.23287">
        <ele>1431.92</ele>
        <time>2021-08-01T10:47:03Z</time>
      </trkpt>
      <trkpt lat="42.20627" lon="1.23261">
        <ele>1434.09</ele>
        <time>2021-08-01T10:47:07Z</time>
      </trkpt>
      <trkpt lat="42.20642" lon="1.23217">
        <ele>1438.05</ele>
        <time>2021-08-01T10:47:14Z</time>
      </trkpt>
      <trkpt lat="42.20655" lon="1.23179">
        <ele>1441.35</ele>
        <time>2021-08-01T10:47:20Z</time>
      </trkpt>
      <trkpt lat="42.20659" lon="1.23153">
        <ele>1444.52</ele>
        <time>2021-08-01T10:47:26Z</time>
      </trkpt>
      <trkpt lat="42.20659" lon="1.23135">
        <ele>1445.8</ele>
        <time>2021-08-01T10:47:29Z</time>
      </trkpt>
      <trkpt lat="42.20642" lon="1.23041">
        <ele>1449.37</ele>
        <time>2021-08-01T10:47:41Z</time>
      </trkpt>
      <trkpt lat="42.20625" lon="1.22968">
        <ele>1452.81</ele>
        <time>2021-08-01T10:47:50Z</time>
      </trkpt>
      <trkpt lat="42.20623" lon="1.22961">
        <ele>1453.27</ele>
        <time>2021-08-01T10:47:51Z</time>
      </trkpt>
      <trkpt lat="42.20613" lon="1.22891">
        <ele>1457.04</ele>
        <time>2021-08-01T10:48:00Z</time>
      </trkpt>
      <trkpt lat="42.20607" lon="1.22844">
        <ele>1460.2</ele>
        <time>2021-08-01T10:48:06Z</time>
      </trkpt>
      <trkpt lat="42.20598" lon="1.22795">
        <ele>1462.81</ele>
        <time>2021-08-01T10:48:11Z</time>
      </trkpt>
      <trkpt lat="42.20588" lon="1.22729">
        <ele>1466.8</ele>
        <time>2021-08-01T10:48:18Z</time>
      </trkpt>
      <trkpt lat="42.2058" lon="1.22681">
        <ele>1469.87</ele>
        <time>2021-08-01T10:48:24Z</time>
      </trkpt>
      <trkpt lat="42.20577" lon="1.22631">
        <ele>1473.12</ele>
        <time>2021-08-01T10:48:30Z</time>
      </trkpt>
      <trkpt lat="42.20569" lon="1.22582">
        <ele>1476.37</ele>
        <time>2021-08-01T10:48:36Z</time>
      </trkpt>
      <trkpt lat="42.20563" lon="1.2254">
        <ele>1479.42</ele>
        <time>2021-08-01T10:48:41Z</time>
      </trkpt>
      <trkpt lat="42.20556" lon="1.22487">
        <ele>1482.51</ele>
        <time>2021-08-01T10:48:46Z</time>
      </trkpt>
      <trkpt lat="42.20552" lon="1.22456">
        <ele>1484.45</ele>
        <time>2021-08-01T10:48:49Z</time>
      </trkpt>
      <trkpt lat="42.20549" lon="1.22403">
        <ele>1488.8</ele>
        <time>2021-08-01T10:48:55Z</time>
      </trkpt>
      <trkpt lat="42.2055" lon="1.22394">
        <ele>1489.43</ele>
        <time>2021-08-01T10:48:56Z</time>
      </trkpt>
      <trkpt lat="42.20555" lon="1.22359">
        <ele>1493.1</ele>
        <time>2021-08-01T10:49:02Z</time>
      </trkpt>
      <trkpt lat="42.20546" lon="1.22333">
        <ele>1496.26</ele>
        <time>2021-08-01T10:49:08Z</time>
      </trkpt>
      <trkpt lat="42.20542" lon="1.22332">
        <ele>1496.85</ele>
        <time>2021-08-01T10:49:09Z</time>
      </trkpt>
      <trkpt lat="42.20529" lon="1.22325">
        <ele>1498.62</ele>
        <time>2021-08-01T10:49:12Z</time>
      </trkpt>
      <trkpt lat="42.20507" lon="1.22299">
        <ele>1502.22</ele>
        <time>2021-08-01T10:49:19Z</time>
      </trkpt>
      <trkpt lat="42.20504" lon="1.22284">
        <ele>1503.22</ele>
        <time>2021-08-01T10:49:21Z</time>
      </trkpt>
      <trkpt lat="42.20502" lon="1.22259">
        <ele>1504.68</ele>
        <time>2021-08-01T10:49:24Z</time>
      </trkpt>
      <trkpt lat="42.20502" lon="1.22251">
        <ele>1505.19</ele>
        <time>2021-08-01T10:49:25Z</time>
      </trkpt>
      <trkpt lat="42.20504" lon="1.22244">
        <ele>1505.6</ele>
        <time>2021-08-01T10:49:26Z</time>
      </trkpt>
      <trkpt lat="42.20505" lon="1.22237">
        <ele>1506.07</ele>
        <time>2021-08-01T10:49:27Z</time>
      </trkpt>
      <trkpt lat="42.20506" lon="1.22231">
        <ele>1506.64</ele>
        <time>2021-08-01T10:49:28Z</time>
      </trkpt>
      <trkpt lat="42.20517" lon="1.22199">
        <ele>1509.24</ele>
        <time>2021-08-01T10:49:33Z</time>
      </trkpt>
      <trkpt lat="42.20519" lon="1.22193">
        <ele>1509.66</ele>
        <time>2021-08-01T10:49:34Z</time>
      </trkpt>
      <trkpt lat="42.20519" lon="1.22186">
        <ele>1510.14</ele>
        <time>2021-08-01T10:49:35Z</time>
      </trkpt>
      <trkpt lat="42.20518" lon="1.2214">
        <ele>1513.47</ele>
        <time>2021-08-01T10:49:41Z</time>
      </trkpt>
      <trkpt lat="42.20516" lon="1.22106">
        <ele>1516.6</ele>
        <time>2021-08-01T10:49:47Z</time>
      </trkpt>
      <trkpt lat="42.20512" lon="1.22072">
        <ele>1519.73</ele>
        <time>2021-08-01T10:49:54Z</time>
      </trkpt>
      <trkpt lat="42.20509" lon="1.22024">
        <ele>1523.03</ele>
        <time>2021-08-01T10:50:01Z</time>
      </trkpt>
      <trkpt lat="42.20495" lon="1.21993">
        <ele>1526.37</ele>
        <time>2021-08-01T10:50:08Z</time>
      </trkpt>
      <trkpt lat="42.20474" lon="1.21979">
        <ele>1529.5</ele>
        <time>2021-08-01T10:50:15Z</time>
      </trkpt>
      <trkpt lat="42.20467" lon="1.21971">
        <ele>1530.61</ele>
        <time>2021-08-01T10:50:18Z</time>
      </trkpt>
      <trkpt lat="42.20459" lon="1.21924">
        <ele>1534.23</ele>
        <time>2021-08-01T10:50:28Z</time>
      </trkpt>
      <trkpt lat="42.20451" lon="1.21873">
        <ele>1537.65</ele>
        <time>2021-08-01T10:50:35Z</time>
      </trkpt>
      <trkpt lat="42.20448" lon="1.21861">
        <ele>1538.56</ele>
        <time>2021-08-01T10:50:37Z</time>
      </trkpt>
      <trkpt lat="42.20446" lon="1.21819">
        <ele>1542.22</ele>
        <time>2021-08-01T10:50:45Z</time>
      </trkpt>
      <trkpt lat="42.20439" lon="1.21795">
        <ele>1544.67</ele>
        <time>2021-08-01T10:50:51Z</time>
      </trkpt>
      <trkpt lat="42.20425" lon="1.21813">
        <ele>1546.67</ele>
        <time>2021-08-01T10:50:55Z</time>
      </trkpt>
      <trkpt lat="42.20402" lon="1.21876">
        <ele>1550.24</ele>
        <time>2021-08-01T10:51:03Z</time>
      </trkpt>
      <trkpt lat="42.20385" lon="1.21925">
        <ele>1553.49</ele>
        <time>2021-08-01T10:51:09Z</time>
      </trkpt>
      <trkpt lat="42.20368" lon="1.21969">
        <ele>1556.9</ele>
        <time>2021-08-01T10:51:16Z</time>
      </trkpt>
      <trkpt lat="42.20347" lon="1.22012">
        <ele>1559.52</ele>
        <time>2021-08-01T10:51:22Z</time>
      </trkpt>
      <trkpt lat="42.2034" lon="1.22024">
        <ele>1562.47</ele>
        <time>2021-08-01T10:51:30Z</time>
      </trkpt>
      <trkpt lat="42.20342" lon="1.22019">
        <ele>1562.77</ele>
        <time>2021-08-01T10:51:31Z</time>
      </trkpt>
      <trkpt lat="42.20348" lon="1.22005">
        <ele>1563.62</ele>
        <time>2021-08-01T10:51:33Z</time>
      </trkpt>
      <trkpt lat="42.20358" lon="1.21922">
        <ele>1567.2</ele>
        <time>2021-08-01T10:51:41Z</time>
      </trkpt>
      <trkpt lat="42.20358" lon="1.2187">
        <ele>1570.38</ele>
        <time>2021-08-01T10:51:47Z</time>
      </trkpt>
      <trkpt lat="42.20353" lon="1.21812">
        <ele>1573.71</ele>
        <time>2021-08-01T10:51:53Z</time>
      </trkpt>
      <trkpt lat="42.20343" lon="1.21755">
        <ele>1577.23</ele>
        <time>2021-08-01T10:51:59Z</time>
      </trkpt>
      <trkpt lat="42.20341" lon="1.21713">
        <ele>1579.63</ele>
        <time>2021-08-01T10:52:03Z</time>
      </trkpt>
      <trkpt lat="42.20353" lon="1.21651">
        <ele>1583.31</ele>
        <time>2021-08-01T10:52:09Z</time>
      </trkpt>
      <trkpt lat="42.20357" lon="1.21604">
        <ele>1586.82</ele>
        <time>2021-08-01T10:52:14Z</time>
      </trkpt>
      <trkpt lat="42.20355" lon="1.21577">
        <ele>1588.75</ele>
        <time>2021-08-01T10:52:17Z</time>
      </trkpt>
      <trkpt lat="42.20347" lon="1.2152">
        <ele>1592.89</ele>
        <time>2021-08-01T10:52:23Z</time>
      </trkpt>
      <trkpt lat="42.20343" lon="1.21493">
        <ele>1594.99</ele>
        <time>2021-08-01T10:52:26Z</time>
      </trkpt>
      <trkpt lat="42.20351" lon="1.21452">
        <ele>1598.14</ele>
        <time>2021-08-01T10:52:31Z</time>
      </trkpt>
      <trkpt lat="42.20358" lon="1.21416">
        <ele>1602</ele>
        <time>2021-08-01T10:52:38Z</time>
      </trkpt>
      <trkpt lat="42.20359" lon="1.21403">
        <ele>1602.88</ele>
        <time>2021-08-01T10:52:40Z</time>
      </trkpt>
      <trkpt lat="42.20353" lon="1.21337">
        <ele>1606.64</ele>
        <time>2021-08-01T10:52:48Z</time>
      </trkpt>
      <trkpt lat="42.20352" lon="1.21316">
        <ele>1608.05</ele>
        <time>2021-08-01T10:52:51Z</time>
      </trkpt>
      <trkpt lat="42.20347" lon="1.2129">
        <ele>1609.86</ele>
        <time>2021-08-01T10:52:55Z</time>
      </trkpt>
      <trkpt lat="42.20332" lon="1.21262">
        <ele>1612.13</ele>
        <time>2021-08-01T10:53:00Z</time>
      </trkpt>
      <trkpt lat="42.20331" lon="1.21223">
        <ele>1615.34</ele>
        <time>2021-08-01T10:53:06Z</time>
      </trkpt>
      <trkpt lat="42.20333" lon="1.21212">
        <ele>1616.31</ele>
        <time>2021-08-01T10:53:08Z</time>
      </trkpt>
      <trkpt lat="42.20297" lon="1.21173">
        <ele>1618.59</ele>
        <time>2021-08-01T10:53:15Z</time>
      </trkpt>
      <trkpt lat="42.20276" lon="1.21165">
        <ele>1618.91</ele>
        <time>2021-08-01T10:53:18Z</time>
      </trkpt>
      <trkpt lat="42.20235" lon="1.21164">
        <ele>1617.85</ele>
        <time>2021-08-01T10:53:24Z</time>
      </trkpt>
      <trkpt lat="42.20206" lon="1.21153">
        <ele>1615.64</ele>
        <time>2021-08-01T10:53:29Z</time>
      </trkpt>
      <trkpt lat="42.20201" lon="1.21095">
        <ele>1612.54</ele>
        <time>2021-08-01T10:53:36Z</time>
      </trkpt>
      <trkpt lat="42.20214" lon="1.21022">
        <ele>1608.89</ele>
        <time>2021-08-01T10:53:43Z</time>
      </trkpt>
      <trkpt lat="42.20223" lon="1.20957">
        <ele>1605.49</ele>
        <time>2021-08-01T10:53:49Z</time>
      </trkpt>
      <trkpt lat="42.20226" lon="1.20904">
        <ele>1602.47</ele>
        <time>2021-08-01T10:53:54Z</time>
      </trkpt>
      <trkpt lat="42.20229" lon="1.2086">
        <ele>1599.96</ele>
        <time>2021-08-01T10:53:58Z</time>
      </trkpt>
      <trkpt lat="42.20224" lon="1.20797">
        <ele>1596.31</ele>
        <time>2021-08-01T10:54:04Z</time>
      </trkpt>
      <trkpt lat="42.20222" lon="1.20787">
        <ele>1595.5</ele>
        <time>2021-08-01T10:54:05Z</time>
      </trkpt>
      <trkpt lat="42.20204" lon="1.20744">
        <ele>1590.94</ele>
        <time>2021-08-01T10:54:11Z</time>
      </trkpt>
      <trkpt lat="42.20189" lon="1.20718">
        <ele>1587.46</ele>
        <time>2021-08-01T10:54:15Z</time>
      </trkpt>
      <trkpt lat="42.20173" lon="1.20681">
        <ele>1584.36</ele>
        <time>2021-08-01T10:54:20Z</time>
      </trkpt>
      <trkpt lat="42.20168" lon="1.20663">
        <ele>1583.23</ele>
        <time>2021-08-01T10:54:22Z</time>
      </trkpt>
      <trkpt lat="42.20164" lon="1.20624">
        <ele>1581.33</ele>
        <time>2021-08-01T10:54:26Z</time>
      </trkpt>
      <trkpt lat="42.20168" lon="1.20565">
        <ele>1577.38</ele>
        <time>2021-08-01T10:54:33Z</time>
      </trkpt>
      <trkpt lat="42.20174" lon="1.20517">
        <ele>1573.82</ele>
        <time>2021-08-01T10:54:39Z</time>
      </trkpt>
      <trkpt lat="42.20175" lon="1.20456">
        <ele>1570.12</ele>
        <time>2021-08-01T10:54:46Z</time>
      </trkpt>
      <trkpt lat="42.20186" lon="1.20407">
        <ele>1566.22</ele>
        <time>2021-08-01T10:54:53Z</time>
      </trkpt>
      <trkpt lat="42.20187" lon="1.20384">
        <ele>1564.03</ele>
        <time>2021-08-01T10:54:57Z</time>
      </trkpt>
      <trkpt lat="42.20191" lon="1.20314">
        <ele>1559.93</ele>
        <time>2021-08-01T10:55:05Z</time>
      </trkpt>
      <trkpt lat="42.20195" lon="1.20294">
        <ele>1556.51</ele>
        <time>2021-08-01T10:55:11Z</time>
      </trkpt>
      <trkpt lat="42.20209" lon="1.20297">
        <ele>1553.1</ele>
        <time>2021-08-01T10:55:21Z</time>
      </trkpt>
      <trkpt lat="42.20209" lon="1.203">
        <ele>1552.86</ele>
        <time>2021-08-01T10:55:22Z</time>
      </trkpt>
      <trkpt lat="42.20212" lon="1.2033">
        <ele>1549.47</ele>
        <time>2021-08-01T10:55:35Z</time>
      </trkpt>
      <trkpt lat="42.20211" lon="1.20341">
        <ele>1547.2</ele>
        <time>2021-08-01T10:56:08Z</time>
      </trkpt>
      <trkpt lat="42.20221" lon="1.20403">
        <ele>1545.09</ele>
        <time>2021-08-01T10:56:19Z</time>
      </trkpt>
      <trkpt lat="42.20222" lon="1.2041">
        <ele>1544.76</ele>
        <time>2021-08-01T10:56:20Z</time>
      </trkpt>
      <trkpt lat="42.20253" lon="1.2046">
        <ele>1542.35</ele>
        <time>2021-08-01T10:56:27Z</time>
      </trkpt>
      <trkpt lat="42.20253" lon="1.20502">
        <ele>1540.18</ele>
        <time>2021-08-01T10:56:32Z</time>
      </trkpt>
      <trkpt lat="42.20257" lon="1.20554">
        <ele>1536.22</ele>
        <time>2021-08-01T10:56:40Z</time>
      </trkpt>
      <trkpt lat="42.20266" lon="1.20565">
        <ele>1534.47</ele>
        <time>2021-08-01T10:56:43Z</time>
      </trkpt>
      <trkpt lat="42.20313" lon="1.20579">
        <ele>1530.73</ele>
        <time>2021-08-01T10:56:52Z</time>
      </trkpt>
      <trkpt lat="42.20317" lon="1.20577">
        <ele>1530.41</ele>
        <time>2021-08-01T10:56:53Z</time>
      </trkpt>
      <trkpt lat="42.20321" lon="1.20553">
        <ele>1528.39</ele>
        <time>2021-08-01T10:56:58Z</time>
      </trkpt>
      <trkpt lat="42.20341" lon="1.20504">
        <ele>1524.87</ele>
        <time>2021-08-01T10:57:07Z</time>
      </trkpt>
      <trkpt lat="42.20353" lon="1.20475">
        <ele>1523.21</ele>
        <time>2021-08-01T10:57:12Z</time>
      </trkpt>
      <trkpt lat="42.20366" lon="1.2043">
        <ele>1519.65</ele>
        <time>2021-08-01T10:57:19Z</time>
      </trkpt>
      <trkpt lat="42.20367" lon="1.20419">
        <ele>1518.83</ele>
        <time>2021-08-01T10:57:21Z</time>
      </trkpt>
      <trkpt lat="42.20376" lon="1.20367">
        <ele>1515.8</ele>
        <time>2021-08-01T10:57:28Z</time>
      </trkpt>
      <trkpt lat="42.20381" lon="1.20323">
        <ele>1512.6</ele>
        <time>2021-08-01T10:57:34Z</time>
      </trkpt>
      <trkpt lat="42.20381" lon="1.2031">
        <ele>1511.54</ele>
        <time>2021-08-01T10:57:36Z</time>
      </trkpt>
      <trkpt lat="42.2039" lon="1.20315">
        <ele>1508.49</ele>
        <time>2021-08-01T10:57:43Z</time>
      </trkpt>
      <trkpt lat="42.20392" lon="1.20364">
        <ele>1505.55</ele>
        <time>2021-08-01T10:57:50Z</time>
      </trkpt>
      <trkpt lat="42.20397" lon="1.20387">
        <ele>1504.09</ele>
        <time>2021-08-01T10:57:53Z</time>
      </trkpt>
      <trkpt lat="42.20397" lon="1.20408">
        <ele>1502.77</ele>
        <time>2021-08-01T10:57:56Z</time>
      </trkpt>
      <trkpt lat="42.20403" lon="1.20433">
        <ele>1500.87</ele>
        <time>2021-08-01T10:58:00Z</time>
      </trkpt>
      <trkpt lat="42.2043" lon="1.20475">
        <ele>1496.9</ele>
        <time>2021-08-01T10:58:08Z</time>
      </trkpt>
      <trkpt lat="42.20462" lon="1.20497">
        <ele>1493.42</ele>
        <time>2021-08-01T10:58:16Z</time>
      </trkpt>
      <trkpt lat="42.20472" lon="1.20499">
        <ele>1492.11</ele>
        <time>2021-08-01T10:58:19Z</time>
      </trkpt>
      <trkpt lat="42.20514" lon="1.20473">
        <ele>1489.53</ele>
        <time>2021-08-01T10:58:28Z</time>
      </trkpt>
      <trkpt lat="42.20515" lon="1.20468">
        <ele>1489.25</ele>
        <time>2021-08-01T10:58:29Z</time>
      </trkpt>
      <trkpt lat="42.20527" lon="1.20421">
        <ele>1487.13</ele>
        <time>2021-08-01T10:58:36Z</time>
      </trkpt>
      <trkpt lat="42.20518" lon="1.20353">
        <ele>1483.83</ele>
        <time>2021-08-01T10:58:46Z</time>
      </trkpt>
      <trkpt lat="42.20516" lon="1.20319">
        <ele>1482.41</ele>
        <time>2021-08-01T10:58:50Z</time>
      </trkpt>
      <trkpt lat="42.20524" lon="1.20286">
        <ele>1480.76</ele>
        <time>2021-08-01T10:58:54Z</time>
      </trkpt>
      <trkpt lat="42.20533" lon="1.20245">
        <ele>1478.21</ele>
        <time>2021-08-01T10:59:00Z</time>
      </trkpt>
      <trkpt lat="42.20533" lon="1.20231">
        <ele>1477.12</ele>
        <time>2021-08-01T10:59:02Z</time>
      </trkpt>
      <trkpt lat="42.20524" lon="1.20181">
        <ele>1473.18</ele>
        <time>2021-08-01T10:59:09Z</time>
      </trkpt>
      <trkpt lat="42.20517" lon="1.20147">
        <ele>1471.17</ele>
        <time>2021-08-01T10:59:13Z</time>
      </trkpt>
      <trkpt lat="42.20517" lon="1.20112">
        <ele>1469.13</ele>
        <time>2021-08-01T10:59:17Z</time>
      </trkpt>
      <trkpt lat="42.20521" lon="1.20079">
        <ele>1466.93</ele>
        <time>2021-08-01T10:59:21Z</time>
      </trkpt>
      <trkpt lat="42.20525" lon="1.20067">
        <ele>1465.81</ele>
        <time>2021-08-01T10:59:23Z</time>
      </trkpt>
      <trkpt lat="42.20546" lon="1.20056">
        <ele>1462.3</ele>
        <time>2021-08-01T10:59:29Z</time>
      </trkpt>
      <trkpt lat="42.20568" lon="1.20057">
        <ele>1459.53</ele>
        <time>2021-08-01T10:59:35Z</time>
      </trkpt>
      <trkpt lat="42.20608" lon="1.20049">
        <ele>1455.46</ele>
        <time>2021-08-01T10:59:45Z</time>
      </trkpt>
      <trkpt lat="42.20617" lon="1.20047">
        <ele>1454.72</ele>
        <time>2021-08-01T10:59:47Z</time>
      </trkpt>
      <trkpt lat="42.20637" lon="1.20044">
        <ele>1453.28</ele>
        <time>2021-08-01T10:59:51Z</time>
      </trkpt>
      <trkpt lat="42.20656" lon="1.20046">
        <ele>1451.96</ele>
        <time>2021-08-01T10:59:55Z</time>
      </trkpt>
      <trkpt lat="42.20677" lon="1.20034">
        <ele>1450.57</ele>
        <time>2021-08-01T10:59:59Z</time>
      </trkpt>
      <trkpt lat="42.20708" lon="1.20004">
        <ele>1447.76</ele>
        <time>2021-08-01T11:00:06Z</time>
      </trkpt>
      <trkpt lat="42.2074" lon="1.19991">
        <ele>1444.31</ele>
        <time>2021-08-01T11:00:15Z</time>
      </trkpt>
      <trkpt lat="42.20742" lon="1.19988">
        <ele>1443.92</ele>
        <time>2021-08-01T11:00:16Z</time>
      </trkpt>
      <trkpt lat="42.20742" lon="1.19968">
        <ele>1442.32</ele>
        <time>2021-08-01T11:00:20Z</time>
      </trkpt>
      <trkpt lat="42.20748" lon="1.19871">
        <ele>1438.93</ele>
        <time>2021-08-01T11:00:32Z</time>
      </trkpt>
      <trkpt lat="42.20748" lon="1.19863">
        <ele>1438.55</ele>
        <time>2021-08-01T11:00:33Z</time>
      </trkpt>
      <trkpt lat="42.2075" lon="1.1983">
        <ele>1437.21</ele>
        <time>2021-08-01T11:00:37Z</time>
      </trkpt>
      <trkpt lat="42.20778" lon="1.19776">
        <ele>1434.68</ele>
        <time>2021-08-01T11:00:45Z</time>
      </trkpt>
      <trkpt lat="42.20793" lon="1.19736">
        <ele>1433</ele>
        <time>2021-08-01T11:00:50Z</time>
      </trkpt>
      <trkpt lat="42.20795" lon="1.19719">
        <ele>1432.41</ele>
        <time>2021-08-01T11:00:52Z</time>
      </trkpt>
      <trkpt lat="42.20813" lon="1.19655">
        <ele>1429.63</ele>
        <time>2021-08-01T11:01:02Z</time>
      </trkpt>
      <trkpt lat="42.20824" lon="1.19617">
        <ele>1428.09</ele>
        <time>2021-08-01T11:01:10Z</time>
      </trkpt>
      <trkpt lat="42.20827" lon="1.19609">
        <ele>1427.98</ele>
        <time>2021-08-01T11:01:11Z</time>
      </trkpt>
      <trkpt lat="42.20831" lon="1.19577">
        <ele>1427.79</ele>
        <time>2021-08-01T11:01:15Z</time>
      </trkpt>
      <trkpt lat="42.20843" lon="1.19522">
        <ele>1427.82</ele>
        <time>2021-08-01T11:01:22Z</time>
      </trkpt>
      <trkpt lat="42.20843" lon="1.19442">
        <ele>1427.12</ele>
        <time>2021-08-01T11:01:30Z</time>
      </trkpt>
      <trkpt lat="42.20846" lon="1.19394">
        <ele>1424.67</ele>
        <time>2021-08-01T11:01:38Z</time>
      </trkpt>
      <trkpt lat="42.20822" lon="1.19345">
        <ele>1423.48</ele>
        <time>2021-08-01T11:01:45Z</time>
      </trkpt>
      <trkpt lat="42.20822" lon="1.19299">
        <ele>1423.57</ele>
        <time>2021-08-01T11:01:51Z</time>
      </trkpt>
      <trkpt lat="42.20829" lon="1.19249">
        <ele>1423.33</ele>
        <time>2021-08-01T11:02:01Z</time>
      </trkpt>
      <trkpt lat="42.20826" lon="1.19212">
        <ele>1423</ele>
        <time>2021-08-01T11:02:04Z</time>
      </trkpt>
      <trkpt lat="42.20813" lon="1.19159">
        <ele>1422.58</ele>
        <time>2021-08-01T11:02:09Z</time>
      </trkpt>
      <trkpt lat="42.20829" lon="1.19083">
        <ele>1423.86</ele>
        <time>2021-08-01T11:02:18Z</time>
      </trkpt>
      <trkpt lat="42.20831" lon="1.19076">
        <ele>1424.19</ele>
        <time>2021-08-01T11:02:19Z</time>
      </trkpt>
      <trkpt lat="42.20835" lon="1.18985">
        <ele>1426.82</ele>
        <time>2021-08-01T11:02:32Z</time>
      </trkpt>
      <trkpt lat="42.20836" lon="1.18978">
        <ele>1426.95</ele>
        <time>2021-08-01T11:02:33Z</time>
      </trkpt>
      <trkpt lat="42.20851" lon="1.1889">
        <ele>1428.51</ele>
        <time>2021-08-01T11:02:44Z</time>
      </trkpt>
      <trkpt lat="42.20853" lon="1.1885">
        <ele>1429.15</ele>
        <time>2021-08-01T11:02:48Z</time>
      </trkpt>
      <trkpt lat="42.20865" lon="1.18825">
        <ele>1429.41</ele>
        <time>2021-08-01T11:02:53Z</time>
      </trkpt>
      <trkpt lat="42.2088" lon="1.18777">
        <ele>1428.4</ele>
        <time>2021-08-01T11:03:04Z</time>
      </trkpt>
      <trkpt lat="42.20874" lon="1.18756">
        <ele>1428.51</ele>
        <time>2021-08-01T11:03:07Z</time>
      </trkpt>
      <trkpt lat="42.20861" lon="1.18737">
        <ele>1428.69</ele>
        <time>2021-08-01T11:03:10Z</time>
      </trkpt>
      <trkpt lat="42.2083" lon="1.18665">
        <ele>1429.48</ele>
        <time>2021-08-01T11:03:18Z</time>
      </trkpt>
      <trkpt lat="42.20816" lon="1.18581">
        <ele>1428.59</ele>
        <time>2021-08-01T11:03:26Z</time>
      </trkpt>
      <trkpt lat="42.208" lon="1.18543">
        <ele>1427.57</ele>
        <time>2021-08-01T11:03:31Z</time>
      </trkpt>
      <trkpt lat="42.20792" lon="1.18508">
        <ele>1425.86</ele>
        <time>2021-08-01T11:03:35Z</time>
      </trkpt>
      <trkpt lat="42.20774" lon="1.18496">
        <ele>1422.77</ele>
        <time>2021-08-01T11:03:40Z</time>
      </trkpt>
      <trkpt lat="42.20742" lon="1.18476">
        <ele>1420.51</ele>
        <time>2021-08-01T11:03:47Z</time>
      </trkpt>
      <trkpt lat="42.20741" lon="1.18467">
        <ele>1420.36</ele>
        <time>2021-08-01T11:03:48Z</time>
      </trkpt>
      <trkpt lat="42.20742" lon="1.18441">
        <ele>1420.07</ele>
        <time>2021-08-01T11:03:51Z</time>
      </trkpt>
      <trkpt lat="42.2073" lon="1.18395">
        <ele>1420.34</ele>
        <time>2021-08-01T11:03:58Z</time>
      </trkpt>
      <trkpt lat="42.2073" lon="1.18365">
        <ele>1420.76</ele>
        <time>2021-08-01T11:04:01Z</time>
      </trkpt>
      <trkpt lat="42.20745" lon="1.18275">
        <ele>1422.3</ele>
        <time>2021-08-01T11:04:09Z</time>
      </trkpt>
      <trkpt lat="42.20731" lon="1.18231">
        <ele>1423.15</ele>
        <time>2021-08-01T11:04:15Z</time>
      </trkpt>
      <trkpt lat="42.20693" lon="1.18222">
        <ele>1424.35</ele>
        <time>2021-08-01T11:04:20Z</time>
      </trkpt>
      <trkpt lat="42.20674" lon="1.18205">
        <ele>1424.73</ele>
        <time>2021-08-01T11:04:23Z</time>
      </trkpt>
      <trkpt lat="42.20633" lon="1.18185">
        <ele>1423.47</ele>
        <time>2021-08-01T11:04:30Z</time>
      </trkpt>
      <trkpt lat="42.20627" lon="1.18192">
        <ele>1423.19</ele>
        <time>2021-08-01T11:04:31Z</time>
      </trkpt>
      <trkpt lat="42.20595" lon="1.18202">
        <ele>1422.73</ele>
        <time>2021-08-01T11:04:36Z</time>
      </trkpt>
      <trkpt lat="42.20528" lon="1.18187">
        <ele>1422.06</ele>
        <time>2021-08-01T11:04:44Z</time>
      </trkpt>
      <trkpt lat="42.20511" lon="1.18184">
        <ele>1421.51</ele>
        <time>2021-08-01T11:04:46Z</time>
      </trkpt>
      <trkpt lat="42.20442" lon="1.18177">
        <ele>1417.97</ele>
        <time>2021-08-01T11:04:54Z</time>
      </trkpt>
      <trkpt lat="42.20425" lon="1.18174">
        <ele>1417.49</ele>
        <time>2021-08-01T11:04:56Z</time>
      </trkpt>
      <trkpt lat="42.20397" lon="1.18175">
        <ele>1417.01</ele>
        <time>2021-08-01T11:04:59Z</time>
      </trkpt>
      <trkpt lat="42.20321" lon="1.18163">
        <ele>1415.16</ele>
        <time>2021-08-01T11:05:08Z</time>
      </trkpt>
      <trkpt lat="42.20306" lon="1.18157">
        <ele>1414.29</ele>
        <time>2021-08-01T11:05:10Z</time>
      </trkpt>
      <trkpt lat="42.20282" lon="1.18158">
        <ele>1413.09</ele>
        <time>2021-08-01T11:05:13Z</time>
      </trkpt>
      <trkpt lat="42.20234" lon="1.18124">
        <ele>1411.14</ele>
        <time>2021-08-01T11:05:19Z</time>
      </trkpt>
      <trkpt lat="42.20216" lon="1.18117">
        <ele>1411.02</ele>
        <time>2021-08-01T11:05:21Z</time>
      </trkpt>
      <trkpt lat="42.20181" lon="1.18102">
        <ele>1409.85</ele>
        <time>2021-08-01T11:05:25Z</time>
      </trkpt>
      <trkpt lat="42.20135" lon="1.18126">
        <ele>1407.04</ele>
        <time>2021-08-01T11:05:31Z</time>
      </trkpt>
      <trkpt lat="42.2011" lon="1.1817">
        <ele>1404.2</ele>
        <time>2021-08-01T11:05:36Z</time>
      </trkpt>
      <trkpt lat="42.20087" lon="1.18146">
        <ele>1401.01</ele>
        <time>2021-08-01T11:05:42Z</time>
      </trkpt>
      <trkpt lat="42.20071" lon="1.18116">
        <ele>1397.78</ele>
        <time>2021-08-01T11:05:46Z</time>
      </trkpt>
      <trkpt lat="42.20071" lon="1.18083">
        <ele>1395.69</ele>
        <time>2021-08-01T11:05:49Z</time>
      </trkpt>
      <trkpt lat="42.20076" lon="1.18039">
        <ele>1392.83</ele>
        <time>2021-08-01T11:05:53Z</time>
      </trkpt>
      <trkpt lat="42.2005" lon="1.17992">
        <ele>1388.51</ele>
        <time>2021-08-01T11:05:59Z</time>
      </trkpt>
      <trkpt lat="42.20032" lon="1.17988">
        <ele>1387.05</ele>
        <time>2021-08-01T11:06:01Z</time>
      </trkpt>
      <trkpt lat="42.20002" lon="1.17982">
        <ele>1384.51</ele>
        <time>2021-08-01T11:06:05Z</time>
      </trkpt>
      <trkpt lat="42.19979" lon="1.17952">
        <ele>1380.49</ele>
        <time>2021-08-01T11:06:11Z</time>
      </trkpt>
      <trkpt lat="42.19982" lon="1.17941">
        <ele>1379.22</ele>
        <time>2021-08-01T11:06:13Z</time>
      </trkpt>
      <trkpt lat="42.19986" lon="1.17918">
        <ele>1376.92</ele>
        <time>2021-08-01T11:06:16Z</time>
      </trkpt>
      <trkpt lat="42.1998" lon="1.17899">
        <ele>1374.8</ele>
        <time>2021-08-01T11:06:19Z</time>
      </trkpt>
      <trkpt lat="42.19976" lon="1.17895">
        <ele>1374.01</ele>
        <time>2021-08-01T11:06:20Z</time>
      </trkpt>
      <trkpt lat="42.19972" lon="1.17892">
        <ele>1373.26</ele>
        <time>2021-08-01T11:06:21Z</time>
      </trkpt>
      <trkpt lat="42.19967" lon="1.17886">
        <ele>1372.64</ele>
        <time>2021-08-01T11:06:22Z</time>
      </trkpt>
      <trkpt lat="42.19963" lon="1.17879">
        <ele>1372.19</ele>
        <time>2021-08-01T11:06:23Z</time>
      </trkpt>
      <trkpt lat="42.1996" lon="1.1787">
        <ele>1371.89</ele>
        <time>2021-08-01T11:06:24Z</time>
      </trkpt>
      <trkpt lat="42.19958" lon="1.1786">
        <ele>1371.68</ele>
        <time>2021-08-01T11:06:25Z</time>
      </trkpt>
      <trkpt lat="42.19957" lon="1.17848">
        <ele>1371.5</ele>
        <time>2021-08-01T11:06:26Z</time>
      </trkpt>
      <trkpt lat="42.19957" lon="1.17835">
        <ele>1371.36</ele>
        <time>2021-08-01T11:06:27Z</time>
      </trkpt>
      <trkpt lat="42.19956" lon="1.17822">
        <ele>1371.29</ele>
        <time>2021-08-01T11:06:28Z</time>
      </trkpt>
      <trkpt lat="42.19946" lon="1.1777">
        <ele>1371.6</ele>
        <time>2021-08-01T11:06:32Z</time>
      </trkpt>
      <trkpt lat="42.19934" lon="1.17741">
        <ele>1371.96</ele>
        <time>2021-08-01T11:06:35Z</time>
      </trkpt>
      <trkpt lat="42.19933" lon="1.17704">
        <ele>1372.3</ele>
        <time>2021-08-01T11:06:39Z</time>
      </trkpt>
      <trkpt lat="42.19951" lon="1.17655">
        <ele>1372.85</ele>
        <time>2021-08-01T11:06:44Z</time>
      </trkpt>
      <trkpt lat="42.19938" lon="1.17602">
        <ele>1370.45</ele>
        <time>2021-08-01T11:06:52Z</time>
      </trkpt>
      <trkpt lat="42.19934" lon="1.17554">
        <ele>1369.19</ele>
        <time>2021-08-01T11:06:58Z</time>
      </trkpt>
      <trkpt lat="42.19911" lon="1.17492">
        <ele>1369.55</ele>
        <time>2021-08-01T11:07:06Z</time>
      </trkpt>
      <trkpt lat="42.19924" lon="1.17411">
        <ele>1370.11</ele>
        <time>2021-08-01T11:07:15Z</time>
      </trkpt>
      <trkpt lat="42.19909" lon="1.17389">
        <ele>1368.68</ele>
        <time>2021-08-01T11:07:20Z</time>
      </trkpt>
      <trkpt lat="42.19857" lon="1.17392">
        <ele>1367.54</ele>
        <time>2021-08-01T11:07:28Z</time>
      </trkpt>
      <trkpt lat="42.19812" lon="1.1734">
        <ele>1368.41</ele>
        <time>2021-08-01T11:07:35Z</time>
      </trkpt>
      <trkpt lat="42.19807" lon="1.17315">
        <ele>1368.26</ele>
        <time>2021-08-01T11:07:37Z</time>
      </trkpt>
      <trkpt lat="42.19802" lon="1.17254">
        <ele>1367.39</ele>
        <time>2021-08-01T11:07:42Z</time>
      </trkpt>
      <trkpt lat="42.19818" lon="1.17238">
        <ele>1366.28</ele>
        <time>2021-08-01T11:07:46Z</time>
      </trkpt>
      <trkpt lat="42.19838" lon="1.17226">
        <ele>1366.13</ele>
        <time>2021-08-01T11:07:49Z</time>
      </trkpt>
      <trkpt lat="42.19857" lon="1.17202">
        <ele>1366.78</ele>
        <time>2021-08-01T11:07:53Z</time>
      </trkpt>
      <trkpt lat="42.19928" lon="1.1714">
        <ele>1370.25</ele>
        <time>2021-08-01T11:08:02Z</time>
      </trkpt>
      <trkpt lat="42.19946" lon="1.17118">
        <ele>1371.83</ele>
        <time>2021-08-01T11:08:05Z</time>
      </trkpt>
      <trkpt lat="42.19922" lon="1.1706">
        <ele>1373.77</ele>
        <time>2021-08-01T11:08:12Z</time>
      </trkpt>
      <trkpt lat="42.19902" lon="1.17058">
        <ele>1374.8</ele>
        <time>2021-08-01T11:08:15Z</time>
      </trkpt>
      <trkpt lat="42.19853" lon="1.17066">
        <ele>1378.85</ele>
        <time>2021-08-01T11:08:23Z</time>
      </trkpt>
      <trkpt lat="42.19847" lon="1.17043">
        <ele>1380.48</ele>
        <time>2021-08-01T11:08:26Z</time>
      </trkpt>
      <trkpt lat="42.19846" lon="1.16967">
        <ele>1384.25</ele>
        <time>2021-08-01T11:08:34Z</time>
      </trkpt>
      <trkpt lat="42.19843" lon="1.16897">
        <ele>1387.47</ele>
        <time>2021-08-01T11:08:41Z</time>
      </trkpt>
      <trkpt lat="42.19842" lon="1.16874">
        <ele>1388.75</ele>
        <time>2021-08-01T11:08:43Z</time>
      </trkpt>
      <trkpt lat="42.19843" lon="1.16863">
        <ele>1389.31</ele>
        <time>2021-08-01T11:08:44Z</time>
      </trkpt>
      <trkpt lat="42.19845" lon="1.16852">
        <ele>1389.89</ele>
        <time>2021-08-01T11:08:45Z</time>
      </trkpt>
      <trkpt lat="42.19848" lon="1.16841">
        <ele>1390.54</ele>
        <time>2021-08-01T11:08:46Z</time>
      </trkpt>
      <trkpt lat="42.19854" lon="1.16831">
        <ele>1391.15</ele>
        <time>2021-08-01T11:08:47Z</time>
      </trkpt>
      <trkpt lat="42.19859" lon="1.16822">
        <ele>1391.74</ele>
        <time>2021-08-01T11:08:48Z</time>
      </trkpt>
      <trkpt lat="42.19865" lon="1.16814">
        <ele>1392.38</ele>
        <time>2021-08-01T11:08:49Z</time>
      </trkpt>
      <trkpt lat="42.19871" lon="1.16807">
        <ele>1392.96</ele>
        <time>2021-08-01T11:08:50Z</time>
      </trkpt>
      <trkpt lat="42.19879" lon="1.16801">
        <ele>1393.5</ele>
        <time>2021-08-01T11:08:51Z</time>
      </trkpt>
      <trkpt lat="42.1993" lon="1.16746">
        <ele>1397.64</ele>
        <time>2021-08-01T11:08:59Z</time>
      </trkpt>
      <trkpt lat="42.19924" lon="1.16718">
        <ele>1399.26</ele>
        <time>2021-08-01T11:09:02Z</time>
      </trkpt>
      <trkpt lat="42.19923" lon="1.16675">
        <ele>1401.61</ele>
        <time>2021-08-01T11:09:06Z</time>
      </trkpt>
      <trkpt lat="42.19916" lon="1.16614">
        <ele>1404.81</ele>
        <time>2021-08-01T11:09:12Z</time>
      </trkpt>
      <trkpt lat="42.19891" lon="1.16574">
        <ele>1408.12</ele>
        <time>2021-08-01T11:09:18Z</time>
      </trkpt>
      <trkpt lat="42.19881" lon="1.16551">
        <ele>1409.75</ele>
        <time>2021-08-01T11:09:21Z</time>
      </trkpt>
      <trkpt lat="42.19857" lon="1.16515">
        <ele>1413.47</ele>
        <time>2021-08-01T11:09:27Z</time>
      </trkpt>
      <trkpt lat="42.1983" lon="1.16474">
        <ele>1418.27</ele>
        <time>2021-08-01T11:09:33Z</time>
      </trkpt>
      <trkpt lat="42.19813" lon="1.16461">
        <ele>1420.74</ele>
        <time>2021-08-01T11:09:36Z</time>
      </trkpt>
      <trkpt lat="42.19794" lon="1.16421">
        <ele>1423.69</ele>
        <time>2021-08-01T11:09:42Z</time>
      </trkpt>
      <trkpt lat="42.19791" lon="1.16404">
        <ele>1424.38</ele>
        <time>2021-08-01T11:09:44Z</time>
      </trkpt>
      <trkpt lat="42.19751" lon="1.16363">
        <ele>1424.51</ele>
        <time>2021-08-01T11:09:52Z</time>
      </trkpt>
      <trkpt lat="42.19727" lon="1.16324">
        <ele>1423.72</ele>
        <time>2021-08-01T11:09:57Z</time>
      </trkpt>
      <trkpt lat="42.19692" lon="1.16205">
        <ele>1420.53</ele>
        <time>2021-08-01T11:10:10Z</time>
      </trkpt>
      <trkpt lat="42.19689" lon="1.16187">
        <ele>1419.56</ele>
        <time>2021-08-01T11:10:12Z</time>
      </trkpt>
      <trkpt lat="42.19694" lon="1.16123">
        <ele>1417.06</ele>
        <time>2021-08-01T11:10:18Z</time>
      </trkpt>
      <trkpt lat="42.19709" lon="1.16088">
        <ele>1415.39</ele>
        <time>2021-08-01T11:10:22Z</time>
      </trkpt>
      <trkpt lat="42.1973" lon="1.16057">
        <ele>1413.89</ele>
        <time>2021-08-01T11:10:26Z</time>
      </trkpt>
      <trkpt lat="42.19751" lon="1.16005">
        <ele>1410.99</ele>
        <time>2021-08-01T11:10:32Z</time>
      </trkpt>
      <trkpt lat="42.19775" lon="1.15996">
        <ele>1408.38</ele>
        <time>2021-08-01T11:10:36Z</time>
      </trkpt>
      <trkpt lat="42.19813" lon="1.1598">
        <ele>1404.6</ele>
        <time>2021-08-01T11:10:42Z</time>
      </trkpt>
      <trkpt lat="42.19831" lon="1.15952">
        <ele>1400.72</ele>
        <time>2021-08-01T11:10:48Z</time>
      </trkpt>
      <trkpt lat="42.19831" lon="1.15917">
        <ele>1397.42</ele>
        <time>2021-08-01T11:10:54Z</time>
      </trkpt>
      <trkpt lat="42.19845" lon="1.15928">
        <ele>1395.71</ele>
        <time>2021-08-01T11:10:58Z</time>
      </trkpt>
      <trkpt lat="42.19836" lon="1.15982">
        <ele>1392.26</ele>
        <time>2021-08-01T11:11:05Z</time>
      </trkpt>
      <trkpt lat="42.19827" lon="1.16001">
        <ele>1391.15</ele>
        <time>2021-08-01T11:11:07Z</time>
      </trkpt>
      <trkpt lat="42.19816" lon="1.16041">
        <ele>1388.58</ele>
        <time>2021-08-01T11:11:11Z</time>
      </trkpt>
      <trkpt lat="42.19807" lon="1.16099">
        <ele>1384.37</ele>
        <time>2021-08-01T11:11:17Z</time>
      </trkpt>
      <trkpt lat="42.1981" lon="1.16108">
        <ele>1383.72</ele>
        <time>2021-08-01T11:11:18Z</time>
      </trkpt>
      <trkpt lat="42.19813" lon="1.16124">
        <ele>1381.64</ele>
        <time>2021-08-01T11:11:21Z</time>
      </trkpt>
      <trkpt lat="42.19838" lon="1.16116">
        <ele>1378.11</ele>
        <time>2021-08-01T11:11:26Z</time>
      </trkpt>
      <trkpt lat="42.19851" lon="1.16095">
        <ele>1375.79</ele>
        <time>2021-08-01T11:11:29Z</time>
      </trkpt>
      <trkpt lat="42.19863" lon="1.16073">
        <ele>1374.01</ele>
        <time>2021-08-01T11:11:32Z</time>
      </trkpt>
      <trkpt lat="42.19876" lon="1.16056">
        <ele>1372.42</ele>
        <time>2021-08-01T11:11:35Z</time>
      </trkpt>
      <trkpt lat="42.19885" lon="1.16035">
        <ele>1371.1</ele>
        <time>2021-08-01T11:11:38Z</time>
      </trkpt>
      <trkpt lat="42.1989" lon="1.15999">
        <ele>1369.12</ele>
        <time>2021-08-01T11:11:42Z</time>
      </trkpt>
      <trkpt lat="42.19909" lon="1.15938">
        <ele>1367.08</ele>
        <time>2021-08-01T11:11:48Z</time>
      </trkpt>
      <trkpt lat="42.19951" lon="1.15858">
        <ele>1363.26</ele>
        <time>2021-08-01T11:11:57Z</time>
      </trkpt>
      <trkpt lat="42.19972" lon="1.15825">
        <ele>1361.43</ele>
        <time>2021-08-01T11:12:00Z</time>
      </trkpt>
      <trkpt lat="42.19985" lon="1.15792">
        <ele>1359.24</ele>
        <time>2021-08-01T11:12:03Z</time>
      </trkpt>
      <trkpt lat="42.19984" lon="1.15727">
        <ele>1355.11</ele>
        <time>2021-08-01T11:12:08Z</time>
      </trkpt>
      <trkpt lat="42.19982" lon="1.15716">
        <ele>1354.36</ele>
        <time>2021-08-01T11:12:09Z</time>
      </trkpt>
      <trkpt lat="42.19974" lon="1.15657">
        <ele>1350.45</ele>
        <time>2021-08-01T11:12:14Z</time>
      </trkpt>
      <trkpt lat="42.19961" lon="1.15605">
        <ele>1347.18</ele>
        <time>2021-08-01T11:12:19Z</time>
      </trkpt>
      <trkpt lat="42.19959" lon="1.15578">
        <ele>1344.62</ele>
        <time>2021-08-01T11:12:23Z</time>
      </trkpt>
      <trkpt lat="42.19954" lon="1.15566">
        <ele>1342.9</ele>
        <time>2021-08-01T11:12:25Z</time>
      </trkpt>
      <trkpt lat="42.19953" lon="1.15532">
        <ele>1340.64</ele>
        <time>2021-08-01T11:12:29Z</time>
      </trkpt>
      <trkpt lat="42.1998" lon="1.15412">
        <ele>1337.41</ele>
        <time>2021-08-01T11:12:38Z</time>
      </trkpt>
      <trkpt lat="42.2" lon="1.15334">
        <ele>1333.97</ele>
        <time>2021-08-01T11:12:44Z</time>
      </trkpt>
      <trkpt lat="42.20009" lon="1.15293">
        <ele>1332.02</ele>
        <time>2021-08-01T11:12:47Z</time>
      </trkpt>
      <trkpt lat="42.2001" lon="1.15274">
        <ele>1330.52</ele>
        <time>2021-08-01T11:12:49Z</time>
      </trkpt>
      <trkpt lat="42.20017" lon="1.15263">
        <ele>1328.16</ele>
        <time>2021-08-01T11:12:52Z</time>
      </trkpt>
      <trkpt lat="42.20019" lon="1.15305">
        <ele>1324.01</ele>
        <time>2021-08-01T11:12:58Z</time>
      </trkpt>
      <trkpt lat="42.20017" lon="1.1532">
        <ele>1322.84</ele>
        <time>2021-08-01T11:13:00Z</time>
      </trkpt>
      <trkpt lat="42.20038" lon="1.15339">
        <ele>1319.05</ele>
        <time>2021-08-01T11:13:06Z</time>
      </trkpt>
      <trkpt lat="42.20041" lon="1.15313">
        <ele>1317.1</ele>
        <time>2021-08-01T11:13:09Z</time>
      </trkpt>
      <trkpt lat="42.20045" lon="1.15274">
        <ele>1314.98</ele>
        <time>2021-08-01T11:13:13Z</time>
      </trkpt>
      <trkpt lat="42.20069" lon="1.15226">
        <ele>1311.96</ele>
        <time>2021-08-01T11:13:19Z</time>
      </trkpt>
      <trkpt lat="42.20081" lon="1.15185">
        <ele>1308.63</ele>
        <time>2021-08-01T11:13:24Z</time>
      </trkpt>
      <trkpt lat="42.20085" lon="1.15163">
        <ele>1306.9</ele>
        <time>2021-08-01T11:13:27Z</time>
      </trkpt>
      <trkpt lat="42.20085" lon="1.15133">
        <ele>1304.82</ele>
        <time>2021-08-01T11:13:31Z</time>
      </trkpt>
      <trkpt lat="42.20111" lon="1.15068">
        <ele>1302.47</ele>
        <time>2021-08-01T11:13:38Z</time>
      </trkpt>
      <trkpt lat="42.20109" lon="1.15033">
        <ele>1300.86</ele>
        <time>2021-08-01T11:13:42Z</time>
      </trkpt>
      <trkpt lat="42.20107" lon="1.15013">
        <ele>1299.76</ele>
        <time>2021-08-01T11:13:44Z</time>
      </trkpt>
      <trkpt lat="42.20093" lon="1.14944">
        <ele>1295.96</ele>
        <time>2021-08-01T11:13:51Z</time>
      </trkpt>
      <trkpt lat="42.20091" lon="1.14935">
        <ele>1295.36</ele>
        <time>2021-08-01T11:13:52Z</time>
      </trkpt>
      <trkpt lat="42.20065" lon="1.14868">
        <ele>1290.99</ele>
        <time>2021-08-01T11:13:58Z</time>
      </trkpt>
      <trkpt lat="42.2005" lon="1.1482">
        <ele>1286.68</ele>
        <time>2021-08-01T11:14:02Z</time>
      </trkpt>
      <trkpt lat="42.2004" lon="1.14787">
        <ele>1284.15</ele>
        <time>2021-08-01T11:14:05Z</time>
      </trkpt>
      <trkpt lat="42.20025" lon="1.14757">
        <ele>1281.49</ele>
        <time>2021-08-01T11:14:08Z</time>
      </trkpt>
      <trkpt lat="42.19999" lon="1.14734">
        <ele>1278.09</ele>
        <time>2021-08-01T11:14:12Z</time>
      </trkpt>
      <trkpt lat="42.19981" lon="1.14696">
        <ele>1274.79</ele>
        <time>2021-08-01T11:14:17Z</time>
      </trkpt>
      <trkpt lat="42.19973" lon="1.14668">
        <ele>1273.49</ele>
        <time>2021-08-01T11:14:20Z</time>
      </trkpt>
      <trkpt lat="42.19936" lon="1.14582">
        <ele>1269.93</ele>
        <time>2021-08-01T11:14:29Z</time>
      </trkpt>
      <trkpt lat="42.19922" lon="1.14551">
        <ele>1268.56</ele>
        <time>2021-08-01T11:14:32Z</time>
      </trkpt>
      <trkpt lat="42.19914" lon="1.14506">
        <ele>1266.85</ele>
        <time>2021-08-01T11:14:36Z</time>
      </trkpt>
      <trkpt lat="42.19901" lon="1.14444">
        <ele>1263.92</ele>
        <time>2021-08-01T11:14:43Z</time>
      </trkpt>
      <trkpt lat="42.19916" lon="1.14446">
        <ele>1261.27</ele>
        <time>2021-08-01T11:14:48Z</time>
      </trkpt>
      <trkpt lat="42.19918" lon="1.14451">
        <ele>1260.75</ele>
        <time>2021-08-01T11:14:49Z</time>
      </trkpt>
      <trkpt lat="42.19926" lon="1.14472">
        <ele>1258.64</ele>
        <time>2021-08-01T11:14:53Z</time>
      </trkpt>
      <trkpt lat="42.19929" lon="1.1449">
        <ele>1256.84</ele>
        <time>2021-08-01T11:14:56Z</time>
      </trkpt>
      <trkpt lat="42.19945" lon="1.14515">
        <ele>1254.62</ele>
        <time>2021-08-01T11:15:00Z</time>
      </trkpt>
      <trkpt lat="42.19969" lon="1.14546">
        <ele>1251.97</ele>
        <time>2021-08-01T11:15:05Z</time>
      </trkpt>
      <trkpt lat="42.20009" lon="1.14551">
        <ele>1247.97</ele>
        <time>2021-08-01T11:15:12Z</time>
      </trkpt>
      <trkpt lat="42.19998" lon="1.14517">
        <ele>1245.27</ele>
        <time>2021-08-01T11:15:17Z</time>
      </trkpt>
      <trkpt lat="42.19983" lon="1.1446">
        <ele>1242.87</ele>
        <time>2021-08-01T11:15:24Z</time>
      </trkpt>
      <trkpt lat="42.19981" lon="1.14376">
        <ele>1239.04</ele>
        <time>2021-08-01T11:15:33Z</time>
      </trkpt>
      <trkpt lat="42.19992" lon="1.1432">
        <ele>1235.71</ele>
        <time>2021-08-01T11:15:39Z</time>
      </trkpt>
      <trkpt lat="42.19993" lon="1.1431">
        <ele>1235.14</ele>
        <time>2021-08-01T11:15:40Z</time>
      </trkpt>
      <trkpt lat="42.19992" lon="1.14279">
        <ele>1233.29</ele>
        <time>2021-08-01T11:15:43Z</time>
      </trkpt>
      <trkpt lat="42.19995" lon="1.14249">
        <ele>1231.97</ele>
        <time>2021-08-01T11:15:46Z</time>
      </trkpt>
      <trkpt lat="42.19994" lon="1.14212">
        <ele>1229.85</ele>
        <time>2021-08-01T11:15:50Z</time>
      </trkpt>
      <trkpt lat="42.20001" lon="1.14188">
        <ele>1225.81</ele>
        <time>2021-08-01T11:15:57Z</time>
      </trkpt>
      <trkpt lat="42.20006" lon="1.14183">
        <ele>1224.88</ele>
        <time>2021-08-01T11:15:59Z</time>
      </trkpt>
      <trkpt lat="42.20021" lon="1.14168">
        <ele>1221.47</ele>
        <time>2021-08-01T11:16:06Z</time>
      </trkpt>
      <trkpt lat="42.2002" lon="1.14165">
        <ele>1218.46</ele>
        <time>2021-08-01T11:16:22Z</time>
      </trkpt>
      <trkpt lat="42.20054" lon="1.1415">
        <ele>1217.15</ele>
        <time>2021-08-01T11:16:30Z</time>
      </trkpt>
      <trkpt lat="42.2006" lon="1.14145">
        <ele>1216.75</ele>
        <time>2021-08-01T11:16:31Z</time>
      </trkpt>
      <trkpt lat="42.2007" lon="1.14135">
        <ele>1215.82</ele>
        <time>2021-08-01T11:16:33Z</time>
      </trkpt>
      <trkpt lat="42.20086" lon="1.14108">
        <ele>1214.12</ele>
        <time>2021-08-01T11:16:37Z</time>
      </trkpt>
      <trkpt lat="42.201" lon="1.14064">
        <ele>1212.58</ele>
        <time>2021-08-01T11:16:41Z</time>
      </trkpt>
      <trkpt lat="42.20107" lon="1.14002">
        <ele>1208.69</ele>
        <time>2021-08-01T11:16:47Z</time>
      </trkpt>
      <trkpt lat="42.20109" lon="1.1396">
        <ele>1205.26</ele>
        <time>2021-08-01T11:16:52Z</time>
      </trkpt>
      <trkpt lat="42.20117" lon="1.13912">
        <ele>1202.08</ele>
        <time>2021-08-01T11:16:57Z</time>
      </trkpt>
      <trkpt lat="42.20132" lon="1.13865">
        <ele>1198.86</ele>
        <time>2021-08-01T11:17:02Z</time>
      </trkpt>
      <trkpt lat="42.20154" lon="1.13808">
        <ele>1195.35</ele>
        <time>2021-08-01T11:17:09Z</time>
      </trkpt>
      <trkpt lat="42.20163" lon="1.13786">
        <ele>1193.09</ele>
        <time>2021-08-01T11:17:12Z</time>
      </trkpt>
      <trkpt lat="42.20169" lon="1.13777">
        <ele>1191.89</ele>
        <time>2021-08-01T11:17:14Z</time>
      </trkpt>
      <trkpt lat="42.20182" lon="1.13753">
        <ele>1188.03</ele>
        <time>2021-08-01T11:17:20Z</time>
      </trkpt>
      <trkpt lat="42.20198" lon="1.13733">
        <ele>1184.79</ele>
        <time>2021-08-01T11:17:25Z</time>
      </trkpt>
      <trkpt lat="42.20214" lon="1.13675">
        <ele>1181.74</ele>
        <time>2021-08-01T11:17:32Z</time>
      </trkpt>
      <trkpt lat="42.20201" lon="1.13634">
        <ele>1177.85</ele>
        <time>2021-08-01T11:17:39Z</time>
      </trkpt>
      <trkpt lat="42.20191" lon="1.13647">
        <ele>1176.18</ele>
        <time>2021-08-01T11:17:42Z</time>
      </trkpt>
      <trkpt lat="42.20145" lon="1.13712">
        <ele>1171.87</ele>
        <time>2021-08-01T11:17:52Z</time>
      </trkpt>
      <trkpt lat="42.2011" lon="1.13756">
        <ele>1169.26</ele>
        <time>2021-08-01T11:18:00Z</time>
      </trkpt>
      <trkpt lat="42.20109" lon="1.13738">
        <ele>1166.89</ele>
        <time>2021-08-01T11:18:05Z</time>
      </trkpt>
      <trkpt lat="42.20112" lon="1.13733">
        <ele>1166.45</ele>
        <time>2021-08-01T11:18:06Z</time>
      </trkpt>
      <trkpt lat="42.20129" lon="1.13695">
        <ele>1164.9</ele>
        <time>2021-08-01T11:18:12Z</time>
      </trkpt>
      <trkpt lat="42.20142" lon="1.13669">
        <ele>1164.27</ele>
        <time>2021-08-01T11:18:16Z</time>
      </trkpt>
      <trkpt lat="42.20145" lon="1.13594">
        <ele>1163.13</ele>
        <time>2021-08-01T11:18:25Z</time>
      </trkpt>
      <trkpt lat="42.20163" lon="1.13563">
        <ele>1162.12</ele>
        <time>2021-08-01T11:18:30Z</time>
      </trkpt>
      <trkpt lat="42.20182" lon="1.13513">
        <ele>1160.04</ele>
        <time>2021-08-01T11:18:39Z</time>
      </trkpt>
      <trkpt lat="42.20173" lon="1.13489">
        <ele>1158.76</ele>
        <time>2021-08-01T11:18:44Z</time>
      </trkpt>
      <trkpt lat="42.20171" lon="1.13478">
        <ele>1158.18</ele>
        <time>2021-08-01T11:18:46Z</time>
      </trkpt>
      <trkpt lat="42.20171" lon="1.13465">
        <ele>1157.76</ele>
        <time>2021-08-01T11:18:48Z</time>
      </trkpt>
      <trkpt lat="42.20181" lon="1.13424">
        <ele>1156.11</ele>
        <time>2021-08-01T11:18:54Z</time>
      </trkpt>
      <trkpt lat="42.20193" lon="1.13392">
        <ele>1154.14</ele>
        <time>2021-08-01T11:18:59Z</time>
      </trkpt>
      <trkpt lat="42.20191" lon="1.13358">
        <ele>1152.01</ele>
        <time>2021-08-01T11:19:03Z</time>
      </trkpt>
      <trkpt lat="42.20192" lon="1.13259">
        <ele>1148.62</ele>
        <time>2021-08-01T11:19:14Z</time>
      </trkpt>
      <trkpt lat="42.20194" lon="1.13226">
        <ele>1146.86</ele>
        <time>2021-08-01T11:19:18Z</time>
      </trkpt>
      <trkpt lat="42.20183" lon="1.13192">
        <ele>1144.46</ele>
        <time>2021-08-01T11:19:22Z</time>
      </trkpt>
      <trkpt lat="42.20185" lon="1.13169">
        <ele>1141.85</ele>
        <time>2021-08-01T11:19:26Z</time>
      </trkpt>
      <trkpt lat="42.20188" lon="1.13156">
        <ele>1140.42</ele>
        <time>2021-08-01T11:19:28Z</time>
      </trkpt>
      <trkpt lat="42.20194" lon="1.1313">
        <ele>1137.33</ele>
        <time>2021-08-01T11:19:32Z</time>
      </trkpt>
      <trkpt lat="42.20212" lon="1.13084">
        <ele>1132.85</ele>
        <time>2021-08-01T11:19:38Z</time>
      </trkpt>
      <trkpt lat="42.20225" lon="1.13042">
        <ele>1129.78</ele>
        <time>2021-08-01T11:19:43Z</time>
      </trkpt>
      <trkpt lat="42.20234" lon="1.13017">
        <ele>1128.28</ele>
        <time>2021-08-01T11:19:46Z</time>
      </trkpt>
      <trkpt lat="42.20239" lon="1.13001">
        <ele>1127.02</ele>
        <time>2021-08-01T11:19:48Z</time>
      </trkpt>
      <trkpt lat="42.20238" lon="1.12962">
        <ele>1124.13</ele>
        <time>2021-08-01T11:19:53Z</time>
      </trkpt>
      <trkpt lat="42.20235" lon="1.12952">
        <ele>1123.09</ele>
        <time>2021-08-01T11:19:55Z</time>
      </trkpt>
      <trkpt lat="42.20246" lon="1.12902">
        <ele>1119.6</ele>
        <time>2021-08-01T11:20:03Z</time>
      </trkpt>
      <trkpt lat="42.20256" lon="1.12896">
        <ele>1118.68</ele>
        <time>2021-08-01T11:20:05Z</time>
      </trkpt>
      <trkpt lat="42.20265" lon="1.12889">
        <ele>1117.67</ele>
        <time>2021-08-01T11:20:07Z</time>
      </trkpt>
      <trkpt lat="42.20292" lon="1.12874">
        <ele>1115.6</ele>
        <time>2021-08-01T11:20:12Z</time>
      </trkpt>
      <trkpt lat="42.20308" lon="1.12871">
        <ele>1114.11</ele>
        <time>2021-08-01T11:20:15Z</time>
      </trkpt>
      <trkpt lat="42.20324" lon="1.12826">
        <ele>1110.58</ele>
        <time>2021-08-01T11:20:23Z</time>
      </trkpt>
      <trkpt lat="42.20324" lon="1.12724">
        <ele>1106.88</ele>
        <time>2021-08-01T11:20:34Z</time>
      </trkpt>
      <trkpt lat="42.20324" lon="1.12657">
        <ele>1103.75</ele>
        <time>2021-08-01T11:20:41Z</time>
      </trkpt>
      <trkpt lat="42.20305" lon="1.12614">
        <ele>1101.77</ele>
        <time>2021-08-01T11:20:46Z</time>
      </trkpt>
      <trkpt lat="42.20303" lon="1.12598">
        <ele>1101.14</ele>
        <time>2021-08-01T11:20:48Z</time>
      </trkpt>
      <trkpt lat="42.2031" lon="1.12566">
        <ele>1099.56</ele>
        <time>2021-08-01T11:20:52Z</time>
      </trkpt>
      <trkpt lat="42.20316" lon="1.12543">
        <ele>1098.5</ele>
        <time>2021-08-01T11:20:55Z</time>
      </trkpt>
      <trkpt lat="42.20328" lon="1.12504">
        <ele>1096.1</ele>
        <time>2021-08-01T11:21:01Z</time>
      </trkpt>
      <trkpt lat="42.20317" lon="1.12478">
        <ele>1094.5</ele>
        <time>2021-08-01T11:21:05Z</time>
      </trkpt>
      <trkpt lat="42.20319" lon="1.12415">
        <ele>1091.8</ele>
        <time>2021-08-01T11:21:13Z</time>
      </trkpt>
      <trkpt lat="42.20323" lon="1.12408">
        <ele>1091.43</ele>
        <time>2021-08-01T11:21:14Z</time>
      </trkpt>
      <trkpt lat="42.20357" lon="1.12363">
        <ele>1088.31</ele>
        <time>2021-08-01T11:21:21Z</time>
      </trkpt>
      <trkpt lat="42.20383" lon="1.12358">
        <ele>1086.4</ele>
        <time>2021-08-01T11:21:25Z</time>
      </trkpt>
      <trkpt lat="42.20426" lon="1.12367">
        <ele>1082.55</ele>
        <time>2021-08-01T11:21:33Z</time>
      </trkpt>
      <trkpt lat="42.20447" lon="1.12377">
        <ele>1079.85</ele>
        <time>2021-08-01T11:21:39Z</time>
      </trkpt>
      <trkpt lat="42.20452" lon="1.12351">
        <ele>1077.04</ele>
        <time>2021-08-01T11:21:46Z</time>
      </trkpt>
      <trkpt lat="42.20399" lon="1.12285">
        <ele>1074.28</ele>
        <time>2021-08-01T11:21:56Z</time>
      </trkpt>
      <trkpt lat="42.20391" lon="1.12273">
        <ele>1073.76</ele>
        <time>2021-08-01T11:21:58Z</time>
      </trkpt>
      <trkpt lat="42.20384" lon="1.12255">
        <ele>1072.89</ele>
        <time>2021-08-01T11:22:01Z</time>
      </trkpt>
      <trkpt lat="42.20375" lon="1.12213">
        <ele>1070.86</ele>
        <time>2021-08-01T11:22:07Z</time>
      </trkpt>
      <trkpt lat="42.20393" lon="1.12152">
        <ele>1068.27</ele>
        <time>2021-08-01T11:22:15Z</time>
      </trkpt>
      <trkpt lat="42.204" lon="1.12118">
        <ele>1065.23</ele>
        <time>2021-08-01T11:22:23Z</time>
      </trkpt>
      <trkpt lat="42.20333" lon="1.12096">
        <ele>1063.61</ele>
        <time>2021-08-01T11:22:31Z</time>
      </trkpt>
      <trkpt lat="42.20303" lon="1.12055">
        <ele>1061.79</ele>
        <time>2021-08-01T11:22:37Z</time>
      </trkpt>
      <trkpt lat="42.20296" lon="1.12036">
        <ele>1061.16</ele>
        <time>2021-08-01T11:22:39Z</time>
      </trkpt>
      <trkpt lat="42.20298" lon="1.11998">
        <ele>1059.84</ele>
        <time>2021-08-01T11:22:43Z</time>
      </trkpt>
      <trkpt lat="42.20333" lon="1.11887">
        <ele>1056.63</ele>
        <time>2021-08-01T11:22:55Z</time>
      </trkpt>
      <trkpt lat="42.2036" lon="1.1179">
        <ele>1053.99</ele>
        <time>2021-08-01T11:23:05Z</time>
      </trkpt>
      <trkpt lat="42.20386" lon="1.11727">
        <ele>1051.99</ele>
        <time>2021-08-01T11:23:12Z</time>
      </trkpt>
      <trkpt lat="42.20388" lon="1.11701">
        <ele>1050.9</ele>
        <time>2021-08-01T11:23:15Z</time>
      </trkpt>
      <trkpt lat="42.20411" lon="1.11674">
        <ele>1049.12</ele>
        <time>2021-08-01T11:23:21Z</time>
      </trkpt>
      <trkpt lat="42.20419" lon="1.11666">
        <ele>1048.57</ele>
        <time>2021-08-01T11:23:23Z</time>
      </trkpt>
      <trkpt lat="42.20408" lon="1.11633">
        <ele>1047.66</ele>
        <time>2021-08-01T11:23:28Z</time>
      </trkpt>
      <trkpt lat="42.20391" lon="1.11581">
        <ele>1046.8</ele>
        <time>2021-08-01T11:23:34Z</time>
      </trkpt>
      <trkpt lat="42.2041" lon="1.11521">
        <ele>1045.79</ele>
        <time>2021-08-01T11:23:42Z</time>
      </trkpt>
      <trkpt lat="42.20416" lon="1.11518">
        <ele>1045.48</ele>
        <time>2021-08-01T11:23:43Z</time>
      </trkpt>
      <trkpt lat="42.20425" lon="1.11513">
        <ele>1044.99</ele>
        <time>2021-08-01T11:23:45Z</time>
      </trkpt>
      <trkpt lat="42.20419" lon="1.1149">
        <ele>1043.53</ele>
        <time>2021-08-01T11:23:51Z</time>
      </trkpt>
      <trkpt lat="42.20406" lon="1.11478">
        <ele>1043.2</ele>
        <time>2021-08-01T11:23:53Z</time>
      </trkpt>
      <trkpt lat="42.20392" lon="1.11442">
        <ele>1042.25</ele>
        <time>2021-08-01T11:23:58Z</time>
      </trkpt>
      <trkpt lat="42.20366" lon="1.11387">
        <ele>1040.96</ele>
        <time>2021-08-01T11:24:08Z</time>
      </trkpt>
      <trkpt lat="42.20368" lon="1.11372">
        <ele>1040.63</ele>
        <time>2021-08-01T11:24:10Z</time>
      </trkpt>
      <trkpt lat="42.20373" lon="1.11347">
        <ele>1040.26</ele>
        <time>2021-08-01T11:24:13Z</time>
      </trkpt>
      <trkpt lat="42.20388" lon="1.11327">
        <ele>1039.47</ele>
        <time>2021-08-01T11:24:17Z</time>
      </trkpt>
      <trkpt lat="42.20399" lon="1.11318">
        <ele>1039.05</ele>
        <time>2021-08-01T11:24:19Z</time>
      </trkpt>
      <trkpt lat="42.20425" lon="1.11263">
        <ele>1037.99</ele>
        <time>2021-08-01T11:24:26Z</time>
      </trkpt>
      <trkpt lat="42.20426" lon="1.11246">
        <ele>1037.61</ele>
        <time>2021-08-01T11:24:28Z</time>
      </trkpt>
      <trkpt lat="42.20479" lon="1.11219">
        <ele>1036.33</ele>
        <time>2021-08-01T11:24:36Z</time>
      </trkpt>
      <trkpt lat="42.20487" lon="1.11219">
        <ele>1035.98</ele>
        <time>2021-08-01T11:24:37Z</time>
      </trkpt>
      <trkpt lat="42.20536" lon="1.11201">
        <ele>1033.47</ele>
        <time>2021-08-01T11:24:44Z</time>
      </trkpt>
      <trkpt lat="42.20547" lon="1.11185">
        <ele>1032.76</ele>
        <time>2021-08-01T11:24:46Z</time>
      </trkpt>
      <trkpt lat="42.20575" lon="1.11111">
        <ele>1029</ele>
        <time>2021-08-01T11:24:55Z</time>
      </trkpt>
      <trkpt lat="42.20575" lon="1.11102">
        <ele>1027.87</ele>
        <time>2021-08-01T11:24:57Z</time>
      </trkpt>
      <trkpt lat="42.2055" lon="1.11083">
        <ele>1025.49</ele>
        <time>2021-08-01T11:25:03Z</time>
      </trkpt>
      <trkpt lat="42.20529" lon="1.11049">
        <ele>1023.26</ele>
        <time>2021-08-01T11:25:11Z</time>
      </trkpt>
      <trkpt lat="42.20526" lon="1.11041">
        <ele>1023.06</ele>
        <time>2021-08-01T11:25:12Z</time>
      </trkpt>
      <trkpt lat="42.20514" lon="1.1097">
        <ele>1022.05</ele>
        <time>2021-08-01T11:25:19Z</time>
      </trkpt>
      <trkpt lat="42.20488" lon="1.10963">
        <ele>1021.17</ele>
        <time>2021-08-01T11:25:24Z</time>
      </trkpt>
      <trkpt lat="42.2044" lon="1.10954">
        <ele>1020.07</ele>
        <time>2021-08-01T11:25:32Z</time>
      </trkpt>
      <trkpt lat="42.20433" lon="1.10952">
        <ele>1020</ele>
        <time>2021-08-01T11:25:33Z</time>
      </trkpt>
      <trkpt lat="42.20402" lon="1.10908">
        <ele>1019.12</ele>
        <time>2021-08-01T11:25:41Z</time>
      </trkpt>
      <trkpt lat="42.204" lon="1.109">
        <ele>1018.93</ele>
        <time>2021-08-01T11:25:42Z</time>
      </trkpt>
      <trkpt lat="42.20384" lon="1.1086">
        <ele>1017.37</ele>
        <time>2021-08-01T11:25:48Z</time>
      </trkpt>
      <trkpt lat="42.20382" lon="1.10825">
        <ele>1015.95</ele>
        <time>2021-08-01T11:25:53Z</time>
      </trkpt>
      <trkpt lat="42.20398" lon="1.10779">
        <ele>1012.4</ele>
        <time>2021-08-01T11:26:00Z</time>
      </trkpt>
      <trkpt lat="42.204" lon="1.10763">
        <ele>1010.72</ele>
        <time>2021-08-01T11:26:03Z</time>
      </trkpt>
      <trkpt lat="42.20399" lon="1.10728">
        <ele>1008.08</ele>
        <time>2021-08-01T11:26:11Z</time>
      </trkpt>
      <trkpt lat="42.2039" lon="1.1069">
        <ele>1006.02</ele>
        <time>2021-08-01T11:26:16Z</time>
      </trkpt>
      <trkpt lat="42.20395" lon="1.10658">
        <ele>1003.62</ele>
        <time>2021-08-01T11:26:20Z</time>
      </trkpt>
      <trkpt lat="42.204" lon="1.10641">
        <ele>1001.5</ele>
        <time>2021-08-01T11:26:23Z</time>
      </trkpt>
      <trkpt lat="42.20385" lon="1.10619">
        <ele>998.94</ele>
        <time>2021-08-01T11:26:27Z</time>
      </trkpt>
      <trkpt lat="42.20373" lon="1.1058">
        <ele>996.33</ele>
        <time>2021-08-01T11:26:32Z</time>
      </trkpt>
      <trkpt lat="42.20371" lon="1.10564">
        <ele>995.07</ele>
        <time>2021-08-01T11:26:34Z</time>
      </trkpt>
      <trkpt lat="42.20379" lon="1.10516">
        <ele>991.35</ele>
        <time>2021-08-01T11:26:40Z</time>
      </trkpt>
      <trkpt lat="42.20394" lon="1.10471">
        <ele>987.59</ele>
        <time>2021-08-01T11:26:46Z</time>
      </trkpt>
      <trkpt lat="42.20398" lon="1.10455">
        <ele>986.29</ele>
        <time>2021-08-01T11:26:48Z</time>
      </trkpt>
      <trkpt lat="42.20419" lon="1.10404">
        <ele>982.12</ele>
        <time>2021-08-01T11:26:55Z</time>
      </trkpt>
      <trkpt lat="42.20423" lon="1.10393">
        <ele>981</ele>
        <time>2021-08-01T11:26:57Z</time>
      </trkpt>
      <trkpt lat="42.20412" lon="1.10375">
        <ele>978.67</ele>
        <time>2021-08-01T11:27:01Z</time>
      </trkpt>
      <trkpt lat="42.20409" lon="1.1035">
        <ele>976.75</ele>
        <time>2021-08-01T11:27:05Z</time>
      </trkpt>
      <trkpt lat="42.20401" lon="1.10322">
        <ele>974.76</ele>
        <time>2021-08-01T11:27:10Z</time>
      </trkpt>
      <trkpt lat="42.2037" lon="1.10284">
        <ele>971.29</ele>
        <time>2021-08-01T11:27:20Z</time>
      </trkpt>
      <trkpt lat="42.20368" lon="1.10208">
        <ele>968.62</ele>
        <time>2021-08-01T11:27:32Z</time>
      </trkpt>
      <trkpt lat="42.20362" lon="1.10171">
        <ele>967.57</ele>
        <time>2021-08-01T11:27:37Z</time>
      </trkpt>
      <trkpt lat="42.20345" lon="1.10151">
        <ele>966.44</ele>
        <time>2021-08-01T11:27:41Z</time>
      </trkpt>
      <trkpt lat="42.20338" lon="1.10107">
        <ele>964.63</ele>
        <time>2021-08-01T11:27:47Z</time>
      </trkpt>
      <trkpt lat="42.20342" lon="1.10084">
        <ele>963.27</ele>
        <time>2021-08-01T11:27:50Z</time>
      </trkpt>
      <trkpt lat="42.20325" lon="1.10045">
        <ele>958.98</ele>
        <time>2021-08-01T11:27:56Z</time>
      </trkpt>
      <trkpt lat="42.20321" lon="1.10032">
        <ele>957.73</ele>
        <time>2021-08-01T11:27:58Z</time>
      </trkpt>
      <trkpt lat="42.20316" lon="1.10016">
        <ele>955.75</ele>
        <time>2021-08-01T11:28:01Z</time>
      </trkpt>
      <trkpt lat="42.20299" lon="1.10037">
        <ele>951.84</ele>
        <time>2021-08-01T11:28:07Z</time>
      </trkpt>
      <trkpt lat="42.20298" lon="1.10044">
        <ele>951.25</ele>
        <time>2021-08-01T11:28:08Z</time>
      </trkpt>
      <trkpt lat="42.20284" lon="1.10065">
        <ele>948.16</ele>
        <time>2021-08-01T11:28:14Z</time>
      </trkpt>
      <trkpt lat="42.20259" lon="1.10097">
        <ele>944.53</ele>
        <time>2021-08-01T11:28:22Z</time>
      </trkpt>
      <trkpt lat="42.20259" lon="1.10103">
        <ele>944</ele>
        <time>2021-08-01T11:28:23Z</time>
      </trkpt>
      <trkpt lat="42.20255" lon="1.10137">
        <ele>941.58</ele>
        <time>2021-08-01T11:28:28Z</time>
      </trkpt>
      <trkpt lat="42.20277" lon="1.10161">
        <ele>938.59</ele>
        <time>2021-08-01T11:28:35Z</time>
      </trkpt>
      <trkpt lat="42.20289" lon="1.10179">
        <ele>937.66</ele>
        <time>2021-08-01T11:28:38Z</time>
      </trkpt>
      <trkpt lat="42.20296" lon="1.10193">
        <ele>937.05</ele>
        <time>2021-08-01T11:28:40Z</time>
      </trkpt>
      <trkpt lat="42.20298" lon="1.10237">
        <ele>935.39</ele>
        <time>2021-08-01T11:28:46Z</time>
      </trkpt>
      <trkpt lat="42.2029" lon="1.10261">
        <ele>933.67</ele>
        <time>2021-08-01T11:28:51Z</time>
      </trkpt>
      <trkpt lat="42.20274" lon="1.10244">
        <ele>930.84</ele>
        <time>2021-08-01T11:28:58Z</time>
      </trkpt>
      <trkpt lat="42.20272" lon="1.10229">
        <ele>930.05</ele>
        <time>2021-08-01T11:29:00Z</time>
      </trkpt>
      <trkpt lat="42.20244" lon="1.10191">
        <ele>926.87</ele>
        <time>2021-08-01T11:29:06Z</time>
      </trkpt>
      <trkpt lat="42.2022" lon="1.10154">
        <ele>923.35</ele>
        <time>2021-08-01T11:29:12Z</time>
      </trkpt>
      <trkpt lat="42.20196" lon="1.10038">
        <ele>919.63</ele>
        <time>2021-08-01T11:29:23Z</time>
      </trkpt>
      <trkpt lat="42.20185" lon="1.09966">
        <ele>916.71</ele>
        <time>2021-08-01T11:29:31Z</time>
      </trkpt>
      <trkpt lat="42.20202" lon="1.09914">
        <ele>915.03</ele>
        <time>2021-08-01T11:29:36Z</time>
      </trkpt>
      <trkpt lat="42.20216" lon="1.09885">
        <ele>914.09</ele>
        <time>2021-08-01T11:29:39Z</time>
      </trkpt>
      <trkpt lat="42.20222" lon="1.09847">
        <ele>912.57</ele>
        <time>2021-08-01T11:29:43Z</time>
      </trkpt>
      <trkpt lat="42.20229" lon="1.09789">
        <ele>910.65</ele>
        <time>2021-08-01T11:29:49Z</time>
      </trkpt>
      <trkpt lat="42.20244" lon="1.09745">
        <ele>909.02</ele>
        <time>2021-08-01T11:29:54Z</time>
      </trkpt>
      <trkpt lat="42.20269" lon="1.09677">
        <ele>905.62</ele>
        <time>2021-08-01T11:30:03Z</time>
      </trkpt>
      <trkpt lat="42.20271" lon="1.09636">
        <ele>903.54</ele>
        <time>2021-08-01T11:30:08Z</time>
      </trkpt>
      <trkpt lat="42.20264" lon="1.09592">
        <ele>901.97</ele>
        <time>2021-08-01T11:30:13Z</time>
      </trkpt>
      <trkpt lat="42.20268" lon="1.09564">
        <ele>900.42</ele>
        <time>2021-08-01T11:30:17Z</time>
      </trkpt>
      <trkpt lat="42.2026" lon="1.0952">
        <ele>897.19</ele>
        <time>2021-08-01T11:30:27Z</time>
      </trkpt>
      <trkpt lat="42.2025" lon="1.09493">
        <ele>896.13</ele>
        <time>2021-08-01T11:30:32Z</time>
      </trkpt>
      <trkpt lat="42.20231" lon="1.09427">
        <ele>894.09</ele>
        <time>2021-08-01T11:30:41Z</time>
      </trkpt>
      <trkpt lat="42.20232" lon="1.09418">
        <ele>893.81</ele>
        <time>2021-08-01T11:30:42Z</time>
      </trkpt>
      <trkpt lat="42.20213" lon="1.09292">
        <ele>890.51</ele>
        <time>2021-08-01T11:30:55Z</time>
      </trkpt>
      <trkpt lat="42.20207" lon="1.09262">
        <ele>889.45</ele>
        <time>2021-08-01T11:30:58Z</time>
      </trkpt>
      <trkpt lat="42.2021" lon="1.09163">
        <ele>886.17</ele>
        <time>2021-08-01T11:31:09Z</time>
      </trkpt>
      <trkpt lat="42.20185" lon="1.0912">
        <ele>884.36</ele>
        <time>2021-08-01T11:31:15Z</time>
      </trkpt>
      <trkpt lat="42.20157" lon="1.09098">
        <ele>883.53</ele>
        <time>2021-08-01T11:31:20Z</time>
      </trkpt>
      <trkpt lat="42.20148" lon="1.09088">
        <ele>883.56</ele>
        <time>2021-08-01T11:31:22Z</time>
      </trkpt>
      <trkpt lat="42.20131" lon="1.09055">
        <ele>883.71</ele>
        <time>2021-08-01T11:31:27Z</time>
      </trkpt>
      <trkpt lat="42.20127" lon="1.09016">
        <ele>883.78</ele>
        <time>2021-08-01T11:31:31Z</time>
      </trkpt>
      <trkpt lat="42.20147" lon="1.08965">
        <ele>882.87</ele>
        <time>2021-08-01T11:31:37Z</time>
      </trkpt>
      <trkpt lat="42.20157" lon="1.08951">
        <ele>881.89</ele>
        <time>2021-08-01T11:31:39Z</time>
      </trkpt>
      <trkpt lat="42.20163" lon="1.08905">
        <ele>879.41</ele>
        <time>2021-08-01T11:31:44Z</time>
      </trkpt>
      <trkpt lat="42.2018" lon="1.08852">
        <ele>875.92</ele>
        <time>2021-08-01T11:31:51Z</time>
      </trkpt>
      <trkpt lat="42.20204" lon="1.08824">
        <ele>874.22</ele>
        <time>2021-08-01T11:31:55Z</time>
      </trkpt>
      <trkpt lat="42.20202" lon="1.08777">
        <ele>870.52</ele>
        <time>2021-08-01T11:32:01Z</time>
      </trkpt>
      <trkpt lat="42.20197" lon="1.08769">
        <ele>870.01</ele>
        <time>2021-08-01T11:32:02Z</time>
      </trkpt>
      <trkpt lat="42.20187" lon="1.08756">
        <ele>869.19</ele>
        <time>2021-08-01T11:32:04Z</time>
      </trkpt>
      <trkpt lat="42.20167" lon="1.08702">
        <ele>867.68</ele>
        <time>2021-08-01T11:32:11Z</time>
      </trkpt>
      <trkpt lat="42.20149" lon="1.08672">
        <ele>866.07</ele>
        <time>2021-08-01T11:32:15Z</time>
      </trkpt>
      <trkpt lat="42.20136" lon="1.08638">
        <ele>864.87</ele>
        <time>2021-08-01T11:32:19Z</time>
      </trkpt>
      <trkpt lat="42.20122" lon="1.08591">
        <ele>861.48</ele>
        <time>2021-08-01T11:32:27Z</time>
      </trkpt>
      <trkpt lat="42.20106" lon="1.08563">
        <ele>860.34</ele>
        <time>2021-08-01T11:32:34Z</time>
      </trkpt>
      <trkpt lat="42.20096" lon="1.08535">
        <ele>860.35</ele>
        <time>2021-08-01T11:32:38Z</time>
      </trkpt>
      <trkpt lat="42.2008" lon="1.08449">
        <ele>860.4</ele>
        <time>2021-08-01T11:32:47Z</time>
      </trkpt>
      <trkpt lat="42.20088" lon="1.08417">
        <ele>859.81</ele>
        <time>2021-08-01T11:32:51Z</time>
      </trkpt>
      <trkpt lat="42.2012" lon="1.08328">
        <ele>856.29</ele>
        <time>2021-08-01T11:33:00Z</time>
      </trkpt>
      <trkpt lat="42.20135" lon="1.08256">
        <ele>853.22</ele>
        <time>2021-08-01T11:33:07Z</time>
      </trkpt>
      <trkpt lat="42.20145" lon="1.08177">
        <ele>851.7</ele>
        <time>2021-08-01T11:33:14Z</time>
      </trkpt>
      <trkpt lat="42.20143" lon="1.08125">
        <ele>851.19</ele>
        <time>2021-08-01T11:33:19Z</time>
      </trkpt>
      <trkpt lat="42.20151" lon="1.08097">
        <ele>850.54</ele>
        <time>2021-08-01T11:33:23Z</time>
      </trkpt>
      <trkpt lat="42.20166" lon="1.08064">
        <ele>849.4</ele>
        <time>2021-08-01T11:33:28Z</time>
      </trkpt>
      <trkpt lat="42.20167" lon="1.08003">
        <ele>848.28</ele>
        <time>2021-08-01T11:33:36Z</time>
      </trkpt>
      <trkpt lat="42.2016" lon="1.07985">
        <ele>848.28</ele>
        <time>2021-08-01T11:33:38Z</time>
      </trkpt>
      <trkpt lat="42.20152" lon="1.07951">
        <ele>848.29</ele>
        <time>2021-08-01T11:33:42Z</time>
      </trkpt>
      <trkpt lat="42.20148" lon="1.07928">
        <ele>847.8</ele>
        <time>2021-08-01T11:33:45Z</time>
      </trkpt>
      <trkpt lat="42.20133" lon="1.0789">
        <ele>844.95</ele>
        <time>2021-08-01T11:33:52Z</time>
      </trkpt>
      <trkpt lat="42.20116" lon="1.07872">
        <ele>844.47</ele>
        <time>2021-08-01T11:33:55Z</time>
      </trkpt>
      <trkpt lat="42.20104" lon="1.07795">
        <ele>844.39</ele>
        <time>2021-08-01T11:34:04Z</time>
      </trkpt>
      <trkpt lat="42.20112" lon="1.0777">
        <ele>844.33</ele>
        <time>2021-08-01T11:34:07Z</time>
      </trkpt>
      <trkpt lat="42.20135" lon="1.07698">
        <ele>841.15</ele>
        <time>2021-08-01T11:34:18Z</time>
      </trkpt>
      <trkpt lat="42.20139" lon="1.07679">
        <ele>839.75</ele>
        <time>2021-08-01T11:34:21Z</time>
      </trkpt>
      <trkpt lat="42.2017" lon="1.07623">
        <ele>836.21</ele>
        <time>2021-08-01T11:34:28Z</time>
      </trkpt>
      <trkpt lat="42.20214" lon="1.07576">
        <ele>832.82</ele>
        <time>2021-08-01T11:34:35Z</time>
      </trkpt>
      <trkpt lat="42.20219" lon="1.0757">
        <ele>832.43</ele>
        <time>2021-08-01T11:34:36Z</time>
      </trkpt>
      <trkpt lat="42.20234" lon="1.07541">
        <ele>831.3</ele>
        <time>2021-08-01T11:34:40Z</time>
      </trkpt>
      <trkpt lat="42.20212" lon="1.07471">
        <ele>830.35</ele>
        <time>2021-08-01T11:34:49Z</time>
      </trkpt>
      <trkpt lat="42.20209" lon="1.074">
        <ele>829.37</ele>
        <time>2021-08-01T11:34:55Z</time>
      </trkpt>
      <trkpt lat="42.20238" lon="1.07275">
        <ele>828.2</ele>
        <time>2021-08-01T11:35:06Z</time>
      </trkpt>
      <trkpt lat="42.20236" lon="1.07204">
        <ele>827.78</ele>
        <time>2021-08-01T11:35:14Z</time>
      </trkpt>
      <trkpt lat="42.20253" lon="1.07114">
        <ele>826.33</ele>
        <time>2021-08-01T11:35:24Z</time>
      </trkpt>
      <trkpt lat="42.20244" lon="1.07092">
        <ele>825.89</ele>
        <time>2021-08-01T11:35:29Z</time>
      </trkpt>
      <trkpt lat="42.20256" lon="1.07052">
        <ele>824.91</ele>
        <time>2021-08-01T11:35:35Z</time>
      </trkpt>
      <trkpt lat="42.20293" lon="1.0701">
        <ele>821.96</ele>
        <time>2021-08-01T11:35:43Z</time>
      </trkpt>
      <trkpt lat="42.20283" lon="1.06984">
        <ele>820.78</ele>
        <time>2021-08-01T11:35:49Z</time>
      </trkpt>
      <trkpt lat="42.20268" lon="1.06958">
        <ele>820.51</ele>
        <time>2021-08-01T11:35:53Z</time>
      </trkpt>
      <trkpt lat="42.20262" lon="1.06941">
        <ele>820.72</ele>
        <time>2021-08-01T11:35:55Z</time>
      </trkpt>
      <trkpt lat="42.20244" lon="1.06922">
        <ele>821.55</ele>
        <time>2021-08-01T11:35:59Z</time>
      </trkpt>
      <trkpt lat="42.20238" lon="1.06892">
        <ele>823.33</ele>
        <time>2021-08-01T11:36:04Z</time>
      </trkpt>
      <trkpt lat="42.2026" lon="1.06824">
        <ele>826.48</ele>
        <time>2021-08-01T11:36:13Z</time>
      </trkpt>
      <trkpt lat="42.20282" lon="1.06817">
        <ele>827.48</ele>
        <time>2021-08-01T11:36:18Z</time>
      </trkpt>
      <trkpt lat="42.20311" lon="1.06832">
        <ele>827.84</ele>
        <time>2021-08-01T11:36:24Z</time>
      </trkpt>
      <trkpt lat="42.20327" lon="1.06849">
        <ele>827.95</ele>
        <time>2021-08-01T11:36:28Z</time>
      </trkpt>
      <trkpt lat="42.20356" lon="1.06841">
        <ele>828.16</ele>
        <time>2021-08-01T11:36:36Z</time>
      </trkpt>
      <trkpt lat="42.20358" lon="1.06839">
        <ele>828.15</ele>
        <time>2021-08-01T11:36:37Z</time>
      </trkpt>
      <trkpt lat="42.20363" lon="1.06825">
        <ele>827.88</ele>
        <time>2021-08-01T11:36:44Z</time>
      </trkpt>
      <trkpt lat="42.20347" lon="1.06795">
        <ele>827.53</ele>
        <time>2021-08-01T11:36:56Z</time>
      </trkpt>
      <trkpt lat="42.20333" lon="1.06767">
        <ele>827.68</ele>
        <time>2021-08-01T11:37:00Z</time>
      </trkpt>
      <trkpt lat="42.20325" lon="1.06724">
        <ele>828.26</ele>
        <time>2021-08-01T11:37:04Z</time>
      </trkpt>
      <trkpt lat="42.20327" lon="1.06659">
        <ele>828.84</ele>
        <time>2021-08-01T11:37:11Z</time>
      </trkpt>
      <trkpt lat="42.20294" lon="1.06552">
        <ele>828.15</ele>
        <time>2021-08-01T11:37:24Z</time>
      </trkpt>
      <trkpt lat="42.20287" lon="1.06536">
        <ele>827.68</ele>
        <time>2021-08-01T11:37:26Z</time>
      </trkpt>
      <trkpt lat="42.20283" lon="1.0652">
        <ele>827.17</ele>
        <time>2021-08-01T11:37:28Z</time>
      </trkpt>
      <trkpt lat="42.20277" lon="1.06482">
        <ele>826.25</ele>
        <time>2021-08-01T11:37:32Z</time>
      </trkpt>
      <trkpt lat="42.20263" lon="1.06456">
        <ele>825.22</ele>
        <time>2021-08-01T11:37:36Z</time>
      </trkpt>
      <trkpt lat="42.20242" lon="1.06434">
        <ele>824.44</ele>
        <time>2021-08-01T11:37:49Z</time>
      </trkpt>
      <trkpt lat="42.20241" lon="1.06434">
        <ele>825.42</ele>
        <time>2021-08-01T11:38:52Z</time>
      </trkpt>
      <trkpt lat="42.2024" lon="1.06424">
        <ele>825.58</ele>
        <time>2021-08-01T11:39:03Z</time>
      </trkpt>
      <trkpt lat="42.2024" lon="1.06424">
        <ele>825.58</ele>
        <time>2021-08-01T11:40:22Z</time>
      </trkpt>
      <trkpt lat="42.20245" lon="1.06402">
        <ele>826.05</ele>
        <time>2021-08-01T11:42:07Z</time>
      </trkpt>
      <trkpt lat="42.20246" lon="1.064">
        <ele>826.84</ele>
        <time>2021-08-01T11:42:17Z</time>
      </trkpt>
      <trkpt lat="42.20253" lon="1.06376">
        <ele>827.11</ele>
        <time>2021-08-01T11:42:46Z</time>
      </trkpt>
      <trkpt lat="42.20265" lon="1.06328">
        <ele>827.51</ele>
        <time>2021-08-01T11:42:50Z</time>
      </trkpt>
      <trkpt lat="42.2026" lon="1.0626">
        <ele>827.1</ele>
        <time>2021-08-01T11:42:55Z</time>
      </trkpt>
      <trkpt lat="42.20246" lon="1.06143">
        <ele>827.53</ele>
        <time>2021-08-01T11:43:03Z</time>
      </trkpt>
      <trkpt lat="42.20221" lon="1.06074">
        <ele>828.07</ele>
        <time>2021-08-01T11:43:09Z</time>
      </trkpt>
      <trkpt lat="42.20186" lon="1.06004">
        <ele>828.36</ele>
        <time>2021-08-01T11:43:15Z</time>
      </trkpt>
      <trkpt lat="42.2017" lon="1.05963">
        <ele>828.07</ele>
        <time>2021-08-01T11:43:20Z</time>
      </trkpt>
      <trkpt lat="42.20172" lon="1.05939">
        <ele>828.16</ele>
        <time>2021-08-01T11:43:22Z</time>
      </trkpt>
      <trkpt lat="42.20172" lon="1.05917">
        <ele>828.3</ele>
        <time>2021-08-01T11:43:24Z</time>
      </trkpt>
      <trkpt lat="42.20184" lon="1.05851">
        <ele>829.56</ele>
        <time>2021-08-01T11:43:30Z</time>
      </trkpt>
      <trkpt lat="42.20219" lon="1.05792">
        <ele>830.53</ele>
        <time>2021-08-01T11:43:37Z</time>
      </trkpt>
      <trkpt lat="42.20252" lon="1.05762">
        <ele>831.41</ele>
        <time>2021-08-01T11:43:43Z</time>
      </trkpt>
      <trkpt lat="42.2025" lon="1.05765">
        <ele>832.01</ele>
        <time>2021-08-01T11:43:59Z</time>
      </trkpt>
      <trkpt lat="42.20277" lon="1.05754">
        <ele>832.13</ele>
        <time>2021-08-01T11:45:07Z</time>
      </trkpt>
      <trkpt lat="42.20281" lon="1.05753">
        <ele>832.28</ele>
        <time>2021-08-01T11:45:08Z</time>
      </trkpt>
      <trkpt lat="42.20303" lon="1.05759">
        <ele>833.51</ele>
        <time>2021-08-01T11:45:13Z</time>
      </trkpt>
      <trkpt lat="42.20314" lon="1.05765">
        <ele>833.98</ele>
        <time>2021-08-01T11:45:15Z</time>
      </trkpt>
      <trkpt lat="42.20352" lon="1.05741">
        <ele>835.65</ele>
        <time>2021-08-01T11:45:23Z</time>
      </trkpt>
      <trkpt lat="42.20361" lon="1.05708">
        <ele>836.05</ele>
        <time>2021-08-01T11:45:26Z</time>
      </trkpt>
      <trkpt lat="42.20398" lon="1.05631">
        <ele>836.92</ele>
        <time>2021-08-01T11:45:34Z</time>
      </trkpt>
      <trkpt lat="42.2042" lon="1.05615">
        <ele>836.94</ele>
        <time>2021-08-01T11:45:37Z</time>
      </trkpt>
      <trkpt lat="42.20439" lon="1.05589">
        <ele>836.83</ele>
        <time>2021-08-01T11:45:41Z</time>
      </trkpt>
      <trkpt lat="42.20449" lon="1.05545">
        <ele>837.18</ele>
        <time>2021-08-01T11:45:49Z</time>
      </trkpt>
      <trkpt lat="42.20416" lon="1.05536">
        <ele>837.44</ele>
        <time>2021-08-01T11:45:55Z</time>
      </trkpt>
      <trkpt lat="42.20378" lon="1.05515">
        <ele>838.7</ele>
        <time>2021-08-01T11:46:04Z</time>
      </trkpt>
      <trkpt lat="42.20374" lon="1.05461">
        <ele>838.68</ele>
        <time>2021-08-01T11:46:13Z</time>
      </trkpt>
      <trkpt lat="42.20375" lon="1.05428">
        <ele>838.9</ele>
        <time>2021-08-01T11:46:18Z</time>
      </trkpt>
      <trkpt lat="42.20383" lon="1.05397">
        <ele>839.36</ele>
        <time>2021-08-01T11:46:23Z</time>
      </trkpt>
      <trkpt lat="42.20376" lon="1.05361">
        <ele>839.82</ele>
        <time>2021-08-01T11:46:28Z</time>
      </trkpt>
      <trkpt lat="42.20366" lon="1.05324">
        <ele>839.88</ele>
        <time>2021-08-01T11:46:33Z</time>
      </trkpt>
      <trkpt lat="42.20372" lon="1.05235">
        <ele>840.13</ele>
        <time>2021-08-01T11:46:42Z</time>
      </trkpt>
      <trkpt lat="42.20392" lon="1.0519">
        <ele>840</ele>
        <time>2021-08-01T11:46:47Z</time>
      </trkpt>
      <trkpt lat="42.20397" lon="1.05156">
        <ele>840.07</ele>
        <time>2021-08-01T11:46:51Z</time>
      </trkpt>
      <trkpt lat="42.2041" lon="1.05122">
        <ele>839.93</ele>
        <time>2021-08-01T11:46:56Z</time>
      </trkpt>
      <trkpt lat="42.20418" lon="1.05088">
        <ele>838.95</ele>
        <time>2021-08-01T11:47:02Z</time>
      </trkpt>
      <trkpt lat="42.20409" lon="1.05074">
        <ele>838.75</ele>
        <time>2021-08-01T11:47:04Z</time>
      </trkpt>
      <trkpt lat="42.20398" lon="1.04993">
        <ele>837.93</ele>
        <time>2021-08-01T11:47:13Z</time>
      </trkpt>
      <trkpt lat="42.20401" lon="1.04985">
        <ele>837.82</ele>
        <time>2021-08-01T11:47:14Z</time>
      </trkpt>
      <trkpt lat="42.20417" lon="1.04935">
        <ele>837.13</ele>
        <time>2021-08-01T11:47:20Z</time>
      </trkpt>
      <trkpt lat="42.2046" lon="1.04902">
        <ele>835.38</ele>
        <time>2021-08-01T11:47:27Z</time>
      </trkpt>
      <trkpt lat="42.20465" lon="1.04893">
        <ele>835.16</ele>
        <time>2021-08-01T11:47:28Z</time>
      </trkpt>
      <trkpt lat="42.20473" lon="1.04874">
        <ele>834.58</ele>
        <time>2021-08-01T11:47:30Z</time>
      </trkpt>
      <trkpt lat="42.20465" lon="1.04845">
        <ele>833.28</ele>
        <time>2021-08-01T11:47:34Z</time>
      </trkpt>
      <trkpt lat="42.20463" lon="1.04819">
        <ele>832.17</ele>
        <time>2021-08-01T11:47:38Z</time>
      </trkpt>
      <trkpt lat="42.20463" lon="1.04811">
        <ele>830.02</ele>
        <time>2021-08-01T11:47:49Z</time>
      </trkpt>
      <trkpt lat="42.20458" lon="1.04793">
        <ele>829.55</ele>
        <time>2021-08-01T11:48:23Z</time>
      </trkpt>
      <trkpt lat="42.2043" lon="1.04777">
        <ele>829.66</ele>
        <time>2021-08-01T11:48:29Z</time>
      </trkpt>
      <trkpt lat="42.20407" lon="1.04774">
        <ele>829.45</ele>
        <time>2021-08-01T11:48:34Z</time>
      </trkpt>
      <trkpt lat="42.20406" lon="1.04773">
        <ele>826.92</ele>
        <time>2021-08-01T11:48:56Z</time>
      </trkpt>
      <trkpt lat="42.20381" lon="1.04753">
        <ele>826.36</ele>
        <time>2021-08-01T11:49:33Z</time>
      </trkpt>
      <trkpt lat="42.20352" lon="1.04734">
        <ele>826.39</ele>
        <time>2021-08-01T11:49:37Z</time>
      </trkpt>
      <trkpt lat="42.2032" lon="1.04699">
        <ele>826.03</ele>
        <time>2021-08-01T11:49:42Z</time>
      </trkpt>
      <trkpt lat="42.20303" lon="1.0466">
        <ele>825.43</ele>
        <time>2021-08-01T11:49:46Z</time>
      </trkpt>
      <trkpt lat="42.20296" lon="1.0462">
        <ele>824.59</ele>
        <time>2021-08-01T11:49:50Z</time>
      </trkpt>
      <trkpt lat="42.20325" lon="1.04548">
        <ele>822.63</ele>
        <time>2021-08-01T11:49:58Z</time>
      </trkpt>
      <trkpt lat="42.2037" lon="1.04535">
        <ele>823.15</ele>
        <time>2021-08-01T11:50:05Z</time>
      </trkpt>
      <trkpt lat="42.20381" lon="1.04531">
        <ele>823.47</ele>
        <time>2021-08-01T11:50:07Z</time>
      </trkpt>
      <trkpt lat="42.20393" lon="1.04492">
        <ele>824.84</ele>
        <time>2021-08-01T11:50:13Z</time>
      </trkpt>
      <trkpt lat="42.20392" lon="1.04476">
        <ele>825.35</ele>
        <time>2021-08-01T11:50:15Z</time>
      </trkpt>
      <trkpt lat="42.20393" lon="1.04461">
        <ele>826.01</ele>
        <time>2021-08-01T11:50:17Z</time>
      </trkpt>
      <trkpt lat="42.20372" lon="1.04436">
        <ele>828.16</ele>
        <time>2021-08-01T11:50:23Z</time>
      </trkpt>
      <trkpt lat="42.2036" lon="1.04431">
        <ele>829.02</ele>
        <time>2021-08-01T11:50:25Z</time>
      </trkpt>
      <trkpt lat="42.20343" lon="1.04378">
        <ele>830.6</ele>
        <time>2021-08-01T11:50:33Z</time>
      </trkpt>
      <trkpt lat="42.20363" lon="1.04356">
        <ele>831.31</ele>
        <time>2021-08-01T11:50:36Z</time>
      </trkpt>
      <trkpt lat="42.20418" lon="1.04307">
        <ele>834.91</ele>
        <time>2021-08-01T11:50:46Z</time>
      </trkpt>
      <trkpt lat="42.20462" lon="1.0428">
        <ele>838.15</ele>
        <time>2021-08-01T11:50:53Z</time>
      </trkpt>
      <trkpt lat="42.20468" lon="1.04277">
        <ele>838.64</ele>
        <time>2021-08-01T11:50:54Z</time>
      </trkpt>
      <trkpt lat="42.20509" lon="1.04279">
        <ele>842.28</ele>
        <time>2021-08-01T11:51:01Z</time>
      </trkpt>
      <trkpt lat="42.20534" lon="1.04289">
        <ele>845.71</ele>
        <time>2021-08-01T11:51:08Z</time>
      </trkpt>
      <trkpt lat="42.20532" lon="1.0429">
        <ele>848.42</ele>
        <time>2021-08-01T11:51:21Z</time>
      </trkpt>
      <trkpt lat="42.20563" lon="1.04319">
        <ele>850.08</ele>
        <time>2021-08-01T11:51:33Z</time>
      </trkpt>
      <trkpt lat="42.20591" lon="1.04328">
        <ele>851.62</ele>
        <time>2021-08-01T11:51:40Z</time>
      </trkpt>
      <trkpt lat="42.20614" lon="1.04319">
        <ele>852.91</ele>
        <time>2021-08-01T11:51:45Z</time>
      </trkpt>
      <trkpt lat="42.20631" lon="1.04304">
        <ele>853.64</ele>
        <time>2021-08-01T11:51:48Z</time>
      </trkpt>
      <trkpt lat="42.20639" lon="1.04261">
        <ele>855.24</ele>
        <time>2021-08-01T11:51:53Z</time>
      </trkpt>
      <trkpt lat="42.20633" lon="1.04156">
        <ele>859.52</ele>
        <time>2021-08-01T11:52:01Z</time>
      </trkpt>
      <trkpt lat="42.20633" lon="1.04147">
        <ele>860.16</ele>
        <time>2021-08-01T11:52:02Z</time>
      </trkpt>
      <trkpt lat="42.20616" lon="1.04115">
        <ele>862.93</ele>
        <time>2021-08-01T11:52:06Z</time>
      </trkpt>
      <trkpt lat="42.20619" lon="1.04052">
        <ele>865.75</ele>
        <time>2021-08-01T11:52:13Z</time>
      </trkpt>
      <trkpt lat="42.20627" lon="1.04046">
        <ele>866.08</ele>
        <time>2021-08-01T11:52:14Z</time>
      </trkpt>
      <trkpt lat="42.20669" lon="1.03987">
        <ele>867.88</ele>
        <time>2021-08-01T11:52:20Z</time>
      </trkpt>
      <trkpt lat="42.20693" lon="1.03892">
        <ele>870.14</ele>
        <time>2021-08-01T11:52:27Z</time>
      </trkpt>
      <trkpt lat="42.20681" lon="1.03842">
        <ele>871.44</ele>
        <time>2021-08-01T11:52:31Z</time>
      </trkpt>
      <trkpt lat="42.20661" lon="1.03737">
        <ele>873.56</ele>
        <time>2021-08-01T11:52:38Z</time>
      </trkpt>
      <trkpt lat="42.2067" lon="1.03638">
        <ele>874.86</ele>
        <time>2021-08-01T11:52:44Z</time>
      </trkpt>
      <trkpt lat="42.20682" lon="1.03608">
        <ele>875.47</ele>
        <time>2021-08-01T11:52:47Z</time>
      </trkpt>
      <trkpt lat="42.20669" lon="1.03541">
        <ele>876.8</ele>
        <time>2021-08-01T11:52:53Z</time>
      </trkpt>
      <trkpt lat="42.20661" lon="1.03517">
        <ele>877.29</ele>
        <time>2021-08-01T11:52:55Z</time>
      </trkpt>
      <trkpt lat="42.20652" lon="1.03487">
        <ele>878.51</ele>
        <time>2021-08-01T11:52:58Z</time>
      </trkpt>
      <trkpt lat="42.20666" lon="1.03405">
        <ele>881.26</ele>
        <time>2021-08-01T11:53:06Z</time>
      </trkpt>
      <trkpt lat="42.20685" lon="1.03373">
        <ele>882.49</ele>
        <time>2021-08-01T11:53:09Z</time>
      </trkpt>
      <trkpt lat="42.20709" lon="1.03272">
        <ele>885.15</ele>
        <time>2021-08-01T11:53:16Z</time>
      </trkpt>
      <trkpt lat="42.20707" lon="1.03204">
        <ele>885.17</ele>
        <time>2021-08-01T11:53:22Z</time>
      </trkpt>
      <trkpt lat="42.20718" lon="1.03176">
        <ele>883.62</ele>
        <time>2021-08-01T11:53:27Z</time>
      </trkpt>
      <trkpt lat="42.20722" lon="1.03171">
        <ele>880.18</ele>
        <time>2021-08-01T11:53:41Z</time>
      </trkpt>
      <trkpt lat="42.2072" lon="1.03174">
        <ele>879.44</ele>
        <time>2021-08-01T11:53:51Z</time>
      </trkpt>
      <trkpt lat="42.2072" lon="1.03174">
        <ele>879.65</ele>
        <time>2021-08-01T11:55:00Z</time>
      </trkpt>
      <trkpt lat="42.20728" lon="1.03164">
        <ele>879.78</ele>
        <time>2021-08-01T11:56:06Z</time>
      </trkpt>
      <trkpt lat="42.20763" lon="1.03154">
        <ele>879.22</ele>
        <time>2021-08-01T11:56:13Z</time>
      </trkpt>
      <trkpt lat="42.20767" lon="1.03137">
        <ele>878.82</ele>
        <time>2021-08-01T11:56:15Z</time>
      </trkpt>
      <trkpt lat="42.20785" lon="1.03091">
        <ele>877.93</ele>
        <time>2021-08-01T11:56:20Z</time>
      </trkpt>
      <trkpt lat="42.20829" lon="1.03025">
        <ele>874.32</ele>
        <time>2021-08-01T11:56:28Z</time>
      </trkpt>
      <trkpt lat="42.20854" lon="1.02987">
        <ele>872.21</ele>
        <time>2021-08-01T11:56:32Z</time>
      </trkpt>
      <trkpt lat="42.20861" lon="1.02983">
        <ele>871.71</ele>
        <time>2021-08-01T11:56:33Z</time>
      </trkpt>
      <trkpt lat="42.20868" lon="1.02981">
        <ele>871.14</ele>
        <time>2021-08-01T11:56:34Z</time>
      </trkpt>
      <trkpt lat="42.20878" lon="1.02984">
        <ele>870.6</ele>
        <time>2021-08-01T11:56:35Z</time>
      </trkpt>
      <trkpt lat="42.20896" lon="1.02989">
        <ele>869.81</ele>
        <time>2021-08-01T11:56:37Z</time>
      </trkpt>
      <trkpt lat="42.20938" lon="1.02954">
        <ele>868.74</ele>
        <time>2021-08-01T11:56:43Z</time>
      </trkpt>
      <trkpt lat="42.2097" lon="1.02923">
        <ele>868.43</ele>
        <time>2021-08-01T11:56:48Z</time>
      </trkpt>
      <trkpt lat="42.20986" lon="1.02893">
        <ele>868.42</ele>
        <time>2021-08-01T11:56:51Z</time>
      </trkpt>
      <trkpt lat="42.20981" lon="1.02846">
        <ele>869.27</ele>
        <time>2021-08-01T11:56:56Z</time>
      </trkpt>
      <trkpt lat="42.20965" lon="1.02829">
        <ele>869.36</ele>
        <time>2021-08-01T11:56:58Z</time>
      </trkpt>
      <trkpt lat="42.20948" lon="1.02795">
        <ele>869.48</ele>
        <time>2021-08-01T11:57:01Z</time>
      </trkpt>
      <trkpt lat="42.20947" lon="1.02781">
        <ele>869.57</ele>
        <time>2021-08-01T11:57:02Z</time>
      </trkpt>
      <trkpt lat="42.20947" lon="1.02767">
        <ele>869.79</ele>
        <time>2021-08-01T11:57:03Z</time>
      </trkpt>
      <trkpt lat="42.20973" lon="1.027">
        <ele>870.51</ele>
        <time>2021-08-01T11:57:09Z</time>
      </trkpt>
      <trkpt lat="42.21024" lon="1.02657">
        <ele>869.82</ele>
        <time>2021-08-01T11:57:14Z</time>
      </trkpt>
      <trkpt lat="42.2105" lon="1.02638">
        <ele>869.32</ele>
        <time>2021-08-01T11:57:17Z</time>
      </trkpt>
      <trkpt lat="42.21106" lon="1.02578">
        <ele>867.67</ele>
        <time>2021-08-01T11:57:25Z</time>
      </trkpt>
      <trkpt lat="42.2114" lon="1.02566">
        <ele>866.3</ele>
        <time>2021-08-01T11:57:29Z</time>
      </trkpt>
      <trkpt lat="42.21163" lon="1.02567">
        <ele>864.82</ele>
        <time>2021-08-01T11:57:32Z</time>
      </trkpt>
      <trkpt lat="42.21174" lon="1.02569">
        <ele>862.13</ele>
        <time>2021-08-01T11:57:38Z</time>
      </trkpt>
      <trkpt lat="42.21179" lon="1.02566">
        <ele>860.24</ele>
        <time>2021-08-01T11:57:54Z</time>
      </trkpt>
      <trkpt lat="42.21204" lon="1.02542">
        <ele>860.68</ele>
        <time>2021-08-01T11:58:05Z</time>
      </trkpt>
      <trkpt lat="42.2124" lon="1.02493">
        <ele>862.67</ele>
        <time>2021-08-01T11:58:11Z</time>
      </trkpt>
      <trkpt lat="42.21291" lon="1.02443">
        <ele>864.4</ele>
        <time>2021-08-01T11:58:21Z</time>
      </trkpt>
      <trkpt lat="42.21303" lon="1.02424">
        <ele>864.37</ele>
        <time>2021-08-01T11:58:24Z</time>
      </trkpt>
      <trkpt lat="42.21356" lon="1.02352">
        <ele>865.02</ele>
        <time>2021-08-01T11:58:33Z</time>
      </trkpt>
      <trkpt lat="42.21367" lon="1.02337">
        <ele>865.82</ele>
        <time>2021-08-01T11:58:35Z</time>
      </trkpt>
      <trkpt lat="42.21394" lon="1.02327">
        <ele>866.42</ele>
        <time>2021-08-01T11:58:39Z</time>
      </trkpt>
      <trkpt lat="42.2142" lon="1.02328">
        <ele>867.12</ele>
        <time>2021-08-01T11:58:42Z</time>
      </trkpt>
      <trkpt lat="42.21473" lon="1.02275">
        <ele>867.97</ele>
        <time>2021-08-01T11:58:50Z</time>
      </trkpt>
      <trkpt lat="42.21492" lon="1.02231">
        <ele>867.78</ele>
        <time>2021-08-01T11:58:54Z</time>
      </trkpt>
      <trkpt lat="42.21502" lon="1.02209">
        <ele>866.67</ele>
        <time>2021-08-01T11:58:58Z</time>
      </trkpt>
      <trkpt lat="42.21502" lon="1.02185">
        <ele>863.07</ele>
        <time>2021-08-01T11:59:06Z</time>
      </trkpt>
      <trkpt lat="42.21504" lon="1.02183">
        <ele>861.38</ele>
        <time>2021-08-01T11:59:15Z</time>
      </trkpt>
      <trkpt lat="42.21506" lon="1.02182">
        <ele>861.3</ele>
        <time>2021-08-01T11:59:16Z</time>
      </trkpt>
      <trkpt lat="42.2151" lon="1.02181">
        <ele>861.22</ele>
        <time>2021-08-01T11:59:17Z</time>
      </trkpt>
      <trkpt lat="42.21568" lon="1.02155">
        <ele>861.6</ele>
        <time>2021-08-01T11:59:24Z</time>
      </trkpt>
      <trkpt lat="42.21579" lon="1.02147">
        <ele>861.8</ele>
        <time>2021-08-01T11:59:25Z</time>
      </trkpt>
      <trkpt lat="42.21621" lon="1.02077">
        <ele>862.49</ele>
        <time>2021-08-01T11:59:30Z</time>
      </trkpt>
      <trkpt lat="42.21675" lon="1.01945">
        <ele>861.27</ele>
        <time>2021-08-01T11:59:37Z</time>
      </trkpt>
      <trkpt lat="42.21684" lon="1.01878">
        <ele>857.84</ele>
        <time>2021-08-01T11:59:41Z</time>
      </trkpt>
      <trkpt lat="42.2168" lon="1.01809">
        <ele>853.73</ele>
        <time>2021-08-01T11:59:45Z</time>
      </trkpt>
      <trkpt lat="42.21679" lon="1.01762">
        <ele>850.74</ele>
        <time>2021-08-01T11:59:48Z</time>
      </trkpt>
      <trkpt lat="42.21698" lon="1.01722">
        <ele>846.04</ele>
        <time>2021-08-01T11:59:52Z</time>
      </trkpt>
      <trkpt lat="42.21716" lon="1.0172">
        <ele>843.72</ele>
        <time>2021-08-01T11:59:54Z</time>
      </trkpt>
      <trkpt lat="42.21752" lon="1.01698">
        <ele>840.27</ele>
        <time>2021-08-01T11:59:58Z</time>
      </trkpt>
      <trkpt lat="42.21744" lon="1.016">
        <ele>836.15</ele>
        <time>2021-08-01T12:00:04Z</time>
      </trkpt>
      <trkpt lat="42.21729" lon="1.0157">
        <ele>835.17</ele>
        <time>2021-08-01T12:00:06Z</time>
      </trkpt>
      <trkpt lat="42.21722" lon="1.01499">
        <ele>831.47</ele>
        <time>2021-08-01T12:00:11Z</time>
      </trkpt>
      <trkpt lat="42.21736" lon="1.01434">
        <ele>828.27</ele>
        <time>2021-08-01T12:00:15Z</time>
      </trkpt>
      <trkpt lat="42.21736" lon="1.01418">
        <ele>827.34</ele>
        <time>2021-08-01T12:00:16Z</time>
      </trkpt>
      <trkpt lat="42.21734" lon="1.01374">
        <ele>822.94</ele>
        <time>2021-08-01T12:00:19Z</time>
      </trkpt>
      <trkpt lat="42.21735" lon="1.01362">
        <ele>821.91</ele>
        <time>2021-08-01T12:00:20Z</time>
      </trkpt>
      <trkpt lat="42.21753" lon="1.01332">
        <ele>817.84</ele>
        <time>2021-08-01T12:00:24Z</time>
      </trkpt>
      <trkpt lat="42.21771" lon="1.01322">
        <ele>815.97</ele>
        <time>2021-08-01T12:00:26Z</time>
      </trkpt>
      <trkpt lat="42.21789" lon="1.01311">
        <ele>814.45</ele>
        <time>2021-08-01T12:00:28Z</time>
      </trkpt>
      <trkpt lat="42.21835" lon="1.0129">
        <ele>810.01</ele>
        <time>2021-08-01T12:00:33Z</time>
      </trkpt>
      <trkpt lat="42.21848" lon="1.01268">
        <ele>808.28</ele>
        <time>2021-08-01T12:00:35Z</time>
      </trkpt>
      <trkpt lat="42.21865" lon="1.01231">
        <ele>805.95</ele>
        <time>2021-08-01T12:00:38Z</time>
      </trkpt>
      <trkpt lat="42.21873" lon="1.01181">
        <ele>803.01</ele>
        <time>2021-08-01T12:00:42Z</time>
      </trkpt>
      <trkpt lat="42.21901" lon="1.01106">
        <ele>799.19</ele>
        <time>2021-08-01T12:00:49Z</time>
      </trkpt>
      <trkpt lat="42.21951" lon="1.01095">
        <ele>797.2</ele>
        <time>2021-08-01T12:00:54Z</time>
      </trkpt>
      <trkpt lat="42.21982" lon="1.01097">
        <ele>794.89</ele>
        <time>2021-08-01T12:00:59Z</time>
      </trkpt>
      <trkpt lat="42.21968" lon="1.01046">
        <ele>793.03</ele>
        <time>2021-08-01T12:01:03Z</time>
      </trkpt>
      <trkpt lat="42.21963" lon="1.0101">
        <ele>792.75</ele>
        <time>2021-08-01T12:01:05Z</time>
      </trkpt>
      <trkpt lat="42.21977" lon="1.00955">
        <ele>792.58</ele>
        <time>2021-08-01T12:01:09Z</time>
      </trkpt>
      <trkpt lat="42.21997" lon="1.0094">
        <ele>792.39</ele>
        <time>2021-08-01T12:01:11Z</time>
      </trkpt>
      <trkpt lat="42.22026" lon="1.00911">
        <ele>791.69</ele>
        <time>2021-08-01T12:01:14Z</time>
      </trkpt>
      <trkpt lat="42.22094" lon="1.00839">
        <ele>788.75</ele>
        <time>2021-08-01T12:01:21Z</time>
      </trkpt>
      <trkpt lat="42.22131" lon="1.00759">
        <ele>784.63</ele>
        <time>2021-08-01T12:01:27Z</time>
      </trkpt>
      <trkpt lat="42.22145" lon="1.00734">
        <ele>783.26</ele>
        <time>2021-08-01T12:01:29Z</time>
      </trkpt>
      <trkpt lat="42.22198" lon="1.00689">
        <ele>779.81</ele>
        <time>2021-08-01T12:01:34Z</time>
      </trkpt>
      <trkpt lat="42.22236" lon="1.00636">
        <ele>777.44</ele>
        <time>2021-08-01T12:01:38Z</time>
      </trkpt>
      <trkpt lat="42.22264" lon="1.00571">
        <ele>774.6</ele>
        <time>2021-08-01T12:01:43Z</time>
      </trkpt>
      <trkpt lat="42.22244" lon="1.00553">
        <ele>770.49</ele>
        <time>2021-08-01T12:01:48Z</time>
      </trkpt>
      <trkpt lat="42.22212" lon="1.00603">
        <ele>767.3</ele>
        <time>2021-08-01T12:01:52Z</time>
      </trkpt>
      <trkpt lat="42.22155" lon="1.00619">
        <ele>765.25</ele>
        <time>2021-08-01T12:01:56Z</time>
      </trkpt>
      <trkpt lat="42.221" lon="1.00607">
        <ele>762.34</ele>
        <time>2021-08-01T12:02:01Z</time>
      </trkpt>
      <trkpt lat="42.22069" lon="1.00653">
        <ele>758.99</ele>
        <time>2021-08-01T12:02:05Z</time>
      </trkpt>
      <trkpt lat="42.22036" lon="1.00661">
        <ele>755.53</ele>
        <time>2021-08-01T12:02:09Z</time>
      </trkpt>
      <trkpt lat="42.22016" lon="1.00609">
        <ele>752.51</ele>
        <time>2021-08-01T12:02:13Z</time>
      </trkpt>
      <trkpt lat="42.21985" lon="1.00586">
        <ele>749.33</ele>
        <time>2021-08-01T12:02:17Z</time>
      </trkpt>
      <trkpt lat="42.21995" lon="1.0056">
        <ele>746.56</ele>
        <time>2021-08-01T12:02:20Z</time>
      </trkpt>
      <trkpt lat="42.22066" lon="1.00484">
        <ele>742.99</ele>
        <time>2021-08-01T12:02:26Z</time>
      </trkpt>
      <trkpt lat="42.22162" lon="1.00375">
        <ele>739.58</ele>
        <time>2021-08-01T12:02:33Z</time>
      </trkpt>
      <trkpt lat="42.22175" lon="1.00363">
        <ele>738.82</ele>
        <time>2021-08-01T12:02:34Z</time>
      </trkpt>
      <trkpt lat="42.22236" lon="1.00264">
        <ele>734.56</ele>
        <time>2021-08-01T12:02:40Z</time>
      </trkpt>
      <trkpt lat="42.22254" lon="1.0023">
        <ele>732.84</ele>
        <time>2021-08-01T12:02:42Z</time>
      </trkpt>
      <trkpt lat="42.223" lon="1.00205">
        <ele>727.96</ele>
        <time>2021-08-01T12:02:46Z</time>
      </trkpt>
      <trkpt lat="42.22332" lon="1.00194">
        <ele>723.98</ele>
        <time>2021-08-01T12:02:49Z</time>
      </trkpt>
      <trkpt lat="42.22341" lon="1.00165">
        <ele>719.96</ele>
        <time>2021-08-01T12:02:52Z</time>
      </trkpt>
      <trkpt lat="42.22303" lon="1.00116">
        <ele>716.64</ele>
        <time>2021-08-01T12:02:55Z</time>
      </trkpt>
      <trkpt lat="42.22272" lon="1.0009">
        <ele>714.94</ele>
        <time>2021-08-01T12:02:57Z</time>
      </trkpt>
      <trkpt lat="42.22247" lon="1.0007">
        <ele>713.53</ele>
        <time>2021-08-01T12:02:59Z</time>
      </trkpt>
      <trkpt lat="42.22242" lon="1.00016">
        <ele>708.88</ele>
        <time>2021-08-01T12:03:04Z</time>
      </trkpt>
      <trkpt lat="42.22269" lon="0.99984">
        <ele>705.85</ele>
        <time>2021-08-01T12:03:07Z</time>
      </trkpt>
      <trkpt lat="42.22326" lon="0.99959">
        <ele>702.26</ele>
        <time>2021-08-01T12:03:11Z</time>
      </trkpt>
      <trkpt lat="42.22341" lon="0.99957">
        <ele>701.69</ele>
        <time>2021-08-01T12:03:12Z</time>
      </trkpt>
      <trkpt lat="42.22367" lon="0.99955">
        <ele>700.47</ele>
        <time>2021-08-01T12:03:14Z</time>
      </trkpt>
      <trkpt lat="42.22385" lon="0.9993">
        <ele>696.28</ele>
        <time>2021-08-01T12:03:18Z</time>
      </trkpt>
      <trkpt lat="42.22326" lon="0.99902">
        <ele>691.32</ele>
        <time>2021-08-01T12:03:24Z</time>
      </trkpt>
      <trkpt lat="42.22341" lon="0.99849">
        <ele>689.05</ele>
        <time>2021-08-01T12:03:30Z</time>
      </trkpt>
      <trkpt lat="42.22373" lon="0.99887">
        <ele>687</ele>
        <time>2021-08-01T12:03:34Z</time>
      </trkpt>
      <trkpt lat="42.22399" lon="0.99879">
        <ele>683.92</ele>
        <time>2021-08-01T12:03:37Z</time>
      </trkpt>
      <trkpt lat="42.22416" lon="0.99808">
        <ele>682.15</ele>
        <time>2021-08-01T12:03:41Z</time>
      </trkpt>
      <trkpt lat="42.2241" lon="0.99784">
        <ele>681.7</ele>
        <time>2021-08-01T12:03:42Z</time>
      </trkpt>
      <trkpt lat="42.22441" lon="0.99674">
        <ele>678.01</ele>
        <time>2021-08-01T12:03:49Z</time>
      </trkpt>
      <trkpt lat="42.22465" lon="0.99657">
        <ele>676.31</ele>
        <time>2021-08-01T12:03:51Z</time>
      </trkpt>
      <trkpt lat="42.22494" lon="0.99644">
        <ele>674.79</ele>
        <time>2021-08-01T12:03:53Z</time>
      </trkpt>
      <trkpt lat="42.22565" lon="0.99558">
        <ele>671.08</ele>
        <time>2021-08-01T12:03:59Z</time>
      </trkpt>
      <trkpt lat="42.22606" lon="0.99534">
        <ele>668.32</ele>
        <time>2021-08-01T12:04:02Z</time>
      </trkpt>
      <trkpt lat="42.22664" lon="0.99535">
        <ele>664.97</ele>
        <time>2021-08-01T12:04:06Z</time>
      </trkpt>
      <trkpt lat="42.22743" lon="0.99511">
        <ele>661.32</ele>
        <time>2021-08-01T12:04:11Z</time>
      </trkpt>
      <trkpt lat="42.22813" lon="0.99508">
        <ele>657.43</ele>
        <time>2021-08-01T12:04:17Z</time>
      </trkpt>
      <trkpt lat="42.22824" lon="0.9952">
        <ele>656.94</ele>
        <time>2021-08-01T12:04:18Z</time>
      </trkpt>
      <trkpt lat="42.22853" lon="0.99565">
        <ele>655.86</ele>
        <time>2021-08-01T12:04:21Z</time>
      </trkpt>
      <trkpt lat="42.22892" lon="0.99581">
        <ele>653.22</ele>
        <time>2021-08-01T12:04:26Z</time>
      </trkpt>
      <trkpt lat="42.22907" lon="0.99526">
        <ele>649.94</ele>
        <time>2021-08-01T12:04:31Z</time>
      </trkpt>
      <trkpt lat="42.22904" lon="0.99513">
        <ele>649.64</ele>
        <time>2021-08-01T12:04:32Z</time>
      </trkpt>
      <trkpt lat="42.22859" lon="0.99443">
        <ele>648.13</ele>
        <time>2021-08-01T12:04:36Z</time>
      </trkpt>
      <trkpt lat="42.22768" lon="0.99335">
        <ele>645.46</ele>
        <time>2021-08-01T12:04:42Z</time>
      </trkpt>
      <trkpt lat="42.2272" lon="0.99228">
        <ele>641.02</ele>
        <time>2021-08-01T12:04:48Z</time>
      </trkpt>
      <trkpt lat="42.22683" lon="0.99213">
        <ele>638.01</ele>
        <time>2021-08-01T12:04:51Z</time>
      </trkpt>
      <trkpt lat="42.22656" lon="0.99208">
        <ele>636.83</ele>
        <time>2021-08-01T12:04:53Z</time>
      </trkpt>
      <trkpt lat="42.22634" lon="0.99194">
        <ele>635.99</ele>
        <time>2021-08-01T12:04:55Z</time>
      </trkpt>
      <trkpt lat="42.22628" lon="0.99182">
        <ele>635.4</ele>
        <time>2021-08-01T12:04:56Z</time>
      </trkpt>
      <trkpt lat="42.22624" lon="0.99169">
        <ele>634.72</ele>
        <time>2021-08-01T12:04:57Z</time>
      </trkpt>
      <trkpt lat="42.22623" lon="0.99157">
        <ele>633.98</ele>
        <time>2021-08-01T12:04:58Z</time>
      </trkpt>
      <trkpt lat="42.22619" lon="0.99135">
        <ele>632.27</ele>
        <time>2021-08-01T12:05:00Z</time>
      </trkpt>
      <trkpt lat="42.22603" lon="0.991">
        <ele>627.23</ele>
        <time>2021-08-01T12:05:05Z</time>
      </trkpt>
      <trkpt lat="42.22602" lon="0.99096">
        <ele>626.18</ele>
        <time>2021-08-01T12:05:06Z</time>
      </trkpt>
      <trkpt lat="42.2262" lon="0.99078">
        <ele>621.43</ele>
        <time>2021-08-01T12:05:11Z</time>
      </trkpt>
      <trkpt lat="42.22644" lon="0.99069">
        <ele>619.89</ele>
        <time>2021-08-01T12:05:14Z</time>
      </trkpt>
      <trkpt lat="42.22669" lon="0.99038">
        <ele>617.99</ele>
        <time>2021-08-01T12:05:18Z</time>
      </trkpt>
      <trkpt lat="42.22681" lon="0.9901">
        <ele>617.08</ele>
        <time>2021-08-01T12:05:21Z</time>
      </trkpt>
      <trkpt lat="42.22717" lon="0.99028">
        <ele>615.42</ele>
        <time>2021-08-01T12:05:26Z</time>
      </trkpt>
      <trkpt lat="42.22791" lon="0.99089">
        <ele>613.53</ele>
        <time>2021-08-01T12:05:32Z</time>
      </trkpt>
      <trkpt lat="42.22834" lon="0.99091">
        <ele>611.4</ele>
        <time>2021-08-01T12:05:36Z</time>
      </trkpt>
      <trkpt lat="42.2286" lon="0.9908">
        <ele>609.33</ele>
        <time>2021-08-01T12:05:39Z</time>
      </trkpt>
      <trkpt lat="42.22842" lon="0.99032">
        <ele>605.34</ele>
        <time>2021-08-01T12:05:44Z</time>
      </trkpt>
      <trkpt lat="42.22834" lon="0.99016">
        <ele>604.79</ele>
        <time>2021-08-01T12:05:45Z</time>
      </trkpt>
      <trkpt lat="42.2279" lon="0.98925">
        <ele>603.34</ele>
        <time>2021-08-01T12:05:50Z</time>
      </trkpt>
      <trkpt lat="42.22769" lon="0.98874">
        <ele>602.03</ele>
        <time>2021-08-01T12:05:53Z</time>
      </trkpt>
      <trkpt lat="42.22714" lon="0.98821">
        <ele>597.38</ele>
        <time>2021-08-01T12:05:58Z</time>
      </trkpt>
      <trkpt lat="42.22689" lon="0.98817">
        <ele>595.41</ele>
        <time>2021-08-01T12:06:00Z</time>
      </trkpt>
      <trkpt lat="42.22666" lon="0.98779">
        <ele>592.24</ele>
        <time>2021-08-01T12:06:04Z</time>
      </trkpt>
      <trkpt lat="42.22641" lon="0.98691">
        <ele>589.71</ele>
        <time>2021-08-01T12:06:09Z</time>
      </trkpt>
      <trkpt lat="42.2261" lon="0.98637">
        <ele>588.24</ele>
        <time>2021-08-01T12:06:12Z</time>
      </trkpt>
      <trkpt lat="42.22563" lon="0.98598">
        <ele>585.75</ele>
        <time>2021-08-01T12:06:16Z</time>
      </trkpt>
      <trkpt lat="42.22524" lon="0.98546">
        <ele>583.68</ele>
        <time>2021-08-01T12:06:20Z</time>
      </trkpt>
      <trkpt lat="42.22481" lon="0.98432">
        <ele>579.59</ele>
        <time>2021-08-01T12:06:26Z</time>
      </trkpt>
      <trkpt lat="42.22445" lon="0.98358">
        <ele>575.82</ele>
        <time>2021-08-01T12:06:30Z</time>
      </trkpt>
      <trkpt lat="42.22425" lon="0.98254">
        <ele>571.5</ele>
        <time>2021-08-01T12:06:35Z</time>
      </trkpt>
      <trkpt lat="42.22422" lon="0.98221">
        <ele>568.45</ele>
        <time>2021-08-01T12:06:37Z</time>
      </trkpt>
      <trkpt lat="42.22417" lon="0.98189">
        <ele>564.63</ele>
        <time>2021-08-01T12:06:39Z</time>
      </trkpt>
      <trkpt lat="42.22409" lon="0.9816">
        <ele>561.19</ele>
        <time>2021-08-01T12:06:41Z</time>
      </trkpt>
      <trkpt lat="42.22397" lon="0.98131">
        <ele>556.54</ele>
        <time>2021-08-01T12:06:44Z</time>
      </trkpt>
      <trkpt lat="42.2239" lon="0.98119">
        <ele>552.28</ele>
        <time>2021-08-01T12:06:47Z</time>
      </trkpt>
      <trkpt lat="42.22387" lon="0.98113">
        <ele>548.51</ele>
        <time>2021-08-01T12:06:50Z</time>
      </trkpt>
      <trkpt lat="42.22382" lon="0.98106">
        <ele>544.16</ele>
        <time>2021-08-01T12:06:54Z</time>
      </trkpt>
      <trkpt lat="42.22351" lon="0.98061">
        <ele>541.21</ele>
        <time>2021-08-01T12:07:01Z</time>
      </trkpt>
      <trkpt lat="42.22302" lon="0.9799">
        <ele>538.81</ele>
        <time>2021-08-01T12:07:08Z</time>
      </trkpt>
      <trkpt lat="42.22306" lon="0.9793">
        <ele>535.1</ele>
        <time>2021-08-01T12:07:13Z</time>
      </trkpt>
      <trkpt lat="42.22313" lon="0.97919">
        <ele>534.31</ele>
        <time>2021-08-01T12:07:14Z</time>
      </trkpt>
      <trkpt lat="42.22349" lon="0.9786">
        <ele>529.74</ele>
        <time>2021-08-01T12:07:20Z</time>
      </trkpt>
      <trkpt lat="42.22364" lon="0.97831">
        <ele>526.72</ele>
        <time>2021-08-01T12:07:24Z</time>
      </trkpt>
      <trkpt lat="42.22368" lon="0.97825">
        <ele>523.36</ele>
        <time>2021-08-01T12:07:30Z</time>
      </trkpt>
      <trkpt lat="42.22397" lon="0.978">
        <ele>521.37</ele>
        <time>2021-08-01T12:07:42Z</time>
      </trkpt>
      <trkpt lat="42.22431" lon="0.97777">
        <ele>520.68</ele>
        <time>2021-08-01T12:07:46Z</time>
      </trkpt>
      <trkpt lat="42.2244" lon="0.97773">
        <ele>520.5</ele>
        <time>2021-08-01T12:07:47Z</time>
      </trkpt>
      <trkpt lat="42.22451" lon="0.97771">
        <ele>520.29</ele>
        <time>2021-08-01T12:07:48Z</time>
      </trkpt>
      <trkpt lat="42.22471" lon="0.97772">
        <ele>519.89</ele>
        <time>2021-08-01T12:07:50Z</time>
      </trkpt>
      <trkpt lat="42.22503" lon="0.97778">
        <ele>518.67</ele>
        <time>2021-08-01T12:07:54Z</time>
      </trkpt>
      <trkpt lat="42.22519" lon="0.97738">
        <ele>515.41</ele>
        <time>2021-08-01T12:08:01Z</time>
      </trkpt>
      <trkpt lat="42.22516" lon="0.97727">
        <ele>515.04</ele>
        <time>2021-08-01T12:08:02Z</time>
      </trkpt>
      <trkpt lat="42.22497" lon="0.97681">
        <ele>513.78</ele>
        <time>2021-08-01T12:08:06Z</time>
      </trkpt>
      <trkpt lat="42.22461" lon="0.97648">
        <ele>511.38</ele>
        <time>2021-08-01T12:08:11Z</time>
      </trkpt>
      <trkpt lat="42.22421" lon="0.97619">
        <ele>508.8</ele>
        <time>2021-08-01T12:08:16Z</time>
      </trkpt>
      <trkpt lat="42.2242" lon="0.97577">
        <ele>504.69</ele>
        <time>2021-08-01T12:08:22Z</time>
      </trkpt>
      <trkpt lat="42.22433" lon="0.97583">
        <ele>502.84</ele>
        <time>2021-08-01T12:08:24Z</time>
      </trkpt>
      <trkpt lat="42.22489" lon="0.97605">
        <ele>497.65</ele>
        <time>2021-08-01T12:08:31Z</time>
      </trkpt>
      <trkpt lat="42.2252" lon="0.97621">
        <ele>495.55</ele>
        <time>2021-08-01T12:08:34Z</time>
      </trkpt>
      <trkpt lat="42.22564" lon="0.9761">
        <ele>491.37</ele>
        <time>2021-08-01T12:08:40Z</time>
      </trkpt>
      <trkpt lat="42.2257" lon="0.97597">
        <ele>488.24</ele>
        <time>2021-08-01T12:08:44Z</time>
      </trkpt>
      <trkpt lat="42.22549" lon="0.97575">
        <ele>485.74</ele>
        <time>2021-08-01T12:08:49Z</time>
      </trkpt>
      <trkpt lat="42.22419" lon="0.97518">
        <ele>483.78</ele>
        <time>2021-08-01T12:09:01Z</time>
      </trkpt>
      <trkpt lat="42.22269" lon="0.97481">
        <ele>483.2</ele>
        <time>2021-08-01T12:09:12Z</time>
      </trkpt>
      <trkpt lat="42.2221" lon="0.97464">
        <ele>481.87</ele>
        <time>2021-08-01T12:09:19Z</time>
      </trkpt>
      <trkpt lat="42.22108" lon="0.97481">
        <ele>481.52</ele>
        <time>2021-08-01T12:09:29Z</time>
      </trkpt>
      <trkpt lat="42.22011" lon="0.975">
        <ele>484.53</ele>
        <time>2021-08-01T12:09:36Z</time>
      </trkpt>
      <trkpt lat="42.21929" lon="0.97518">
        <ele>487.64</ele>
        <time>2021-08-01T12:09:41Z</time>
      </trkpt>
      <trkpt lat="42.21843" lon="0.97539">
        <ele>490.68</ele>
        <time>2021-08-01T12:09:46Z</time>
      </trkpt>
      <trkpt lat="42.21785" lon="0.97566">
        <ele>491.78</ele>
        <time>2021-08-01T12:09:50Z</time>
      </trkpt>
      <trkpt lat="42.2173" lon="0.97574">
        <ele>492</ele>
        <time>2021-08-01T12:09:54Z</time>
      </trkpt>
      <trkpt lat="42.21675" lon="0.97571">
        <ele>492.78</ele>
        <time>2021-08-01T12:09:58Z</time>
      </trkpt>
      <trkpt lat="42.21584" lon="0.97599">
        <ele>496.82</ele>
        <time>2021-08-01T12:10:04Z</time>
      </trkpt>
      <trkpt lat="42.21561" lon="0.97613">
        <ele>498.67</ele>
        <time>2021-08-01T12:10:06Z</time>
      </trkpt>
      <trkpt lat="42.2155" lon="0.97676">
        <ele>501.95</ele>
        <time>2021-08-01T12:10:11Z</time>
      </trkpt>
      <trkpt lat="42.21551" lon="0.97768">
        <ele>505.2</ele>
        <time>2021-08-01T12:10:16Z</time>
      </trkpt>
      <trkpt lat="42.21527" lon="0.97835">
        <ele>508.1</ele>
        <time>2021-08-01T12:10:20Z</time>
      </trkpt>
      <trkpt lat="42.21467" lon="0.97884">
        <ele>511.43</ele>
        <time>2021-08-01T12:10:26Z</time>
      </trkpt>
      <trkpt lat="42.21454" lon="0.9788">
        <ele>512.06</ele>
        <time>2021-08-01T12:10:27Z</time>
      </trkpt>
      <trkpt lat="42.21431" lon="0.97872">
        <ele>513.3</ele>
        <time>2021-08-01T12:10:29Z</time>
      </trkpt>
      <trkpt lat="42.21383" lon="0.97886">
        <ele>514.94</ele>
        <time>2021-08-01T12:10:34Z</time>
      </trkpt>
      <trkpt lat="42.21277" lon="0.97979">
        <ele>518.72</ele>
        <time>2021-08-01T12:10:43Z</time>
      </trkpt>
      <trkpt lat="42.21223" lon="0.98035">
        <ele>522.13</ele>
        <time>2021-08-01T12:10:47Z</time>
      </trkpt>
      <trkpt lat="42.2115" lon="0.98108">
        <ele>523.32</ele>
        <time>2021-08-01T12:10:53Z</time>
      </trkpt>
      <trkpt lat="42.21104" lon="0.98195">
        <ele>523.91</ele>
        <time>2021-08-01T12:10:58Z</time>
      </trkpt>
      <trkpt lat="42.21091" lon="0.98233">
        <ele>524.32</ele>
        <time>2021-08-01T12:11:00Z</time>
      </trkpt>
      <trkpt lat="42.21013" lon="0.98284">
        <ele>524.84</ele>
        <time>2021-08-01T12:11:06Z</time>
      </trkpt>
      <trkpt lat="42.20985" lon="0.98302">
        <ele>525.27</ele>
        <time>2021-08-01T12:11:08Z</time>
      </trkpt>
      <trkpt lat="42.20883" lon="0.98402">
        <ele>528.84</ele>
        <time>2021-08-01T12:11:16Z</time>
      </trkpt>
      <trkpt lat="42.20795" lon="0.98458">
        <ele>532.27</ele>
        <time>2021-08-01T12:11:22Z</time>
      </trkpt>
      <trkpt lat="42.20662" lon="0.98554">
        <ele>532.65</ele>
        <time>2021-08-01T12:11:32Z</time>
      </trkpt>
      <trkpt lat="42.20553" lon="0.98682">
        <ele>530.44</ele>
        <time>2021-08-01T12:11:41Z</time>
      </trkpt>
      <trkpt lat="42.20481" lon="0.9876">
        <ele>530.53</ele>
        <time>2021-08-01T12:11:48Z</time>
      </trkpt>
      <trkpt lat="42.20443" lon="0.98779">
        <ele>530.58</ele>
        <time>2021-08-01T12:11:52Z</time>
      </trkpt>
      <trkpt lat="42.20405" lon="0.98785">
        <ele>529.72</ele>
        <time>2021-08-01T12:12:00Z</time>
      </trkpt>
      <trkpt lat="42.20379" lon="0.98754">
        <ele>530.27</ele>
        <time>2021-08-01T12:12:06Z</time>
      </trkpt>
      <trkpt lat="42.20372" lon="0.98734">
        <ele>530.45</ele>
        <time>2021-08-01T12:12:08Z</time>
      </trkpt>
      <trkpt lat="42.20347" lon="0.98705">
        <ele>530.07</ele>
        <time>2021-08-01T12:12:12Z</time>
      </trkpt>
      <trkpt lat="42.20298" lon="0.98668">
        <ele>527.33</ele>
        <time>2021-08-01T12:12:20Z</time>
      </trkpt>
      <trkpt lat="42.20296" lon="0.98668">
        <ele>526.75</ele>
        <time>2021-08-01T12:12:21Z</time>
      </trkpt>
      <trkpt lat="42.20293" lon="0.9867">
        <ele>526.2</ele>
        <time>2021-08-01T12:12:22Z</time>
      </trkpt>
      <trkpt lat="42.20288" lon="0.98681">
        <ele>525.24</ele>
        <time>2021-08-01T12:12:24Z</time>
      </trkpt>
      <trkpt lat="42.20287" lon="0.9869">
        <ele>524.73</ele>
        <time>2021-08-01T12:12:25Z</time>
      </trkpt>
      <trkpt lat="42.20286" lon="0.98699">
        <ele>524.17</ele>
        <time>2021-08-01T12:12:26Z</time>
      </trkpt>
      <trkpt lat="42.20282" lon="0.98717">
        <ele>523.29</ele>
        <time>2021-08-01T12:12:28Z</time>
      </trkpt>
      <trkpt lat="42.20265" lon="0.98751">
        <ele>521.44</ele>
        <time>2021-08-01T12:12:32Z</time>
      </trkpt>
      <trkpt lat="42.2023" lon="0.98785">
        <ele>519.48</ele>
        <time>2021-08-01T12:12:41Z</time>
      </trkpt>
      <trkpt lat="42.20216" lon="0.98792">
        <ele>518.37</ele>
        <time>2021-08-01T12:12:54Z</time>
      </trkpt>
      <trkpt lat="42.2021" lon="0.98785">
        <ele>518.34</ele>
        <time>2021-08-01T12:12:56Z</time>
      </trkpt>
      <trkpt lat="42.20204" lon="0.98777">
        <ele>518.25</ele>
        <time>2021-08-01T12:12:58Z</time>
      </trkpt>
      <trkpt lat="42.20197" lon="0.98769">
        <ele>518.04</ele>
        <time>2021-08-01T12:13:00Z</time>
      </trkpt>
      <trkpt lat="42.20195" lon="0.98763">
        <ele>517.91</ele>
        <time>2021-08-01T12:13:01Z</time>
      </trkpt>
      <trkpt lat="42.20194" lon="0.98755">
        <ele>517.8</ele>
        <time>2021-08-01T12:13:02Z</time>
      </trkpt>
      <trkpt lat="42.20194" lon="0.98745">
        <ele>517.69</ele>
        <time>2021-08-01T12:13:03Z</time>
      </trkpt>
      <trkpt lat="42.20194" lon="0.98734">
        <ele>517.55</ele>
        <time>2021-08-01T12:13:04Z</time>
      </trkpt>
      <trkpt lat="42.20195" lon="0.98723">
        <ele>517.41</ele>
        <time>2021-08-01T12:13:05Z</time>
      </trkpt>
      <trkpt lat="42.20195" lon="0.98711">
        <ele>517.25</ele>
        <time>2021-08-01T12:13:06Z</time>
      </trkpt>
      <trkpt lat="42.20196" lon="0.98618">
        <ele>514.17</ele>
        <time>2021-08-01T12:13:13Z</time>
      </trkpt>
      <trkpt lat="42.20191" lon="0.98547">
        <ele>510.94</ele>
        <time>2021-08-01T12:13:18Z</time>
      </trkpt>
      <trkpt lat="42.2019" lon="0.98535">
        <ele>510.02</ele>
        <time>2021-08-01T12:13:19Z</time>
      </trkpt>
      <trkpt lat="42.20196" lon="0.98494">
        <ele>505.92</ele>
        <time>2021-08-01T12:13:23Z</time>
      </trkpt>
      <trkpt lat="42.20201" lon="0.98485">
        <ele>504.21</ele>
        <time>2021-08-01T12:13:24Z</time>
      </trkpt>
      <trkpt lat="42.20193" lon="0.98435">
        <ele>499.75</ele>
        <time>2021-08-01T12:13:30Z</time>
      </trkpt>
      <trkpt lat="42.20171" lon="0.9839">
        <ele>497.25</ele>
        <time>2021-08-01T12:13:35Z</time>
      </trkpt>
      <trkpt lat="42.20149" lon="0.98388">
        <ele>493.61</ele>
        <time>2021-08-01T12:13:41Z</time>
      </trkpt>
      <trkpt lat="42.20137" lon="0.98404">
        <ele>492.11</ele>
        <time>2021-08-01T12:13:43Z</time>
      </trkpt>
      <trkpt lat="42.20114" lon="0.98427">
        <ele>487.94</ele>
        <time>2021-08-01T12:13:49Z</time>
      </trkpt>
      <trkpt lat="42.20107" lon="0.9843">
        <ele>484.86</ele>
        <time>2021-08-01T12:13:58Z</time>
      </trkpt>
      <trkpt lat="42.20089" lon="0.98445">
        <ele>484.3</ele>
        <time>2021-08-01T12:14:05Z</time>
      </trkpt>
      <trkpt lat="42.20055" lon="0.98449">
        <ele>484.48</ele>
        <time>2021-08-01T12:14:10Z</time>
      </trkpt>
      <trkpt lat="42.19992" lon="0.98403">
        <ele>486.52</ele>
        <time>2021-08-01T12:14:17Z</time>
      </trkpt>
      <trkpt lat="42.19983" lon="0.9837">
        <ele>487.24</ele>
        <time>2021-08-01T12:14:19Z</time>
      </trkpt>
      <trkpt lat="42.19966" lon="0.98286">
        <ele>489.87</ele>
        <time>2021-08-01T12:14:24Z</time>
      </trkpt>
      <trkpt lat="42.19958" lon="0.98256">
        <ele>490.07</ele>
        <time>2021-08-01T12:14:26Z</time>
      </trkpt>
      <trkpt lat="42.19939" lon="0.98223">
        <ele>488.79</ele>
        <time>2021-08-01T12:14:30Z</time>
      </trkpt>
      <trkpt lat="42.19934" lon="0.98212">
        <ele>487.59</ele>
        <time>2021-08-01T12:14:32Z</time>
      </trkpt>
      <trkpt lat="42.19935" lon="0.98175">
        <ele>483.52</ele>
        <time>2021-08-01T12:14:39Z</time>
      </trkpt>
      <trkpt lat="42.19938" lon="0.9817">
        <ele>483.19</ele>
        <time>2021-08-01T12:14:40Z</time>
      </trkpt>
      <trkpt lat="42.19963" lon="0.98116">
        <ele>482.01</ele>
        <time>2021-08-01T12:14:48Z</time>
      </trkpt>
      <trkpt lat="42.19963" lon="0.98067">
        <ele>481.54</ele>
        <time>2021-08-01T12:14:53Z</time>
      </trkpt>
      <trkpt lat="42.1994" lon="0.97914">
        <ele>480.92</ele>
        <time>2021-08-01T12:15:04Z</time>
      </trkpt>
      <trkpt lat="42.19917" lon="0.97827">
        <ele>480.44</ele>
        <time>2021-08-01T12:15:11Z</time>
      </trkpt>
      <trkpt lat="42.19917" lon="0.97779">
        <ele>480.23</ele>
        <time>2021-08-01T12:15:15Z</time>
      </trkpt>
      <trkpt lat="42.19905" lon="0.97719">
        <ele>479.52</ele>
        <time>2021-08-01T12:15:23Z</time>
      </trkpt>
      <trkpt lat="42.19907" lon="0.97705">
        <ele>479.29</ele>
        <time>2021-08-01T12:15:25Z</time>
      </trkpt>
      <trkpt lat="42.19921" lon="0.97626">
        <ele>479.65</ele>
        <time>2021-08-01T12:15:34Z</time>
      </trkpt>
      <trkpt lat="42.19931" lon="0.97499">
        <ele>481.06</ele>
        <time>2021-08-01T12:15:43Z</time>
      </trkpt>
      <trkpt lat="42.1993" lon="0.9745">
        <ele>481.09</ele>
        <time>2021-08-01T12:15:47Z</time>
      </trkpt>
      <trkpt lat="42.19916" lon="0.9741">
        <ele>481.24</ele>
        <time>2021-08-01T12:15:51Z</time>
      </trkpt>
      <trkpt lat="42.19873" lon="0.97339">
        <ele>482.64</ele>
        <time>2021-08-01T12:15:59Z</time>
      </trkpt>
      <trkpt lat="42.19845" lon="0.9727">
        <ele>484.04</ele>
        <time>2021-08-01T12:16:07Z</time>
      </trkpt>
      <trkpt lat="42.19837" lon="0.97264">
        <ele>484.35</ele>
        <time>2021-08-01T12:16:08Z</time>
      </trkpt>
      <trkpt lat="42.19765" lon="0.97171">
        <ele>486.8</ele>
        <time>2021-08-01T12:16:18Z</time>
      </trkpt>
      <trkpt lat="42.19752" lon="0.97148">
        <ele>486.85</ele>
        <time>2021-08-01T12:16:20Z</time>
      </trkpt>
      <trkpt lat="42.19697" lon="0.97083">
        <ele>486.23</ele>
        <time>2021-08-01T12:16:26Z</time>
      </trkpt>
      <trkpt lat="42.19655" lon="0.97061">
        <ele>485.84</ele>
        <time>2021-08-01T12:16:31Z</time>
      </trkpt>
      <trkpt lat="42.19622" lon="0.97034">
        <ele>485.45</ele>
        <time>2021-08-01T12:16:37Z</time>
      </trkpt>
      <trkpt lat="42.19606" lon="0.96978">
        <ele>485.07</ele>
        <time>2021-08-01T12:16:43Z</time>
      </trkpt>
      <trkpt lat="42.19601" lon="0.96919">
        <ele>486.37</ele>
        <time>2021-08-01T12:16:49Z</time>
      </trkpt>
      <trkpt lat="42.1961" lon="0.96832">
        <ele>489.65</ele>
        <time>2021-08-01T12:16:59Z</time>
      </trkpt>
      <trkpt lat="42.19609" lon="0.96787">
        <ele>491.03</ele>
        <time>2021-08-01T12:17:03Z</time>
      </trkpt>
      <trkpt lat="42.19603" lon="0.96726">
        <ele>492.12</ele>
        <time>2021-08-01T12:17:08Z</time>
      </trkpt>
      <trkpt lat="42.19592" lon="0.9668">
        <ele>492.02</ele>
        <time>2021-08-01T12:17:12Z</time>
      </trkpt>
      <trkpt lat="42.19552" lon="0.96592">
        <ele>490.73</ele>
        <time>2021-08-01T12:17:20Z</time>
      </trkpt>
      <trkpt lat="42.19527" lon="0.96565">
        <ele>489.8</ele>
        <time>2021-08-01T12:17:24Z</time>
      </trkpt>
      <trkpt lat="42.19443" lon="0.96543">
        <ele>488.7</ele>
        <time>2021-08-01T12:17:33Z</time>
      </trkpt>
      <trkpt lat="42.19409" lon="0.96541">
        <ele>488.22</ele>
        <time>2021-08-01T12:17:37Z</time>
      </trkpt>
      <trkpt lat="42.19402" lon="0.96537">
        <ele>488.14</ele>
        <time>2021-08-01T12:17:38Z</time>
      </trkpt>
      <trkpt lat="42.19372" lon="0.96489">
        <ele>488.13</ele>
        <time>2021-08-01T12:17:44Z</time>
      </trkpt>
      <trkpt lat="42.19332" lon="0.96446">
        <ele>491.04</ele>
        <time>2021-08-01T12:17:50Z</time>
      </trkpt>
      <trkpt lat="42.19302" lon="0.96428">
        <ele>494.05</ele>
        <time>2021-08-01T12:17:55Z</time>
      </trkpt>
      <trkpt lat="42.19277" lon="0.96415">
        <ele>497.04</ele>
        <time>2021-08-01T12:18:00Z</time>
      </trkpt>
      <trkpt lat="42.19243" lon="0.96384">
        <ele>500.7</ele>
        <time>2021-08-01T12:18:07Z</time>
      </trkpt>
      <trkpt lat="42.19208" lon="0.9635">
        <ele>504.08</ele>
        <time>2021-08-01T12:18:13Z</time>
      </trkpt>
      <trkpt lat="42.19201" lon="0.96301">
        <ele>507.84</ele>
        <time>2021-08-01T12:18:19Z</time>
      </trkpt>
      <trkpt lat="42.19212" lon="0.96284">
        <ele>508.88</ele>
        <time>2021-08-01T12:18:21Z</time>
      </trkpt>
      <trkpt lat="42.19243" lon="0.96239">
        <ele>511.75</ele>
        <time>2021-08-01T12:18:27Z</time>
      </trkpt>
      <trkpt lat="42.19255" lon="0.962">
        <ele>513.57</ele>
        <time>2021-08-01T12:18:32Z</time>
      </trkpt>
      <trkpt lat="42.19255" lon="0.96096">
        <ele>515.74</ele>
        <time>2021-08-01T12:18:42Z</time>
      </trkpt>
      <trkpt lat="42.19258" lon="0.96032">
        <ele>516.41</ele>
        <time>2021-08-01T12:18:48Z</time>
      </trkpt>
      <trkpt lat="42.19238" lon="0.96009">
        <ele>516.46</ele>
        <time>2021-08-01T12:18:55Z</time>
      </trkpt>
      <trkpt lat="42.19201" lon="0.96018">
        <ele>514.86</ele>
        <time>2021-08-01T12:19:00Z</time>
      </trkpt>
      <trkpt lat="42.19187" lon="0.9601">
        <ele>513.96</ele>
        <time>2021-08-01T12:19:02Z</time>
      </trkpt>
      <trkpt lat="42.19153" lon="0.96006">
        <ele>512.22</ele>
        <time>2021-08-01T12:19:06Z</time>
      </trkpt>
      <trkpt lat="42.19112" lon="0.95997">
        <ele>507.51</ele>
        <time>2021-08-01T12:19:12Z</time>
      </trkpt>
      <trkpt lat="42.19107" lon="0.95978">
        <ele>504.23</ele>
        <time>2021-08-01T12:19:16Z</time>
      </trkpt>
      <trkpt lat="42.1913" lon="0.95968">
        <ele>501.13</ele>
        <time>2021-08-01T12:19:21Z</time>
      </trkpt>
      <trkpt lat="42.19158" lon="0.95957">
        <ele>498.56</ele>
        <time>2021-08-01T12:19:25Z</time>
      </trkpt>
      <trkpt lat="42.19169" lon="0.9595">
        <ele>497.23</ele>
        <time>2021-08-01T12:19:27Z</time>
      </trkpt>
      <trkpt lat="42.19163" lon="0.95925">
        <ele>493.18</ele>
        <time>2021-08-01T12:19:33Z</time>
      </trkpt>
      <trkpt lat="42.19155" lon="0.95924">
        <ele>492.62</ele>
        <time>2021-08-01T12:19:34Z</time>
      </trkpt>
      <trkpt lat="42.19137" lon="0.95923">
        <ele>491.66</ele>
        <time>2021-08-01T12:19:36Z</time>
      </trkpt>
      <trkpt lat="42.1911" lon="0.95927">
        <ele>489.95</ele>
        <time>2021-08-01T12:19:39Z</time>
      </trkpt>
      <trkpt lat="42.19053" lon="0.95921">
        <ele>485.83</ele>
        <time>2021-08-01T12:19:45Z</time>
      </trkpt>
      <trkpt lat="42.19011" lon="0.95916">
        <ele>482.51</ele>
        <time>2021-08-01T12:19:49Z</time>
      </trkpt>
      <trkpt lat="42.18967" lon="0.95908">
        <ele>479</ele>
        <time>2021-08-01T12:19:54Z</time>
      </trkpt>
      <trkpt lat="42.18941" lon="0.95875">
        <ele>476.98</ele>
        <time>2021-08-01T12:20:01Z</time>
      </trkpt>
      <trkpt lat="42.18939" lon="0.95863">
        <ele>511.8</ele>
      </trkpt>
    </trkseg>
  </trk>
  <trk>
    <name><![CDATA[Jour 3_2]]></name>
    <trkseg>
      <trkpt lat="42.28985" lon="0.61513">
        <ele>1131.48</ele>
        <time>2021-08-01T16:31:59Z</time>
      </trkpt>
      <trkpt lat="42.28992" lon="0.61508">
        <ele>1132.32</ele>
        <time>2021-08-01T16:32:01Z</time>
      </trkpt>
      <trkpt lat="42.29044" lon="0.61491">
        <ele>1135.79</ele>
        <time>2021-08-01T16:32:10Z</time>
      </trkpt>
      <trkpt lat="42.29059" lon="0.61486">
        <ele>1136.45</ele>
        <time>2021-08-01T16:32:12Z</time>
      </trkpt>
      <trkpt lat="42.29141" lon="0.61411">
        <ele>1139.21</ele>
        <time>2021-08-01T16:32:23Z</time>
      </trkpt>
      <trkpt lat="42.29157" lon="0.61392">
        <ele>1139.31</ele>
        <time>2021-08-01T16:32:25Z</time>
      </trkpt>
      <trkpt lat="42.29192" lon="0.61365">
        <ele>1138.77</ele>
        <time>2021-08-01T16:32:29Z</time>
      </trkpt>
      <trkpt lat="42.29228" lon="0.61354">
        <ele>1137.65</ele>
        <time>2021-08-01T16:32:33Z</time>
      </trkpt>
      <trkpt lat="42.29295" lon="0.61345">
        <ele>1135.01</ele>
        <time>2021-08-01T16:32:41Z</time>
      </trkpt>
      <trkpt lat="42.29324" lon="0.61321">
        <ele>1134.39</ele>
        <time>2021-08-01T16:32:45Z</time>
      </trkpt>
      <trkpt lat="42.29354" lon="0.61309">
        <ele>1134.54</ele>
        <time>2021-08-01T16:32:49Z</time>
      </trkpt>
      <trkpt lat="42.29375" lon="0.61308">
        <ele>1135.61</ele>
        <time>2021-08-01T16:32:52Z</time>
      </trkpt>
      <trkpt lat="42.29406" lon="0.61294">
        <ele>1138.83</ele>
        <time>2021-08-01T16:32:58Z</time>
      </trkpt>
      <trkpt lat="42.29427" lon="0.613">
        <ele>1140.74</ele>
        <time>2021-08-01T16:33:03Z</time>
      </trkpt>
      <trkpt lat="42.29449" lon="0.61318">
        <ele>1141.69</ele>
        <time>2021-08-01T16:33:07Z</time>
      </trkpt>
      <trkpt lat="42.29482" lon="0.61321">
        <ele>1143.26</ele>
        <time>2021-08-01T16:33:15Z</time>
      </trkpt>
      <trkpt lat="42.29528" lon="0.61341">
        <ele>1143.12</ele>
        <time>2021-08-01T16:33:28Z</time>
      </trkpt>
      <trkpt lat="42.29558" lon="0.61365">
        <ele>1143.13</ele>
        <time>2021-08-01T16:33:33Z</time>
      </trkpt>
      <trkpt lat="42.29584" lon="0.61376">
        <ele>1143.28</ele>
        <time>2021-08-01T16:33:37Z</time>
      </trkpt>
      <trkpt lat="42.29606" lon="0.61376">
        <ele>1145.37</ele>
        <time>2021-08-01T16:33:46Z</time>
      </trkpt>
      <trkpt lat="42.29627" lon="0.6138">
        <ele>1146.7</ele>
        <time>2021-08-01T16:33:55Z</time>
      </trkpt>
      <trkpt lat="42.29706" lon="0.61361">
        <ele>1147.81</ele>
        <time>2021-08-01T16:34:05Z</time>
      </trkpt>
      <trkpt lat="42.29792" lon="0.61326">
        <ele>1149.49</ele>
        <time>2021-08-01T16:34:14Z</time>
      </trkpt>
      <trkpt lat="42.29834" lon="0.61319">
        <ele>1149.93</ele>
        <time>2021-08-01T16:34:18Z</time>
      </trkpt>
      <trkpt lat="42.29906" lon="0.61288">
        <ele>1151.02</ele>
        <time>2021-08-01T16:34:25Z</time>
      </trkpt>
      <trkpt lat="42.29965" lon="0.61252">
        <ele>1153.67</ele>
        <time>2021-08-01T16:34:30Z</time>
      </trkpt>
      <trkpt lat="42.30027" lon="0.61195">
        <ele>1158.04</ele>
        <time>2021-08-01T16:34:36Z</time>
      </trkpt>
      <trkpt lat="42.30096" lon="0.61153">
        <ele>1161.39</ele>
        <time>2021-08-01T16:34:42Z</time>
      </trkpt>
      <trkpt lat="42.30164" lon="0.61126">
        <ele>1163.08</ele>
        <time>2021-08-01T16:34:47Z</time>
      </trkpt>
      <trkpt lat="42.30238" lon="0.61073">
        <ele>1164.76</ele>
        <time>2021-08-01T16:34:53Z</time>
      </trkpt>
      <trkpt lat="42.3027" lon="0.61044">
        <ele>1166.07</ele>
        <time>2021-08-01T16:34:56Z</time>
      </trkpt>
      <trkpt lat="42.3029" lon="0.61024">
        <ele>1166.45</ele>
        <time>2021-08-01T16:34:58Z</time>
      </trkpt>
      <trkpt lat="42.30318" lon="0.60977">
        <ele>1169.94</ele>
        <time>2021-08-01T16:35:05Z</time>
      </trkpt>
      <trkpt lat="42.30328" lon="0.60955">
        <ele>1172.55</ele>
        <time>2021-08-01T16:35:10Z</time>
      </trkpt>
      <trkpt lat="42.30341" lon="0.60943">
        <ele>1174.44</ele>
        <time>2021-08-01T16:35:14Z</time>
      </trkpt>
      <trkpt lat="42.30353" lon="0.60924">
        <ele>1176.46</ele>
        <time>2021-08-01T16:35:18Z</time>
      </trkpt>
      <trkpt lat="42.30378" lon="0.60892">
        <ele>1180.49</ele>
        <time>2021-08-01T16:35:25Z</time>
      </trkpt>
      <trkpt lat="42.30401" lon="0.60884">
        <ele>1182.68</ele>
        <time>2021-08-01T16:35:29Z</time>
      </trkpt>
      <trkpt lat="42.30423" lon="0.60866">
        <ele>1185.33</ele>
        <time>2021-08-01T16:35:34Z</time>
      </trkpt>
      <trkpt lat="42.30437" lon="0.60854">
        <ele>1186.51</ele>
        <time>2021-08-01T16:35:37Z</time>
      </trkpt>
      <trkpt lat="42.30451" lon="0.60842">
        <ele>1188.16</ele>
        <time>2021-08-01T16:35:40Z</time>
      </trkpt>
      <trkpt lat="42.30475" lon="0.60829">
        <ele>1190.41</ele>
        <time>2021-08-01T16:35:44Z</time>
      </trkpt>
      <trkpt lat="42.30516" lon="0.60818">
        <ele>1194.06</ele>
        <time>2021-08-01T16:35:50Z</time>
      </trkpt>
      <trkpt lat="42.30539" lon="0.60805">
        <ele>1196.99</ele>
        <time>2021-08-01T16:35:55Z</time>
      </trkpt>
      <trkpt lat="42.30566" lon="0.60773">
        <ele>1200.18</ele>
        <time>2021-08-01T16:36:05Z</time>
      </trkpt>
      <trkpt lat="42.30571" lon="0.60771">
        <ele>1200.27</ele>
        <time>2021-08-01T16:36:06Z</time>
      </trkpt>
      <trkpt lat="42.30615" lon="0.60753">
        <ele>1203.13</ele>
        <time>2021-08-01T16:36:20Z</time>
      </trkpt>
      <trkpt lat="42.30646" lon="0.60778">
        <ele>1203.1</ele>
        <time>2021-08-01T16:36:29Z</time>
      </trkpt>
      <trkpt lat="42.30656" lon="0.60797">
        <ele>1201.37</ele>
        <time>2021-08-01T16:36:33Z</time>
      </trkpt>
      <trkpt lat="42.30662" lon="0.6082">
        <ele>1197.57</ele>
        <time>2021-08-01T16:36:39Z</time>
      </trkpt>
      <trkpt lat="42.30667" lon="0.60842">
        <ele>1194.97</ele>
        <time>2021-08-01T16:36:48Z</time>
      </trkpt>
      <trkpt lat="42.3068" lon="0.60885">
        <ele>1191.83</ele>
        <time>2021-08-01T16:36:58Z</time>
      </trkpt>
      <trkpt lat="42.30699" lon="0.60913">
        <ele>1189.84</ele>
        <time>2021-08-01T16:37:08Z</time>
      </trkpt>
      <trkpt lat="42.3071" lon="0.6092">
        <ele>1189.17</ele>
        <time>2021-08-01T16:37:16Z</time>
      </trkpt>
      <trkpt lat="42.30746" lon="0.60953">
        <ele>1189.13</ele>
        <time>2021-08-01T16:37:27Z</time>
      </trkpt>
      <trkpt lat="42.30769" lon="0.60973">
        <ele>1188.08</ele>
        <time>2021-08-01T16:37:37Z</time>
      </trkpt>
      <trkpt lat="42.30769" lon="0.60973">
        <ele>1186.72</ele>
        <time>2021-08-01T16:37:59Z</time>
      </trkpt>
      <trkpt lat="42.30769" lon="0.60973">
        <ele>1186.74</ele>
        <time>2021-08-01T16:38:00Z</time>
      </trkpt>
      <trkpt lat="42.30764" lon="0.60967">
        <ele>1186.71</ele>
        <time>2021-08-01T16:38:06Z</time>
      </trkpt>
      <trkpt lat="42.30772" lon="0.60968">
        <ele>1187.05</ele>
        <time>2021-08-01T16:38:11Z</time>
      </trkpt>
      <trkpt lat="42.30772" lon="0.60977">
        <ele>1186.77</ele>
        <time>2021-08-01T16:38:22Z</time>
      </trkpt>
      <trkpt lat="42.30772" lon="0.60977">
        <ele>1186.49</ele>
        <time>2021-08-01T16:40:45Z</time>
      </trkpt>
      <trkpt lat="42.30772" lon="0.60978">
        <ele>1186.49</ele>
        <time>2021-08-01T16:40:46Z</time>
      </trkpt>
      <trkpt lat="42.30788" lon="0.61001">
        <ele>1186.91</ele>
        <time>2021-08-01T16:40:53Z</time>
      </trkpt>
      <trkpt lat="42.30802" lon="0.61034">
        <ele>1186.17</ele>
        <time>2021-08-01T16:41:01Z</time>
      </trkpt>
      <trkpt lat="42.30802" lon="0.61053">
        <ele>1186.33</ele>
        <time>2021-08-01T16:41:05Z</time>
      </trkpt>
      <trkpt lat="42.30797" lon="0.61107">
        <ele>1187.6</ele>
        <time>2021-08-01T16:41:19Z</time>
      </trkpt>
      <trkpt lat="42.30794" lon="0.61184">
        <ele>1189.51</ele>
        <time>2021-08-01T16:41:34Z</time>
      </trkpt>
      <trkpt lat="42.30787" lon="0.61211">
        <ele>1190.68</ele>
        <time>2021-08-01T16:41:39Z</time>
      </trkpt>
      <trkpt lat="42.30768" lon="0.61252">
        <ele>1192.77</ele>
        <time>2021-08-01T16:41:47Z</time>
      </trkpt>
      <trkpt lat="42.30767" lon="0.61281">
        <ele>1193.45</ele>
        <time>2021-08-01T16:41:51Z</time>
      </trkpt>
      <trkpt lat="42.30775" lon="0.61334">
        <ele>1195.42</ele>
        <time>2021-08-01T16:41:57Z</time>
      </trkpt>
      <trkpt lat="42.30788" lon="0.61358">
        <ele>1198.01</ele>
        <time>2021-08-01T16:42:05Z</time>
      </trkpt>
      <trkpt lat="42.30813" lon="0.61343">
        <ele>1200.96</ele>
        <time>2021-08-01T16:42:13Z</time>
      </trkpt>
      <trkpt lat="42.30832" lon="0.61347">
        <ele>1201.85</ele>
        <time>2021-08-01T16:42:17Z</time>
      </trkpt>
      <trkpt lat="42.30877" lon="0.61372">
        <ele>1202.6</ele>
        <time>2021-08-01T16:42:25Z</time>
      </trkpt>
      <trkpt lat="42.30912" lon="0.61422">
        <ele>1202.3</ele>
        <time>2021-08-01T16:42:33Z</time>
      </trkpt>
      <trkpt lat="42.30918" lon="0.61449">
        <ele>1202.31</ele>
        <time>2021-08-01T16:42:40Z</time>
      </trkpt>
      <trkpt lat="42.30918" lon="0.61463">
        <ele>1202.26</ele>
        <time>2021-08-01T16:43:10Z</time>
      </trkpt>
      <trkpt lat="42.30919" lon="0.61463">
        <ele>1202.51</ele>
        <time>2021-08-01T16:43:33Z</time>
      </trkpt>
      <trkpt lat="42.30918" lon="0.61461">
        <ele>1201.95</ele>
        <time>2021-08-01T16:44:44Z</time>
      </trkpt>
      <trkpt lat="42.30919" lon="0.61462">
        <ele>1201.93</ele>
        <time>2021-08-01T16:44:47Z</time>
      </trkpt>
      <trkpt lat="42.30937" lon="0.61464">
        <ele>1201.65</ele>
        <time>2021-08-01T16:44:53Z</time>
      </trkpt>
      <trkpt lat="42.30978" lon="0.61488">
        <ele>1198.91</ele>
        <time>2021-08-01T16:45:05Z</time>
      </trkpt>
      <trkpt lat="42.31005" lon="0.6151">
        <ele>1196.17</ele>
        <time>2021-08-01T16:45:15Z</time>
      </trkpt>
      <trkpt lat="42.31023" lon="0.61533">
        <ele>1194.75</ele>
        <time>2021-08-01T16:45:19Z</time>
      </trkpt>
      <trkpt lat="42.31044" lon="0.61569">
        <ele>1192.27</ele>
        <time>2021-08-01T16:45:27Z</time>
      </trkpt>
      <trkpt lat="42.31072" lon="0.61613">
        <ele>1189.38</ele>
        <time>2021-08-01T16:45:36Z</time>
      </trkpt>
      <trkpt lat="42.31109" lon="0.61622">
        <ele>1186.69</ele>
        <time>2021-08-01T16:45:48Z</time>
      </trkpt>
      <trkpt lat="42.31112" lon="0.61621">
        <ele>1186.45</ele>
        <time>2021-08-01T16:45:49Z</time>
      </trkpt>
      <trkpt lat="42.31134" lon="0.61616">
        <ele>1185.09</ele>
        <time>2021-08-01T16:45:54Z</time>
      </trkpt>
      <trkpt lat="42.31157" lon="0.61607">
        <ele>1182.46</ele>
        <time>2021-08-01T16:45:59Z</time>
      </trkpt>
      <trkpt lat="42.31173" lon="0.61603">
        <ele>1180.17</ele>
        <time>2021-08-01T16:46:03Z</time>
      </trkpt>
      <trkpt lat="42.31174" lon="0.61593">
        <ele>1177.94</ele>
        <time>2021-08-01T16:46:07Z</time>
      </trkpt>
      <trkpt lat="42.31152" lon="0.6159">
        <ele>1173.89</ele>
        <time>2021-08-01T16:46:15Z</time>
      </trkpt>
      <trkpt lat="42.31139" lon="0.61588">
        <ele>1170.54</ele>
        <time>2021-08-01T16:46:20Z</time>
      </trkpt>
      <trkpt lat="42.31137" lon="0.61587">
        <ele>1169.88</ele>
        <time>2021-08-01T16:46:21Z</time>
      </trkpt>
      <trkpt lat="42.31148" lon="0.61575">
        <ele>1166.06</ele>
        <time>2021-08-01T16:46:27Z</time>
      </trkpt>
      <trkpt lat="42.31146" lon="0.61566">
        <ele>1162.68</ele>
        <time>2021-08-01T16:46:32Z</time>
      </trkpt>
      <trkpt lat="42.3113" lon="0.61567">
        <ele>1160.45</ele>
        <time>2021-08-01T16:46:36Z</time>
      </trkpt>
      <trkpt lat="42.3112" lon="0.61569">
        <ele>1159.36</ele>
        <time>2021-08-01T16:46:38Z</time>
      </trkpt>
      <trkpt lat="42.31119" lon="0.61548">
        <ele>1155.56</ele>
        <time>2021-08-01T16:46:44Z</time>
      </trkpt>
      <trkpt lat="42.31126" lon="0.61539">
        <ele>1154.02</ele>
        <time>2021-08-01T16:46:46Z</time>
      </trkpt>
      <trkpt lat="42.31148" lon="0.61526">
        <ele>1150.25</ele>
        <time>2021-08-01T16:46:51Z</time>
      </trkpt>
      <trkpt lat="42.3117" lon="0.61515">
        <ele>1145.23</ele>
        <time>2021-08-01T16:46:56Z</time>
      </trkpt>
      <trkpt lat="42.31181" lon="0.61523">
        <ele>1142.11</ele>
        <time>2021-08-01T16:46:59Z</time>
      </trkpt>
      <trkpt lat="42.31187" lon="0.6153">
        <ele>1140.12</ele>
        <time>2021-08-01T16:47:01Z</time>
      </trkpt>
      <trkpt lat="42.31193" lon="0.61538">
        <ele>1138.21</ele>
        <time>2021-08-01T16:47:03Z</time>
      </trkpt>
      <trkpt lat="42.31214" lon="0.61548">
        <ele>1134.89</ele>
        <time>2021-08-01T16:47:08Z</time>
      </trkpt>
      <trkpt lat="42.31222" lon="0.61546">
        <ele>1133.68</ele>
        <time>2021-08-01T16:47:10Z</time>
      </trkpt>
      <trkpt lat="42.31255" lon="0.6153">
        <ele>1129.7</ele>
        <time>2021-08-01T16:47:17Z</time>
      </trkpt>
      <trkpt lat="42.31277" lon="0.615">
        <ele>1127.31</ele>
        <time>2021-08-01T16:47:24Z</time>
      </trkpt>
      <trkpt lat="42.31261" lon="0.61487">
        <ele>1124.59</ele>
        <time>2021-08-01T16:47:29Z</time>
      </trkpt>
      <trkpt lat="42.31255" lon="0.61487">
        <ele>1123.14</ele>
        <time>2021-08-01T16:47:31Z</time>
      </trkpt>
      <trkpt lat="42.31207" lon="0.61481">
        <ele>1119.12</ele>
        <time>2021-08-01T16:47:40Z</time>
      </trkpt>
      <trkpt lat="42.31204" lon="0.61475">
        <ele>1118.71</ele>
        <time>2021-08-01T16:47:41Z</time>
      </trkpt>
      <trkpt lat="42.31193" lon="0.61449">
        <ele>1116.94</ele>
        <time>2021-08-01T16:47:45Z</time>
      </trkpt>
      <trkpt lat="42.31184" lon="0.6141">
        <ele>1113.27</ele>
        <time>2021-08-01T16:47:51Z</time>
      </trkpt>
      <trkpt lat="42.31185" lon="0.61403">
        <ele>1112.58</ele>
        <time>2021-08-01T16:47:52Z</time>
      </trkpt>
      <trkpt lat="42.31189" lon="0.61389">
        <ele>1111.11</ele>
        <time>2021-08-01T16:47:54Z</time>
      </trkpt>
      <trkpt lat="42.31195" lon="0.61346">
        <ele>1106.83</ele>
        <time>2021-08-01T16:47:59Z</time>
      </trkpt>
      <trkpt lat="42.31201" lon="0.61317">
        <ele>1103.13</ele>
        <time>2021-08-01T16:48:03Z</time>
      </trkpt>
      <trkpt lat="42.31208" lon="0.61302">
        <ele>1099.49</ele>
        <time>2021-08-01T16:48:07Z</time>
      </trkpt>
      <trkpt lat="42.31215" lon="0.61288">
        <ele>1095.93</ele>
        <time>2021-08-01T16:48:11Z</time>
      </trkpt>
      <trkpt lat="42.31226" lon="0.61273">
        <ele>1092.62</ele>
        <time>2021-08-01T16:48:17Z</time>
      </trkpt>
      <trkpt lat="42.31228" lon="0.61272">
        <ele>1089.6</ele>
        <time>2021-08-01T16:48:28Z</time>
      </trkpt>
      <trkpt lat="42.31227" lon="0.61272">
        <ele>1089.56</ele>
        <time>2021-08-01T16:48:50Z</time>
      </trkpt>
      <trkpt lat="42.31227" lon="0.61272">
        <ele>1089.47</ele>
        <time>2021-08-01T16:54:17Z</time>
      </trkpt>
      <trkpt lat="42.31227" lon="0.61273">
        <ele>1089.47</ele>
        <time>2021-08-01T16:55:05Z</time>
      </trkpt>
      <trkpt lat="42.31226" lon="0.61273">
        <ele>1089.47</ele>
        <time>2021-08-01T16:55:56Z</time>
      </trkpt>
      <trkpt lat="42.31227" lon="0.61273">
        <ele>1089.47</ele>
        <time>2021-08-01T16:56:30Z</time>
      </trkpt>
      <trkpt lat="42.31228" lon="0.61272">
        <ele>1089.47</ele>
        <time>2021-08-01T16:57:08Z</time>
      </trkpt>
      <trkpt lat="42.31227" lon="0.61273">
        <ele>1089.47</ele>
        <time>2021-08-01T16:57:43Z</time>
      </trkpt>
      <trkpt lat="42.31228" lon="0.61273">
        <ele>1089.47</ele>
        <time>2021-08-01T16:58:18Z</time>
      </trkpt>
      <trkpt lat="42.31228" lon="0.61274">
        <ele>1089.47</ele>
        <time>2021-08-01T16:58:55Z</time>
      </trkpt>
      <trkpt lat="42.31228" lon="0.61274">
        <ele>1089.47</ele>
        <time>2021-08-01T16:59:33Z</time>
      </trkpt>
      <trkpt lat="42.31227" lon="0.61275">
        <ele>1089.47</ele>
        <time>2021-08-01T17:00:33Z</time>
      </trkpt>
      <trkpt lat="42.31227" lon="0.61275">
        <ele>1089.47</ele>
        <time>2021-08-01T17:01:09Z</time>
      </trkpt>
      <trkpt lat="42.31226" lon="0.61275">
        <ele>1089.47</ele>
        <time>2021-08-01T17:02:34Z</time>
      </trkpt>
      <trkpt lat="42.31226" lon="0.61276">
        <ele>1089.47</ele>
        <time>2021-08-01T17:03:44Z</time>
      </trkpt>
      <trkpt lat="42.31227" lon="0.61277">
        <ele>1089.47</ele>
        <time>2021-08-01T17:04:38Z</time>
      </trkpt>
      <trkpt lat="42.31239" lon="0.6127">
        <ele>1089.42</ele>
        <time>2021-08-01T17:05:42Z</time>
      </trkpt>
      <trkpt lat="42.31252" lon="0.61264">
        <ele>1088.69</ele>
        <time>2021-08-01T17:05:54Z</time>
      </trkpt>
      <trkpt lat="42.31251" lon="0.61264">
        <ele>1089.07</ele>
        <time>2021-08-01T17:06:03Z</time>
      </trkpt>
      <trkpt lat="42.31246" lon="0.61263">
        <ele>1089.03</ele>
        <time>2021-08-01T17:06:06Z</time>
      </trkpt>
      <trkpt lat="42.31244" lon="0.61265">
        <ele>1088.66</ele>
        <time>2021-08-01T17:06:09Z</time>
      </trkpt>
      <trkpt lat="42.31235" lon="0.61244">
        <ele>1088.39</ele>
        <time>2021-08-01T17:06:14Z</time>
      </trkpt>
      <trkpt lat="42.31222" lon="0.61205">
        <ele>1087.3</ele>
        <time>2021-08-01T17:06:19Z</time>
      </trkpt>
      <trkpt lat="42.3122" lon="0.61167">
        <ele>1083.85</ele>
        <time>2021-08-01T17:06:25Z</time>
      </trkpt>
      <trkpt lat="42.31247" lon="0.61151">
        <ele>1080.49</ele>
        <time>2021-08-01T17:06:31Z</time>
      </trkpt>
      <trkpt lat="42.31254" lon="0.6113">
        <ele>1077.27</ele>
        <time>2021-08-01T17:06:35Z</time>
      </trkpt>
      <trkpt lat="42.31252" lon="0.61124">
        <ele>1076.39</ele>
        <time>2021-08-01T17:06:36Z</time>
      </trkpt>
      <trkpt lat="42.31247" lon="0.61111">
        <ele>1074.57</ele>
        <time>2021-08-01T17:06:38Z</time>
      </trkpt>
      <trkpt lat="42.31216" lon="0.61074">
        <ele>1070.48</ele>
        <time>2021-08-01T17:06:44Z</time>
      </trkpt>
      <trkpt lat="42.31206" lon="0.6104">
        <ele>1066.75</ele>
        <time>2021-08-01T17:06:51Z</time>
      </trkpt>
      <trkpt lat="42.31214" lon="0.61038">
        <ele>1065.39</ele>
        <time>2021-08-01T17:06:53Z</time>
      </trkpt>
      <trkpt lat="42.31241" lon="0.61032">
        <ele>1061.06</ele>
        <time>2021-08-01T17:06:59Z</time>
      </trkpt>
      <trkpt lat="42.31251" lon="0.61014">
        <ele>1056.92</ele>
        <time>2021-08-01T17:07:04Z</time>
      </trkpt>
      <trkpt lat="42.31252" lon="0.60977">
        <ele>1055.2</ele>
        <time>2021-08-01T17:07:10Z</time>
      </trkpt>
      <trkpt lat="42.31266" lon="0.60943">
        <ele>1055.17</ele>
        <time>2021-08-01T17:07:15Z</time>
      </trkpt>
      <trkpt lat="42.31272" lon="0.60874">
        <ele>1051.35</ele>
        <time>2021-08-01T17:07:24Z</time>
      </trkpt>
      <trkpt lat="42.31287" lon="0.60854">
        <ele>1047.3</ele>
        <time>2021-08-01T17:07:28Z</time>
      </trkpt>
      <trkpt lat="42.31305" lon="0.6085">
        <ele>1044.14</ele>
        <time>2021-08-01T17:07:31Z</time>
      </trkpt>
      <trkpt lat="42.31321" lon="0.60856">
        <ele>1041.01</ele>
        <time>2021-08-01T17:07:34Z</time>
      </trkpt>
      <trkpt lat="42.31332" lon="0.60855">
        <ele>1037.88</ele>
        <time>2021-08-01T17:07:37Z</time>
      </trkpt>
      <trkpt lat="42.31333" lon="0.60841">
        <ele>1034.96</ele>
        <time>2021-08-01T17:07:40Z</time>
      </trkpt>
      <trkpt lat="42.31321" lon="0.60799">
        <ele>1031.41</ele>
        <time>2021-08-01T17:07:46Z</time>
      </trkpt>
      <trkpt lat="42.31318" lon="0.60747">
        <ele>1027.68</ele>
        <time>2021-08-01T17:07:52Z</time>
      </trkpt>
      <trkpt lat="42.31328" lon="0.6072">
        <ele>1025.6</ele>
        <time>2021-08-01T17:07:56Z</time>
      </trkpt>
      <trkpt lat="42.31338" lon="0.60705">
        <ele>1024.32</ele>
        <time>2021-08-01T17:07:59Z</time>
      </trkpt>
      <trkpt lat="42.31341" lon="0.60679">
        <ele>1023.24</ele>
        <time>2021-08-01T17:08:02Z</time>
      </trkpt>
      <trkpt lat="42.31343" lon="0.60631">
        <ele>1021.48</ele>
        <time>2021-08-01T17:08:07Z</time>
      </trkpt>
      <trkpt lat="42.31341" lon="0.606">
        <ele>1019.75</ele>
        <time>2021-08-01T17:08:10Z</time>
      </trkpt>
      <trkpt lat="42.3132" lon="0.60576">
        <ele>1015.37</ele>
        <time>2021-08-01T17:08:16Z</time>
      </trkpt>
      <trkpt lat="42.31312" lon="0.60586">
        <ele>1013.87</ele>
        <time>2021-08-01T17:08:18Z</time>
      </trkpt>
      <trkpt lat="42.31278" lon="0.60581">
        <ele>1008.99</ele>
        <time>2021-08-01T17:08:25Z</time>
      </trkpt>
      <trkpt lat="42.31283" lon="0.60549">
        <ele>1006.14</ele>
        <time>2021-08-01T17:08:29Z</time>
      </trkpt>
      <trkpt lat="42.31295" lon="0.60527">
        <ele>1001.87</ele>
        <time>2021-08-01T17:08:34Z</time>
      </trkpt>
      <trkpt lat="42.31309" lon="0.60504">
        <ele>998.52</ele>
        <time>2021-08-01T17:08:38Z</time>
      </trkpt>
      <trkpt lat="42.31334" lon="0.60465">
        <ele>995.34</ele>
        <time>2021-08-01T17:08:44Z</time>
      </trkpt>
      <trkpt lat="42.31383" lon="0.60407">
        <ele>993.19</ele>
        <time>2021-08-01T17:08:53Z</time>
      </trkpt>
      <trkpt lat="42.31428" lon="0.60345">
        <ele>992.27</ele>
        <time>2021-08-01T17:09:04Z</time>
      </trkpt>
      <trkpt lat="42.31443" lon="0.60309">
        <ele>991.12</ele>
        <time>2021-08-01T17:09:08Z</time>
      </trkpt>
      <trkpt lat="42.31447" lon="0.60289">
        <ele>990.06</ele>
        <time>2021-08-01T17:09:10Z</time>
      </trkpt>
      <trkpt lat="42.31434" lon="0.60279">
        <ele>986.67</ele>
        <time>2021-08-01T17:09:16Z</time>
      </trkpt>
      <trkpt lat="42.31385" lon="0.60313">
        <ele>983.24</ele>
        <time>2021-08-01T17:09:24Z</time>
      </trkpt>
      <trkpt lat="42.31334" lon="0.603">
        <ele>980.79</ele>
        <time>2021-08-01T17:09:32Z</time>
      </trkpt>
      <trkpt lat="42.31322" lon="0.60282">
        <ele>978.68</ele>
        <time>2021-08-01T17:09:35Z</time>
      </trkpt>
      <trkpt lat="42.31309" lon="0.60268">
        <ele>975.59</ele>
        <time>2021-08-01T17:09:38Z</time>
      </trkpt>
      <trkpt lat="42.31311" lon="0.60236">
        <ele>972.15</ele>
        <time>2021-08-01T17:09:42Z</time>
      </trkpt>
      <trkpt lat="42.31314" lon="0.60231">
        <ele>971.24</ele>
        <time>2021-08-01T17:09:43Z</time>
      </trkpt>
      <trkpt lat="42.31308" lon="0.60207">
        <ele>965.92</ele>
        <time>2021-08-01T17:09:49Z</time>
      </trkpt>
      <trkpt lat="42.31303" lon="0.60208">
        <ele>965.11</ele>
        <time>2021-08-01T17:09:50Z</time>
      </trkpt>
      <trkpt lat="42.31287" lon="0.60183">
        <ele>959.99</ele>
        <time>2021-08-01T17:09:57Z</time>
      </trkpt>
      <trkpt lat="42.31292" lon="0.60147">
        <ele>957.59</ele>
        <time>2021-08-01T17:10:01Z</time>
      </trkpt>
      <trkpt lat="42.3128" lon="0.60099">
        <ele>953.9</ele>
        <time>2021-08-01T17:10:06Z</time>
      </trkpt>
      <trkpt lat="42.3129" lon="0.60058">
        <ele>949.57</ele>
        <time>2021-08-01T17:10:11Z</time>
      </trkpt>
      <trkpt lat="42.31309" lon="0.60041">
        <ele>946.95</ele>
        <time>2021-08-01T17:10:14Z</time>
      </trkpt>
      <trkpt lat="42.31333" lon="0.60013">
        <ele>943.98</ele>
        <time>2021-08-01T17:10:19Z</time>
      </trkpt>
      <trkpt lat="42.31352" lon="0.5999">
        <ele>940.43</ele>
        <time>2021-08-01T17:10:26Z</time>
      </trkpt>
      <trkpt lat="42.31363" lon="0.59982">
        <ele>939.03</ele>
        <time>2021-08-01T17:10:29Z</time>
      </trkpt>
      <trkpt lat="42.31371" lon="0.59977">
        <ele>938.22</ele>
        <time>2021-08-01T17:10:31Z</time>
      </trkpt>
      <trkpt lat="42.31402" lon="0.59966">
        <ele>934.53</ele>
        <time>2021-08-01T17:10:40Z</time>
      </trkpt>
      <trkpt lat="42.31436" lon="0.59942">
        <ele>931.48</ele>
        <time>2021-08-01T17:10:48Z</time>
      </trkpt>
      <trkpt lat="42.31454" lon="0.59931">
        <ele>930.23</ele>
        <time>2021-08-01T17:10:52Z</time>
      </trkpt>
      <trkpt lat="42.31491" lon="0.59894">
        <ele>930.68</ele>
        <time>2021-08-01T17:11:00Z</time>
      </trkpt>
      <trkpt lat="42.31556" lon="0.59845">
        <ele>932.63</ele>
        <time>2021-08-01T17:11:09Z</time>
      </trkpt>
      <trkpt lat="42.31569" lon="0.5981">
        <ele>932.54</ele>
        <time>2021-08-01T17:11:15Z</time>
      </trkpt>
      <trkpt lat="42.31569" lon="0.59795">
        <ele>932</ele>
        <time>2021-08-01T17:11:17Z</time>
      </trkpt>
      <trkpt lat="42.31564" lon="0.59736">
        <ele>929.9</ele>
        <time>2021-08-01T17:11:23Z</time>
      </trkpt>
      <trkpt lat="42.31564" lon="0.59696">
        <ele>927.76</ele>
        <time>2021-08-01T17:11:27Z</time>
      </trkpt>
      <trkpt lat="42.31563" lon="0.5967">
        <ele>925.53</ele>
        <time>2021-08-01T17:11:31Z</time>
      </trkpt>
      <trkpt lat="42.3156" lon="0.59648">
        <ele>922.54</ele>
        <time>2021-08-01T17:11:37Z</time>
      </trkpt>
      <trkpt lat="42.31576" lon="0.5965">
        <ele>920.17</ele>
        <time>2021-08-01T17:11:43Z</time>
      </trkpt>
      <trkpt lat="42.3159" lon="0.59666">
        <ele>916.12</ele>
        <time>2021-08-01T17:11:50Z</time>
      </trkpt>
      <trkpt lat="42.31598" lon="0.59663">
        <ele>913.34</ele>
        <time>2021-08-01T17:11:57Z</time>
      </trkpt>
      <trkpt lat="42.31599" lon="0.5966">
        <ele>912.98</ele>
        <time>2021-08-01T17:11:58Z</time>
      </trkpt>
      <trkpt lat="42.31599" lon="0.59655">
        <ele>912.65</ele>
        <time>2021-08-01T17:11:59Z</time>
      </trkpt>
      <trkpt lat="42.31599" lon="0.59648">
        <ele>912.4</ele>
        <time>2021-08-01T17:12:00Z</time>
      </trkpt>
      <trkpt lat="42.31598" lon="0.59638">
        <ele>912.17</ele>
        <time>2021-08-01T17:12:01Z</time>
      </trkpt>
      <trkpt lat="42.3159" lon="0.59528">
        <ele>908.86</ele>
        <time>2021-08-01T17:12:09Z</time>
      </trkpt>
      <trkpt lat="42.3159" lon="0.59499">
        <ele>907.62</ele>
        <time>2021-08-01T17:12:11Z</time>
      </trkpt>
      <trkpt lat="42.31561" lon="0.59424">
        <ele>903.51</ele>
        <time>2021-08-01T17:12:17Z</time>
      </trkpt>
      <trkpt lat="42.31541" lon="0.59391">
        <ele>900.44</ele>
        <time>2021-08-01T17:12:20Z</time>
      </trkpt>
      <trkpt lat="42.31512" lon="0.59371">
        <ele>895.5</ele>
        <time>2021-08-01T17:12:24Z</time>
      </trkpt>
      <trkpt lat="42.31502" lon="0.59372">
        <ele>894.32</ele>
        <time>2021-08-01T17:12:25Z</time>
      </trkpt>
      <trkpt lat="42.31461" lon="0.59384">
        <ele>888.61</ele>
        <time>2021-08-01T17:12:30Z</time>
      </trkpt>
      <trkpt lat="42.31446" lon="0.5937">
        <ele>884.86</ele>
        <time>2021-08-01T17:12:34Z</time>
      </trkpt>
      <trkpt lat="42.31466" lon="0.59338">
        <ele>882.58</ele>
        <time>2021-08-01T17:12:38Z</time>
      </trkpt>
      <trkpt lat="42.31491" lon="0.59254">
        <ele>883.07</ele>
        <time>2021-08-01T17:12:45Z</time>
      </trkpt>
      <trkpt lat="42.3148" lon="0.59102">
        <ele>878.52</ele>
        <time>2021-08-01T17:12:54Z</time>
      </trkpt>
      <trkpt lat="42.31476" lon="0.59061">
        <ele>874.85</ele>
        <time>2021-08-01T17:12:57Z</time>
      </trkpt>
      <trkpt lat="42.31488" lon="0.59039">
        <ele>869.33</ele>
        <time>2021-08-01T17:13:01Z</time>
      </trkpt>
      <trkpt lat="42.315" lon="0.59054">
        <ele>865.34</ele>
        <time>2021-08-01T17:13:04Z</time>
      </trkpt>
      <trkpt lat="42.31529" lon="0.59071">
        <ele>859.87</ele>
        <time>2021-08-01T17:13:10Z</time>
      </trkpt>
      <trkpt lat="42.31548" lon="0.59057">
        <ele>858.7</ele>
        <time>2021-08-01T17:13:12Z</time>
      </trkpt>
      <trkpt lat="42.31584" lon="0.59006">
        <ele>856.29</ele>
        <time>2021-08-01T17:13:16Z</time>
      </trkpt>
      <trkpt lat="42.31603" lon="0.58958">
        <ele>854.82</ele>
        <time>2021-08-01T17:13:19Z</time>
      </trkpt>
      <trkpt lat="42.31609" lon="0.5888">
        <ele>851.88</ele>
        <time>2021-08-01T17:13:25Z</time>
      </trkpt>
      <trkpt lat="42.31631" lon="0.58873">
        <ele>851.2</ele>
        <time>2021-08-01T17:13:29Z</time>
      </trkpt>
      <trkpt lat="42.31662" lon="0.58881">
        <ele>852.39</ele>
        <time>2021-08-01T17:13:35Z</time>
      </trkpt>
      <trkpt lat="42.31666" lon="0.58873">
        <ele>852.95</ele>
        <time>2021-08-01T17:13:36Z</time>
      </trkpt>
      <trkpt lat="42.31715" lon="0.58796">
        <ele>855.63</ele>
        <time>2021-08-01T17:13:43Z</time>
      </trkpt>
      <trkpt lat="42.31708" lon="0.58729">
        <ele>857.73</ele>
        <time>2021-08-01T17:13:48Z</time>
      </trkpt>
      <trkpt lat="42.31686" lon="0.58662">
        <ele>857.67</ele>
        <time>2021-08-01T17:13:53Z</time>
      </trkpt>
      <trkpt lat="42.3169" lon="0.58594">
        <ele>853.85</ele>
        <time>2021-08-01T17:14:01Z</time>
      </trkpt>
      <trkpt lat="42.31722" lon="0.58533">
        <ele>849.66</ele>
        <time>2021-08-01T17:14:09Z</time>
      </trkpt>
      <trkpt lat="42.3174" lon="0.585">
        <ele>848.03</ele>
        <time>2021-08-01T17:14:12Z</time>
      </trkpt>
      <trkpt lat="42.3178" lon="0.58482">
        <ele>844.44</ele>
        <time>2021-08-01T17:14:17Z</time>
      </trkpt>
      <trkpt lat="42.31788" lon="0.58489">
        <ele>843.48</ele>
        <time>2021-08-01T17:14:18Z</time>
      </trkpt>
      <trkpt lat="42.31814" lon="0.58506">
        <ele>840.8</ele>
        <time>2021-08-01T17:14:21Z</time>
      </trkpt>
      <trkpt lat="42.31857" lon="0.58491">
        <ele>836.71</ele>
        <time>2021-08-01T17:14:27Z</time>
      </trkpt>
      <trkpt lat="42.31872" lon="0.58456">
        <ele>835.06</ele>
        <time>2021-08-01T17:14:30Z</time>
      </trkpt>
      <trkpt lat="42.31891" lon="0.58389">
        <ele>831.3</ele>
        <time>2021-08-01T17:14:35Z</time>
      </trkpt>
      <trkpt lat="42.31885" lon="0.58357">
        <ele>828.5</ele>
        <time>2021-08-01T17:14:38Z</time>
      </trkpt>
      <trkpt lat="42.3188" lon="0.58324">
        <ele>825.46</ele>
        <time>2021-08-01T17:14:41Z</time>
      </trkpt>
      <trkpt lat="42.31898" lon="0.58308">
        <ele>820.55</ele>
        <time>2021-08-01T17:14:46Z</time>
      </trkpt>
      <trkpt lat="42.31904" lon="0.58313">
        <ele>819.61</ele>
        <time>2021-08-01T17:14:47Z</time>
      </trkpt>
      <trkpt lat="42.31922" lon="0.58332">
        <ele>817.32</ele>
        <time>2021-08-01T17:14:50Z</time>
      </trkpt>
      <trkpt lat="42.31933" lon="0.58376">
        <ele>813.25</ele>
        <time>2021-08-01T17:14:55Z</time>
      </trkpt>
      <trkpt lat="42.31933" lon="0.58385">
        <ele>812.4</ele>
        <time>2021-08-01T17:14:56Z</time>
      </trkpt>
      <trkpt lat="42.31946" lon="0.58398">
        <ele>807.09</ele>
        <time>2021-08-01T17:15:02Z</time>
      </trkpt>
      <trkpt lat="42.31954" lon="0.5838">
        <ele>805.34</ele>
        <time>2021-08-01T17:15:04Z</time>
      </trkpt>
      <trkpt lat="42.31963" lon="0.58359">
        <ele>803.75</ele>
        <time>2021-08-01T17:15:06Z</time>
      </trkpt>
      <trkpt lat="42.31986" lon="0.58355">
        <ele>799.22</ele>
        <time>2021-08-01T17:15:11Z</time>
      </trkpt>
      <trkpt lat="42.31988" lon="0.58365">
        <ele>798.2</ele>
        <time>2021-08-01T17:15:12Z</time>
      </trkpt>
      <trkpt lat="42.31982" lon="0.58432">
        <ele>794.54</ele>
        <time>2021-08-01T17:15:17Z</time>
      </trkpt>
      <trkpt lat="42.31969" lon="0.58474">
        <ele>792.25</ele>
        <time>2021-08-01T17:15:21Z</time>
      </trkpt>
      <trkpt lat="42.31974" lon="0.58509">
        <ele>790.04</ele>
        <time>2021-08-01T17:15:26Z</time>
      </trkpt>
      <trkpt lat="42.31985" lon="0.58524">
        <ele>789.15</ele>
        <time>2021-08-01T17:15:29Z</time>
      </trkpt>
      <trkpt lat="42.32027" lon="0.58514">
        <ele>789.51</ele>
        <time>2021-08-01T17:15:36Z</time>
      </trkpt>
      <trkpt lat="42.32047" lon="0.58464">
        <ele>791.37</ele>
        <time>2021-08-01T17:15:40Z</time>
      </trkpt>
      <trkpt lat="42.3206" lon="0.58419">
        <ele>793.26</ele>
        <time>2021-08-01T17:15:43Z</time>
      </trkpt>
      <trkpt lat="42.32069" lon="0.58395">
        <ele>793.97</ele>
        <time>2021-08-01T17:15:45Z</time>
      </trkpt>
      <trkpt lat="42.32121" lon="0.58366">
        <ele>795.52</ele>
        <time>2021-08-01T17:15:51Z</time>
      </trkpt>
      <trkpt lat="42.32141" lon="0.58369">
        <ele>798.99</ele>
        <time>2021-08-01T17:15:57Z</time>
      </trkpt>
      <trkpt lat="42.32144" lon="0.58369">
        <ele>799.58</ele>
        <time>2021-08-01T17:15:58Z</time>
      </trkpt>
      <trkpt lat="42.32153" lon="0.58355">
        <ele>801.3</ele>
        <time>2021-08-01T17:16:01Z</time>
      </trkpt>
      <trkpt lat="42.32154" lon="0.58346">
        <ele>801.77</ele>
        <time>2021-08-01T17:16:02Z</time>
      </trkpt>
      <trkpt lat="42.32155" lon="0.58335">
        <ele>802.19</ele>
        <time>2021-08-01T17:16:03Z</time>
      </trkpt>
      <trkpt lat="42.32188" lon="0.58246">
        <ele>804.8</ele>
        <time>2021-08-01T17:16:10Z</time>
      </trkpt>
      <trkpt lat="42.32191" lon="0.58232">
        <ele>805.01</ele>
        <time>2021-08-01T17:16:11Z</time>
      </trkpt>
      <trkpt lat="42.32192" lon="0.58216">
        <ele>805.18</ele>
        <time>2021-08-01T17:16:12Z</time>
      </trkpt>
      <trkpt lat="42.32192" lon="0.58202">
        <ele>805.29</ele>
        <time>2021-08-01T17:16:13Z</time>
      </trkpt>
      <trkpt lat="42.32206" lon="0.5813">
        <ele>805.04</ele>
        <time>2021-08-01T17:16:19Z</time>
      </trkpt>
      <trkpt lat="42.32215" lon="0.5801">
        <ele>801.7</ele>
        <time>2021-08-01T17:16:26Z</time>
      </trkpt>
      <trkpt lat="42.32218" lon="0.57992">
        <ele>800.79</ele>
        <time>2021-08-01T17:16:27Z</time>
      </trkpt>
      <trkpt lat="42.32231" lon="0.57937">
        <ele>797.72</ele>
        <time>2021-08-01T17:16:30Z</time>
      </trkpt>
      <trkpt lat="42.32236" lon="0.57903">
        <ele>795.47</ele>
        <time>2021-08-01T17:16:32Z</time>
      </trkpt>
      <trkpt lat="42.32253" lon="0.57861">
        <ele>791.15</ele>
        <time>2021-08-01T17:16:36Z</time>
      </trkpt>
      <trkpt lat="42.32261" lon="0.57833">
        <ele>787.33</ele>
        <time>2021-08-01T17:16:40Z</time>
      </trkpt>
      <trkpt lat="42.32246" lon="0.578">
        <ele>784.29</ele>
        <time>2021-08-01T17:16:44Z</time>
      </trkpt>
      <trkpt lat="42.32258" lon="0.57776">
        <ele>782.38</ele>
        <time>2021-08-01T17:16:47Z</time>
      </trkpt>
      <trkpt lat="42.32292" lon="0.57701">
        <ele>778.57</ele>
        <time>2021-08-01T17:16:54Z</time>
      </trkpt>
      <trkpt lat="42.3229" lon="0.57688">
        <ele>777.69</ele>
        <time>2021-08-01T17:16:55Z</time>
      </trkpt>
      <trkpt lat="42.32293" lon="0.57621">
        <ele>772.27</ele>
        <time>2021-08-01T17:17:00Z</time>
      </trkpt>
      <trkpt lat="42.32295" lon="0.57583">
        <ele>768.83</ele>
        <time>2021-08-01T17:17:03Z</time>
      </trkpt>
      <trkpt lat="42.32277" lon="0.57552">
        <ele>765.49</ele>
        <time>2021-08-01T17:17:06Z</time>
      </trkpt>
      <trkpt lat="42.32264" lon="0.57532">
        <ele>761.92</ele>
        <time>2021-08-01T17:17:09Z</time>
      </trkpt>
      <trkpt lat="42.32271" lon="0.57508">
        <ele>758.57</ele>
        <time>2021-08-01T17:17:12Z</time>
      </trkpt>
      <trkpt lat="42.32291" lon="0.57489">
        <ele>755.75</ele>
        <time>2021-08-01T17:17:15Z</time>
      </trkpt>
      <trkpt lat="42.32307" lon="0.57477">
        <ele>754.09</ele>
        <time>2021-08-01T17:17:17Z</time>
      </trkpt>
      <trkpt lat="42.32344" lon="0.57466">
        <ele>750.69</ele>
        <time>2021-08-01T17:17:24Z</time>
      </trkpt>
      <trkpt lat="42.32347" lon="0.57465">
        <ele>749.17</ele>
        <time>2021-08-01T17:17:28Z</time>
      </trkpt>
      <trkpt lat="42.32324" lon="0.57461">
        <ele>748.17</ele>
        <time>2021-08-01T17:17:35Z</time>
      </trkpt>
      <trkpt lat="42.32304" lon="0.57474">
        <ele>748.07</ele>
        <time>2021-08-01T17:17:37Z</time>
      </trkpt>
      <trkpt lat="42.32215" lon="0.57471">
        <ele>747.59</ele>
        <time>2021-08-01T17:17:43Z</time>
      </trkpt>
      <trkpt lat="42.32173" lon="0.57448">
        <ele>747.22</ele>
        <time>2021-08-01T17:17:46Z</time>
      </trkpt>
      <trkpt lat="42.32112" lon="0.57393">
        <ele>743.93</ele>
        <time>2021-08-01T17:17:54Z</time>
      </trkpt>
      <trkpt lat="42.32045" lon="0.57317">
        <ele>741.32</ele>
        <time>2021-08-01T17:18:04Z</time>
      </trkpt>
      <trkpt lat="42.32001" lon="0.57273">
        <ele>739.37</ele>
        <time>2021-08-01T17:18:12Z</time>
      </trkpt>
      <trkpt lat="42.31986" lon="0.57272">
        <ele>737.26</ele>
        <time>2021-08-01T17:18:24Z</time>
      </trkpt>
      <trkpt lat="42.31966" lon="0.57274">
        <ele>737.03</ele>
        <time>2021-08-01T17:18:32Z</time>
      </trkpt>
      <trkpt lat="42.31906" lon="0.57265">
        <ele>737.82</ele>
        <time>2021-08-01T17:18:41Z</time>
      </trkpt>
      <trkpt lat="42.31846" lon="0.57241">
        <ele>738.58</ele>
        <time>2021-08-01T17:18:47Z</time>
      </trkpt>
      <trkpt lat="42.31804" lon="0.57185">
        <ele>739.59</ele>
        <time>2021-08-01T17:18:51Z</time>
      </trkpt>
      <trkpt lat="42.31761" lon="0.57112">
        <ele>740.34</ele>
        <time>2021-08-01T17:18:55Z</time>
      </trkpt>
      <trkpt lat="42.31731" lon="0.57021">
        <ele>739.92</ele>
        <time>2021-08-01T17:18:59Z</time>
      </trkpt>
      <trkpt lat="42.31703" lon="0.56799">
        <ele>738.38</ele>
        <time>2021-08-01T17:19:09Z</time>
      </trkpt>
      <trkpt lat="42.31686" lon="0.56689">
        <ele>737.52</ele>
        <time>2021-08-01T17:19:15Z</time>
      </trkpt>
      <trkpt lat="42.3161" lon="0.56529">
        <ele>736.56</ele>
        <time>2021-08-01T17:19:24Z</time>
      </trkpt>
      <trkpt lat="42.31501" lon="0.56322">
        <ele>733.53</ele>
        <time>2021-08-01T17:19:36Z</time>
      </trkpt>
      <trkpt lat="42.31418" lon="0.56162">
        <ele>730.19</ele>
        <time>2021-08-01T17:19:45Z</time>
      </trkpt>
      <trkpt lat="42.31346" lon="0.56024">
        <ele>726.83</ele>
        <time>2021-08-01T17:19:53Z</time>
      </trkpt>
      <trkpt lat="42.31296" lon="0.55882">
        <ele>723.51</ele>
        <time>2021-08-01T17:20:01Z</time>
      </trkpt>
      <trkpt lat="42.31263" lon="0.55694">
        <ele>720.32</ele>
        <time>2021-08-01T17:20:11Z</time>
      </trkpt>
      <trkpt lat="42.31205" lon="0.55507">
        <ele>717.39</ele>
        <time>2021-08-01T17:20:22Z</time>
      </trkpt>
      <trkpt lat="42.3114" lon="0.55343">
        <ele>715.4</ele>
        <time>2021-08-01T17:20:31Z</time>
      </trkpt>
      <trkpt lat="42.31057" lon="0.55209">
        <ele>713.13</ele>
        <time>2021-08-01T17:20:40Z</time>
      </trkpt>
      <trkpt lat="42.30962" lon="0.55032">
        <ele>710.83</ele>
        <time>2021-08-01T17:20:51Z</time>
      </trkpt>
      <trkpt lat="42.30871" lon="0.54846">
        <ele>711.5</ele>
        <time>2021-08-01T17:21:02Z</time>
      </trkpt>
      <trkpt lat="42.30796" lon="0.54693">
        <ele>713.59</ele>
        <time>2021-08-01T17:21:12Z</time>
      </trkpt>
      <trkpt lat="42.30741" lon="0.54642">
        <ele>715.35</ele>
        <time>2021-08-01T17:21:18Z</time>
      </trkpt>
      <trkpt lat="42.30734" lon="0.54633">
        <ele>715.49</ele>
        <time>2021-08-01T17:21:19Z</time>
      </trkpt>
      <trkpt lat="42.30726" lon="0.54624">
        <ele>715.62</ele>
        <time>2021-08-01T17:21:20Z</time>
      </trkpt>
      <trkpt lat="42.3072" lon="0.54614">
        <ele>715.74</ele>
        <time>2021-08-01T17:21:21Z</time>
      </trkpt>
      <trkpt lat="42.30715" lon="0.54605">
        <ele>715.86</ele>
        <time>2021-08-01T17:21:22Z</time>
      </trkpt>
      <trkpt lat="42.30677" lon="0.54542">
        <ele>716.39</ele>
        <time>2021-08-01T17:21:28Z</time>
      </trkpt>
      <trkpt lat="42.30646" lon="0.54513">
        <ele>716.82</ele>
        <time>2021-08-01T17:21:31Z</time>
      </trkpt>
      <trkpt lat="42.30612" lon="0.54458">
        <ele>717.06</ele>
        <time>2021-08-01T17:21:35Z</time>
      </trkpt>
      <trkpt lat="42.3054" lon="0.54269">
        <ele>716.13</ele>
        <time>2021-08-01T17:21:46Z</time>
      </trkpt>
      <trkpt lat="42.30465" lon="0.54196">
        <ele>713.18</ele>
        <time>2021-08-01T17:21:53Z</time>
      </trkpt>
      <trkpt lat="42.30378" lon="0.54175">
        <ele>708.86</ele>
        <time>2021-08-01T17:21:59Z</time>
      </trkpt>
      <trkpt lat="42.30323" lon="0.54163">
        <ele>705.55</ele>
        <time>2021-08-01T17:22:03Z</time>
      </trkpt>
      <trkpt lat="42.30283" lon="0.54154">
        <ele>701.47</ele>
        <time>2021-08-01T17:22:07Z</time>
      </trkpt>
      <trkpt lat="42.30251" lon="0.54146">
        <ele>698.43</ele>
        <time>2021-08-01T17:22:10Z</time>
      </trkpt>
      <trkpt lat="42.30209" lon="0.54137">
        <ele>695.05</ele>
        <time>2021-08-01T17:22:14Z</time>
      </trkpt>
      <trkpt lat="42.3013" lon="0.54111">
        <ele>692.91</ele>
        <time>2021-08-01T17:22:21Z</time>
      </trkpt>
      <trkpt lat="42.30019" lon="0.54011">
        <ele>695.08</ele>
        <time>2021-08-01T17:22:30Z</time>
      </trkpt>
      <trkpt lat="42.29993" lon="0.53988">
        <ele>695.92</ele>
        <time>2021-08-01T17:22:32Z</time>
      </trkpt>
      <trkpt lat="42.2988" lon="0.53946">
        <ele>699.99</ele>
        <time>2021-08-01T17:22:39Z</time>
      </trkpt>
      <trkpt lat="42.29811" lon="0.53925">
        <ele>703.84</ele>
        <time>2021-08-01T17:22:43Z</time>
      </trkpt>
      <trkpt lat="42.29775" lon="0.5392">
        <ele>706.07</ele>
        <time>2021-08-01T17:22:45Z</time>
      </trkpt>
      <trkpt lat="42.29701" lon="0.5393">
        <ele>711.06</ele>
        <time>2021-08-01T17:22:49Z</time>
      </trkpt>
      <trkpt lat="42.29665" lon="0.53937">
        <ele>714.3</ele>
        <time>2021-08-01T17:22:51Z</time>
      </trkpt>
      <trkpt lat="42.29581" lon="0.53941">
        <ele>717.86</ele>
        <time>2021-08-01T17:22:56Z</time>
      </trkpt>
      <trkpt lat="42.29532" lon="0.53925">
        <ele>719.12</ele>
        <time>2021-08-01T17:22:59Z</time>
      </trkpt>
      <trkpt lat="42.29499" lon="0.53904">
        <ele>719.36</ele>
        <time>2021-08-01T17:23:01Z</time>
      </trkpt>
      <trkpt lat="42.29343" lon="0.53771">
        <ele>716.15</ele>
        <time>2021-08-01T17:23:10Z</time>
      </trkpt>
      <trkpt lat="42.29234" lon="0.53744">
        <ele>712.01</ele>
        <time>2021-08-01T17:23:15Z</time>
      </trkpt>
      <trkpt lat="42.29149" lon="0.53729">
        <ele>708.33</ele>
        <time>2021-08-01T17:23:19Z</time>
      </trkpt>
      <trkpt lat="42.29091" lon="0.53719">
        <ele>706.9</ele>
        <time>2021-08-01T17:23:22Z</time>
      </trkpt>
      <trkpt lat="42.29006" lon="0.53702">
        <ele>707.43</ele>
        <time>2021-08-01T17:23:27Z</time>
      </trkpt>
      <trkpt lat="42.28928" lon="0.53628">
        <ele>710.43</ele>
        <time>2021-08-01T17:23:33Z</time>
      </trkpt>
      <trkpt lat="42.28912" lon="0.53596">
        <ele>711.67</ele>
        <time>2021-08-01T17:23:35Z</time>
      </trkpt>
      <trkpt lat="42.28891" lon="0.53538">
        <ele>714.17</ele>
        <time>2021-08-01T17:23:39Z</time>
      </trkpt>
      <trkpt lat="42.28879" lon="0.53499">
        <ele>715.23</ele>
        <time>2021-08-01T17:23:42Z</time>
      </trkpt>
      <trkpt lat="42.28857" lon="0.53464">
        <ele>715.6</ele>
        <time>2021-08-01T17:23:46Z</time>
      </trkpt>
    </trkseg>
  </trk>
  <trk>
    <name><![CDATA[Jour 3_3]]></name>
    <trkseg>
      <trkpt lat="42.18939" lon="0.95861">
        <ele>474.95</ele>
        <time>2021-08-01T14:02:55Z</time>
      </trkpt>
      <trkpt lat="42.18943" lon="0.95845">
        <ele>475.23</ele>
        <time>2021-08-01T14:02:59Z</time>
      </trkpt>
      <trkpt lat="42.1897" lon="0.95837">
        <ele>476.51</ele>
        <time>2021-08-01T14:03:05Z</time>
      </trkpt>
      <trkpt lat="42.19001" lon="0.95806">
        <ele>480.75</ele>
        <time>2021-08-01T14:03:12Z</time>
      </trkpt>
      <trkpt lat="42.18982" lon="0.95784">
        <ele>484.3</ele>
        <time>2021-08-01T14:03:16Z</time>
      </trkpt>
      <trkpt lat="42.18981" lon="0.95761">
        <ele>487.53</ele>
        <time>2021-08-01T14:03:20Z</time>
      </trkpt>
      <trkpt lat="42.19016" lon="0.9577">
        <ele>491.03</ele>
        <time>2021-08-01T14:03:25Z</time>
      </trkpt>
      <trkpt lat="42.19025" lon="0.9577">
        <ele>491.53</ele>
        <time>2021-08-01T14:03:26Z</time>
      </trkpt>
      <trkpt lat="42.19043" lon="0.95771">
        <ele>492.68</ele>
        <time>2021-08-01T14:03:28Z</time>
      </trkpt>
      <trkpt lat="42.19065" lon="0.95768">
        <ele>494.46</ele>
        <time>2021-08-01T14:03:31Z</time>
      </trkpt>
      <trkpt lat="42.19073" lon="0.95746">
        <ele>497.77</ele>
        <time>2021-08-01T14:03:37Z</time>
      </trkpt>
      <trkpt lat="42.19022" lon="0.95695">
        <ele>501.7</ele>
        <time>2021-08-01T14:03:45Z</time>
      </trkpt>
      <trkpt lat="42.19" lon="0.95667">
        <ele>503.49</ele>
        <time>2021-08-01T14:03:48Z</time>
      </trkpt>
      <trkpt lat="42.18978" lon="0.95611">
        <ele>505.66</ele>
        <time>2021-08-01T14:03:52Z</time>
      </trkpt>
      <trkpt lat="42.1896" lon="0.9555">
        <ele>507.76</ele>
        <time>2021-08-01T14:03:59Z</time>
      </trkpt>
      <trkpt lat="42.18959" lon="0.9554">
        <ele>509.62</ele>
        <time>2021-08-01T14:04:09Z</time>
      </trkpt>
      <trkpt lat="42.18959" lon="0.95538">
        <ele>510.16</ele>
        <time>2021-08-01T14:04:23Z</time>
      </trkpt>
      <trkpt lat="42.18975" lon="0.95519">
        <ele>510.42</ele>
        <time>2021-08-01T14:04:28Z</time>
      </trkpt>
      <trkpt lat="42.18986" lon="0.95512">
        <ele>510.56</ele>
        <time>2021-08-01T14:04:30Z</time>
      </trkpt>
      <trkpt lat="42.19003" lon="0.95475">
        <ele>511.9</ele>
        <time>2021-08-01T14:04:35Z</time>
      </trkpt>
      <trkpt lat="42.19006" lon="0.95458">
        <ele>512.06</ele>
        <time>2021-08-01T14:04:37Z</time>
      </trkpt>
      <trkpt lat="42.19029" lon="0.95379">
        <ele>511.06</ele>
        <time>2021-08-01T14:04:45Z</time>
      </trkpt>
      <trkpt lat="42.19037" lon="0.95359">
        <ele>510.18</ele>
        <time>2021-08-01T14:04:47Z</time>
      </trkpt>
      <trkpt lat="42.19051" lon="0.9528">
        <ele>510.58</ele>
        <time>2021-08-01T14:04:55Z</time>
      </trkpt>
      <trkpt lat="42.19055" lon="0.95213">
        <ele>513.9</ele>
        <time>2021-08-01T14:05:02Z</time>
      </trkpt>
      <trkpt lat="42.19067" lon="0.95197">
        <ele>514.64</ele>
        <time>2021-08-01T14:05:04Z</time>
      </trkpt>
      <trkpt lat="42.19089" lon="0.95146">
        <ele>516.66</ele>
        <time>2021-08-01T14:05:09Z</time>
      </trkpt>
      <trkpt lat="42.19105" lon="0.95045">
        <ele>518.37</ele>
        <time>2021-08-01T14:05:17Z</time>
      </trkpt>
      <trkpt lat="42.19103" lon="0.95034">
        <ele>518.27</ele>
        <time>2021-08-01T14:05:18Z</time>
      </trkpt>
      <trkpt lat="42.19069" lon="0.94998">
        <ele>515.97</ele>
        <time>2021-08-01T14:05:23Z</time>
      </trkpt>
      <trkpt lat="42.19046" lon="0.94996">
        <ele>514.69</ele>
        <time>2021-08-01T14:05:25Z</time>
      </trkpt>
      <trkpt lat="42.19024" lon="0.94996">
        <ele>513.21</ele>
        <time>2021-08-01T14:05:27Z</time>
      </trkpt>
      <trkpt lat="42.18982" lon="0.95021">
        <ele>508.73</ele>
        <time>2021-08-01T14:05:33Z</time>
      </trkpt>
      <trkpt lat="42.18982" lon="0.94998">
        <ele>506.88</ele>
        <time>2021-08-01T14:05:37Z</time>
      </trkpt>
      <trkpt lat="42.18982" lon="0.94964">
        <ele>506.93</ele>
        <time>2021-08-01T14:05:41Z</time>
      </trkpt>
      <trkpt lat="42.18937" lon="0.94912">
        <ele>510.3</ele>
        <time>2021-08-01T14:05:47Z</time>
      </trkpt>
      <trkpt lat="42.18911" lon="0.949">
        <ele>512.73</ele>
        <time>2021-08-01T14:05:50Z</time>
      </trkpt>
      <trkpt lat="42.18899" lon="0.94878">
        <ele>514.13</ele>
        <time>2021-08-01T14:05:53Z</time>
      </trkpt>
      <trkpt lat="42.18912" lon="0.94852">
        <ele>514.35</ele>
        <time>2021-08-01T14:05:56Z</time>
      </trkpt>
      <trkpt lat="42.18928" lon="0.94794">
        <ele>513.43</ele>
        <time>2021-08-01T14:06:03Z</time>
      </trkpt>
      <trkpt lat="42.18943" lon="0.9471">
        <ele>513.62</ele>
        <time>2021-08-01T14:06:10Z</time>
      </trkpt>
      <trkpt lat="42.1893" lon="0.94655">
        <ele>517.76</ele>
        <time>2021-08-01T14:06:16Z</time>
      </trkpt>
      <trkpt lat="42.18944" lon="0.94614">
        <ele>521.17</ele>
        <time>2021-08-01T14:06:21Z</time>
      </trkpt>
      <trkpt lat="42.18976" lon="0.94555">
        <ele>524.6</ele>
        <time>2021-08-01T14:06:26Z</time>
      </trkpt>
      <trkpt lat="42.1902" lon="0.945">
        <ele>527.87</ele>
        <time>2021-08-01T14:06:31Z</time>
      </trkpt>
      <trkpt lat="42.19062" lon="0.9446">
        <ele>531.31</ele>
        <time>2021-08-01T14:06:37Z</time>
      </trkpt>
      <trkpt lat="42.19075" lon="0.94429">
        <ele>532.24</ele>
        <time>2021-08-01T14:06:41Z</time>
      </trkpt>
      <trkpt lat="42.19092" lon="0.94371">
        <ele>532.01</ele>
        <time>2021-08-01T14:06:46Z</time>
      </trkpt>
      <trkpt lat="42.19126" lon="0.94331">
        <ele>528.6</ele>
        <time>2021-08-01T14:06:52Z</time>
      </trkpt>
      <trkpt lat="42.19138" lon="0.94269">
        <ele>526.47</ele>
        <time>2021-08-01T14:06:58Z</time>
      </trkpt>
      <trkpt lat="42.19134" lon="0.9423">
        <ele>526.69</ele>
        <time>2021-08-01T14:07:02Z</time>
      </trkpt>
      <trkpt lat="42.19129" lon="0.94214">
        <ele>527.27</ele>
        <time>2021-08-01T14:07:04Z</time>
      </trkpt>
      <trkpt lat="42.19121" lon="0.94083">
        <ele>529.23</ele>
        <time>2021-08-01T14:07:15Z</time>
      </trkpt>
      <trkpt lat="42.19116" lon="0.9398">
        <ele>532.31</ele>
        <time>2021-08-01T14:07:21Z</time>
      </trkpt>
      <trkpt lat="42.19118" lon="0.93903">
        <ele>535.86</ele>
        <time>2021-08-01T14:07:26Z</time>
      </trkpt>
      <trkpt lat="42.19122" lon="0.93835">
        <ele>538.79</ele>
        <time>2021-08-01T14:07:31Z</time>
      </trkpt>
      <trkpt lat="42.19119" lon="0.93826">
        <ele>539.2</ele>
        <time>2021-08-01T14:07:32Z</time>
      </trkpt>
      <trkpt lat="42.19073" lon="0.93812">
        <ele>541.49</ele>
        <time>2021-08-01T14:07:37Z</time>
      </trkpt>
      <trkpt lat="42.19009" lon="0.93821">
        <ele>544.11</ele>
        <time>2021-08-01T14:07:42Z</time>
      </trkpt>
      <trkpt lat="42.18968" lon="0.93807">
        <ele>546.82</ele>
        <time>2021-08-01T14:07:46Z</time>
      </trkpt>
      <trkpt lat="42.18932" lon="0.93813">
        <ele>550.19</ele>
        <time>2021-08-01T14:07:50Z</time>
      </trkpt>
      <trkpt lat="42.18903" lon="0.93783">
        <ele>551.9</ele>
        <time>2021-08-01T14:07:56Z</time>
      </trkpt>
      <trkpt lat="42.18899" lon="0.93762">
        <ele>551.97</ele>
        <time>2021-08-01T14:07:58Z</time>
      </trkpt>
      <trkpt lat="42.18878" lon="0.9374">
        <ele>551.18</ele>
        <time>2021-08-01T14:08:02Z</time>
      </trkpt>
      <trkpt lat="42.18847" lon="0.93726">
        <ele>549.06</ele>
        <time>2021-08-01T14:08:07Z</time>
      </trkpt>
      <trkpt lat="42.18795" lon="0.93677">
        <ele>547.99</ele>
        <time>2021-08-01T14:08:13Z</time>
      </trkpt>
      <trkpt lat="42.18723" lon="0.93659">
        <ele>547.82</ele>
        <time>2021-08-01T14:08:21Z</time>
      </trkpt>
      <trkpt lat="42.18689" lon="0.9365">
        <ele>547.9</ele>
        <time>2021-08-01T14:08:27Z</time>
      </trkpt>
      <trkpt lat="42.18675" lon="0.93662">
        <ele>547.68</ele>
        <time>2021-08-01T14:08:29Z</time>
      </trkpt>
      <trkpt lat="42.18658" lon="0.93646">
        <ele>544.92</ele>
        <time>2021-08-01T14:08:35Z</time>
      </trkpt>
      <trkpt lat="42.18672" lon="0.93584">
        <ele>543.26</ele>
        <time>2021-08-01T14:08:40Z</time>
      </trkpt>
      <trkpt lat="42.18692" lon="0.9356">
        <ele>542.67</ele>
        <time>2021-08-01T14:08:43Z</time>
      </trkpt>
      <trkpt lat="42.18699" lon="0.93474">
        <ele>539.87</ele>
        <time>2021-08-01T14:08:51Z</time>
      </trkpt>
      <trkpt lat="42.18671" lon="0.93449">
        <ele>537.97</ele>
        <time>2021-08-01T14:08:55Z</time>
      </trkpt>
      <trkpt lat="42.18639" lon="0.93428">
        <ele>537.36</ele>
        <time>2021-08-01T14:08:59Z</time>
      </trkpt>
      <trkpt lat="42.18585" lon="0.93428">
        <ele>536.57</ele>
        <time>2021-08-01T14:09:05Z</time>
      </trkpt>
      <trkpt lat="42.18574" lon="0.93434">
        <ele>536.53</ele>
        <time>2021-08-01T14:09:06Z</time>
      </trkpt>
      <trkpt lat="42.18555" lon="0.93445">
        <ele>536.56</ele>
        <time>2021-08-01T14:09:08Z</time>
      </trkpt>
      <trkpt lat="42.18526" lon="0.93451">
        <ele>537.85</ele>
        <time>2021-08-01T14:09:12Z</time>
      </trkpt>
      <trkpt lat="42.18522" lon="0.93456">
        <ele>538.31</ele>
        <time>2021-08-01T14:09:13Z</time>
      </trkpt>
      <trkpt lat="42.18509" lon="0.93481">
        <ele>540.07</ele>
        <time>2021-08-01T14:09:16Z</time>
      </trkpt>
      <trkpt lat="42.18486" lon="0.93527">
        <ele>543.24</ele>
        <time>2021-08-01T14:09:21Z</time>
      </trkpt>
      <trkpt lat="42.18471" lon="0.93545">
        <ele>546.07</ele>
        <time>2021-08-01T14:09:26Z</time>
      </trkpt>
      <trkpt lat="42.18449" lon="0.93513">
        <ele>549.65</ele>
        <time>2021-08-01T14:09:33Z</time>
      </trkpt>
      <trkpt lat="42.18424" lon="0.93513">
        <ele>551.76</ele>
        <time>2021-08-01T14:09:37Z</time>
      </trkpt>
      <trkpt lat="42.18416" lon="0.93518">
        <ele>552.36</ele>
        <time>2021-08-01T14:09:38Z</time>
      </trkpt>
      <trkpt lat="42.18398" lon="0.93533">
        <ele>553.86</ele>
        <time>2021-08-01T14:09:41Z</time>
      </trkpt>
      <trkpt lat="42.18369" lon="0.93542">
        <ele>556.41</ele>
        <time>2021-08-01T14:09:45Z</time>
      </trkpt>
      <trkpt lat="42.18324" lon="0.93547">
        <ele>560.69</ele>
        <time>2021-08-01T14:09:50Z</time>
      </trkpt>
      <trkpt lat="42.183" lon="0.93554">
        <ele>563.88</ele>
        <time>2021-08-01T14:09:53Z</time>
      </trkpt>
      <trkpt lat="42.18274" lon="0.93569">
        <ele>568.36</ele>
        <time>2021-08-01T14:09:57Z</time>
      </trkpt>
      <trkpt lat="42.18261" lon="0.93563">
        <ele>570.49</ele>
        <time>2021-08-01T14:09:59Z</time>
      </trkpt>
      <trkpt lat="42.18222" lon="0.93549">
        <ele>575.59</ele>
        <time>2021-08-01T14:10:04Z</time>
      </trkpt>
      <trkpt lat="42.18189" lon="0.93549">
        <ele>579.39</ele>
        <time>2021-08-01T14:10:08Z</time>
      </trkpt>
      <trkpt lat="42.1818" lon="0.9355">
        <ele>580.39</ele>
        <time>2021-08-01T14:10:09Z</time>
      </trkpt>
      <trkpt lat="42.18151" lon="0.93525">
        <ele>583.98</ele>
        <time>2021-08-01T14:10:14Z</time>
      </trkpt>
      <trkpt lat="42.18119" lon="0.93495">
        <ele>587.6</ele>
        <time>2021-08-01T14:10:20Z</time>
      </trkpt>
      <trkpt lat="42.18073" lon="0.93509">
        <ele>588.08</ele>
        <time>2021-08-01T14:10:25Z</time>
      </trkpt>
      <trkpt lat="42.18058" lon="0.93489">
        <ele>587.36</ele>
        <time>2021-08-01T14:10:29Z</time>
      </trkpt>
      <trkpt lat="42.18048" lon="0.93452">
        <ele>587.58</ele>
        <time>2021-08-01T14:10:33Z</time>
      </trkpt>
      <trkpt lat="42.18012" lon="0.93412">
        <ele>590.2</ele>
        <time>2021-08-01T14:10:38Z</time>
      </trkpt>
      <trkpt lat="42.17974" lon="0.93394">
        <ele>592.62</ele>
        <time>2021-08-01T14:10:42Z</time>
      </trkpt>
      <trkpt lat="42.17945" lon="0.93342">
        <ele>595.31</ele>
        <time>2021-08-01T14:10:48Z</time>
      </trkpt>
      <trkpt lat="42.17929" lon="0.93274">
        <ele>596.58</ele>
        <time>2021-08-01T14:10:54Z</time>
      </trkpt>
      <trkpt lat="42.17894" lon="0.93259">
        <ele>596.59</ele>
        <time>2021-08-01T14:10:58Z</time>
      </trkpt>
      <trkpt lat="42.17787" lon="0.93224">
        <ele>597.26</ele>
        <time>2021-08-01T14:11:09Z</time>
      </trkpt>
      <trkpt lat="42.17727" lon="0.93233">
        <ele>595.16</ele>
        <time>2021-08-01T14:11:15Z</time>
      </trkpt>
      <trkpt lat="42.17701" lon="0.93256">
        <ele>593.28</ele>
        <time>2021-08-01T14:11:18Z</time>
      </trkpt>
      <trkpt lat="42.17654" lon="0.93269">
        <ele>590.26</ele>
        <time>2021-08-01T14:11:23Z</time>
      </trkpt>
      <trkpt lat="42.17644" lon="0.93272">
        <ele>589.69</ele>
        <time>2021-08-01T14:11:24Z</time>
      </trkpt>
      <trkpt lat="42.17633" lon="0.93276">
        <ele>589.17</ele>
        <time>2021-08-01T14:11:25Z</time>
      </trkpt>
      <trkpt lat="42.17623" lon="0.9328">
        <ele>588.58</ele>
        <time>2021-08-01T14:11:26Z</time>
      </trkpt>
      <trkpt lat="42.17614" lon="0.93285">
        <ele>587.96</ele>
        <time>2021-08-01T14:11:27Z</time>
      </trkpt>
      <trkpt lat="42.17606" lon="0.93291">
        <ele>587.3</ele>
        <time>2021-08-01T14:11:28Z</time>
      </trkpt>
      <trkpt lat="42.17598" lon="0.93295">
        <ele>586.56</ele>
        <time>2021-08-01T14:11:29Z</time>
      </trkpt>
      <trkpt lat="42.1759" lon="0.93298">
        <ele>585.83</ele>
        <time>2021-08-01T14:11:30Z</time>
      </trkpt>
      <trkpt lat="42.17565" lon="0.93293">
        <ele>583.7</ele>
        <time>2021-08-01T14:11:33Z</time>
      </trkpt>
      <trkpt lat="42.17515" lon="0.93299">
        <ele>579.89</ele>
        <time>2021-08-01T14:11:39Z</time>
      </trkpt>
      <trkpt lat="42.17487" lon="0.93276">
        <ele>577.25</ele>
        <time>2021-08-01T14:11:43Z</time>
      </trkpt>
      <trkpt lat="42.17472" lon="0.93252">
        <ele>575.25</ele>
        <time>2021-08-01T14:11:46Z</time>
      </trkpt>
      <trkpt lat="42.17477" lon="0.93211">
        <ele>571.01</ele>
        <time>2021-08-01T14:11:51Z</time>
      </trkpt>
      <trkpt lat="42.17504" lon="0.93201">
        <ele>568.61</ele>
        <time>2021-08-01T14:11:54Z</time>
      </trkpt>
      <trkpt lat="42.17555" lon="0.93175">
        <ele>565.72</ele>
        <time>2021-08-01T14:12:00Z</time>
      </trkpt>
      <trkpt lat="42.17594" lon="0.93114">
        <ele>563.69</ele>
        <time>2021-08-01T14:12:08Z</time>
      </trkpt>
      <trkpt lat="42.17619" lon="0.93082">
        <ele>561.67</ele>
        <time>2021-08-01T14:12:16Z</time>
      </trkpt>
      <trkpt lat="42.17594" lon="0.93066">
        <ele>560.44</ele>
        <time>2021-08-01T14:12:21Z</time>
      </trkpt>
      <trkpt lat="42.17555" lon="0.93067">
        <ele>558.75</ele>
        <time>2021-08-01T14:12:26Z</time>
      </trkpt>
      <trkpt lat="42.17515" lon="0.93027">
        <ele>555.6</ele>
        <time>2021-08-01T14:12:32Z</time>
      </trkpt>
      <trkpt lat="42.17508" lon="0.93005">
        <ele>554.53</ele>
        <time>2021-08-01T14:12:34Z</time>
      </trkpt>
      <trkpt lat="42.17483" lon="0.92958">
        <ele>550.87</ele>
        <time>2021-08-01T14:12:39Z</time>
      </trkpt>
      <trkpt lat="42.17447" lon="0.92928">
        <ele>547.11</ele>
        <time>2021-08-01T14:12:44Z</time>
      </trkpt>
      <trkpt lat="42.17412" lon="0.92871">
        <ele>542.49</ele>
        <time>2021-08-01T14:12:50Z</time>
      </trkpt>
      <trkpt lat="42.17381" lon="0.92821">
        <ele>539.27</ele>
        <time>2021-08-01T14:12:55Z</time>
      </trkpt>
      <trkpt lat="42.17369" lon="0.92801">
        <ele>537.81</ele>
        <time>2021-08-01T14:12:57Z</time>
      </trkpt>
      <trkpt lat="42.17339" lon="0.92772">
        <ele>534.63</ele>
        <time>2021-08-01T14:13:01Z</time>
      </trkpt>
      <trkpt lat="42.17297" lon="0.9274">
        <ele>530.54</ele>
        <time>2021-08-01T14:13:06Z</time>
      </trkpt>
      <trkpt lat="42.17262" lon="0.92716">
        <ele>527.03</ele>
        <time>2021-08-01T14:13:10Z</time>
      </trkpt>
      <trkpt lat="42.17242" lon="0.92709">
        <ele>525.06</ele>
        <time>2021-08-01T14:13:12Z</time>
      </trkpt>
      <trkpt lat="42.17221" lon="0.92709">
        <ele>523.02</ele>
        <time>2021-08-01T14:13:14Z</time>
      </trkpt>
      <trkpt lat="42.1721" lon="0.9271">
        <ele>522.08</ele>
        <time>2021-08-01T14:13:15Z</time>
      </trkpt>
      <trkpt lat="42.172" lon="0.92711">
        <ele>521.19</ele>
        <time>2021-08-01T14:13:16Z</time>
      </trkpt>
      <trkpt lat="42.1719" lon="0.92711">
        <ele>520.28</ele>
        <time>2021-08-01T14:13:17Z</time>
      </trkpt>
      <trkpt lat="42.17179" lon="0.92709">
        <ele>519.37</ele>
        <time>2021-08-01T14:13:18Z</time>
      </trkpt>
      <trkpt lat="42.1717" lon="0.92704">
        <ele>518.45</ele>
        <time>2021-08-01T14:13:19Z</time>
      </trkpt>
      <trkpt lat="42.1716" lon="0.92699">
        <ele>517.54</ele>
        <time>2021-08-01T14:13:20Z</time>
      </trkpt>
      <trkpt lat="42.1715" lon="0.92694">
        <ele>516.71</ele>
        <time>2021-08-01T14:13:21Z</time>
      </trkpt>
      <trkpt lat="42.17085" lon="0.92677">
        <ele>512.89</ele>
        <time>2021-08-01T14:13:27Z</time>
      </trkpt>
      <trkpt lat="42.17062" lon="0.92676">
        <ele>511.44</ele>
        <time>2021-08-01T14:13:29Z</time>
      </trkpt>
      <trkpt lat="42.1702" lon="0.92651">
        <ele>508.5</ele>
        <time>2021-08-01T14:13:33Z</time>
      </trkpt>
      <trkpt lat="42.1697" lon="0.92587">
        <ele>504.42</ele>
        <time>2021-08-01T14:13:38Z</time>
      </trkpt>
      <trkpt lat="42.16961" lon="0.92574">
        <ele>503.5</ele>
        <time>2021-08-01T14:13:39Z</time>
      </trkpt>
      <trkpt lat="42.1693" lon="0.92503">
        <ele>498.77</ele>
        <time>2021-08-01T14:13:44Z</time>
      </trkpt>
      <trkpt lat="42.16874" lon="0.92397">
        <ele>495.42</ele>
        <time>2021-08-01T14:13:51Z</time>
      </trkpt>
      <trkpt lat="42.16837" lon="0.92314">
        <ele>492.4</ele>
        <time>2021-08-01T14:13:57Z</time>
      </trkpt>
      <trkpt lat="42.16816" lon="0.92262">
        <ele>488.37</ele>
        <time>2021-08-01T14:14:02Z</time>
      </trkpt>
      <trkpt lat="42.16815" lon="0.9225">
        <ele>487.55</ele>
        <time>2021-08-01T14:14:03Z</time>
      </trkpt>
      <trkpt lat="42.16783" lon="0.92186">
        <ele>482.85</ele>
        <time>2021-08-01T14:14:09Z</time>
      </trkpt>
      <trkpt lat="42.16762" lon="0.92155">
        <ele>480.65</ele>
        <time>2021-08-01T14:14:12Z</time>
      </trkpt>
      <trkpt lat="42.16734" lon="0.92088">
        <ele>476.95</ele>
        <time>2021-08-01T14:14:18Z</time>
      </trkpt>
      <trkpt lat="42.16725" lon="0.92078">
        <ele>476.34</ele>
        <time>2021-08-01T14:14:19Z</time>
      </trkpt>
      <trkpt lat="42.16681" lon="0.9203">
        <ele>473.46</ele>
        <time>2021-08-01T14:14:24Z</time>
      </trkpt>
      <trkpt lat="42.16652" lon="0.91949">
        <ele>468.69</ele>
        <time>2021-08-01T14:14:30Z</time>
      </trkpt>
      <trkpt lat="42.16641" lon="0.91913">
        <ele>466.31</ele>
        <time>2021-08-01T14:14:33Z</time>
      </trkpt>
      <trkpt lat="42.16621" lon="0.91838">
        <ele>461.59</ele>
        <time>2021-08-01T14:14:39Z</time>
      </trkpt>
      <trkpt lat="42.16595" lon="0.91766">
        <ele>457.69</ele>
        <time>2021-08-01T14:14:44Z</time>
      </trkpt>
      <trkpt lat="42.16575" lon="0.91693">
        <ele>454.08</ele>
        <time>2021-08-01T14:14:49Z</time>
      </trkpt>
      <trkpt lat="42.16555" lon="0.91615">
        <ele>450.84</ele>
        <time>2021-08-01T14:14:54Z</time>
      </trkpt>
      <trkpt lat="42.16536" lon="0.91553">
        <ele>448.33</ele>
        <time>2021-08-01T14:14:58Z</time>
      </trkpt>
      <trkpt lat="42.16529" lon="0.91494">
        <ele>446.05</ele>
        <time>2021-08-01T14:15:02Z</time>
      </trkpt>
      <trkpt lat="42.16496" lon="0.9139">
        <ele>442.37</ele>
        <time>2021-08-01T14:15:10Z</time>
      </trkpt>
      <trkpt lat="42.16452" lon="0.91262">
        <ele>439.41</ele>
        <time>2021-08-01T14:15:20Z</time>
      </trkpt>
      <trkpt lat="42.16439" lon="0.91186">
        <ele>438.02</ele>
        <time>2021-08-01T14:15:26Z</time>
      </trkpt>
      <trkpt lat="42.16424" lon="0.91123">
        <ele>436.7</ele>
        <time>2021-08-01T14:15:32Z</time>
      </trkpt>
      <trkpt lat="42.16397" lon="0.91064">
        <ele>436.24</ele>
        <time>2021-08-01T14:15:41Z</time>
      </trkpt>
      <trkpt lat="42.16404" lon="0.90987">
        <ele>437.42</ele>
        <time>2021-08-01T14:15:48Z</time>
      </trkpt>
      <trkpt lat="42.16441" lon="0.90958">
        <ele>436.62</ele>
        <time>2021-08-01T14:15:53Z</time>
      </trkpt>
      <trkpt lat="42.16476" lon="0.90943">
        <ele>432.86</ele>
        <time>2021-08-01T14:16:01Z</time>
      </trkpt>
      <trkpt lat="42.16507" lon="0.90935">
        <ele>429.76</ele>
        <time>2021-08-01T14:16:08Z</time>
      </trkpt>
      <trkpt lat="42.16548" lon="0.90923">
        <ele>426.71</ele>
        <time>2021-08-01T14:16:18Z</time>
      </trkpt>
      <trkpt lat="42.16564" lon="0.90919">
        <ele>425.48</ele>
        <time>2021-08-01T14:16:22Z</time>
      </trkpt>
      <trkpt lat="42.16577" lon="0.90919">
        <ele>424.49</ele>
        <time>2021-08-01T14:16:26Z</time>
      </trkpt>
      <trkpt lat="42.16597" lon="0.90889">
        <ele>422.55</ele>
        <time>2021-08-01T14:16:33Z</time>
      </trkpt>
      <trkpt lat="42.16613" lon="0.9085">
        <ele>420.94</ele>
        <time>2021-08-01T14:16:38Z</time>
      </trkpt>
      <trkpt lat="42.16651" lon="0.90829">
        <ele>417.78</ele>
        <time>2021-08-01T14:16:44Z</time>
      </trkpt>
      <trkpt lat="42.16695" lon="0.90803">
        <ele>413.37</ele>
        <time>2021-08-01T14:16:52Z</time>
      </trkpt>
      <trkpt lat="42.16719" lon="0.908">
        <ele>411.79</ele>
        <time>2021-08-01T14:16:57Z</time>
      </trkpt>
      <trkpt lat="42.1678" lon="0.90803">
        <ele>410.45</ele>
        <time>2021-08-01T14:17:06Z</time>
      </trkpt>
      <trkpt lat="42.16786" lon="0.90803">
        <ele>410.15</ele>
        <time>2021-08-01T14:17:07Z</time>
      </trkpt>
      <trkpt lat="42.16808" lon="0.90797">
        <ele>409.16</ele>
        <time>2021-08-01T14:17:11Z</time>
      </trkpt>
      <trkpt lat="42.1684" lon="0.90795">
        <ele>405.68</ele>
        <time>2021-08-01T14:17:20Z</time>
      </trkpt>
      <trkpt lat="42.16844" lon="0.90795">
        <ele>403.1</ele>
        <time>2021-08-01T14:17:42Z</time>
      </trkpt>
      <trkpt lat="42.16847" lon="0.90781">
        <ele>402.61</ele>
        <time>2021-08-01T14:17:48Z</time>
      </trkpt>
      <trkpt lat="42.16845" lon="0.90771">
        <ele>402.4</ele>
        <time>2021-08-01T14:17:51Z</time>
      </trkpt>
      <trkpt lat="42.16829" lon="0.90755">
        <ele>402.18</ele>
        <time>2021-08-01T14:17:55Z</time>
      </trkpt>
      <trkpt lat="42.16809" lon="0.90739">
        <ele>401.67</ele>
        <time>2021-08-01T14:18:00Z</time>
      </trkpt>
      <trkpt lat="42.16812" lon="0.90697">
        <ele>401.26</ele>
        <time>2021-08-01T14:18:05Z</time>
      </trkpt>
      <trkpt lat="42.16825" lon="0.90537">
        <ele>401.17</ele>
        <time>2021-08-01T14:18:15Z</time>
      </trkpt>
      <trkpt lat="42.1683" lon="0.90467">
        <ele>401.41</ele>
        <time>2021-08-01T14:18:19Z</time>
      </trkpt>
      <trkpt lat="42.16798" lon="0.90365">
        <ele>401.14</ele>
        <time>2021-08-01T14:18:25Z</time>
      </trkpt>
      <trkpt lat="42.16773" lon="0.9034">
        <ele>400.64</ele>
        <time>2021-08-01T14:18:27Z</time>
      </trkpt>
      <trkpt lat="42.16759" lon="0.90328">
        <ele>400.37</ele>
        <time>2021-08-01T14:18:28Z</time>
      </trkpt>
      <trkpt lat="42.16602" lon="0.90196">
        <ele>400.42</ele>
        <time>2021-08-01T14:18:39Z</time>
      </trkpt>
      <trkpt lat="42.16491" lon="0.90105">
        <ele>403.45</ele>
        <time>2021-08-01T14:18:48Z</time>
      </trkpt>
      <trkpt lat="42.16421" lon="0.9005">
        <ele>406.69</ele>
        <time>2021-08-01T14:18:54Z</time>
      </trkpt>
      <trkpt lat="42.16371" lon="0.90005">
        <ele>409.33</ele>
        <time>2021-08-01T14:18:59Z</time>
      </trkpt>
      <trkpt lat="42.16364" lon="0.89992">
        <ele>409.74</ele>
        <time>2021-08-01T14:19:00Z</time>
      </trkpt>
      <trkpt lat="42.16348" lon="0.89912">
        <ele>411.78</ele>
        <time>2021-08-01T14:19:05Z</time>
      </trkpt>
      <trkpt lat="42.16351" lon="0.89776">
        <ele>415.28</ele>
        <time>2021-08-01T14:19:14Z</time>
      </trkpt>
      <trkpt lat="42.16355" lon="0.8967">
        <ele>418.56</ele>
        <time>2021-08-01T14:19:21Z</time>
      </trkpt>
      <trkpt lat="42.16366" lon="0.89585">
        <ele>421.96</ele>
        <time>2021-08-01T14:19:27Z</time>
      </trkpt>
      <trkpt lat="42.16378" lon="0.89513">
        <ele>424.81</ele>
        <time>2021-08-01T14:19:34Z</time>
      </trkpt>
      <trkpt lat="42.16385" lon="0.89484">
        <ele>426.57</ele>
        <time>2021-08-01T14:19:41Z</time>
      </trkpt>
      <trkpt lat="42.16391" lon="0.89473">
        <ele>427.18</ele>
        <time>2021-08-01T14:19:46Z</time>
      </trkpt>
      <trkpt lat="42.16371" lon="0.89463">
        <ele>427.7</ele>
        <time>2021-08-01T14:19:54Z</time>
      </trkpt>
      <trkpt lat="42.1639" lon="0.89467">
        <ele>427.67</ele>
        <time>2021-08-01T14:20:00Z</time>
      </trkpt>
      <trkpt lat="42.16402" lon="0.8947">
        <ele>427.71</ele>
        <time>2021-08-01T14:20:02Z</time>
      </trkpt>
      <trkpt lat="42.16503" lon="0.89498">
        <ele>430.84</ele>
        <time>2021-08-01T14:20:13Z</time>
      </trkpt>
      <trkpt lat="42.16563" lon="0.89512">
        <ele>434.04</ele>
        <time>2021-08-01T14:20:20Z</time>
      </trkpt>
      <trkpt lat="42.16601" lon="0.8953">
        <ele>435.92</ele>
        <time>2021-08-01T14:20:24Z</time>
      </trkpt>
      <trkpt lat="42.16625" lon="0.89555">
        <ele>437.44</ele>
        <time>2021-08-01T14:20:28Z</time>
      </trkpt>
      <trkpt lat="42.16652" lon="0.89585">
        <ele>438.62</ele>
        <time>2021-08-01T14:20:32Z</time>
      </trkpt>
      <trkpt lat="42.16719" lon="0.896">
        <ele>440.39</ele>
        <time>2021-08-01T14:20:40Z</time>
      </trkpt>
      <trkpt lat="42.16726" lon="0.89599">
        <ele>440.52</ele>
        <time>2021-08-01T14:20:41Z</time>
      </trkpt>
      <trkpt lat="42.16733" lon="0.89597">
        <ele>440.63</ele>
        <time>2021-08-01T14:20:42Z</time>
      </trkpt>
      <trkpt lat="42.16765" lon="0.89571">
        <ele>441</ele>
        <time>2021-08-01T14:20:46Z</time>
      </trkpt>
      <trkpt lat="42.16844" lon="0.89485">
        <ele>442.3</ele>
        <time>2021-08-01T14:20:56Z</time>
      </trkpt>
      <trkpt lat="42.16909" lon="0.89472">
        <ele>443.2</ele>
        <time>2021-08-01T14:21:03Z</time>
      </trkpt>
      <trkpt lat="42.17054" lon="0.89504">
        <ele>441.89</ele>
        <time>2021-08-01T14:21:16Z</time>
      </trkpt>
      <trkpt lat="42.17165" lon="0.89536">
        <ele>440.36</ele>
        <time>2021-08-01T14:21:27Z</time>
      </trkpt>
      <trkpt lat="42.17197" lon="0.89545">
        <ele>440.62</ele>
        <time>2021-08-01T14:21:30Z</time>
      </trkpt>
      <trkpt lat="42.17285" lon="0.89599">
        <ele>443.84</ele>
        <time>2021-08-01T14:21:37Z</time>
      </trkpt>
      <trkpt lat="42.17339" lon="0.89633">
        <ele>447.08</ele>
        <time>2021-08-01T14:21:41Z</time>
      </trkpt>
      <trkpt lat="42.17381" lon="0.89661">
        <ele>449.76</ele>
        <time>2021-08-01T14:21:45Z</time>
      </trkpt>
      <trkpt lat="42.17394" lon="0.89674">
        <ele>451.08</ele>
        <time>2021-08-01T14:21:47Z</time>
      </trkpt>
      <trkpt lat="42.17407" lon="0.897">
        <ele>452.92</ele>
        <time>2021-08-01T14:21:51Z</time>
      </trkpt>
      <trkpt lat="42.17413" lon="0.89722">
        <ele>454.36</ele>
        <time>2021-08-01T14:22:02Z</time>
      </trkpt>
      <trkpt lat="42.17411" lon="0.89724">
        <ele>454.37</ele>
        <time>2021-08-01T14:22:12Z</time>
      </trkpt>
      <trkpt lat="42.17402" lon="0.89721">
        <ele>454.64</ele>
        <time>2021-08-01T14:22:26Z</time>
      </trkpt>
      <trkpt lat="42.174" lon="0.8972">
        <ele>455.17</ele>
        <time>2021-08-01T14:22:48Z</time>
      </trkpt>
      <trkpt lat="42.174" lon="0.89719">
        <ele>455.12</ele>
        <time>2021-08-01T14:22:49Z</time>
      </trkpt>
      <trkpt lat="42.17412" lon="0.89733">
        <ele>455.21</ele>
        <time>2021-08-01T14:27:04Z</time>
      </trkpt>
      <trkpt lat="42.1739" lon="0.89715">
        <ele>455.21</ele>
        <time>2021-08-01T14:27:09Z</time>
      </trkpt>
      <trkpt lat="42.17396" lon="0.89702">
        <ele>452.99</ele>
        <time>2021-08-01T14:27:18Z</time>
      </trkpt>
      <trkpt lat="42.17418" lon="0.89692">
        <ele>452.3</ele>
        <time>2021-08-01T14:27:23Z</time>
      </trkpt>
      <trkpt lat="42.17422" lon="0.89694">
        <ele>452.24</ele>
        <time>2021-08-01T14:27:27Z</time>
      </trkpt>
      <trkpt lat="42.17478" lon="0.89725">
        <ele>453.29</ele>
        <time>2021-08-01T14:27:34Z</time>
      </trkpt>
      <trkpt lat="42.17509" lon="0.89743">
        <ele>455.02</ele>
        <time>2021-08-01T14:27:37Z</time>
      </trkpt>
      <trkpt lat="42.17564" lon="0.89722">
        <ele>458.14</ele>
        <time>2021-08-01T14:27:42Z</time>
      </trkpt>
      <trkpt lat="42.17593" lon="0.89682">
        <ele>459.38</ele>
        <time>2021-08-01T14:27:45Z</time>
      </trkpt>
      <trkpt lat="42.17604" lon="0.89673">
        <ele>460.02</ele>
        <time>2021-08-01T14:27:46Z</time>
      </trkpt>
      <trkpt lat="42.17642" lon="0.89663">
        <ele>461.81</ele>
        <time>2021-08-01T14:27:49Z</time>
      </trkpt>
      <trkpt lat="42.17771" lon="0.89668">
        <ele>465.21</ele>
        <time>2021-08-01T14:27:57Z</time>
      </trkpt>
      <trkpt lat="42.17885" lon="0.8967">
        <ele>468.23</ele>
        <time>2021-08-01T14:28:03Z</time>
      </trkpt>
      <trkpt lat="42.17983" lon="0.89681">
        <ele>471.25</ele>
        <time>2021-08-01T14:28:08Z</time>
      </trkpt>
      <trkpt lat="42.18062" lon="0.89712">
        <ele>474.33</ele>
        <time>2021-08-01T14:28:13Z</time>
      </trkpt>
      <trkpt lat="42.18073" lon="0.89718">
        <ele>474.96</ele>
        <time>2021-08-01T14:28:14Z</time>
      </trkpt>
      <trkpt lat="42.18091" lon="0.8973">
        <ele>475.8</ele>
        <time>2021-08-01T14:28:16Z</time>
      </trkpt>
      <trkpt lat="42.18121" lon="0.89714">
        <ele>477.38</ele>
        <time>2021-08-01T14:28:20Z</time>
      </trkpt>
      <trkpt lat="42.18154" lon="0.89734">
        <ele>478.25</ele>
        <time>2021-08-01T14:28:24Z</time>
      </trkpt>
      <trkpt lat="42.18187" lon="0.8978">
        <ele>481.38</ele>
        <time>2021-08-01T14:28:28Z</time>
      </trkpt>
      <trkpt lat="42.1823" lon="0.89812">
        <ele>485.03</ele>
        <time>2021-08-01T14:28:32Z</time>
      </trkpt>
      <trkpt lat="42.18275" lon="0.89823">
        <ele>489.32</ele>
        <time>2021-08-01T14:28:36Z</time>
      </trkpt>
      <trkpt lat="42.18287" lon="0.89819">
        <ele>490.44</ele>
        <time>2021-08-01T14:28:37Z</time>
      </trkpt>
      <trkpt lat="42.1834" lon="0.89799">
        <ele>495.26</ele>
        <time>2021-08-01T14:28:41Z</time>
      </trkpt>
      <trkpt lat="42.18389" lon="0.89782">
        <ele>499.14</ele>
        <time>2021-08-01T14:28:45Z</time>
      </trkpt>
      <trkpt lat="42.1843" lon="0.89769">
        <ele>502.42</ele>
        <time>2021-08-01T14:28:49Z</time>
      </trkpt>
      <trkpt lat="42.1849" lon="0.89759">
        <ele>505.48</ele>
        <time>2021-08-01T14:28:55Z</time>
      </trkpt>
      <trkpt lat="42.18563" lon="0.89734">
        <ele>508.77</ele>
        <time>2021-08-01T14:29:01Z</time>
      </trkpt>
      <trkpt lat="42.18592" lon="0.89717">
        <ele>510.13</ele>
        <time>2021-08-01T14:29:03Z</time>
      </trkpt>
      <trkpt lat="42.18605" lon="0.89705">
        <ele>510.79</ele>
        <time>2021-08-01T14:29:04Z</time>
      </trkpt>
      <trkpt lat="42.18617" lon="0.8969">
        <ele>511.41</ele>
        <time>2021-08-01T14:29:05Z</time>
      </trkpt>
      <trkpt lat="42.18637" lon="0.89652">
        <ele>512.46</ele>
        <time>2021-08-01T14:29:07Z</time>
      </trkpt>
      <trkpt lat="42.1869" lon="0.89521">
        <ele>516.02</ele>
        <time>2021-08-01T14:29:13Z</time>
      </trkpt>
      <trkpt lat="42.18724" lon="0.89435">
        <ele>519.08</ele>
        <time>2021-08-01T14:29:17Z</time>
      </trkpt>
      <trkpt lat="42.18756" lon="0.89356">
        <ele>522.56</ele>
        <time>2021-08-01T14:29:21Z</time>
      </trkpt>
      <trkpt lat="42.18766" lon="0.89338">
        <ele>523.41</ele>
        <time>2021-08-01T14:29:22Z</time>
      </trkpt>
      <trkpt lat="42.18791" lon="0.89307">
        <ele>525.18</ele>
        <time>2021-08-01T14:29:24Z</time>
      </trkpt>
      <trkpt lat="42.1885" lon="0.89253">
        <ele>528.72</ele>
        <time>2021-08-01T14:29:28Z</time>
      </trkpt>
      <trkpt lat="42.18902" lon="0.89243">
        <ele>532.04</ele>
        <time>2021-08-01T14:29:31Z</time>
      </trkpt>
      <trkpt lat="42.18947" lon="0.89278">
        <ele>536.14</ele>
        <time>2021-08-01T14:29:34Z</time>
      </trkpt>
      <trkpt lat="42.18966" lon="0.89341">
        <ele>540.62</ele>
        <time>2021-08-01T14:29:37Z</time>
      </trkpt>
      <trkpt lat="42.18959" lon="0.89402">
        <ele>544.91</ele>
        <time>2021-08-01T14:29:40Z</time>
      </trkpt>
      <trkpt lat="42.18942" lon="0.89486">
        <ele>550.79</ele>
        <time>2021-08-01T14:29:44Z</time>
      </trkpt>
      <trkpt lat="42.18929" lon="0.89545">
        <ele>553.93</ele>
        <time>2021-08-01T14:29:47Z</time>
      </trkpt>
      <trkpt lat="42.18944" lon="0.89621">
        <ele>557.9</ele>
        <time>2021-08-01T14:29:52Z</time>
      </trkpt>
      <trkpt lat="42.18988" lon="0.8962">
        <ele>560.46</ele>
        <time>2021-08-01T14:29:56Z</time>
      </trkpt>
      <trkpt lat="42.19007" lon="0.89601">
        <ele>561.58</ele>
        <time>2021-08-01T14:29:58Z</time>
      </trkpt>
      <trkpt lat="42.19061" lon="0.8953">
        <ele>565.23</ele>
        <time>2021-08-01T14:30:03Z</time>
      </trkpt>
      <trkpt lat="42.19098" lon="0.89481">
        <ele>569.25</ele>
        <time>2021-08-01T14:30:06Z</time>
      </trkpt>
      <trkpt lat="42.19136" lon="0.89433">
        <ele>573.49</ele>
        <time>2021-08-01T14:30:09Z</time>
      </trkpt>
      <trkpt lat="42.19161" lon="0.89399">
        <ele>576.58</ele>
        <time>2021-08-01T14:30:11Z</time>
      </trkpt>
      <trkpt lat="42.19198" lon="0.89341">
        <ele>580.9</ele>
        <time>2021-08-01T14:30:14Z</time>
      </trkpt>
      <trkpt lat="42.19231" lon="0.89281">
        <ele>584.7</ele>
        <time>2021-08-01T14:30:17Z</time>
      </trkpt>
      <trkpt lat="42.19278" lon="0.892">
        <ele>588.42</ele>
        <time>2021-08-01T14:30:21Z</time>
      </trkpt>
      <trkpt lat="42.19323" lon="0.89116">
        <ele>591.71</ele>
        <time>2021-08-01T14:30:25Z</time>
      </trkpt>
      <trkpt lat="42.19382" lon="0.89004">
        <ele>594.96</ele>
        <time>2021-08-01T14:30:30Z</time>
      </trkpt>
      <trkpt lat="42.19414" lon="0.88937">
        <ele>598.03</ele>
        <time>2021-08-01T14:30:33Z</time>
      </trkpt>
      <trkpt lat="42.19448" lon="0.88852">
        <ele>601.97</ele>
        <time>2021-08-01T14:30:37Z</time>
      </trkpt>
      <trkpt lat="42.19476" lon="0.88779">
        <ele>605.05</ele>
        <time>2021-08-01T14:30:41Z</time>
      </trkpt>
      <trkpt lat="42.195" lon="0.88712">
        <ele>608.53</ele>
        <time>2021-08-01T14:30:46Z</time>
      </trkpt>
      <trkpt lat="42.1952" lon="0.88656">
        <ele>612.01</ele>
        <time>2021-08-01T14:30:52Z</time>
      </trkpt>
      <trkpt lat="42.19533" lon="0.88592">
        <ele>615.33</ele>
        <time>2021-08-01T14:30:59Z</time>
      </trkpt>
      <trkpt lat="42.1955" lon="0.88525">
        <ele>618.89</ele>
        <time>2021-08-01T14:31:05Z</time>
      </trkpt>
      <trkpt lat="42.19555" lon="0.88463">
        <ele>622.04</ele>
        <time>2021-08-01T14:31:10Z</time>
      </trkpt>
      <trkpt lat="42.19571" lon="0.88377">
        <ele>626.21</ele>
        <time>2021-08-01T14:31:15Z</time>
      </trkpt>
      <trkpt lat="42.19587" lon="0.8832">
        <ele>629.23</ele>
        <time>2021-08-01T14:31:18Z</time>
      </trkpt>
      <trkpt lat="42.1961" lon="0.88256">
        <ele>633.82</ele>
        <time>2021-08-01T14:31:22Z</time>
      </trkpt>
      <trkpt lat="42.19616" lon="0.8824">
        <ele>633.82</ele>
        <time>2021-08-01T14:31:23Z</time>
      </trkpt>
      <trkpt lat="42.19635" lon="0.88192">
        <ele>637.53</ele>
        <time>2021-08-01T14:31:26Z</time>
      </trkpt>
      <trkpt lat="42.19657" lon="0.88132">
        <ele>641.21</ele>
        <time>2021-08-01T14:31:30Z</time>
      </trkpt>
      <trkpt lat="42.19679" lon="0.88077">
        <ele>644.39</ele>
        <time>2021-08-01T14:31:34Z</time>
      </trkpt>
      <trkpt lat="42.1969" lon="0.88047">
        <ele>645.82</ele>
        <time>2021-08-01T14:31:36Z</time>
      </trkpt>
      <trkpt lat="42.19704" lon="0.87962">
        <ele>650.26</ele>
        <time>2021-08-01T14:31:41Z</time>
      </trkpt>
      <trkpt lat="42.19707" lon="0.87909">
        <ele>653.47</ele>
        <time>2021-08-01T14:31:44Z</time>
      </trkpt>
      <trkpt lat="42.19709" lon="0.87848">
        <ele>657.38</ele>
        <time>2021-08-01T14:31:48Z</time>
      </trkpt>
      <trkpt lat="42.19712" lon="0.87787">
        <ele>661.24</ele>
        <time>2021-08-01T14:31:52Z</time>
      </trkpt>
      <trkpt lat="42.19724" lon="0.87731">
        <ele>664.76</ele>
        <time>2021-08-01T14:31:56Z</time>
      </trkpt>
      <trkpt lat="42.19733" lon="0.87704">
        <ele>666.7</ele>
        <time>2021-08-01T14:31:58Z</time>
      </trkpt>
      <trkpt lat="42.19776" lon="0.87643">
        <ele>670.75</ele>
        <time>2021-08-01T14:32:03Z</time>
      </trkpt>
      <trkpt lat="42.19814" lon="0.87595">
        <ele>673.27</ele>
        <time>2021-08-01T14:32:07Z</time>
      </trkpt>
      <trkpt lat="42.19858" lon="0.87568">
        <ele>675.76</ele>
        <time>2021-08-01T14:32:11Z</time>
      </trkpt>
      <trkpt lat="42.19893" lon="0.8756">
        <ele>677.75</ele>
        <time>2021-08-01T14:32:14Z</time>
      </trkpt>
      <trkpt lat="42.19952" lon="0.87525">
        <ele>681.96</ele>
        <time>2021-08-01T14:32:19Z</time>
      </trkpt>
      <trkpt lat="42.19964" lon="0.87516">
        <ele>682.9</ele>
        <time>2021-08-01T14:32:20Z</time>
      </trkpt>
      <trkpt lat="42.20002" lon="0.87465">
        <ele>686.89</ele>
        <time>2021-08-01T14:32:24Z</time>
      </trkpt>
      <trkpt lat="42.20023" lon="0.8742">
        <ele>690.29</ele>
        <time>2021-08-01T14:32:27Z</time>
      </trkpt>
      <trkpt lat="42.20037" lon="0.87371">
        <ele>693.89</ele>
        <time>2021-08-01T14:32:30Z</time>
      </trkpt>
      <trkpt lat="42.20047" lon="0.87319">
        <ele>697.16</ele>
        <time>2021-08-01T14:32:33Z</time>
      </trkpt>
      <trkpt lat="42.20056" lon="0.87286">
        <ele>699.26</ele>
        <time>2021-08-01T14:32:35Z</time>
      </trkpt>
      <trkpt lat="42.20084" lon="0.87229">
        <ele>703.18</ele>
        <time>2021-08-01T14:32:39Z</time>
      </trkpt>
      <trkpt lat="42.20094" lon="0.87218">
        <ele>704.15</ele>
        <time>2021-08-01T14:32:40Z</time>
      </trkpt>
      <trkpt lat="42.20136" lon="0.8717">
        <ele>708.76</ele>
        <time>2021-08-01T14:32:45Z</time>
      </trkpt>
      <trkpt lat="42.20167" lon="0.87122">
        <ele>712.24</ele>
        <time>2021-08-01T14:32:49Z</time>
      </trkpt>
      <trkpt lat="42.20189" lon="0.8707">
        <ele>716.18</ele>
        <time>2021-08-01T14:32:53Z</time>
      </trkpt>
      <trkpt lat="42.20199" lon="0.87043">
        <ele>718.21</ele>
        <time>2021-08-01T14:32:55Z</time>
      </trkpt>
      <trkpt lat="42.20236" lon="0.86982">
        <ele>723.02</ele>
        <time>2021-08-01T14:33:00Z</time>
      </trkpt>
      <trkpt lat="42.20251" lon="0.86956">
        <ele>726.17</ele>
        <time>2021-08-01T14:33:02Z</time>
      </trkpt>
      <trkpt lat="42.20272" lon="0.86922">
        <ele>729.42</ele>
        <time>2021-08-01T14:33:05Z</time>
      </trkpt>
      <trkpt lat="42.20294" lon="0.86887">
        <ele>732.56</ele>
        <time>2021-08-01T14:33:08Z</time>
      </trkpt>
      <trkpt lat="42.20318" lon="0.86851">
        <ele>735.72</ele>
        <time>2021-08-01T14:33:11Z</time>
      </trkpt>
      <trkpt lat="42.20342" lon="0.86815">
        <ele>739.01</ele>
        <time>2021-08-01T14:33:14Z</time>
      </trkpt>
      <trkpt lat="42.20365" lon="0.8678">
        <ele>742.05</ele>
        <time>2021-08-01T14:33:17Z</time>
      </trkpt>
      <trkpt lat="42.20372" lon="0.86768">
        <ele>743.03</ele>
        <time>2021-08-01T14:33:18Z</time>
      </trkpt>
      <trkpt lat="42.20398" lon="0.867">
        <ele>747.79</ele>
        <time>2021-08-01T14:33:23Z</time>
      </trkpt>
      <trkpt lat="42.20419" lon="0.86646">
        <ele>751.29</ele>
        <time>2021-08-01T14:33:27Z</time>
      </trkpt>
      <trkpt lat="42.20449" lon="0.86594">
        <ele>755.26</ele>
        <time>2021-08-01T14:33:31Z</time>
      </trkpt>
      <trkpt lat="42.2048" lon="0.86539">
        <ele>759.18</ele>
        <time>2021-08-01T14:33:35Z</time>
      </trkpt>
      <trkpt lat="42.20508" lon="0.86485">
        <ele>762.98</ele>
        <time>2021-08-01T14:33:39Z</time>
      </trkpt>
      <trkpt lat="42.20531" lon="0.86443">
        <ele>766.11</ele>
        <time>2021-08-01T14:33:42Z</time>
      </trkpt>
      <trkpt lat="42.20556" lon="0.864">
        <ele>769.27</ele>
        <time>2021-08-01T14:33:45Z</time>
      </trkpt>
      <trkpt lat="42.20584" lon="0.86361">
        <ele>772.42</ele>
        <time>2021-08-01T14:33:48Z</time>
      </trkpt>
      <trkpt lat="42.20622" lon="0.86311">
        <ele>776.35</ele>
        <time>2021-08-01T14:33:52Z</time>
      </trkpt>
      <trkpt lat="42.20645" lon="0.86269">
        <ele>779.59</ele>
        <time>2021-08-01T14:33:55Z</time>
      </trkpt>
      <trkpt lat="42.20667" lon="0.86225">
        <ele>783.01</ele>
        <time>2021-08-01T14:33:58Z</time>
      </trkpt>
      <trkpt lat="42.20691" lon="0.86176">
        <ele>786.67</ele>
        <time>2021-08-01T14:34:01Z</time>
      </trkpt>
      <trkpt lat="42.20716" lon="0.86129">
        <ele>790.69</ele>
        <time>2021-08-01T14:34:04Z</time>
      </trkpt>
      <trkpt lat="42.20739" lon="0.86079">
        <ele>794.7</ele>
        <time>2021-08-01T14:34:07Z</time>
      </trkpt>
      <trkpt lat="42.20763" lon="0.8603">
        <ele>798.56</ele>
        <time>2021-08-01T14:34:10Z</time>
      </trkpt>
      <trkpt lat="42.20788" lon="0.8598">
        <ele>802.09</ele>
        <time>2021-08-01T14:34:13Z</time>
      </trkpt>
      <trkpt lat="42.20833" lon="0.85923">
        <ele>806.88</ele>
        <time>2021-08-01T14:34:17Z</time>
      </trkpt>
      <trkpt lat="42.20871" lon="0.85853">
        <ele>811.85</ele>
        <time>2021-08-01T14:34:21Z</time>
      </trkpt>
      <trkpt lat="42.20876" lon="0.85833">
        <ele>813.03</ele>
        <time>2021-08-01T14:34:22Z</time>
      </trkpt>
      <trkpt lat="42.20909" lon="0.85748">
        <ele>818.75</ele>
        <time>2021-08-01T14:34:27Z</time>
      </trkpt>
      <trkpt lat="42.20937" lon="0.85702">
        <ele>822.06</ele>
        <time>2021-08-01T14:34:30Z</time>
      </trkpt>
      <trkpt lat="42.20967" lon="0.85658">
        <ele>825.58</ele>
        <time>2021-08-01T14:34:33Z</time>
      </trkpt>
      <trkpt lat="42.21002" lon="0.85617">
        <ele>829.08</ele>
        <time>2021-08-01T14:34:36Z</time>
      </trkpt>
      <trkpt lat="42.21036" lon="0.8557">
        <ele>832.93</ele>
        <time>2021-08-01T14:34:39Z</time>
      </trkpt>
      <trkpt lat="42.21061" lon="0.85536">
        <ele>836.41</ele>
        <time>2021-08-01T14:34:41Z</time>
      </trkpt>
      <trkpt lat="42.21087" lon="0.85447">
        <ele>841.03</ele>
        <time>2021-08-01T14:34:45Z</time>
      </trkpt>
      <trkpt lat="42.21091" lon="0.85423">
        <ele>842.25</ele>
        <time>2021-08-01T14:34:46Z</time>
      </trkpt>
      <trkpt lat="42.21122" lon="0.85336">
        <ele>847.69</ele>
        <time>2021-08-01T14:34:50Z</time>
      </trkpt>
      <trkpt lat="42.21142" lon="0.85293">
        <ele>850.98</ele>
        <time>2021-08-01T14:34:52Z</time>
      </trkpt>
      <trkpt lat="42.21164" lon="0.85254">
        <ele>854.31</ele>
        <time>2021-08-01T14:34:54Z</time>
      </trkpt>
      <trkpt lat="42.21183" lon="0.85185">
        <ele>859.05</ele>
        <time>2021-08-01T14:34:57Z</time>
      </trkpt>
      <trkpt lat="42.21188" lon="0.85134">
        <ele>862.11</ele>
        <time>2021-08-01T14:34:59Z</time>
      </trkpt>
      <trkpt lat="42.21202" lon="0.85061">
        <ele>866.39</ele>
        <time>2021-08-01T14:35:02Z</time>
      </trkpt>
      <trkpt lat="42.21208" lon="0.85038">
        <ele>868.09</ele>
        <time>2021-08-01T14:35:03Z</time>
      </trkpt>
      <trkpt lat="42.21234" lon="0.84975">
        <ele>873.6</ele>
        <time>2021-08-01T14:35:06Z</time>
      </trkpt>
      <trkpt lat="42.2125" lon="0.84936">
        <ele>876.92</ele>
        <time>2021-08-01T14:35:08Z</time>
      </trkpt>
      <trkpt lat="42.2129" lon="0.84896">
        <ele>882.97</ele>
        <time>2021-08-01T14:35:12Z</time>
      </trkpt>
      <trkpt lat="42.21306" lon="0.8489">
        <ele>886.83</ele>
        <time>2021-08-01T14:35:15Z</time>
      </trkpt>
      <trkpt lat="42.21291" lon="0.84901">
        <ele>890.7</ele>
        <time>2021-08-01T14:35:20Z</time>
      </trkpt>
      <trkpt lat="42.21276" lon="0.84907">
        <ele>891.44</ele>
        <time>2021-08-01T14:35:29Z</time>
      </trkpt>
      <trkpt lat="42.21286" lon="0.84903">
        <ele>891.31</ele>
        <time>2021-08-01T14:35:32Z</time>
      </trkpt>
      <trkpt lat="42.21285" lon="0.84854">
        <ele>892.66</ele>
        <time>2021-08-01T14:35:39Z</time>
      </trkpt>
      <trkpt lat="42.21251" lon="0.84802">
        <ele>894.1</ele>
        <time>2021-08-01T14:35:45Z</time>
      </trkpt>
      <trkpt lat="42.21215" lon="0.84774">
        <ele>896.02</ele>
        <time>2021-08-01T14:35:51Z</time>
      </trkpt>
      <trkpt lat="42.2119" lon="0.84786">
        <ele>896.73</ele>
        <time>2021-08-01T14:35:54Z</time>
      </trkpt>
      <trkpt lat="42.21182" lon="0.84786">
        <ele>896.9</ele>
        <time>2021-08-01T14:35:55Z</time>
      </trkpt>
      <trkpt lat="42.21174" lon="0.84783">
        <ele>897.01</ele>
        <time>2021-08-01T14:35:56Z</time>
      </trkpt>
      <trkpt lat="42.21146" lon="0.84734">
        <ele>897.23</ele>
        <time>2021-08-01T14:36:01Z</time>
      </trkpt>
      <trkpt lat="42.21108" lon="0.84659">
        <ele>896.78</ele>
        <time>2021-08-01T14:36:08Z</time>
      </trkpt>
      <trkpt lat="42.21068" lon="0.84671">
        <ele>896.21</ele>
        <time>2021-08-01T14:36:14Z</time>
      </trkpt>
      <trkpt lat="42.21064" lon="0.84683">
        <ele>896.16</ele>
        <time>2021-08-01T14:36:15Z</time>
      </trkpt>
      <trkpt lat="42.21054" lon="0.84717">
        <ele>896.36</ele>
        <time>2021-08-01T14:36:18Z</time>
      </trkpt>
      <trkpt lat="42.21014" lon="0.8474">
        <ele>896.95</ele>
        <time>2021-08-01T14:36:24Z</time>
      </trkpt>
      <trkpt lat="42.21004" lon="0.84739">
        <ele>897</ele>
        <time>2021-08-01T14:36:25Z</time>
      </trkpt>
      <trkpt lat="42.20964" lon="0.84731">
        <ele>897.39</ele>
        <time>2021-08-01T14:36:29Z</time>
      </trkpt>
      <trkpt lat="42.20885" lon="0.84677">
        <ele>900.17</ele>
        <time>2021-08-01T14:36:36Z</time>
      </trkpt>
      <trkpt lat="42.20875" lon="0.8462">
        <ele>902.74</ele>
        <time>2021-08-01T14:36:41Z</time>
      </trkpt>
      <trkpt lat="42.20881" lon="0.84609">
        <ele>903.36</ele>
        <time>2021-08-01T14:36:42Z</time>
      </trkpt>
      <trkpt lat="42.20887" lon="0.84599">
        <ele>903.99</ele>
        <time>2021-08-01T14:36:43Z</time>
      </trkpt>
      <trkpt lat="42.20891" lon="0.84588">
        <ele>904.59</ele>
        <time>2021-08-01T14:36:44Z</time>
      </trkpt>
      <trkpt lat="42.20894" lon="0.84577">
        <ele>905.09</ele>
        <time>2021-08-01T14:36:45Z</time>
      </trkpt>
      <trkpt lat="42.20895" lon="0.84563">
        <ele>905.59</ele>
        <time>2021-08-01T14:36:46Z</time>
      </trkpt>
      <trkpt lat="42.20908" lon="0.84469">
        <ele>908.93</ele>
        <time>2021-08-01T14:36:52Z</time>
      </trkpt>
      <trkpt lat="42.20915" lon="0.84443">
        <ele>909.81</ele>
        <time>2021-08-01T14:36:54Z</time>
      </trkpt>
      <trkpt lat="42.20896" lon="0.84424">
        <ele>912</ele>
        <time>2021-08-01T14:36:59Z</time>
      </trkpt>
      <trkpt lat="42.20862" lon="0.84444">
        <ele>912.67</ele>
        <time>2021-08-01T14:37:02Z</time>
      </trkpt>
      <trkpt lat="42.20825" lon="0.84467">
        <ele>913.66</ele>
        <time>2021-08-01T14:37:06Z</time>
      </trkpt>
      <trkpt lat="42.20797" lon="0.8445">
        <ele>915.33</ele>
        <time>2021-08-01T14:37:12Z</time>
      </trkpt>
      <trkpt lat="42.20795" lon="0.8444">
        <ele>915.71</ele>
        <time>2021-08-01T14:37:13Z</time>
      </trkpt>
      <trkpt lat="42.20784" lon="0.84387">
        <ele>917.52</ele>
        <time>2021-08-01T14:37:18Z</time>
      </trkpt>
      <trkpt lat="42.208" lon="0.84378">
        <ele>919.52</ele>
        <time>2021-08-01T14:37:23Z</time>
      </trkpt>
      <trkpt lat="42.20804" lon="0.84385">
        <ele>919.93</ele>
        <time>2021-08-01T14:37:24Z</time>
      </trkpt>
      <trkpt lat="42.20843" lon="0.84401">
        <ele>923.09</ele>
        <time>2021-08-01T14:37:31Z</time>
      </trkpt>
      <trkpt lat="42.20837" lon="0.84389">
        <ele>923.93</ele>
        <time>2021-08-01T14:37:33Z</time>
      </trkpt>
      <trkpt lat="42.20836" lon="0.84327">
        <ele>928.03</ele>
        <time>2021-08-01T14:37:41Z</time>
      </trkpt>
      <trkpt lat="42.2085" lon="0.84312">
        <ele>929.09</ele>
        <time>2021-08-01T14:37:43Z</time>
      </trkpt>
      <trkpt lat="42.20873" lon="0.84279">
        <ele>930.99</ele>
        <time>2021-08-01T14:37:47Z</time>
      </trkpt>
      <trkpt lat="42.20875" lon="0.84211">
        <ele>934.68</ele>
        <time>2021-08-01T14:37:54Z</time>
      </trkpt>
      <trkpt lat="42.20855" lon="0.84164">
        <ele>937.17</ele>
        <time>2021-08-01T14:37:59Z</time>
      </trkpt>
      <trkpt lat="42.20848" lon="0.84132">
        <ele>939.67</ele>
        <time>2021-08-01T14:38:03Z</time>
      </trkpt>
      <trkpt lat="42.20843" lon="0.84097">
        <ele>941.71</ele>
        <time>2021-08-01T14:38:08Z</time>
      </trkpt>
      <trkpt lat="42.20836" lon="0.84072">
        <ele>942.92</ele>
        <time>2021-08-01T14:38:11Z</time>
      </trkpt>
      <trkpt lat="42.20842" lon="0.84029">
        <ele>944.73</ele>
        <time>2021-08-01T14:38:15Z</time>
      </trkpt>
      <trkpt lat="42.20859" lon="0.83973">
        <ele>947.25</ele>
        <time>2021-08-01T14:38:20Z</time>
      </trkpt>
      <trkpt lat="42.20874" lon="0.8396">
        <ele>949.73</ele>
        <time>2021-08-01T14:38:26Z</time>
      </trkpt>
      <trkpt lat="42.20873" lon="0.83967">
        <ele>950.18</ele>
        <time>2021-08-01T14:38:27Z</time>
      </trkpt>
      <trkpt lat="42.20866" lon="0.84033">
        <ele>953.5</ele>
        <time>2021-08-01T14:38:34Z</time>
      </trkpt>
      <trkpt lat="42.2087" lon="0.84069">
        <ele>955.47</ele>
        <time>2021-08-01T14:38:38Z</time>
      </trkpt>
      <trkpt lat="42.209" lon="0.84132">
        <ele>959.04</ele>
        <time>2021-08-01T14:38:47Z</time>
      </trkpt>
      <trkpt lat="42.20924" lon="0.84172">
        <ele>961.78</ele>
        <time>2021-08-01T14:38:53Z</time>
      </trkpt>
      <trkpt lat="42.2096" lon="0.8416">
        <ele>965.2</ele>
        <time>2021-08-01T14:39:00Z</time>
      </trkpt>
      <trkpt lat="42.20966" lon="0.84152">
        <ele>965.65</ele>
        <time>2021-08-01T14:39:01Z</time>
      </trkpt>
      <trkpt lat="42.21003" lon="0.84096">
        <ele>969.25</ele>
        <time>2021-08-01T14:39:07Z</time>
      </trkpt>
      <trkpt lat="42.21025" lon="0.84055">
        <ele>972.75</ele>
        <time>2021-08-01T14:39:11Z</time>
      </trkpt>
      <trkpt lat="42.21047" lon="0.84015">
        <ele>976.8</ele>
        <time>2021-08-01T14:39:15Z</time>
      </trkpt>
      <trkpt lat="42.21073" lon="0.83976">
        <ele>980.61</ele>
        <time>2021-08-01T14:39:19Z</time>
      </trkpt>
      <trkpt lat="42.21095" lon="0.83944">
        <ele>984.23</ele>
        <time>2021-08-01T14:39:23Z</time>
      </trkpt>
      <trkpt lat="42.21115" lon="0.83911">
        <ele>987.54</ele>
        <time>2021-08-01T14:39:27Z</time>
      </trkpt>
      <trkpt lat="42.21133" lon="0.83889">
        <ele>989.7</ele>
        <time>2021-08-01T14:39:30Z</time>
      </trkpt>
      <trkpt lat="42.21155" lon="0.83904">
        <ele>991.04</ele>
        <time>2021-08-01T14:39:35Z</time>
      </trkpt>
      <trkpt lat="42.21156" lon="0.83913">
        <ele>991.13</ele>
        <time>2021-08-01T14:39:36Z</time>
      </trkpt>
      <trkpt lat="42.21164" lon="0.83975">
        <ele>991.47</ele>
        <time>2021-08-01T14:39:42Z</time>
      </trkpt>
      <trkpt lat="42.21178" lon="0.84136">
        <ele>994.12</ele>
        <time>2021-08-01T14:39:52Z</time>
      </trkpt>
      <trkpt lat="42.21183" lon="0.84182">
        <ele>997.74</ele>
        <time>2021-08-01T14:39:57Z</time>
      </trkpt>
      <trkpt lat="42.21192" lon="0.84201">
        <ele>1000.61</ele>
        <time>2021-08-01T14:40:01Z</time>
      </trkpt>
      <trkpt lat="42.212" lon="0.8421">
        <ele>1004.19</ele>
        <time>2021-08-01T14:40:08Z</time>
      </trkpt>
      <trkpt lat="42.2122" lon="0.84222">
        <ele>1007.01</ele>
        <time>2021-08-01T14:42:51Z</time>
      </trkpt>
      <trkpt lat="42.21242" lon="0.84212">
        <ele>1009.15</ele>
        <time>2021-08-01T14:42:59Z</time>
      </trkpt>
      <trkpt lat="42.21248" lon="0.84203">
        <ele>1009.76</ele>
        <time>2021-08-01T14:43:01Z</time>
      </trkpt>
      <trkpt lat="42.21255" lon="0.84187">
        <ele>1010.88</ele>
        <time>2021-08-01T14:43:04Z</time>
      </trkpt>
      <trkpt lat="42.21246" lon="0.84164">
        <ele>1012.79</ele>
        <time>2021-08-01T14:43:08Z</time>
      </trkpt>
      <trkpt lat="42.21232" lon="0.84123">
        <ele>1016.14</ele>
        <time>2021-08-01T14:43:14Z</time>
      </trkpt>
      <trkpt lat="42.21236" lon="0.84097">
        <ele>1017.84</ele>
        <time>2021-08-01T14:43:17Z</time>
      </trkpt>
      <trkpt lat="42.21237" lon="0.84076">
        <ele>1019.25</ele>
        <time>2021-08-01T14:43:20Z</time>
      </trkpt>
      <trkpt lat="42.21254" lon="0.83986">
        <ele>1023.44</ele>
        <time>2021-08-01T14:43:28Z</time>
      </trkpt>
      <trkpt lat="42.21255" lon="0.83928">
        <ele>1026.04</ele>
        <time>2021-08-01T14:43:32Z</time>
      </trkpt>
      <trkpt lat="42.21247" lon="0.83874">
        <ele>1029.75</ele>
        <time>2021-08-01T14:43:37Z</time>
      </trkpt>
      <trkpt lat="42.21242" lon="0.83821">
        <ele>1033.49</ele>
        <time>2021-08-01T14:43:42Z</time>
      </trkpt>
      <trkpt lat="42.21236" lon="0.83781">
        <ele>1037.02</ele>
        <time>2021-08-01T14:43:47Z</time>
      </trkpt>
      <trkpt lat="42.2123" lon="0.83742">
        <ele>1040.52</ele>
        <time>2021-08-01T14:43:53Z</time>
      </trkpt>
      <trkpt lat="42.21221" lon="0.8369">
        <ele>1043.53</ele>
        <time>2021-08-01T14:43:58Z</time>
      </trkpt>
      <trkpt lat="42.21219" lon="0.83646">
        <ele>1046.23</ele>
        <time>2021-08-01T14:44:03Z</time>
      </trkpt>
      <trkpt lat="42.21223" lon="0.83618">
        <ele>1048.46</ele>
        <time>2021-08-01T14:44:07Z</time>
      </trkpt>
      <trkpt lat="42.21199" lon="0.83599">
        <ele>1050.91</ele>
        <time>2021-08-01T14:44:13Z</time>
      </trkpt>
      <trkpt lat="42.21179" lon="0.83611">
        <ele>1051.92</ele>
        <time>2021-08-01T14:44:17Z</time>
      </trkpt>
      <trkpt lat="42.21121" lon="0.83672">
        <ele>1055.38</ele>
        <time>2021-08-01T14:44:28Z</time>
      </trkpt>
      <trkpt lat="42.211" lon="0.837">
        <ele>1058.16</ele>
        <time>2021-08-01T14:44:35Z</time>
      </trkpt>
      <trkpt lat="42.21089" lon="0.83689">
        <ele>1059.37</ele>
        <time>2021-08-01T14:44:39Z</time>
      </trkpt>
      <trkpt lat="42.2109" lon="0.83682">
        <ele>1060.84</ele>
        <time>2021-08-01T14:44:44Z</time>
      </trkpt>
      <trkpt lat="42.21111" lon="0.8366">
        <ele>1061.89</ele>
        <time>2021-08-01T14:44:50Z</time>
      </trkpt>
      <trkpt lat="42.21119" lon="0.83648">
        <ele>1062.34</ele>
        <time>2021-08-01T14:44:52Z</time>
      </trkpt>
      <trkpt lat="42.21151" lon="0.83599">
        <ele>1065.89</ele>
        <time>2021-08-01T14:45:00Z</time>
      </trkpt>
      <trkpt lat="42.21172" lon="0.83576">
        <ele>1068.24</ele>
        <time>2021-08-01T14:45:04Z</time>
      </trkpt>
      <trkpt lat="42.212" lon="0.83556">
        <ele>1070.57</ele>
        <time>2021-08-01T14:45:08Z</time>
      </trkpt>
      <trkpt lat="42.21225" lon="0.83545">
        <ele>1072.81</ele>
        <time>2021-08-01T14:45:11Z</time>
      </trkpt>
      <trkpt lat="42.2125" lon="0.83539">
        <ele>1075.1</ele>
        <time>2021-08-01T14:45:14Z</time>
      </trkpt>
      <trkpt lat="42.21283" lon="0.8352">
        <ele>1079.38</ele>
        <time>2021-08-01T14:45:19Z</time>
      </trkpt>
      <trkpt lat="42.21298" lon="0.83557">
        <ele>1082.51</ele>
        <time>2021-08-01T14:45:24Z</time>
      </trkpt>
      <trkpt lat="42.213" lon="0.83591">
        <ele>1083.76</ele>
        <time>2021-08-01T14:45:27Z</time>
      </trkpt>
      <trkpt lat="42.21302" lon="0.83645">
        <ele>1086</ele>
        <time>2021-08-01T14:45:33Z</time>
      </trkpt>
      <trkpt lat="42.2132" lon="0.83653">
        <ele>1088.87</ele>
        <time>2021-08-01T14:45:39Z</time>
      </trkpt>
      <trkpt lat="42.21322" lon="0.83648">
        <ele>1089.26</ele>
        <time>2021-08-01T14:45:40Z</time>
      </trkpt>
      <trkpt lat="42.21337" lon="0.83617">
        <ele>1092.18</ele>
        <time>2021-08-01T14:45:47Z</time>
      </trkpt>
      <trkpt lat="42.21329" lon="0.8358">
        <ele>1095.93</ele>
        <time>2021-08-01T14:45:55Z</time>
      </trkpt>
      <trkpt lat="42.21327" lon="0.83575">
        <ele>1096.38</ele>
        <time>2021-08-01T14:45:56Z</time>
      </trkpt>
      <trkpt lat="42.21324" lon="0.83531">
        <ele>1099.86</ele>
        <time>2021-08-01T14:46:03Z</time>
      </trkpt>
      <trkpt lat="42.21325" lon="0.83496">
        <ele>1103.3</ele>
        <time>2021-08-01T14:46:09Z</time>
      </trkpt>
      <trkpt lat="42.21325" lon="0.83483">
        <ele>1104.58</ele>
        <time>2021-08-01T14:46:11Z</time>
      </trkpt>
      <trkpt lat="42.21319" lon="0.83449">
        <ele>1108.11</ele>
        <time>2021-08-01T14:46:17Z</time>
      </trkpt>
      <trkpt lat="42.21313" lon="0.83434">
        <ele>1111.35</ele>
        <time>2021-08-01T14:46:26Z</time>
      </trkpt>
      <trkpt lat="42.21309" lon="0.83428">
        <ele>1111.8</ele>
        <time>2021-08-01T14:46:28Z</time>
      </trkpt>
      <trkpt lat="42.2129" lon="0.83426">
        <ele>1112.84</ele>
        <time>2021-08-01T14:46:32Z</time>
      </trkpt>
      <trkpt lat="42.21246" lon="0.83449">
        <ele>1116.56</ele>
        <time>2021-08-01T14:46:41Z</time>
      </trkpt>
      <trkpt lat="42.21213" lon="0.83455">
        <ele>1119.76</ele>
        <time>2021-08-01T14:46:50Z</time>
      </trkpt>
      <trkpt lat="42.21201" lon="0.83452">
        <ele>1122.11</ele>
        <time>2021-08-01T14:46:59Z</time>
      </trkpt>
      <trkpt lat="42.21202" lon="0.83452">
        <ele>1123.54</ele>
        <time>2021-08-01T14:51:06Z</time>
      </trkpt>
      <trkpt lat="42.21214" lon="0.83441">
        <ele>1124.66</ele>
        <time>2021-08-01T14:51:13Z</time>
      </trkpt>
      <trkpt lat="42.21234" lon="0.83439">
        <ele>1125.5</ele>
        <time>2021-08-01T14:51:17Z</time>
      </trkpt>
      <trkpt lat="42.21365" lon="0.83401">
        <ele>1139.13</ele>
        <time>2021-08-01T14:51:49Z</time>
      </trkpt>
      <trkpt lat="42.2137" lon="0.83413">
        <ele>1138.93</ele>
        <time>2021-08-01T14:51:51Z</time>
      </trkpt>
      <trkpt lat="42.21404" lon="0.83441">
        <ele>1139.36</ele>
        <time>2021-08-01T14:51:58Z</time>
      </trkpt>
      <trkpt lat="42.21415" lon="0.83411">
        <ele>1140.44</ele>
        <time>2021-08-01T14:52:04Z</time>
      </trkpt>
      <trkpt lat="42.21393" lon="0.83384">
        <ele>1141.62</ele>
        <time>2021-08-01T14:52:08Z</time>
      </trkpt>
      <trkpt lat="42.21359" lon="0.8335">
        <ele>1143.08</ele>
        <time>2021-08-01T14:52:15Z</time>
      </trkpt>
      <trkpt lat="42.21342" lon="0.83321">
        <ele>1144.17</ele>
        <time>2021-08-01T14:52:20Z</time>
      </trkpt>
      <trkpt lat="42.2132" lon="0.83249">
        <ele>1147.74</ele>
        <time>2021-08-01T14:52:28Z</time>
      </trkpt>
      <trkpt lat="42.21308" lon="0.83204">
        <ele>1150.23</ele>
        <time>2021-08-01T14:52:32Z</time>
      </trkpt>
      <trkpt lat="42.21309" lon="0.83133">
        <ele>1154.32</ele>
        <time>2021-08-01T14:52:38Z</time>
      </trkpt>
      <trkpt lat="42.21318" lon="0.831">
        <ele>1156.34</ele>
        <time>2021-08-01T14:52:41Z</time>
      </trkpt>
      <trkpt lat="42.21348" lon="0.83056">
        <ele>1160.11</ele>
        <time>2021-08-01T14:52:48Z</time>
      </trkpt>
      <trkpt lat="42.21346" lon="0.83001">
        <ele>1162.03</ele>
        <time>2021-08-01T14:52:54Z</time>
      </trkpt>
      <trkpt lat="42.21327" lon="0.82929">
        <ele>1162.79</ele>
        <time>2021-08-01T14:53:01Z</time>
      </trkpt>
      <trkpt lat="42.21333" lon="0.82866">
        <ele>1162.48</ele>
        <time>2021-08-01T14:53:07Z</time>
      </trkpt>
      <trkpt lat="42.21382" lon="0.82725">
        <ele>1164.06</ele>
        <time>2021-08-01T14:53:20Z</time>
      </trkpt>
      <trkpt lat="42.2142" lon="0.82627">
        <ele>1167.07</ele>
        <time>2021-08-01T14:53:28Z</time>
      </trkpt>
      <trkpt lat="42.2143" lon="0.8259">
        <ele>1167.89</ele>
        <time>2021-08-01T14:53:31Z</time>
      </trkpt>
      <trkpt lat="42.2142" lon="0.82472">
        <ele>1168.65</ele>
        <time>2021-08-01T14:53:40Z</time>
      </trkpt>
      <trkpt lat="42.21414" lon="0.82449">
        <ele>1168.43</ele>
        <time>2021-08-01T14:53:42Z</time>
      </trkpt>
      <trkpt lat="42.2143" lon="0.82404">
        <ele>1167.73</ele>
        <time>2021-08-01T14:53:48Z</time>
      </trkpt>
      <trkpt lat="42.21467" lon="0.8234">
        <ele>1167.36</ele>
        <time>2021-08-01T14:53:56Z</time>
      </trkpt>
      <trkpt lat="42.2147" lon="0.82277">
        <ele>1169.34</ele>
        <time>2021-08-01T14:54:05Z</time>
      </trkpt>
      <trkpt lat="42.21467" lon="0.82262">
        <ele>1169.88</ele>
        <time>2021-08-01T14:54:07Z</time>
      </trkpt>
      <trkpt lat="42.21466" lon="0.8224">
        <ele>1170.92</ele>
        <time>2021-08-01T14:54:10Z</time>
      </trkpt>
      <trkpt lat="42.21483" lon="0.82192">
        <ele>1173.69</ele>
        <time>2021-08-01T14:54:18Z</time>
      </trkpt>
      <trkpt lat="42.21485" lon="0.82185">
        <ele>1174.01</ele>
        <time>2021-08-01T14:54:19Z</time>
      </trkpt>
      <trkpt lat="42.21489" lon="0.82171">
        <ele>1174.58</ele>
        <time>2021-08-01T14:54:21Z</time>
      </trkpt>
      <trkpt lat="42.21485" lon="0.82147">
        <ele>1175.37</ele>
        <time>2021-08-01T14:54:25Z</time>
      </trkpt>
      <trkpt lat="42.21473" lon="0.82114">
        <ele>1177.09</ele>
        <time>2021-08-01T14:54:30Z</time>
      </trkpt>
      <trkpt lat="42.21482" lon="0.82063">
        <ele>1179.94</ele>
        <time>2021-08-01T14:54:36Z</time>
      </trkpt>
      <trkpt lat="42.21506" lon="0.82008">
        <ele>1183.54</ele>
        <time>2021-08-01T14:54:43Z</time>
      </trkpt>
      <trkpt lat="42.21511" lon="0.81993">
        <ele>1184.81</ele>
        <time>2021-08-01T14:54:45Z</time>
      </trkpt>
      <trkpt lat="42.21503" lon="0.81972">
        <ele>1187.42</ele>
        <time>2021-08-01T14:54:50Z</time>
      </trkpt>
      <trkpt lat="42.21461" lon="0.81962">
        <ele>1190.3</ele>
        <time>2021-08-01T14:54:56Z</time>
      </trkpt>
      <trkpt lat="42.21443" lon="0.81953">
        <ele>1191.93</ele>
        <time>2021-08-01T14:54:59Z</time>
      </trkpt>
      <trkpt lat="42.2142" lon="0.81944">
        <ele>1194.13</ele>
        <time>2021-08-01T14:55:03Z</time>
      </trkpt>
      <trkpt lat="42.21397" lon="0.81926">
        <ele>1197.81</ele>
        <time>2021-08-01T14:55:10Z</time>
      </trkpt>
      <trkpt lat="42.21394" lon="0.81924">
        <ele>1198.28</ele>
        <time>2021-08-01T14:55:11Z</time>
      </trkpt>
      <trkpt lat="42.21371" lon="0.81905">
        <ele>1201.06</ele>
        <time>2021-08-01T14:55:17Z</time>
      </trkpt>
      <trkpt lat="42.21369" lon="0.81899">
        <ele>1201.37</ele>
        <time>2021-08-01T14:55:18Z</time>
      </trkpt>
      <trkpt lat="42.21375" lon="0.81869">
        <ele>1204.76</ele>
        <time>2021-08-01T14:55:26Z</time>
      </trkpt>
      <trkpt lat="42.21428" lon="0.81876">
        <ele>1207.85</ele>
        <time>2021-08-01T14:55:34Z</time>
      </trkpt>
      <trkpt lat="42.21483" lon="0.81864">
        <ele>1211.52</ele>
        <time>2021-08-01T14:55:43Z</time>
      </trkpt>
      <trkpt lat="42.21501" lon="0.81859">
        <ele>1213.07</ele>
        <time>2021-08-01T14:55:47Z</time>
      </trkpt>
      <trkpt lat="42.2152" lon="0.81838">
        <ele>1215.07</ele>
        <time>2021-08-01T14:55:53Z</time>
      </trkpt>
      <trkpt lat="42.21538" lon="0.8182">
        <ele>1217</ele>
        <time>2021-08-01T14:55:58Z</time>
      </trkpt>
      <trkpt lat="42.21553" lon="0.8178">
        <ele>1220.44</ele>
        <time>2021-08-01T14:56:06Z</time>
      </trkpt>
      <trkpt lat="42.21566" lon="0.81747">
        <ele>1223.58</ele>
        <time>2021-08-01T14:56:14Z</time>
      </trkpt>
      <trkpt lat="42.21582" lon="0.81703">
        <ele>1226.72</ele>
        <time>2021-08-01T14:56:24Z</time>
      </trkpt>
      <trkpt lat="42.21604" lon="0.81662">
        <ele>1229.92</ele>
        <time>2021-08-01T14:56:34Z</time>
      </trkpt>
      <trkpt lat="42.2161" lon="0.81608">
        <ele>1232.89</ele>
        <time>2021-08-01T14:56:43Z</time>
      </trkpt>
      <trkpt lat="42.21612" lon="0.8159">
        <ele>1234.03</ele>
        <time>2021-08-01T14:56:46Z</time>
      </trkpt>
      <trkpt lat="42.21627" lon="0.81576">
        <ele>1235.36</ele>
        <time>2021-08-01T14:56:51Z</time>
      </trkpt>
      <trkpt lat="42.21685" lon="0.81564">
        <ele>1237.97</ele>
        <time>2021-08-01T14:57:04Z</time>
      </trkpt>
      <trkpt lat="42.21712" lon="0.81538">
        <ele>1239.47</ele>
        <time>2021-08-01T14:57:13Z</time>
      </trkpt>
      <trkpt lat="42.21743" lon="0.81553">
        <ele>1240.7</ele>
        <time>2021-08-01T14:57:21Z</time>
      </trkpt>
      <trkpt lat="42.21747" lon="0.81569">
        <ele>1241</ele>
        <time>2021-08-01T14:57:23Z</time>
      </trkpt>
      <trkpt lat="42.21755" lon="0.8161">
        <ele>1241.36</ele>
        <time>2021-08-01T14:57:28Z</time>
      </trkpt>
      <trkpt lat="42.21774" lon="0.81685">
        <ele>1242.46</ele>
        <time>2021-08-01T14:57:38Z</time>
      </trkpt>
      <trkpt lat="42.21782" lon="0.81701">
        <ele>1242.88</ele>
        <time>2021-08-01T14:57:40Z</time>
      </trkpt>
      <trkpt lat="42.21843" lon="0.81768">
        <ele>1244.62</ele>
        <time>2021-08-01T14:57:53Z</time>
      </trkpt>
      <trkpt lat="42.21906" lon="0.81812">
        <ele>1247.91</ele>
        <time>2021-08-01T14:58:04Z</time>
      </trkpt>
      <trkpt lat="42.21923" lon="0.8182">
        <ele>1248.95</ele>
        <time>2021-08-01T14:58:07Z</time>
      </trkpt>
      <trkpt lat="42.2197" lon="0.81792">
        <ele>1251.1</ele>
        <time>2021-08-01T14:58:16Z</time>
      </trkpt>
      <trkpt lat="42.22014" lon="0.81733">
        <ele>1248.36</ele>
        <time>2021-08-01T14:58:28Z</time>
      </trkpt>
      <trkpt lat="42.22035" lon="0.81711">
        <ele>1247.02</ele>
        <time>2021-08-01T14:58:32Z</time>
      </trkpt>
      <trkpt lat="42.22059" lon="0.81664">
        <ele>1243.31</ele>
        <time>2021-08-01T14:58:41Z</time>
      </trkpt>
      <trkpt lat="42.22079" lon="0.81616">
        <ele>1241.11</ele>
        <time>2021-08-01T14:58:50Z</time>
      </trkpt>
      <trkpt lat="42.22082" lon="0.8157">
        <ele>1239.41</ele>
        <time>2021-08-01T14:58:57Z</time>
      </trkpt>
      <trkpt lat="42.22105" lon="0.81536">
        <ele>1237.71</ele>
        <time>2021-08-01T14:59:06Z</time>
      </trkpt>
      <trkpt lat="42.2211" lon="0.81537">
        <ele>1237.47</ele>
        <time>2021-08-01T14:59:07Z</time>
      </trkpt>
      <trkpt lat="42.2215" lon="0.81537">
        <ele>1235.15</ele>
        <time>2021-08-01T14:59:17Z</time>
      </trkpt>
      <trkpt lat="42.22221" lon="0.81563">
        <ele>1232</ele>
        <time>2021-08-01T14:59:30Z</time>
      </trkpt>
      <trkpt lat="42.22247" lon="0.81572">
        <ele>1230.88</ele>
        <time>2021-08-01T14:59:35Z</time>
      </trkpt>
      <trkpt lat="42.22263" lon="0.81568">
        <ele>1229.91</ele>
        <time>2021-08-01T14:59:39Z</time>
      </trkpt>
      <trkpt lat="42.22278" lon="0.81557">
        <ele>1229.32</ele>
        <time>2021-08-01T14:59:42Z</time>
      </trkpt>
      <trkpt lat="42.2232" lon="0.81564">
        <ele>1228.18</ele>
        <time>2021-08-01T14:59:50Z</time>
      </trkpt>
      <trkpt lat="42.22356" lon="0.81532">
        <ele>1227.05</ele>
        <time>2021-08-01T14:59:58Z</time>
      </trkpt>
      <trkpt lat="42.2237" lon="0.81534">
        <ele>1226.58</ele>
        <time>2021-08-01T15:00:01Z</time>
      </trkpt>
      <trkpt lat="42.2241" lon="0.8155">
        <ele>1225.39</ele>
        <time>2021-08-01T15:00:11Z</time>
      </trkpt>
      <trkpt lat="42.22412" lon="0.8153">
        <ele>1224.65</ele>
        <time>2021-08-01T15:00:16Z</time>
      </trkpt>
      <trkpt lat="42.22403" lon="0.81503">
        <ele>1224.42</ele>
        <time>2021-08-01T15:00:20Z</time>
      </trkpt>
      <trkpt lat="42.22404" lon="0.81465">
        <ele>1224.68</ele>
        <time>2021-08-01T15:00:25Z</time>
      </trkpt>
      <trkpt lat="42.22424" lon="0.81411">
        <ele>1224.63</ele>
        <time>2021-08-01T15:00:35Z</time>
      </trkpt>
      <trkpt lat="42.22409" lon="0.81393">
        <ele>1224.7</ele>
        <time>2021-08-01T15:00:42Z</time>
      </trkpt>
      <trkpt lat="42.2239" lon="0.81398">
        <ele>1225.44</ele>
        <time>2021-08-01T15:00:53Z</time>
      </trkpt>
      <trkpt lat="42.22382" lon="0.81404">
        <ele>1225.82</ele>
        <time>2021-08-01T15:00:56Z</time>
      </trkpt>
      <trkpt lat="42.22353" lon="0.81392">
        <ele>1227.06</ele>
        <time>2021-08-01T15:01:02Z</time>
      </trkpt>
      <trkpt lat="42.22345" lon="0.81384">
        <ele>1227.48</ele>
        <time>2021-08-01T15:01:04Z</time>
      </trkpt>
      <trkpt lat="42.22323" lon="0.8137">
        <ele>1228.7</ele>
        <time>2021-08-01T15:01:10Z</time>
      </trkpt>
      <trkpt lat="42.22318" lon="0.81334">
        <ele>1229.98</ele>
        <time>2021-08-01T15:01:17Z</time>
      </trkpt>
      <trkpt lat="42.2233" lon="0.81305">
        <ele>1230.64</ele>
        <time>2021-08-01T15:01:22Z</time>
      </trkpt>
      <trkpt lat="42.22319" lon="0.81263">
        <ele>1231.61</ele>
        <time>2021-08-01T15:01:30Z</time>
      </trkpt>
      <trkpt lat="42.22314" lon="0.81262">
        <ele>1231.75</ele>
        <time>2021-08-01T15:01:31Z</time>
      </trkpt>
      <trkpt lat="42.22282" lon="0.81255">
        <ele>1232.93</ele>
        <time>2021-08-01T15:01:38Z</time>
      </trkpt>
      <trkpt lat="42.2226" lon="0.81226">
        <ele>1234.12</ele>
        <time>2021-08-01T15:01:45Z</time>
      </trkpt>
      <trkpt lat="42.22252" lon="0.81204">
        <ele>1234.81</ele>
        <time>2021-08-01T15:01:49Z</time>
      </trkpt>
      <trkpt lat="42.2226" lon="0.81161">
        <ele>1236.47</ele>
        <time>2021-08-01T15:01:56Z</time>
      </trkpt>
      <trkpt lat="42.223" lon="0.81085">
        <ele>1238.43</ele>
        <time>2021-08-01T15:02:07Z</time>
      </trkpt>
      <trkpt lat="42.22321" lon="0.81039">
        <ele>1239.32</ele>
        <time>2021-08-01T15:02:16Z</time>
      </trkpt>
      <trkpt lat="42.22295" lon="0.81002">
        <ele>1239.88</ele>
        <time>2021-08-01T15:02:22Z</time>
      </trkpt>
      <trkpt lat="42.22235" lon="0.80976">
        <ele>1241.32</ele>
        <time>2021-08-01T15:02:34Z</time>
      </trkpt>
      <trkpt lat="42.22225" lon="0.8097">
        <ele>1241.71</ele>
        <time>2021-08-01T15:02:36Z</time>
      </trkpt>
      <trkpt lat="42.22206" lon="0.80954">
        <ele>1242.77</ele>
        <time>2021-08-01T15:02:40Z</time>
      </trkpt>
      <trkpt lat="42.22184" lon="0.80924">
        <ele>1244.1</ele>
        <time>2021-08-01T15:02:45Z</time>
      </trkpt>
      <trkpt lat="42.22154" lon="0.80907">
        <ele>1244.9</ele>
        <time>2021-08-01T15:02:50Z</time>
      </trkpt>
      <trkpt lat="42.22131" lon="0.80902">
        <ele>1245.4</ele>
        <time>2021-08-01T15:02:55Z</time>
      </trkpt>
      <trkpt lat="42.22118" lon="0.80868">
        <ele>1246.32</ele>
        <time>2021-08-01T15:03:02Z</time>
      </trkpt>
      <trkpt lat="42.22152" lon="0.8078">
        <ele>1245.98</ele>
        <time>2021-08-01T15:03:15Z</time>
      </trkpt>
      <trkpt lat="42.22154" lon="0.80774">
        <ele>1245.85</ele>
        <time>2021-08-01T15:03:16Z</time>
      </trkpt>
      <trkpt lat="42.22157" lon="0.80756">
        <ele>1245.34</ele>
        <time>2021-08-01T15:03:19Z</time>
      </trkpt>
      <trkpt lat="42.22151" lon="0.80661">
        <ele>1242.26</ele>
        <time>2021-08-01T15:03:31Z</time>
      </trkpt>
      <trkpt lat="42.22149" lon="0.80589">
        <ele>1240.66</ele>
        <time>2021-08-01T15:03:38Z</time>
      </trkpt>
      <trkpt lat="42.22146" lon="0.80582">
        <ele>1240.72</ele>
        <time>2021-08-01T15:03:39Z</time>
      </trkpt>
      <trkpt lat="42.22142" lon="0.80576">
        <ele>1240.8</ele>
        <time>2021-08-01T15:03:40Z</time>
      </trkpt>
      <trkpt lat="42.22137" lon="0.80571">
        <ele>1240.89</ele>
        <time>2021-08-01T15:03:41Z</time>
      </trkpt>
      <trkpt lat="42.2213" lon="0.80565">
        <ele>1241.02</ele>
        <time>2021-08-01T15:03:42Z</time>
      </trkpt>
      <trkpt lat="42.22082" lon="0.80512">
        <ele>1241.69</ele>
        <time>2021-08-01T15:03:49Z</time>
      </trkpt>
      <trkpt lat="42.22077" lon="0.80503">
        <ele>1241.7</ele>
        <time>2021-08-01T15:03:50Z</time>
      </trkpt>
      <trkpt lat="42.22038" lon="0.8044">
        <ele>1242.02</ele>
        <time>2021-08-01T15:03:58Z</time>
      </trkpt>
      <trkpt lat="42.2203" lon="0.80409">
        <ele>1242.28</ele>
        <time>2021-08-01T15:04:01Z</time>
      </trkpt>
      <trkpt lat="42.22032" lon="0.80312">
        <ele>1243.28</ele>
        <time>2021-08-01T15:04:09Z</time>
      </trkpt>
      <trkpt lat="42.22046" lon="0.80283">
        <ele>1243.45</ele>
        <time>2021-08-01T15:04:13Z</time>
      </trkpt>
      <trkpt lat="42.22046" lon="0.80249">
        <ele>1242.99</ele>
        <time>2021-08-01T15:04:18Z</time>
      </trkpt>
      <trkpt lat="42.22015" lon="0.80172">
        <ele>1239.63</ele>
        <time>2021-08-01T15:04:27Z</time>
      </trkpt>
      <trkpt lat="42.21997" lon="0.8013">
        <ele>1236.48</ele>
        <time>2021-08-01T15:04:33Z</time>
      </trkpt>
      <trkpt lat="42.21989" lon="0.80117">
        <ele>1235.62</ele>
        <time>2021-08-01T15:04:35Z</time>
      </trkpt>
      <trkpt lat="42.21943" lon="0.80065">
        <ele>1231.59</ele>
        <time>2021-08-01T15:04:43Z</time>
      </trkpt>
      <trkpt lat="42.21916" lon="0.8003">
        <ele>1228.42</ele>
        <time>2021-08-01T15:04:48Z</time>
      </trkpt>
      <trkpt lat="42.21903" lon="0.80008">
        <ele>1226.36</ele>
        <time>2021-08-01T15:04:51Z</time>
      </trkpt>
      <trkpt lat="42.21894" lon="0.79999">
        <ele>1225.21</ele>
        <time>2021-08-01T15:04:53Z</time>
      </trkpt>
      <trkpt lat="42.21901" lon="0.79982">
        <ele>1221.75</ele>
        <time>2021-08-01T15:04:59Z</time>
      </trkpt>
      <trkpt lat="42.21937" lon="0.80006">
        <ele>1218.36</ele>
        <time>2021-08-01T15:05:06Z</time>
      </trkpt>
      <trkpt lat="42.2198" lon="0.79992">
        <ele>1215.23</ele>
        <time>2021-08-01T15:05:12Z</time>
      </trkpt>
      <trkpt lat="42.22002" lon="0.80009">
        <ele>1212.47</ele>
        <time>2021-08-01T15:05:16Z</time>
      </trkpt>
      <trkpt lat="42.22036" lon="0.80059">
        <ele>1208.76</ele>
        <time>2021-08-01T15:05:23Z</time>
      </trkpt>
      <trkpt lat="42.22072" lon="0.8009">
        <ele>1205.72</ele>
        <time>2021-08-01T15:05:29Z</time>
      </trkpt>
      <trkpt lat="42.22099" lon="0.80072">
        <ele>1202.98</ele>
        <time>2021-08-01T15:05:35Z</time>
      </trkpt>
      <trkpt lat="42.22106" lon="0.80002">
        <ele>1199.28</ele>
        <time>2021-08-01T15:05:42Z</time>
      </trkpt>
      <trkpt lat="42.22114" lon="0.79976">
        <ele>1197.8</ele>
        <time>2021-08-01T15:05:45Z</time>
      </trkpt>
      <trkpt lat="42.22126" lon="0.79957">
        <ele>1195.87</ele>
        <time>2021-08-01T15:05:48Z</time>
      </trkpt>
      <trkpt lat="42.22167" lon="0.7995">
        <ele>1191.75</ele>
        <time>2021-08-01T15:05:55Z</time>
      </trkpt>
      <trkpt lat="42.22191" lon="0.79935">
        <ele>1189.31</ele>
        <time>2021-08-01T15:06:00Z</time>
      </trkpt>
      <trkpt lat="42.2222" lon="0.79879">
        <ele>1186.15</ele>
        <time>2021-08-01T15:06:07Z</time>
      </trkpt>
      <trkpt lat="42.22231" lon="0.79835">
        <ele>1184.43</ele>
        <time>2021-08-01T15:06:11Z</time>
      </trkpt>
      <trkpt lat="42.22256" lon="0.79776">
        <ele>1182.09</ele>
        <time>2021-08-01T15:06:17Z</time>
      </trkpt>
      <trkpt lat="42.22278" lon="0.79735">
        <ele>1181.73</ele>
        <time>2021-08-01T15:06:21Z</time>
      </trkpt>
      <trkpt lat="42.22305" lon="0.79639">
        <ele>1182.48</ele>
        <time>2021-08-01T15:06:29Z</time>
      </trkpt>
      <trkpt lat="42.22317" lon="0.79574">
        <ele>1183.03</ele>
        <time>2021-08-01T15:06:33Z</time>
      </trkpt>
      <trkpt lat="42.2232" lon="0.79515">
        <ele>1184.22</ele>
        <time>2021-08-01T15:06:37Z</time>
      </trkpt>
      <trkpt lat="42.22319" lon="0.79484">
        <ele>1184.74</ele>
        <time>2021-08-01T15:06:39Z</time>
      </trkpt>
      <trkpt lat="42.2233" lon="0.79423">
        <ele>1185.27</ele>
        <time>2021-08-01T15:06:43Z</time>
      </trkpt>
      <trkpt lat="42.2236" lon="0.79328">
        <ele>1185.48</ele>
        <time>2021-08-01T15:06:50Z</time>
      </trkpt>
      <trkpt lat="42.22431" lon="0.79286">
        <ele>1184.75</ele>
        <time>2021-08-01T15:06:59Z</time>
      </trkpt>
      <trkpt lat="42.22436" lon="0.79243">
        <ele>1183.99</ele>
        <time>2021-08-01T15:07:05Z</time>
      </trkpt>
      <trkpt lat="42.22429" lon="0.79233">
        <ele>1183.77</ele>
        <time>2021-08-01T15:07:06Z</time>
      </trkpt>
      <trkpt lat="42.22401" lon="0.79169">
        <ele>1181.21</ele>
        <time>2021-08-01T15:07:12Z</time>
      </trkpt>
      <trkpt lat="42.22385" lon="0.79092">
        <ele>1177.09</ele>
        <time>2021-08-01T15:07:19Z</time>
      </trkpt>
      <trkpt lat="42.22384" lon="0.79069">
        <ele>1175.83</ele>
        <time>2021-08-01T15:07:21Z</time>
      </trkpt>
      <trkpt lat="42.22416" lon="0.79027">
        <ele>1172.24</ele>
        <time>2021-08-01T15:07:27Z</time>
      </trkpt>
      <trkpt lat="42.22471" lon="0.79021">
        <ele>1168.11</ele>
        <time>2021-08-01T15:07:33Z</time>
      </trkpt>
      <trkpt lat="42.22494" lon="0.79012">
        <ele>1165.95</ele>
        <time>2021-08-01T15:07:36Z</time>
      </trkpt>
      <trkpt lat="42.22507" lon="0.78997">
        <ele>1163.23</ele>
        <time>2021-08-01T15:07:40Z</time>
      </trkpt>
      <trkpt lat="42.22512" lon="0.7899">
        <ele>1161.42</ele>
        <time>2021-08-01T15:07:43Z</time>
      </trkpt>
      <trkpt lat="42.22514" lon="0.79013">
        <ele>1158.3</ele>
        <time>2021-08-01T15:07:49Z</time>
      </trkpt>
      <trkpt lat="42.22483" lon="0.79046">
        <ele>1156.39</ele>
        <time>2021-08-01T15:07:54Z</time>
      </trkpt>
      <trkpt lat="42.22444" lon="0.79069">
        <ele>1154.29</ele>
        <time>2021-08-01T15:07:59Z</time>
      </trkpt>
      <trkpt lat="42.22436" lon="0.79099">
        <ele>1151.19</ele>
        <time>2021-08-01T15:08:04Z</time>
      </trkpt>
      <trkpt lat="42.22454" lon="0.79138">
        <ele>1148.48</ele>
        <time>2021-08-01T15:08:09Z</time>
      </trkpt>
      <trkpt lat="42.22475" lon="0.79159">
        <ele>1146.07</ele>
        <time>2021-08-01T15:08:13Z</time>
      </trkpt>
      <trkpt lat="42.22518" lon="0.79187">
        <ele>1141.46</ele>
        <time>2021-08-01T15:08:20Z</time>
      </trkpt>
      <trkpt lat="42.2254" lon="0.7922">
        <ele>1138.08</ele>
        <time>2021-08-01T15:08:25Z</time>
      </trkpt>
      <trkpt lat="42.22567" lon="0.7923">
        <ele>1135.64</ele>
        <time>2021-08-01T15:08:29Z</time>
      </trkpt>
      <trkpt lat="42.22597" lon="0.79228">
        <ele>1133.21</ele>
        <time>2021-08-01T15:08:33Z</time>
      </trkpt>
      <trkpt lat="42.2261" lon="0.79215">
        <ele>1129.38</ele>
        <time>2021-08-01T15:08:39Z</time>
      </trkpt>
      <trkpt lat="42.22607" lon="0.79214">
        <ele>1128.68</ele>
        <time>2021-08-01T15:08:40Z</time>
      </trkpt>
      <trkpt lat="42.22577" lon="0.79207">
        <ele>1126.03</ele>
        <time>2021-08-01T15:08:45Z</time>
      </trkpt>
      <trkpt lat="42.22556" lon="0.79181">
        <ele>1124.62</ele>
        <time>2021-08-01T15:08:49Z</time>
      </trkpt>
      <trkpt lat="42.22549" lon="0.79163">
        <ele>1123.65</ele>
        <time>2021-08-01T15:08:51Z</time>
      </trkpt>
      <trkpt lat="42.22542" lon="0.79147">
        <ele>1122.9</ele>
        <time>2021-08-01T15:08:53Z</time>
      </trkpt>
      <trkpt lat="42.22558" lon="0.7911">
        <ele>1119.72</ele>
        <time>2021-08-01T15:08:59Z</time>
      </trkpt>
      <trkpt lat="42.22582" lon="0.79102">
        <ele>1118.03</ele>
        <time>2021-08-01T15:09:02Z</time>
      </trkpt>
      <trkpt lat="42.22612" lon="0.7908">
        <ele>1115.76</ele>
        <time>2021-08-01T15:09:06Z</time>
      </trkpt>
      <trkpt lat="42.22638" lon="0.7906">
        <ele>1111.91</ele>
        <time>2021-08-01T15:09:12Z</time>
      </trkpt>
      <trkpt lat="42.22636" lon="0.7907">
        <ele>1110.44</ele>
        <time>2021-08-01T15:09:14Z</time>
      </trkpt>
      <trkpt lat="42.22628" lon="0.79084">
        <ele>1109.2</ele>
        <time>2021-08-01T15:09:16Z</time>
      </trkpt>
      <trkpt lat="42.22605" lon="0.7913">
        <ele>1105.67</ele>
        <time>2021-08-01T15:09:23Z</time>
      </trkpt>
      <trkpt lat="42.22639" lon="0.79144">
        <ele>1103.5</ele>
        <time>2021-08-01T15:09:28Z</time>
      </trkpt>
      <trkpt lat="42.2272" lon="0.79132">
        <ele>1099.88</ele>
        <time>2021-08-01T15:09:36Z</time>
      </trkpt>
      <trkpt lat="42.2277" lon="0.79111">
        <ele>1096.23</ele>
        <time>2021-08-01T15:09:41Z</time>
      </trkpt>
      <trkpt lat="42.22797" lon="0.79096">
        <ele>1093.76</ele>
        <time>2021-08-01T15:09:44Z</time>
      </trkpt>
      <trkpt lat="42.22827" lon="0.79065">
        <ele>1089.77</ele>
        <time>2021-08-01T15:09:49Z</time>
      </trkpt>
      <trkpt lat="42.22856" lon="0.79022">
        <ele>1086.13</ele>
        <time>2021-08-01T15:09:54Z</time>
      </trkpt>
      <trkpt lat="42.22889" lon="0.7899">
        <ele>1083.01</ele>
        <time>2021-08-01T15:09:58Z</time>
      </trkpt>
      <trkpt lat="42.22898" lon="0.78984">
        <ele>1082.39</ele>
        <time>2021-08-01T15:09:59Z</time>
      </trkpt>
      <trkpt lat="42.22952" lon="0.78966">
        <ele>1078.41</ele>
        <time>2021-08-01T15:10:05Z</time>
      </trkpt>
      <trkpt lat="42.22973" lon="0.78957">
        <ele>1076.5</ele>
        <time>2021-08-01T15:10:08Z</time>
      </trkpt>
      <trkpt lat="42.22986" lon="0.78922">
        <ele>1072.64</ele>
        <time>2021-08-01T15:10:13Z</time>
      </trkpt>
      <trkpt lat="42.22984" lon="0.78908">
        <ele>1072.08</ele>
        <time>2021-08-01T15:10:14Z</time>
      </trkpt>
      <trkpt lat="42.22982" lon="0.78852">
        <ele>1070.36</ele>
        <time>2021-08-01T15:10:18Z</time>
      </trkpt>
      <trkpt lat="42.23022" lon="0.78778">
        <ele>1066.25</ele>
        <time>2021-08-01T15:10:25Z</time>
      </trkpt>
      <trkpt lat="42.23047" lon="0.78765">
        <ele>1063.09</ele>
        <time>2021-08-01T15:10:29Z</time>
      </trkpt>
      <trkpt lat="42.23064" lon="0.78741">
        <ele>1059.66</ele>
        <time>2021-08-01T15:10:33Z</time>
      </trkpt>
      <trkpt lat="42.23088" lon="0.78691">
        <ele>1056.8</ele>
        <time>2021-08-01T15:10:38Z</time>
      </trkpt>
      <trkpt lat="42.23124" lon="0.78658">
        <ele>1053.66</ele>
        <time>2021-08-01T15:10:43Z</time>
      </trkpt>
      <trkpt lat="42.23163" lon="0.78632">
        <ele>1048.68</ele>
        <time>2021-08-01T15:10:49Z</time>
      </trkpt>
      <trkpt lat="42.23174" lon="0.78621">
        <ele>1047.1</ele>
        <time>2021-08-01T15:10:51Z</time>
      </trkpt>
      <trkpt lat="42.23182" lon="0.7861">
        <ele>1045.64</ele>
        <time>2021-08-01T15:10:53Z</time>
      </trkpt>
      <trkpt lat="42.23193" lon="0.78623">
        <ele>1041.78</ele>
        <time>2021-08-01T15:10:58Z</time>
      </trkpt>
      <trkpt lat="42.23185" lon="0.78639">
        <ele>1040.61</ele>
        <time>2021-08-01T15:11:00Z</time>
      </trkpt>
      <trkpt lat="42.23166" lon="0.78681">
        <ele>1038.03</ele>
        <time>2021-08-01T15:11:04Z</time>
      </trkpt>
      <trkpt lat="42.23125" lon="0.78711">
        <ele>1034.11</ele>
        <time>2021-08-01T15:11:10Z</time>
      </trkpt>
      <trkpt lat="42.23116" lon="0.7876">
        <ele>1031.11</ele>
        <time>2021-08-01T15:11:15Z</time>
      </trkpt>
      <trkpt lat="42.23129" lon="0.78818">
        <ele>1026.46</ele>
        <time>2021-08-01T15:11:22Z</time>
      </trkpt>
      <trkpt lat="42.23113" lon="0.78853">
        <ele>1022.83</ele>
        <time>2021-08-01T15:11:28Z</time>
      </trkpt>
      <trkpt lat="42.23083" lon="0.78871">
        <ele>1020.11</ele>
        <time>2021-08-01T15:11:33Z</time>
      </trkpt>
      <trkpt lat="42.2308" lon="0.78899">
        <ele>1017.42</ele>
        <time>2021-08-01T15:11:38Z</time>
      </trkpt>
      <trkpt lat="42.23096" lon="0.78931">
        <ele>1015.45</ele>
        <time>2021-08-01T15:11:42Z</time>
      </trkpt>
      <trkpt lat="42.23138" lon="0.78985">
        <ele>1011.54</ele>
        <time>2021-08-01T15:11:49Z</time>
      </trkpt>
      <trkpt lat="42.23174" lon="0.79022">
        <ele>1008.23</ele>
        <time>2021-08-01T15:11:54Z</time>
      </trkpt>
      <trkpt lat="42.2321" lon="0.79058">
        <ele>1004.69</ele>
        <time>2021-08-01T15:11:59Z</time>
      </trkpt>
      <trkpt lat="42.2325" lon="0.79083">
        <ele>1001.02</ele>
        <time>2021-08-01T15:12:04Z</time>
      </trkpt>
      <trkpt lat="42.23281" lon="0.79099">
        <ele>998.14</ele>
        <time>2021-08-01T15:12:08Z</time>
      </trkpt>
      <trkpt lat="42.23307" lon="0.79139">
        <ele>993.88</ele>
        <time>2021-08-01T15:12:14Z</time>
      </trkpt>
      <trkpt lat="42.23305" lon="0.79158">
        <ele>992.5</ele>
        <time>2021-08-01T15:12:16Z</time>
      </trkpt>
      <trkpt lat="42.23306" lon="0.79216">
        <ele>988.96</ele>
        <time>2021-08-01T15:12:22Z</time>
      </trkpt>
      <trkpt lat="42.23305" lon="0.79247">
        <ele>987.12</ele>
        <time>2021-08-01T15:12:25Z</time>
      </trkpt>
      <trkpt lat="42.23284" lon="0.79299">
        <ele>983.52</ele>
        <time>2021-08-01T15:12:31Z</time>
      </trkpt>
      <trkpt lat="42.23264" lon="0.7931">
        <ele>981.57</ele>
        <time>2021-08-01T15:12:34Z</time>
      </trkpt>
      <trkpt lat="42.23228" lon="0.79329">
        <ele>978.72</ele>
        <time>2021-08-01T15:12:39Z</time>
      </trkpt>
      <trkpt lat="42.23176" lon="0.79333">
        <ele>974.98</ele>
        <time>2021-08-01T15:12:45Z</time>
      </trkpt>
      <trkpt lat="42.23155" lon="0.79334">
        <ele>970.29</ele>
        <time>2021-08-01T15:12:52Z</time>
      </trkpt>
      <trkpt lat="42.23118" lon="0.79347">
        <ele>967.14</ele>
        <time>2021-08-01T15:12:59Z</time>
      </trkpt>
      <trkpt lat="42.23093" lon="0.79354">
        <ele>965.57</ele>
        <time>2021-08-01T15:13:03Z</time>
      </trkpt>
      <trkpt lat="42.23092" lon="0.79383">
        <ele>962.74</ele>
        <time>2021-08-01T15:13:09Z</time>
      </trkpt>
      <trkpt lat="42.231" lon="0.79388">
        <ele>962.25</ele>
        <time>2021-08-01T15:13:10Z</time>
      </trkpt>
      <trkpt lat="42.23134" lon="0.79424">
        <ele>959.72</ele>
        <time>2021-08-01T15:13:16Z</time>
      </trkpt>
      <trkpt lat="42.23138" lon="0.79438">
        <ele>957.92</ele>
        <time>2021-08-01T15:13:19Z</time>
      </trkpt>
      <trkpt lat="42.23118" lon="0.79498">
        <ele>955.06</ele>
        <time>2021-08-01T15:13:26Z</time>
      </trkpt>
      <trkpt lat="42.2311" lon="0.7952">
        <ele>954.19</ele>
        <time>2021-08-01T15:13:28Z</time>
      </trkpt>
      <trkpt lat="42.23105" lon="0.79542">
        <ele>953.3</ele>
        <time>2021-08-01T15:13:30Z</time>
      </trkpt>
      <trkpt lat="42.23088" lon="0.79575">
        <ele>950.38</ele>
        <time>2021-08-01T15:13:34Z</time>
      </trkpt>
      <trkpt lat="42.23084" lon="0.79602">
        <ele>947.08</ele>
        <time>2021-08-01T15:13:43Z</time>
      </trkpt>
      <trkpt lat="42.23088" lon="0.79598">
        <ele>946.97</ele>
        <time>2021-08-01T15:13:44Z</time>
      </trkpt>
      <trkpt lat="42.23129" lon="0.7956">
        <ele>946.45</ele>
        <time>2021-08-01T15:13:51Z</time>
      </trkpt>
      <trkpt lat="42.23152" lon="0.79548">
        <ele>947.16</ele>
        <time>2021-08-01T15:13:55Z</time>
      </trkpt>
      <trkpt lat="42.23184" lon="0.7954">
        <ele>948.36</ele>
        <time>2021-08-01T15:13:59Z</time>
      </trkpt>
      <trkpt lat="42.23257" lon="0.79538">
        <ele>950.46</ele>
        <time>2021-08-01T15:14:08Z</time>
      </trkpt>
      <trkpt lat="42.23326" lon="0.79561">
        <ele>953.06</ele>
        <time>2021-08-01T15:14:17Z</time>
      </trkpt>
      <trkpt lat="42.23341" lon="0.79584">
        <ele>954.14</ele>
        <time>2021-08-01T15:14:21Z</time>
      </trkpt>
      <trkpt lat="42.2336" lon="0.796">
        <ele>955.06</ele>
        <time>2021-08-01T15:14:27Z</time>
      </trkpt>
      <trkpt lat="42.23387" lon="0.79576">
        <ele>955.91</ele>
        <time>2021-08-01T15:14:33Z</time>
      </trkpt>
      <trkpt lat="42.23405" lon="0.79588">
        <ele>956.36</ele>
        <time>2021-08-01T15:14:39Z</time>
      </trkpt>
      <trkpt lat="42.23403" lon="0.79653">
        <ele>956.35</ele>
        <time>2021-08-01T15:14:45Z</time>
      </trkpt>
      <trkpt lat="42.23416" lon="0.79809">
        <ele>954.34</ele>
        <time>2021-08-01T15:14:56Z</time>
      </trkpt>
      <trkpt lat="42.23422" lon="0.79849">
        <ele>953.38</ele>
        <time>2021-08-01T15:14:59Z</time>
      </trkpt>
      <trkpt lat="42.23452" lon="0.79892">
        <ele>950.78</ele>
        <time>2021-08-01T15:15:04Z</time>
      </trkpt>
      <trkpt lat="42.23474" lon="0.79908">
        <ele>948.85</ele>
        <time>2021-08-01T15:15:07Z</time>
      </trkpt>
      <trkpt lat="42.2349" lon="0.79898">
        <ele>946.54</ele>
        <time>2021-08-01T15:15:10Z</time>
      </trkpt>
      <trkpt lat="42.23491" lon="0.79891">
        <ele>946.05</ele>
        <time>2021-08-01T15:15:11Z</time>
      </trkpt>
      <trkpt lat="42.2349" lon="0.79882">
        <ele>945.58</ele>
        <time>2021-08-01T15:15:12Z</time>
      </trkpt>
      <trkpt lat="42.23489" lon="0.79872">
        <ele>945.18</ele>
        <time>2021-08-01T15:15:13Z</time>
      </trkpt>
      <trkpt lat="42.23487" lon="0.79862">
        <ele>944.88</ele>
        <time>2021-08-01T15:15:14Z</time>
      </trkpt>
      <trkpt lat="42.23485" lon="0.79841">
        <ele>944.48</ele>
        <time>2021-08-01T15:15:16Z</time>
      </trkpt>
      <trkpt lat="42.23487" lon="0.7983">
        <ele>944.27</ele>
        <time>2021-08-01T15:15:17Z</time>
      </trkpt>
      <trkpt lat="42.2349" lon="0.79819">
        <ele>943.98</ele>
        <time>2021-08-01T15:15:18Z</time>
      </trkpt>
      <trkpt lat="42.23501" lon="0.79789">
        <ele>942.96</ele>
        <time>2021-08-01T15:15:21Z</time>
      </trkpt>
      <trkpt lat="42.23506" lon="0.79783">
        <ele>942.53</ele>
        <time>2021-08-01T15:15:22Z</time>
      </trkpt>
      <trkpt lat="42.23511" lon="0.79771">
        <ele>941.51</ele>
        <time>2021-08-01T15:15:24Z</time>
      </trkpt>
      <trkpt lat="42.23506" lon="0.79695">
        <ele>938.26</ele>
        <time>2021-08-01T15:15:32Z</time>
      </trkpt>
      <trkpt lat="42.23506" lon="0.79618">
        <ele>935.98</ele>
        <time>2021-08-01T15:15:38Z</time>
      </trkpt>
      <trkpt lat="42.23536" lon="0.79566">
        <ele>932.93</ele>
        <time>2021-08-01T15:15:45Z</time>
      </trkpt>
      <trkpt lat="42.23544" lon="0.79524">
        <ele>930.42</ele>
        <time>2021-08-01T15:15:50Z</time>
      </trkpt>
      <trkpt lat="42.23537" lon="0.79473">
        <ele>927.9</ele>
        <time>2021-08-01T15:15:57Z</time>
      </trkpt>
      <trkpt lat="42.23547" lon="0.794">
        <ele>926.8</ele>
        <time>2021-08-01T15:16:03Z</time>
      </trkpt>
      <trkpt lat="42.2355" lon="0.79361">
        <ele>926.29</ele>
        <time>2021-08-01T15:16:06Z</time>
      </trkpt>
      <trkpt lat="42.2355" lon="0.79337">
        <ele>925.72</ele>
        <time>2021-08-01T15:16:08Z</time>
      </trkpt>
      <trkpt lat="42.23569" lon="0.79259">
        <ele>924.79</ele>
        <time>2021-08-01T15:16:15Z</time>
      </trkpt>
      <trkpt lat="42.23592" lon="0.79238">
        <ele>924.66</ele>
        <time>2021-08-01T15:16:19Z</time>
      </trkpt>
      <trkpt lat="42.23657" lon="0.79221">
        <ele>923.95</ele>
        <time>2021-08-01T15:16:26Z</time>
      </trkpt>
      <trkpt lat="42.237" lon="0.79196">
        <ele>921.75</ele>
        <time>2021-08-01T15:16:33Z</time>
      </trkpt>
      <trkpt lat="42.2376" lon="0.7908">
        <ele>918.32</ele>
        <time>2021-08-01T15:16:46Z</time>
      </trkpt>
      <trkpt lat="42.23769" lon="0.79068">
        <ele>917.28</ele>
        <time>2021-08-01T15:16:48Z</time>
      </trkpt>
      <trkpt lat="42.23784" lon="0.79059">
        <ele>916.24</ele>
        <time>2021-08-01T15:16:52Z</time>
      </trkpt>
      <trkpt lat="42.2381" lon="0.7906">
        <ele>913.48</ele>
        <time>2021-08-01T15:17:01Z</time>
      </trkpt>
      <trkpt lat="42.23853" lon="0.79093">
        <ele>910.34</ele>
        <time>2021-08-01T15:17:13Z</time>
      </trkpt>
      <trkpt lat="42.23871" lon="0.79101">
        <ele>907.99</ele>
        <time>2021-08-01T15:17:25Z</time>
      </trkpt>
      <trkpt lat="42.2389" lon="0.79104">
        <ele>906.51</ele>
        <time>2021-08-01T15:17:32Z</time>
      </trkpt>
      <trkpt lat="42.23889" lon="0.79064">
        <ele>904.43</ele>
        <time>2021-08-01T15:17:44Z</time>
      </trkpt>
      <trkpt lat="42.23885" lon="0.78988">
        <ele>903.07</ele>
        <time>2021-08-01T15:17:53Z</time>
      </trkpt>
      <trkpt lat="42.23885" lon="0.7897">
        <ele>902.39</ele>
        <time>2021-08-01T15:17:55Z</time>
      </trkpt>
      <trkpt lat="42.23906" lon="0.78918">
        <ele>899.91</ele>
        <time>2021-08-01T15:18:02Z</time>
      </trkpt>
      <trkpt lat="42.23999" lon="0.78831">
        <ele>899.93</ele>
        <time>2021-08-01T15:18:17Z</time>
      </trkpt>
      <trkpt lat="42.24057" lon="0.78764">
        <ele>902.53</ele>
        <time>2021-08-01T15:18:30Z</time>
      </trkpt>
      <trkpt lat="42.24071" lon="0.78755">
        <ele>904.03</ele>
        <time>2021-08-01T15:18:35Z</time>
      </trkpt>
      <trkpt lat="42.24098" lon="0.78752">
        <ele>905.3</ele>
        <time>2021-08-01T15:18:41Z</time>
      </trkpt>
      <trkpt lat="42.24128" lon="0.78723">
        <ele>905.82</ele>
        <time>2021-08-01T15:18:48Z</time>
      </trkpt>
      <trkpt lat="42.24142" lon="0.78708">
        <ele>906.03</ele>
        <time>2021-08-01T15:18:51Z</time>
      </trkpt>
      <trkpt lat="42.24161" lon="0.78713">
        <ele>906.43</ele>
        <time>2021-08-01T15:18:56Z</time>
      </trkpt>
      <trkpt lat="42.24172" lon="0.78729">
        <ele>906.69</ele>
        <time>2021-08-01T15:18:59Z</time>
      </trkpt>
      <trkpt lat="42.24192" lon="0.78729">
        <ele>906.34</ele>
        <time>2021-08-01T15:19:04Z</time>
      </trkpt>
      <trkpt lat="42.24218" lon="0.78722">
        <ele>905.54</ele>
        <time>2021-08-01T15:19:10Z</time>
      </trkpt>
      <trkpt lat="42.24228" lon="0.78724">
        <ele>905.41</ele>
        <time>2021-08-01T15:19:12Z</time>
      </trkpt>
      <trkpt lat="42.24264" lon="0.78718">
        <ele>905.27</ele>
        <time>2021-08-01T15:19:19Z</time>
      </trkpt>
      <trkpt lat="42.24296" lon="0.78693">
        <ele>903.98</ele>
        <time>2021-08-01T15:19:26Z</time>
      </trkpt>
      <trkpt lat="42.24303" lon="0.78682">
        <ele>903.22</ele>
        <time>2021-08-01T15:19:28Z</time>
      </trkpt>
      <trkpt lat="42.24339" lon="0.78645">
        <ele>899.58</ele>
        <time>2021-08-01T15:19:38Z</time>
      </trkpt>
      <trkpt lat="42.24354" lon="0.78658">
        <ele>897.7</ele>
        <time>2021-08-01T15:19:43Z</time>
      </trkpt>
      <trkpt lat="42.24359" lon="0.78671">
        <ele>897.28</ele>
        <time>2021-08-01T15:19:45Z</time>
      </trkpt>
      <trkpt lat="42.24386" lon="0.78725">
        <ele>894.86</ele>
        <time>2021-08-01T15:19:53Z</time>
      </trkpt>
      <trkpt lat="42.2442" lon="0.78763">
        <ele>891.29</ele>
        <time>2021-08-01T15:20:00Z</time>
      </trkpt>
      <trkpt lat="42.24423" lon="0.78767">
        <ele>890.86</ele>
        <time>2021-08-01T15:20:01Z</time>
      </trkpt>
      <trkpt lat="42.24432" lon="0.78757">
        <ele>888.31</ele>
        <time>2021-08-01T15:20:07Z</time>
      </trkpt>
      <trkpt lat="42.24428" lon="0.78752">
        <ele>887.49</ele>
        <time>2021-08-01T15:20:08Z</time>
      </trkpt>
      <trkpt lat="42.24413" lon="0.78731">
        <ele>886.5</ele>
        <time>2021-08-01T15:20:11Z</time>
      </trkpt>
      <trkpt lat="42.2439" lon="0.78653">
        <ele>883.87</ele>
        <time>2021-08-01T15:20:18Z</time>
      </trkpt>
      <trkpt lat="42.24404" lon="0.78601">
        <ele>881.85</ele>
        <time>2021-08-01T15:20:23Z</time>
      </trkpt>
      <trkpt lat="42.24434" lon="0.78526">
        <ele>878.82</ele>
        <time>2021-08-01T15:20:30Z</time>
      </trkpt>
      <trkpt lat="42.24428" lon="0.78463">
        <ele>874.86</ele>
        <time>2021-08-01T15:20:36Z</time>
      </trkpt>
      <trkpt lat="42.2438" lon="0.78445">
        <ele>872.15</ele>
        <time>2021-08-01T15:20:42Z</time>
      </trkpt>
      <trkpt lat="42.24369" lon="0.78446">
        <ele>871.6</ele>
        <time>2021-08-01T15:20:43Z</time>
      </trkpt>
      <trkpt lat="42.24348" lon="0.7845">
        <ele>870.27</ele>
        <time>2021-08-01T15:20:45Z</time>
      </trkpt>
      <trkpt lat="42.24329" lon="0.78449">
        <ele>869.09</ele>
        <time>2021-08-01T15:20:47Z</time>
      </trkpt>
      <trkpt lat="42.24297" lon="0.78464">
        <ele>866.69</ele>
        <time>2021-08-01T15:20:51Z</time>
      </trkpt>
      <trkpt lat="42.24271" lon="0.78488">
        <ele>865.22</ele>
        <time>2021-08-01T15:20:54Z</time>
      </trkpt>
      <trkpt lat="42.2425" lon="0.78527">
        <ele>862.58</ele>
        <time>2021-08-01T15:20:58Z</time>
      </trkpt>
      <trkpt lat="42.24221" lon="0.7857">
        <ele>859.45</ele>
        <time>2021-08-01T15:21:03Z</time>
      </trkpt>
      <trkpt lat="42.24206" lon="0.78566">
        <ele>855.08</ele>
        <time>2021-08-01T15:21:10Z</time>
      </trkpt>
      <trkpt lat="42.24218" lon="0.78541">
        <ele>853.66</ele>
        <time>2021-08-01T15:21:13Z</time>
      </trkpt>
      <trkpt lat="42.24236" lon="0.78484">
        <ele>851.78</ele>
        <time>2021-08-01T15:21:18Z</time>
      </trkpt>
      <trkpt lat="42.24264" lon="0.78397">
        <ele>848.03</ele>
        <time>2021-08-01T15:21:26Z</time>
      </trkpt>
      <trkpt lat="42.24297" lon="0.78352">
        <ele>845.26</ele>
        <time>2021-08-01T15:21:31Z</time>
      </trkpt>
      <trkpt lat="42.2431" lon="0.78328">
        <ele>844.24</ele>
        <time>2021-08-01T15:21:33Z</time>
      </trkpt>
      <trkpt lat="42.24329" lon="0.78223">
        <ele>840.24</ele>
        <time>2021-08-01T15:21:40Z</time>
      </trkpt>
      <trkpt lat="42.24327" lon="0.78211">
        <ele>839.52</ele>
        <time>2021-08-01T15:21:41Z</time>
      </trkpt>
      <trkpt lat="42.24336" lon="0.78168">
        <ele>834.41</ele>
        <time>2021-08-01T15:21:47Z</time>
      </trkpt>
      <trkpt lat="42.24353" lon="0.78169">
        <ele>831.53</ele>
        <time>2021-08-01T15:21:51Z</time>
      </trkpt>
      <trkpt lat="42.24381" lon="0.78171">
        <ele>828.35</ele>
        <time>2021-08-01T15:21:58Z</time>
      </trkpt>
      <trkpt lat="42.24403" lon="0.78128">
        <ele>826.03</ele>
        <time>2021-08-01T15:22:06Z</time>
      </trkpt>
      <trkpt lat="42.24406" lon="0.78097">
        <ele>825.16</ele>
        <time>2021-08-01T15:22:10Z</time>
      </trkpt>
      <trkpt lat="42.24424" lon="0.78065">
        <ele>824.39</ele>
        <time>2021-08-01T15:22:15Z</time>
      </trkpt>
      <trkpt lat="42.2446" lon="0.78047">
        <ele>821.03</ele>
        <time>2021-08-01T15:22:24Z</time>
      </trkpt>
      <trkpt lat="42.24469" lon="0.78063">
        <ele>820.48</ele>
        <time>2021-08-01T15:22:26Z</time>
      </trkpt>
      <trkpt lat="42.24486" lon="0.78104">
        <ele>819.49</ele>
        <time>2021-08-01T15:22:30Z</time>
      </trkpt>
      <trkpt lat="42.24504" lon="0.7812">
        <ele>818.23</ele>
        <time>2021-08-01T15:22:34Z</time>
      </trkpt>
      <trkpt lat="42.24529" lon="0.78121">
        <ele>816.92</ele>
        <time>2021-08-01T15:22:37Z</time>
      </trkpt>
      <trkpt lat="42.2456" lon="0.78104">
        <ele>814.75</ele>
        <time>2021-08-01T15:22:41Z</time>
      </trkpt>
      <trkpt lat="42.24595" lon="0.78066">
        <ele>811</ele>
        <time>2021-08-01T15:22:46Z</time>
      </trkpt>
      <trkpt lat="42.24607" lon="0.78006">
        <ele>806.99</ele>
        <time>2021-08-01T15:22:52Z</time>
      </trkpt>
      <trkpt lat="42.24602" lon="0.77996">
        <ele>806.26</ele>
        <time>2021-08-01T15:22:53Z</time>
      </trkpt>
      <trkpt lat="42.24582" lon="0.77953">
        <ele>803.56</ele>
        <time>2021-08-01T15:22:57Z</time>
      </trkpt>
      <trkpt lat="42.24541" lon="0.77931">
        <ele>799.22</ele>
        <time>2021-08-01T15:23:03Z</time>
      </trkpt>
      <trkpt lat="42.24537" lon="0.7791">
        <ele>796.25</ele>
        <time>2021-08-01T15:23:07Z</time>
      </trkpt>
      <trkpt lat="42.24577" lon="0.7791">
        <ele>792.85</ele>
        <time>2021-08-01T15:23:13Z</time>
      </trkpt>
      <trkpt lat="42.24602" lon="0.77916">
        <ele>789.46</ele>
        <time>2021-08-01T15:23:19Z</time>
      </trkpt>
      <trkpt lat="42.24612" lon="0.77901">
        <ele>788.62</ele>
        <time>2021-08-01T15:23:21Z</time>
      </trkpt>
      <trkpt lat="42.2461" lon="0.77868">
        <ele>784.88</ele>
        <time>2021-08-01T15:23:28Z</time>
      </trkpt>
      <trkpt lat="42.24579" lon="0.77864">
        <ele>781.66</ele>
        <time>2021-08-01T15:23:33Z</time>
      </trkpt>
      <trkpt lat="42.24587" lon="0.77853">
        <ele>779.4</ele>
        <time>2021-08-01T15:23:36Z</time>
      </trkpt>
      <trkpt lat="42.24595" lon="0.77848">
        <ele>777.94</ele>
        <time>2021-08-01T15:23:38Z</time>
      </trkpt>
      <trkpt lat="42.24596" lon="0.77824">
        <ele>774.51</ele>
        <time>2021-08-01T15:23:44Z</time>
      </trkpt>
      <trkpt lat="42.24605" lon="0.77809">
        <ele>770.94</ele>
        <time>2021-08-01T15:23:50Z</time>
      </trkpt>
      <trkpt lat="42.2461" lon="0.77813">
        <ele>770.26</ele>
        <time>2021-08-01T15:23:51Z</time>
      </trkpt>
      <trkpt lat="42.24621" lon="0.77823">
        <ele>769.25</ele>
        <time>2021-08-01T15:23:53Z</time>
      </trkpt>
      <trkpt lat="42.24644" lon="0.77821">
        <ele>767.6</ele>
        <time>2021-08-01T15:23:57Z</time>
      </trkpt>
      <trkpt lat="42.24691" lon="0.77843">
        <ele>765.51</ele>
        <time>2021-08-01T15:24:04Z</time>
      </trkpt>
      <trkpt lat="42.24722" lon="0.77885">
        <ele>764.75</ele>
        <time>2021-08-01T15:24:08Z</time>
      </trkpt>
      <trkpt lat="42.24751" lon="0.77885">
        <ele>762.66</ele>
        <time>2021-08-01T15:24:14Z</time>
      </trkpt>
      <trkpt lat="42.24744" lon="0.77871">
        <ele>761.67</ele>
        <time>2021-08-01T15:24:16Z</time>
      </trkpt>
      <trkpt lat="42.24719" lon="0.77806">
        <ele>758.5</ele>
        <time>2021-08-01T15:24:22Z</time>
      </trkpt>
      <trkpt lat="42.24694" lon="0.77775">
        <ele>754.82</ele>
        <time>2021-08-01T15:24:27Z</time>
      </trkpt>
      <trkpt lat="42.24675" lon="0.77761">
        <ele>751.96</ele>
        <time>2021-08-01T15:24:31Z</time>
      </trkpt>
      <trkpt lat="42.24646" lon="0.77665">
        <ele>747.15</ele>
        <time>2021-08-01T15:24:39Z</time>
      </trkpt>
      <trkpt lat="42.24621" lon="0.77603">
        <ele>743.88</ele>
        <time>2021-08-01T15:24:44Z</time>
      </trkpt>
      <trkpt lat="42.24611" lon="0.77545">
        <ele>739.68</ele>
        <time>2021-08-01T15:24:49Z</time>
      </trkpt>
      <trkpt lat="42.24607" lon="0.77524">
        <ele>738.3</ele>
        <time>2021-08-01T15:24:51Z</time>
      </trkpt>
      <trkpt lat="42.24631" lon="0.7752">
        <ele>733.89</ele>
        <time>2021-08-01T15:24:56Z</time>
      </trkpt>
      <trkpt lat="42.24653" lon="0.7752">
        <ele>730.53</ele>
        <time>2021-08-01T15:25:00Z</time>
      </trkpt>
      <trkpt lat="42.24658" lon="0.77485">
        <ele>727.18</ele>
        <time>2021-08-01T15:25:05Z</time>
      </trkpt>
      <trkpt lat="42.2463" lon="0.77464">
        <ele>724.46</ele>
        <time>2021-08-01T15:25:10Z</time>
      </trkpt>
      <trkpt lat="42.24614" lon="0.77408">
        <ele>721.3</ele>
        <time>2021-08-01T15:25:15Z</time>
      </trkpt>
      <trkpt lat="42.24583" lon="0.77337">
        <ele>718.2</ele>
        <time>2021-08-01T15:25:20Z</time>
      </trkpt>
      <trkpt lat="42.24564" lon="0.77271">
        <ele>714</ele>
        <time>2021-08-01T15:25:25Z</time>
      </trkpt>
      <trkpt lat="42.2454" lon="0.77258">
        <ele>711.37</ele>
        <time>2021-08-01T15:25:28Z</time>
      </trkpt>
      <trkpt lat="42.24534" lon="0.77255">
        <ele>707.32</ele>
        <time>2021-08-01T15:25:34Z</time>
      </trkpt>
      <trkpt lat="42.24534" lon="0.77254">
        <ele>704.28</ele>
        <time>2021-08-01T15:25:50Z</time>
      </trkpt>
      <trkpt lat="42.24534" lon="0.77254">
        <ele>703.82</ele>
        <time>2021-08-01T15:28:12Z</time>
      </trkpt>
      <trkpt lat="42.24536" lon="0.77202">
        <ele>703.83</ele>
        <time>2021-08-01T15:28:20Z</time>
      </trkpt>
      <trkpt lat="42.24542" lon="0.77194">
        <ele>703.83</ele>
        <time>2021-08-01T15:28:21Z</time>
      </trkpt>
      <trkpt lat="42.24552" lon="0.77178">
        <ele>703.59</ele>
        <time>2021-08-01T15:28:23Z</time>
      </trkpt>
      <trkpt lat="42.24551" lon="0.77141">
        <ele>703.03</ele>
        <time>2021-08-01T15:28:27Z</time>
      </trkpt>
      <trkpt lat="42.24537" lon="0.77077">
        <ele>702.29</ele>
        <time>2021-08-01T15:28:32Z</time>
      </trkpt>
      <trkpt lat="42.24496" lon="0.76987">
        <ele>700.3</ele>
        <time>2021-08-01T15:28:41Z</time>
      </trkpt>
      <trkpt lat="42.24492" lon="0.76979">
        <ele>700.01</ele>
        <time>2021-08-01T15:28:42Z</time>
      </trkpt>
      <trkpt lat="42.24482" lon="0.76942">
        <ele>698.82</ele>
        <time>2021-08-01T15:28:46Z</time>
      </trkpt>
      <trkpt lat="42.24477" lon="0.76866">
        <ele>695.75</ele>
        <time>2021-08-01T15:28:54Z</time>
      </trkpt>
      <trkpt lat="42.24486" lon="0.76845">
        <ele>694.69</ele>
        <time>2021-08-01T15:28:56Z</time>
      </trkpt>
      <trkpt lat="42.24509" lon="0.76808">
        <ele>692.93</ele>
        <time>2021-08-01T15:29:00Z</time>
      </trkpt>
      <trkpt lat="42.24541" lon="0.76769">
        <ele>692.18</ele>
        <time>2021-08-01T15:29:04Z</time>
      </trkpt>
      <trkpt lat="42.24563" lon="0.76701">
        <ele>691.6</ele>
        <time>2021-08-01T15:29:10Z</time>
      </trkpt>
      <trkpt lat="42.24599" lon="0.76593">
        <ele>690.21</ele>
        <time>2021-08-01T15:29:22Z</time>
      </trkpt>
      <trkpt lat="42.24609" lon="0.76573">
        <ele>690.02</ele>
        <time>2021-08-01T15:29:24Z</time>
      </trkpt>
      <trkpt lat="42.24612" lon="0.76562">
        <ele>689.98</ele>
        <time>2021-08-01T15:29:25Z</time>
      </trkpt>
      <trkpt lat="42.24615" lon="0.76551">
        <ele>689.96</ele>
        <time>2021-08-01T15:29:26Z</time>
      </trkpt>
      <trkpt lat="42.24618" lon="0.7654">
        <ele>689.96</ele>
        <time>2021-08-01T15:29:27Z</time>
      </trkpt>
      <trkpt lat="42.24622" lon="0.76531">
        <ele>689.96</ele>
        <time>2021-08-01T15:29:28Z</time>
      </trkpt>
      <trkpt lat="42.24627" lon="0.76523">
        <ele>690.04</ele>
        <time>2021-08-01T15:29:29Z</time>
      </trkpt>
      <trkpt lat="42.24634" lon="0.76516">
        <ele>690.11</ele>
        <time>2021-08-01T15:29:30Z</time>
      </trkpt>
      <trkpt lat="42.24641" lon="0.76511">
        <ele>690.18</ele>
        <time>2021-08-01T15:29:31Z</time>
      </trkpt>
      <trkpt lat="42.24648" lon="0.76506">
        <ele>690.28</ele>
        <time>2021-08-01T15:29:32Z</time>
      </trkpt>
      <trkpt lat="42.24655" lon="0.765">
        <ele>690.39</ele>
        <time>2021-08-01T15:29:33Z</time>
      </trkpt>
      <trkpt lat="42.24661" lon="0.76492">
        <ele>690.49</ele>
        <time>2021-08-01T15:29:34Z</time>
      </trkpt>
      <trkpt lat="42.24674" lon="0.76475">
        <ele>690.58</ele>
        <time>2021-08-01T15:29:36Z</time>
      </trkpt>
      <trkpt lat="42.24703" lon="0.76445">
        <ele>690.56</ele>
        <time>2021-08-01T15:29:40Z</time>
      </trkpt>
      <trkpt lat="42.24725" lon="0.76383">
        <ele>688.84</ele>
        <time>2021-08-01T15:29:46Z</time>
      </trkpt>
      <trkpt lat="42.24794" lon="0.7626">
        <ele>684.97</ele>
        <time>2021-08-01T15:29:57Z</time>
      </trkpt>
      <trkpt lat="42.24844" lon="0.7614">
        <ele>682.54</ele>
        <time>2021-08-01T15:30:06Z</time>
      </trkpt>
      <trkpt lat="42.24859" lon="0.76101">
        <ele>680.94</ele>
        <time>2021-08-01T15:30:09Z</time>
      </trkpt>
      <trkpt lat="42.24876" lon="0.76063">
        <ele>679.03</ele>
        <time>2021-08-01T15:30:12Z</time>
      </trkpt>
      <trkpt lat="42.24901" lon="0.75977">
        <ele>674.98</ele>
        <time>2021-08-01T15:30:18Z</time>
      </trkpt>
      <trkpt lat="42.24916" lon="0.75883">
        <ele>671.94</ele>
        <time>2021-08-01T15:30:24Z</time>
      </trkpt>
      <trkpt lat="42.24925" lon="0.75761">
        <ele>670.14</ele>
        <time>2021-08-01T15:30:31Z</time>
      </trkpt>
      <trkpt lat="42.24913" lon="0.75627">
        <ele>666.59</ele>
        <time>2021-08-01T15:30:39Z</time>
      </trkpt>
      <trkpt lat="42.24914" lon="0.75578">
        <ele>665</ele>
        <time>2021-08-01T15:30:42Z</time>
      </trkpt>
      <trkpt lat="42.24936" lon="0.7552">
        <ele>664.4</ele>
        <time>2021-08-01T15:30:47Z</time>
      </trkpt>
      <trkpt lat="42.24997" lon="0.75438">
        <ele>666.32</ele>
        <time>2021-08-01T15:30:54Z</time>
      </trkpt>
      <trkpt lat="42.25011" lon="0.75412">
        <ele>667.4</ele>
        <time>2021-08-01T15:30:56Z</time>
      </trkpt>
      <trkpt lat="42.25058" lon="0.75352">
        <ele>669.49</ele>
        <time>2021-08-01T15:31:02Z</time>
      </trkpt>
      <trkpt lat="42.25073" lon="0.75283">
        <ele>669.35</ele>
        <time>2021-08-01T15:31:08Z</time>
      </trkpt>
      <trkpt lat="42.25078" lon="0.75182">
        <ele>666.08</ele>
        <time>2021-08-01T15:31:17Z</time>
      </trkpt>
      <trkpt lat="42.25082" lon="0.75157">
        <ele>665.02</ele>
        <time>2021-08-01T15:31:19Z</time>
      </trkpt>
      <trkpt lat="42.25079" lon="0.75093">
        <ele>662.85</ele>
        <time>2021-08-01T15:31:23Z</time>
      </trkpt>
      <trkpt lat="42.251" lon="0.74998">
        <ele>658.84</ele>
        <time>2021-08-01T15:31:30Z</time>
      </trkpt>
      <trkpt lat="42.25139" lon="0.74991">
        <ele>656.05</ele>
        <time>2021-08-01T15:31:34Z</time>
      </trkpt>
      <trkpt lat="42.25167" lon="0.75016">
        <ele>652.22</ele>
        <time>2021-08-01T15:31:38Z</time>
      </trkpt>
      <trkpt lat="42.25173" lon="0.75017">
        <ele>652.22</ele>
        <time>2021-08-01T15:31:39Z</time>
      </trkpt>
      <trkpt lat="42.25181" lon="0.7499">
        <ele>648.99</ele>
        <time>2021-08-01T15:31:43Z</time>
      </trkpt>
      <trkpt lat="42.25177" lon="0.7498">
        <ele>648.62</ele>
        <time>2021-08-01T15:31:44Z</time>
      </trkpt>
      <trkpt lat="42.25135" lon="0.74887">
        <ele>647.74</ele>
        <time>2021-08-01T15:31:52Z</time>
      </trkpt>
      <trkpt lat="42.25141" lon="0.74836">
        <ele>647.88</ele>
        <time>2021-08-01T15:31:57Z</time>
      </trkpt>
      <trkpt lat="42.25129" lon="0.74778">
        <ele>646.51</ele>
        <time>2021-08-01T15:32:04Z</time>
      </trkpt>
      <trkpt lat="42.25122" lon="0.74771">
        <ele>646.3</ele>
        <time>2021-08-01T15:32:05Z</time>
      </trkpt>
      <trkpt lat="42.25124" lon="0.74732">
        <ele>645.98</ele>
        <time>2021-08-01T15:32:09Z</time>
      </trkpt>
      <trkpt lat="42.25182" lon="0.74632">
        <ele>647.33</ele>
        <time>2021-08-01T15:32:17Z</time>
      </trkpt>
      <trkpt lat="42.25207" lon="0.7459">
        <ele>648.26</ele>
        <time>2021-08-01T15:32:20Z</time>
      </trkpt>
      <trkpt lat="42.25217" lon="0.74495">
        <ele>650.91</ele>
        <time>2021-08-01T15:32:27Z</time>
      </trkpt>
      <trkpt lat="42.2522" lon="0.74459">
        <ele>651.31</ele>
        <time>2021-08-01T15:32:30Z</time>
      </trkpt>
      <trkpt lat="42.2524" lon="0.74406">
        <ele>650.89</ele>
        <time>2021-08-01T15:32:35Z</time>
      </trkpt>
      <trkpt lat="42.25254" lon="0.74384">
        <ele>650.07</ele>
        <time>2021-08-01T15:32:37Z</time>
      </trkpt>
      <trkpt lat="42.25328" lon="0.74323">
        <ele>646.3</ele>
        <time>2021-08-01T15:32:44Z</time>
      </trkpt>
      <trkpt lat="42.25326" lon="0.74266">
        <ele>642.14</ele>
        <time>2021-08-01T15:32:49Z</time>
      </trkpt>
      <trkpt lat="42.25291" lon="0.74209">
        <ele>639.28</ele>
        <time>2021-08-01T15:32:53Z</time>
      </trkpt>
      <trkpt lat="42.2529" lon="0.74119">
        <ele>635.36</ele>
        <time>2021-08-01T15:32:59Z</time>
      </trkpt>
      <trkpt lat="42.2534" lon="0.74015">
        <ele>632.77</ele>
        <time>2021-08-01T15:33:06Z</time>
      </trkpt>
      <trkpt lat="42.25343" lon="0.73944">
        <ele>631.02</ele>
        <time>2021-08-01T15:33:11Z</time>
      </trkpt>
      <trkpt lat="42.25336" lon="0.73859">
        <ele>627.54</ele>
        <time>2021-08-01T15:33:17Z</time>
      </trkpt>
      <trkpt lat="42.25341" lon="0.73834">
        <ele>625.35</ele>
        <time>2021-08-01T15:33:19Z</time>
      </trkpt>
      <trkpt lat="42.25387" lon="0.73785">
        <ele>621.25</ele>
        <time>2021-08-01T15:33:25Z</time>
      </trkpt>
      <trkpt lat="42.25411" lon="0.7378">
        <ele>620.05</ele>
        <time>2021-08-01T15:33:27Z</time>
      </trkpt>
      <trkpt lat="42.25472" lon="0.73748">
        <ele>616.17</ele>
        <time>2021-08-01T15:33:33Z</time>
      </trkpt>
      <trkpt lat="42.2548" lon="0.73698">
        <ele>613.68</ele>
        <time>2021-08-01T15:33:37Z</time>
      </trkpt>
      <trkpt lat="42.25485" lon="0.73665">
        <ele>610.45</ele>
        <time>2021-08-01T15:33:42Z</time>
      </trkpt>
      <trkpt lat="42.25508" lon="0.73627">
        <ele>607</ele>
        <time>2021-08-01T15:33:50Z</time>
      </trkpt>
      <trkpt lat="42.25537" lon="0.73589">
        <ele>604.06</ele>
        <time>2021-08-01T15:33:58Z</time>
      </trkpt>
      <trkpt lat="42.25538" lon="0.73581">
        <ele>603.39</ele>
        <time>2021-08-01T15:34:00Z</time>
      </trkpt>
      <trkpt lat="42.25547" lon="0.73546">
        <ele>603.98</ele>
        <time>2021-08-01T15:34:13Z</time>
      </trkpt>
      <trkpt lat="42.2555" lon="0.73538">
        <ele>604.11</ele>
        <time>2021-08-01T15:34:15Z</time>
      </trkpt>
      <trkpt lat="42.25542" lon="0.73511">
        <ele>604.25</ele>
        <time>2021-08-01T15:34:20Z</time>
      </trkpt>
      <trkpt lat="42.25492" lon="0.73407">
        <ele>604.09</ele>
        <time>2021-08-01T15:34:29Z</time>
      </trkpt>
      <trkpt lat="42.25409" lon="0.73221">
        <ele>606.1</ele>
        <time>2021-08-01T15:34:41Z</time>
      </trkpt>
      <trkpt lat="42.2536" lon="0.73112">
        <ele>606.75</ele>
        <time>2021-08-01T15:34:50Z</time>
      </trkpt>
      <trkpt lat="42.25337" lon="0.7306">
        <ele>606.46</ele>
        <time>2021-08-01T15:34:55Z</time>
      </trkpt>
      <trkpt lat="42.25332" lon="0.7303">
        <ele>605.89</ele>
        <time>2021-08-01T15:35:02Z</time>
      </trkpt>
      <trkpt lat="42.25332" lon="0.7303">
        <ele>605.3</ele>
        <time>2021-08-01T15:40:07Z</time>
      </trkpt>
      <trkpt lat="42.25331" lon="0.7303">
        <ele>605.3</ele>
        <time>2021-08-01T15:40:45Z</time>
      </trkpt>
      <trkpt lat="42.25329" lon="0.73027">
        <ele>605.3</ele>
        <time>2021-08-01T15:40:46Z</time>
      </trkpt>
      <trkpt lat="42.25297" lon="0.72966">
        <ele>606</ele>
        <time>2021-08-01T15:40:53Z</time>
      </trkpt>
      <trkpt lat="42.25242" lon="0.72843">
        <ele>607.52</ele>
        <time>2021-08-01T15:41:00Z</time>
      </trkpt>
      <trkpt lat="42.25206" lon="0.72766">
        <ele>608.63</ele>
        <time>2021-08-01T15:41:04Z</time>
      </trkpt>
      <trkpt lat="42.25124" lon="0.72688">
        <ele>610.05</ele>
        <time>2021-08-01T15:41:10Z</time>
      </trkpt>
      <trkpt lat="42.24887" lon="0.72595">
        <ele>609.45</ele>
        <time>2021-08-01T15:41:22Z</time>
      </trkpt>
      <trkpt lat="42.24721" lon="0.72529">
        <ele>608.27</ele>
        <time>2021-08-01T15:41:31Z</time>
      </trkpt>
      <trkpt lat="42.2454" lon="0.72367">
        <ele>605.14</ele>
        <time>2021-08-01T15:41:43Z</time>
      </trkpt>
      <trkpt lat="42.24368" lon="0.72206">
        <ele>602.33</ele>
        <time>2021-08-01T15:41:53Z</time>
      </trkpt>
      <trkpt lat="42.2416" lon="0.72034">
        <ele>600.51</ele>
        <time>2021-08-01T15:42:04Z</time>
      </trkpt>
      <trkpt lat="42.23911" lon="0.71847">
        <ele>599.23</ele>
        <time>2021-08-01T15:42:17Z</time>
      </trkpt>
      <trkpt lat="42.23674" lon="0.71667">
        <ele>596.19</ele>
        <time>2021-08-01T15:42:30Z</time>
      </trkpt>
      <trkpt lat="42.23509" lon="0.71565">
        <ele>593.7</ele>
        <time>2021-08-01T15:42:39Z</time>
      </trkpt>
      <trkpt lat="42.23447" lon="0.71545">
        <ele>590.07</ele>
        <time>2021-08-01T15:42:44Z</time>
      </trkpt>
      <trkpt lat="42.2344" lon="0.71543">
        <ele>589.49</ele>
        <time>2021-08-01T15:42:45Z</time>
      </trkpt>
      <trkpt lat="42.2344" lon="0.71522">
        <ele>586.34</ele>
        <time>2021-08-01T15:42:51Z</time>
      </trkpt>
      <trkpt lat="42.23461" lon="0.71487">
        <ele>584.17</ele>
        <time>2021-08-01T15:42:57Z</time>
      </trkpt>
      <trkpt lat="42.23461" lon="0.71476">
        <ele>583.88</ele>
        <time>2021-08-01T15:42:58Z</time>
      </trkpt>
      <trkpt lat="42.23454" lon="0.71353">
        <ele>581.97</ele>
        <time>2021-08-01T15:43:09Z</time>
      </trkpt>
      <trkpt lat="42.2345" lon="0.71314">
        <ele>582.23</ele>
        <time>2021-08-01T15:43:16Z</time>
      </trkpt>
      <trkpt lat="42.23447" lon="0.71289">
        <ele>583.12</ele>
        <time>2021-08-01T15:43:20Z</time>
      </trkpt>
      <trkpt lat="42.2344" lon="0.71267">
        <ele>583.79</ele>
        <time>2021-08-01T15:43:23Z</time>
      </trkpt>
      <trkpt lat="42.23435" lon="0.71213">
        <ele>587.27</ele>
        <time>2021-08-01T15:43:29Z</time>
      </trkpt>
      <trkpt lat="42.23447" lon="0.71179">
        <ele>590.52</ele>
        <time>2021-08-01T15:43:33Z</time>
      </trkpt>
      <trkpt lat="42.23466" lon="0.71143">
        <ele>594.82</ele>
        <time>2021-08-01T15:43:38Z</time>
      </trkpt>
      <trkpt lat="42.23469" lon="0.71136">
        <ele>595.82</ele>
        <time>2021-08-01T15:43:39Z</time>
      </trkpt>
      <trkpt lat="42.23485" lon="0.71118">
        <ele>600.8</ele>
        <time>2021-08-01T15:43:44Z</time>
      </trkpt>
      <trkpt lat="42.23499" lon="0.71103">
        <ele>604.21</ele>
        <time>2021-08-01T15:43:48Z</time>
      </trkpt>
      <trkpt lat="42.23503" lon="0.71098">
        <ele>605.07</ele>
        <time>2021-08-01T15:43:49Z</time>
      </trkpt>
      <trkpt lat="42.23531" lon="0.71075">
        <ele>609.49</ele>
        <time>2021-08-01T15:43:54Z</time>
      </trkpt>
      <trkpt lat="42.23538" lon="0.7107">
        <ele>610.44</ele>
        <time>2021-08-01T15:43:55Z</time>
      </trkpt>
      <trkpt lat="42.23559" lon="0.71048">
        <ele>614.63</ele>
        <time>2021-08-01T15:43:59Z</time>
      </trkpt>
      <trkpt lat="42.23572" lon="0.71032">
        <ele>617.87</ele>
        <time>2021-08-01T15:44:02Z</time>
      </trkpt>
      <trkpt lat="42.23593" lon="0.71014">
        <ele>622.05</ele>
        <time>2021-08-01T15:44:06Z</time>
      </trkpt>
      <trkpt lat="42.23624" lon="0.70989">
        <ele>626.17</ele>
        <time>2021-08-01T15:44:11Z</time>
      </trkpt>
      <trkpt lat="42.23657" lon="0.70963">
        <ele>629.79</ele>
        <time>2021-08-01T15:44:16Z</time>
      </trkpt>
      <trkpt lat="42.2367" lon="0.70947">
        <ele>631.34</ele>
        <time>2021-08-01T15:44:18Z</time>
      </trkpt>
      <trkpt lat="42.2371" lon="0.70917">
        <ele>635.75</ele>
        <time>2021-08-01T15:44:23Z</time>
      </trkpt>
      <trkpt lat="42.23717" lon="0.7091">
        <ele>636.86</ele>
        <time>2021-08-01T15:44:24Z</time>
      </trkpt>
      <trkpt lat="42.23745" lon="0.70874">
        <ele>641.16</ele>
        <time>2021-08-01T15:44:28Z</time>
      </trkpt>
      <trkpt lat="42.23759" lon="0.70856">
        <ele>643.44</ele>
        <time>2021-08-01T15:44:30Z</time>
      </trkpt>
      <trkpt lat="42.23781" lon="0.70822">
        <ele>647.68</ele>
        <time>2021-08-01T15:44:34Z</time>
      </trkpt>
      <trkpt lat="42.23801" lon="0.70787">
        <ele>651.57</ele>
        <time>2021-08-01T15:44:38Z</time>
      </trkpt>
      <trkpt lat="42.23821" lon="0.70751">
        <ele>655.35</ele>
        <time>2021-08-01T15:44:42Z</time>
      </trkpt>
      <trkpt lat="42.23837" lon="0.70725">
        <ele>658.58</ele>
        <time>2021-08-01T15:44:45Z</time>
      </trkpt>
      <trkpt lat="42.23854" lon="0.70699">
        <ele>661.71</ele>
        <time>2021-08-01T15:44:48Z</time>
      </trkpt>
      <trkpt lat="42.2386" lon="0.70689">
        <ele>662.81</ele>
        <time>2021-08-01T15:44:49Z</time>
      </trkpt>
      <trkpt lat="42.23879" lon="0.70645">
        <ele>668.46</ele>
        <time>2021-08-01T15:44:53Z</time>
      </trkpt>
      <trkpt lat="42.23888" lon="0.70621">
        <ele>670.61</ele>
        <time>2021-08-01T15:44:55Z</time>
      </trkpt>
      <trkpt lat="42.23903" lon="0.70573">
        <ele>675.15</ele>
        <time>2021-08-01T15:44:59Z</time>
      </trkpt>
      <trkpt lat="42.23913" lon="0.7054">
        <ele>678.59</ele>
        <time>2021-08-01T15:45:02Z</time>
      </trkpt>
      <trkpt lat="42.23918" lon="0.7052">
        <ele>680.89</ele>
        <time>2021-08-01T15:45:04Z</time>
      </trkpt>
      <trkpt lat="42.23928" lon="0.70468">
        <ele>685.17</ele>
        <time>2021-08-01T15:45:08Z</time>
      </trkpt>
      <trkpt lat="42.23959" lon="0.70374">
        <ele>688.48</ele>
        <time>2021-08-01T15:45:14Z</time>
      </trkpt>
      <trkpt lat="42.23986" lon="0.70304">
        <ele>692.19</ele>
        <time>2021-08-01T15:45:20Z</time>
      </trkpt>
      <trkpt lat="42.24001" lon="0.70266">
        <ele>695.73</ele>
        <time>2021-08-01T15:45:24Z</time>
      </trkpt>
      <trkpt lat="42.24016" lon="0.70228">
        <ele>699.64</ele>
        <time>2021-08-01T15:45:28Z</time>
      </trkpt>
      <trkpt lat="42.24025" lon="0.70201">
        <ele>702.75</ele>
        <time>2021-08-01T15:45:31Z</time>
      </trkpt>
      <trkpt lat="42.24032" lon="0.70169">
        <ele>706.39</ele>
        <time>2021-08-01T15:45:35Z</time>
      </trkpt>
      <trkpt lat="42.2404" lon="0.7014">
        <ele>707.69</ele>
        <time>2021-08-01T15:45:38Z</time>
      </trkpt>
      <trkpt lat="42.24064" lon="0.70033">
        <ele>710.94</ele>
        <time>2021-08-01T15:45:48Z</time>
      </trkpt>
      <trkpt lat="42.24073" lon="0.69986">
        <ele>713.39</ele>
        <time>2021-08-01T15:45:52Z</time>
      </trkpt>
      <trkpt lat="42.2407" lon="0.69938">
        <ele>715.94</ele>
        <time>2021-08-01T15:45:56Z</time>
      </trkpt>
      <trkpt lat="42.24049" lon="0.69879">
        <ele>720.57</ele>
        <time>2021-08-01T15:46:02Z</time>
      </trkpt>
      <trkpt lat="42.24045" lon="0.69869">
        <ele>721.51</ele>
        <time>2021-08-01T15:46:03Z</time>
      </trkpt>
      <trkpt lat="42.2403" lon="0.69822">
        <ele>726.45</ele>
        <time>2021-08-01T15:46:08Z</time>
      </trkpt>
      <trkpt lat="42.24021" lon="0.69798">
        <ele>729.43</ele>
        <time>2021-08-01T15:46:11Z</time>
      </trkpt>
      <trkpt lat="42.2401" lon="0.69763">
        <ele>733.48</ele>
        <time>2021-08-01T15:46:15Z</time>
      </trkpt>
      <trkpt lat="42.24007" lon="0.69724">
        <ele>737.24</ele>
        <time>2021-08-01T15:46:19Z</time>
      </trkpt>
      <trkpt lat="42.24009" lon="0.69706">
        <ele>739.01</ele>
        <time>2021-08-01T15:46:21Z</time>
      </trkpt>
      <trkpt lat="42.24016" lon="0.69674">
        <ele>743.07</ele>
        <time>2021-08-01T15:46:26Z</time>
      </trkpt>
      <trkpt lat="42.24017" lon="0.6967">
        <ele>743.87</ele>
        <time>2021-08-01T15:46:27Z</time>
      </trkpt>
      <trkpt lat="42.24016" lon="0.69659">
        <ele>745.59</ele>
        <time>2021-08-01T15:46:29Z</time>
      </trkpt>
      <trkpt lat="42.24016" lon="0.69631">
        <ele>749.45</ele>
        <time>2021-08-01T15:46:33Z</time>
      </trkpt>
      <trkpt lat="42.24012" lon="0.696">
        <ele>752.6</ele>
        <time>2021-08-01T15:46:37Z</time>
      </trkpt>
      <trkpt lat="42.23985" lon="0.69567">
        <ele>756.46</ele>
        <time>2021-08-01T15:46:42Z</time>
      </trkpt>
      <trkpt lat="42.23967" lon="0.69569">
        <ele>757.98</ele>
        <time>2021-08-01T15:46:44Z</time>
      </trkpt>
      <trkpt lat="42.23934" lon="0.69571">
        <ele>761.28</ele>
        <time>2021-08-01T15:46:48Z</time>
      </trkpt>
      <trkpt lat="42.23901" lon="0.69598">
        <ele>765.98</ele>
        <time>2021-08-01T15:46:53Z</time>
      </trkpt>
      <trkpt lat="42.23859" lon="0.6963">
        <ele>770.68</ele>
        <time>2021-08-01T15:47:00Z</time>
      </trkpt>
      <trkpt lat="42.238" lon="0.69611">
        <ele>774.47</ele>
        <time>2021-08-01T15:47:08Z</time>
      </trkpt>
      <trkpt lat="42.23773" lon="0.69607">
        <ele>777.52</ele>
        <time>2021-08-01T15:47:13Z</time>
      </trkpt>
      <trkpt lat="42.23773" lon="0.6958">
        <ele>781.6</ele>
        <time>2021-08-01T15:47:19Z</time>
      </trkpt>
      <trkpt lat="42.23791" lon="0.6957">
        <ele>784.68</ele>
        <time>2021-08-01T15:47:24Z</time>
      </trkpt>
      <trkpt lat="42.23816" lon="0.6956">
        <ele>788.54</ele>
        <time>2021-08-01T15:47:30Z</time>
      </trkpt>
      <trkpt lat="42.23828" lon="0.69556">
        <ele>790.34</ele>
        <time>2021-08-01T15:47:33Z</time>
      </trkpt>
      <trkpt lat="42.23833" lon="0.69533">
        <ele>794.8</ele>
        <time>2021-08-01T15:47:39Z</time>
      </trkpt>
      <trkpt lat="42.2382" lon="0.69527">
        <ele>797.12</ele>
        <time>2021-08-01T15:47:42Z</time>
      </trkpt>
      <trkpt lat="42.23809" lon="0.69525">
        <ele>798.11</ele>
        <time>2021-08-01T15:47:44Z</time>
      </trkpt>
      <trkpt lat="42.23771" lon="0.69529">
        <ele>801.68</ele>
        <time>2021-08-01T15:47:50Z</time>
      </trkpt>
      <trkpt lat="42.23735" lon="0.69536">
        <ele>805.16</ele>
        <time>2021-08-01T15:47:55Z</time>
      </trkpt>
      <trkpt lat="42.23706" lon="0.69546">
        <ele>808.38</ele>
        <time>2021-08-01T15:47:59Z</time>
      </trkpt>
      <trkpt lat="42.23676" lon="0.6956">
        <ele>811.49</ele>
        <time>2021-08-01T15:48:03Z</time>
      </trkpt>
      <trkpt lat="42.23663" lon="0.69566">
        <ele>813.33</ele>
        <time>2021-08-01T15:48:05Z</time>
      </trkpt>
      <trkpt lat="42.23635" lon="0.6956">
        <ele>818.06</ele>
        <time>2021-08-01T15:48:11Z</time>
      </trkpt>
      <trkpt lat="42.23641" lon="0.69531">
        <ele>821.79</ele>
        <time>2021-08-01T15:48:17Z</time>
      </trkpt>
      <trkpt lat="42.23652" lon="0.6952">
        <ele>823.88</ele>
        <time>2021-08-01T15:48:20Z</time>
      </trkpt>
      <trkpt lat="42.23667" lon="0.6949">
        <ele>827.23</ele>
        <time>2021-08-01T15:48:25Z</time>
      </trkpt>
      <trkpt lat="42.23689" lon="0.69454">
        <ele>831.64</ele>
        <time>2021-08-01T15:48:31Z</time>
      </trkpt>
      <trkpt lat="42.23695" lon="0.69437">
        <ele>833.06</ele>
        <time>2021-08-01T15:48:33Z</time>
      </trkpt>
      <trkpt lat="42.23719" lon="0.69387">
        <ele>837.53</ele>
        <time>2021-08-01T15:48:39Z</time>
      </trkpt>
      <trkpt lat="42.23735" lon="0.69353">
        <ele>840.63</ele>
        <time>2021-08-01T15:48:43Z</time>
      </trkpt>
      <trkpt lat="42.2376" lon="0.69303">
        <ele>843.91</ele>
        <time>2021-08-01T15:48:49Z</time>
      </trkpt>
      <trkpt lat="42.23782" lon="0.69279">
        <ele>845.57</ele>
        <time>2021-08-01T15:48:53Z</time>
      </trkpt>
      <trkpt lat="42.23808" lon="0.69255">
        <ele>846.97</ele>
        <time>2021-08-01T15:48:58Z</time>
      </trkpt>
      <trkpt lat="42.23825" lon="0.69233">
        <ele>848.84</ele>
        <time>2021-08-01T15:49:02Z</time>
      </trkpt>
      <trkpt lat="42.23848" lon="0.69189">
        <ele>852.54</ele>
        <time>2021-08-01T15:49:08Z</time>
      </trkpt>
      <trkpt lat="42.23882" lon="0.69122">
        <ele>856.33</ele>
        <time>2021-08-01T15:49:15Z</time>
      </trkpt>
      <trkpt lat="42.23887" lon="0.69113">
        <ele>856.82</ele>
        <time>2021-08-01T15:49:16Z</time>
      </trkpt>
      <trkpt lat="42.239" lon="0.69066">
        <ele>859.27</ele>
        <time>2021-08-01T15:49:21Z</time>
      </trkpt>
      <trkpt lat="42.239" lon="0.69049">
        <ele>860.56</ele>
        <time>2021-08-01T15:49:23Z</time>
      </trkpt>
      <trkpt lat="42.23907" lon="0.69009">
        <ele>863.62</ele>
        <time>2021-08-01T15:49:28Z</time>
      </trkpt>
      <trkpt lat="42.23902" lon="0.68978">
        <ele>865.96</ele>
        <time>2021-08-01T15:49:32Z</time>
      </trkpt>
      <trkpt lat="42.23892" lon="0.68959">
        <ele>868.13</ele>
        <time>2021-08-01T15:49:35Z</time>
      </trkpt>
      <trkpt lat="42.23864" lon="0.68923">
        <ele>872.47</ele>
        <time>2021-08-01T15:49:41Z</time>
      </trkpt>
      <trkpt lat="42.23834" lon="0.68899">
        <ele>875.96</ele>
        <time>2021-08-01T15:49:46Z</time>
      </trkpt>
      <trkpt lat="42.23809" lon="0.68896">
        <ele>880.36</ele>
        <time>2021-08-01T15:49:50Z</time>
      </trkpt>
      <trkpt lat="42.23803" lon="0.68899">
        <ele>881.28</ele>
        <time>2021-08-01T15:49:51Z</time>
      </trkpt>
      <trkpt lat="42.23777" lon="0.68921">
        <ele>886.47</ele>
        <time>2021-08-01T15:49:56Z</time>
      </trkpt>
      <trkpt lat="42.23752" lon="0.68955">
        <ele>890.96</ele>
        <time>2021-08-01T15:50:01Z</time>
      </trkpt>
      <trkpt lat="42.2373" lon="0.68983">
        <ele>894.28</ele>
        <time>2021-08-01T15:50:06Z</time>
      </trkpt>
      <trkpt lat="42.23713" lon="0.69004">
        <ele>897.29</ele>
        <time>2021-08-01T15:50:14Z</time>
      </trkpt>
      <trkpt lat="42.23677" lon="0.69039">
        <ele>899.73</ele>
        <time>2021-08-01T15:50:26Z</time>
      </trkpt>
      <trkpt lat="42.23628" lon="0.69095">
        <ele>902.87</ele>
        <time>2021-08-01T15:50:38Z</time>
      </trkpt>
      <trkpt lat="42.23594" lon="0.6914">
        <ele>905.67</ele>
        <time>2021-08-01T15:50:46Z</time>
      </trkpt>
      <trkpt lat="42.23578" lon="0.69127">
        <ele>908.94</ele>
        <time>2021-08-01T15:50:51Z</time>
      </trkpt>
      <trkpt lat="42.23579" lon="0.6912">
        <ele>909.7</ele>
        <time>2021-08-01T15:50:52Z</time>
      </trkpt>
      <trkpt lat="42.23586" lon="0.69082">
        <ele>913.6</ele>
        <time>2021-08-01T15:50:57Z</time>
      </trkpt>
      <trkpt lat="42.23593" lon="0.69054">
        <ele>917.01</ele>
        <time>2021-08-01T15:51:01Z</time>
      </trkpt>
      <trkpt lat="42.23606" lon="0.69027">
        <ele>920.86</ele>
        <time>2021-08-01T15:51:06Z</time>
      </trkpt>
      <trkpt lat="42.23614" lon="0.69007">
        <ele>924.3</ele>
        <time>2021-08-01T15:51:10Z</time>
      </trkpt>
      <trkpt lat="42.23623" lon="0.68988">
        <ele>928.01</ele>
        <time>2021-08-01T15:51:15Z</time>
      </trkpt>
      <trkpt lat="42.23635" lon="0.68962">
        <ele>931.49</ele>
        <time>2021-08-01T15:51:21Z</time>
      </trkpt>
      <trkpt lat="42.23645" lon="0.6894">
        <ele>934.55</ele>
        <time>2021-08-01T15:51:26Z</time>
      </trkpt>
      <trkpt lat="42.23654" lon="0.68915">
        <ele>937.76</ele>
        <time>2021-08-01T15:51:31Z</time>
      </trkpt>
      <trkpt lat="42.23665" lon="0.68883">
        <ele>941</ele>
        <time>2021-08-01T15:51:37Z</time>
      </trkpt>
      <trkpt lat="42.23673" lon="0.68851">
        <ele>944.39</ele>
        <time>2021-08-01T15:51:43Z</time>
      </trkpt>
      <trkpt lat="42.23679" lon="0.68818">
        <ele>947.65</ele>
        <time>2021-08-01T15:51:49Z</time>
      </trkpt>
      <trkpt lat="42.23681" lon="0.68784">
        <ele>950.91</ele>
        <time>2021-08-01T15:51:55Z</time>
      </trkpt>
      <trkpt lat="42.23685" lon="0.68745">
        <ele>953.95</ele>
        <time>2021-08-01T15:52:02Z</time>
      </trkpt>
      <trkpt lat="42.23693" lon="0.68698">
        <ele>956.96</ele>
        <time>2021-08-01T15:52:09Z</time>
      </trkpt>
      <trkpt lat="42.23694" lon="0.68688">
        <ele>957.38</ele>
        <time>2021-08-01T15:52:10Z</time>
      </trkpt>
      <trkpt lat="42.23699" lon="0.68581">
        <ele>961.02</ele>
        <time>2021-08-01T15:52:20Z</time>
      </trkpt>
      <trkpt lat="42.23704" lon="0.68507">
        <ele>964.25</ele>
        <time>2021-08-01T15:52:29Z</time>
      </trkpt>
      <trkpt lat="42.23708" lon="0.68429">
        <ele>967.35</ele>
        <time>2021-08-01T15:52:38Z</time>
      </trkpt>
      <trkpt lat="42.23711" lon="0.68404">
        <ele>967.62</ele>
        <time>2021-08-01T15:52:41Z</time>
      </trkpt>
      <trkpt lat="42.23719" lon="0.68371">
        <ele>967.35</ele>
        <time>2021-08-01T15:52:45Z</time>
      </trkpt>
      <trkpt lat="42.23734" lon="0.68341">
        <ele>966.19</ele>
        <time>2021-08-01T15:52:49Z</time>
      </trkpt>
      <trkpt lat="42.23747" lon="0.68304">
        <ele>964.22</ele>
        <time>2021-08-01T15:52:53Z</time>
      </trkpt>
      <trkpt lat="42.23767" lon="0.68221">
        <ele>960.57</ele>
        <time>2021-08-01T15:53:01Z</time>
      </trkpt>
      <trkpt lat="42.2377" lon="0.68202">
        <ele>959.69</ele>
        <time>2021-08-01T15:53:03Z</time>
      </trkpt>
      <trkpt lat="42.2377" lon="0.68168">
        <ele>958.73</ele>
        <time>2021-08-01T15:53:07Z</time>
      </trkpt>
      <trkpt lat="42.23755" lon="0.68123">
        <ele>958.67</ele>
        <time>2021-08-01T15:53:12Z</time>
      </trkpt>
      <trkpt lat="42.2374" lon="0.68089">
        <ele>959.47</ele>
        <time>2021-08-01T15:53:16Z</time>
      </trkpt>
      <trkpt lat="42.2374" lon="0.68042">
        <ele>962.32</ele>
        <time>2021-08-01T15:53:22Z</time>
      </trkpt>
      <trkpt lat="42.23755" lon="0.68014">
        <ele>966.05</ele>
        <time>2021-08-01T15:53:27Z</time>
      </trkpt>
      <trkpt lat="42.23765" lon="0.67991">
        <ele>969.57</ele>
        <time>2021-08-01T15:53:31Z</time>
      </trkpt>
      <trkpt lat="42.23774" lon="0.67968">
        <ele>972.89</ele>
        <time>2021-08-01T15:53:35Z</time>
      </trkpt>
      <trkpt lat="42.2378" lon="0.67951">
        <ele>975.4</ele>
        <time>2021-08-01T15:53:38Z</time>
      </trkpt>
      <trkpt lat="42.23783" lon="0.67913">
        <ele>980</ele>
        <time>2021-08-01T15:53:44Z</time>
      </trkpt>
      <trkpt lat="42.23801" lon="0.67876">
        <ele>983.38</ele>
        <time>2021-08-01T15:53:49Z</time>
      </trkpt>
      <trkpt lat="42.23825" lon="0.67844">
        <ele>987.29</ele>
        <time>2021-08-01T15:53:55Z</time>
      </trkpt>
      <trkpt lat="42.23832" lon="0.67832">
        <ele>988.59</ele>
        <time>2021-08-01T15:53:57Z</time>
      </trkpt>
      <trkpt lat="42.23849" lon="0.67791">
        <ele>992.64</ele>
        <time>2021-08-01T15:54:04Z</time>
      </trkpt>
      <trkpt lat="42.23869" lon="0.6775">
        <ele>995.78</ele>
        <time>2021-08-01T15:54:11Z</time>
      </trkpt>
      <trkpt lat="42.23896" lon="0.67711">
        <ele>998.84</ele>
        <time>2021-08-01T15:54:20Z</time>
      </trkpt>
      <trkpt lat="42.2392" lon="0.67692">
        <ele>1000.88</ele>
        <time>2021-08-01T15:54:28Z</time>
      </trkpt>
      <trkpt lat="42.23954" lon="0.67649">
        <ele>1002.9</ele>
        <time>2021-08-01T15:54:38Z</time>
      </trkpt>
      <trkpt lat="42.23973" lon="0.67626">
        <ele>1005.33</ele>
        <time>2021-08-01T15:54:48Z</time>
      </trkpt>
      <trkpt lat="42.23986" lon="0.67613">
        <ele>1007.6</ele>
        <time>2021-08-01T15:55:00Z</time>
      </trkpt>
      <trkpt lat="42.24024" lon="0.67565">
        <ele>1010.69</ele>
        <time>2021-08-01T15:55:13Z</time>
      </trkpt>
      <trkpt lat="42.2406" lon="0.67513">
        <ele>1013.36</ele>
        <time>2021-08-01T15:55:24Z</time>
      </trkpt>
      <trkpt lat="42.24067" lon="0.67488">
        <ele>1013.91</ele>
        <time>2021-08-01T15:55:29Z</time>
      </trkpt>
      <trkpt lat="42.24067" lon="0.67473">
        <ele>1013.95</ele>
        <time>2021-08-01T15:55:38Z</time>
      </trkpt>
      <trkpt lat="42.24068" lon="0.67471">
        <ele>1013.45</ele>
        <time>2021-08-01T15:55:48Z</time>
      </trkpt>
      <trkpt lat="42.24071" lon="0.67459">
        <ele>1013.21</ele>
        <time>2021-08-01T15:55:52Z</time>
      </trkpt>
      <trkpt lat="42.24089" lon="0.67404">
        <ele>1010.01</ele>
        <time>2021-08-01T15:56:05Z</time>
      </trkpt>
      <trkpt lat="42.24091" lon="0.67398">
        <ele>1008.04</ele>
        <time>2021-08-01T15:56:16Z</time>
      </trkpt>
      <trkpt lat="42.24094" lon="0.67387">
        <ele>1007.92</ele>
        <time>2021-08-01T15:56:18Z</time>
      </trkpt>
      <trkpt lat="42.24097" lon="0.67353">
        <ele>1007.46</ele>
        <time>2021-08-01T15:56:26Z</time>
      </trkpt>
      <trkpt lat="42.24097" lon="0.67356">
        <ele>1006.97</ele>
        <time>2021-08-01T15:56:37Z</time>
      </trkpt>
      <trkpt lat="42.24094" lon="0.67365">
        <ele>1006.71</ele>
        <time>2021-08-01T15:56:46Z</time>
      </trkpt>
      <trkpt lat="42.24086" lon="0.6735">
        <ele>1007.42</ele>
        <time>2021-08-01T15:57:00Z</time>
      </trkpt>
      <trkpt lat="42.24085" lon="0.67349">
        <ele>1009.06</ele>
        <time>2021-08-01T15:57:27Z</time>
      </trkpt>
      <trkpt lat="42.24092" lon="0.67357">
        <ele>1007.22</ele>
        <time>2021-08-01T15:57:55Z</time>
      </trkpt>
      <trkpt lat="42.24094" lon="0.67363">
        <ele>1006.59</ele>
        <time>2021-08-01T15:58:04Z</time>
      </trkpt>
      <trkpt lat="42.24087" lon="0.67409">
        <ele>1008.19</ele>
        <time>2021-08-01T15:58:27Z</time>
      </trkpt>
      <trkpt lat="42.24087" lon="0.67408">
        <ele>1008.37</ele>
        <time>2021-08-01T15:58:28Z</time>
      </trkpt>
      <trkpt lat="42.24089" lon="0.67405">
        <ele>1008.59</ele>
        <time>2021-08-01T15:58:33Z</time>
      </trkpt>
      <trkpt lat="42.24088" lon="0.67405">
        <ele>1008.64</ele>
        <time>2021-08-01T15:58:38Z</time>
      </trkpt>
      <trkpt lat="42.24092" lon="0.674">
        <ele>1009.36</ele>
        <time>2021-08-01T15:58:56Z</time>
      </trkpt>
      <trkpt lat="42.24093" lon="0.67399">
        <ele>1009.67</ele>
        <time>2021-08-01T15:59:20Z</time>
      </trkpt>
      <trkpt lat="42.24093" lon="0.67399">
        <ele>1010.05</ele>
        <time>2021-08-01T15:59:36Z</time>
      </trkpt>
      <trkpt lat="42.24091" lon="0.67401">
        <ele>1009.07</ele>
        <time>2021-08-01T16:03:13Z</time>
      </trkpt>
      <trkpt lat="42.24088" lon="0.674">
        <ele>1009.07</ele>
        <time>2021-08-01T16:03:24Z</time>
      </trkpt>
      <trkpt lat="42.24089" lon="0.67375">
        <ele>1006.04</ele>
        <time>2021-08-01T16:03:33Z</time>
      </trkpt>
      <trkpt lat="42.2409" lon="0.67368">
        <ele>1005.51</ele>
        <time>2021-08-01T16:03:36Z</time>
      </trkpt>
      <trkpt lat="42.24098" lon="0.67348">
        <ele>1004.84</ele>
        <time>2021-08-01T16:03:45Z</time>
      </trkpt>
      <trkpt lat="42.24099" lon="0.67347">
        <ele>1005.19</ele>
        <time>2021-08-01T16:04:53Z</time>
      </trkpt>
      <trkpt lat="42.24102" lon="0.67336">
        <ele>1005.29</ele>
        <time>2021-08-01T16:04:55Z</time>
      </trkpt>
      <trkpt lat="42.24139" lon="0.67259">
        <ele>1006.49</ele>
        <time>2021-08-01T16:05:03Z</time>
      </trkpt>
      <trkpt lat="42.2416" lon="0.67231">
        <ele>1007.37</ele>
        <time>2021-08-01T16:05:08Z</time>
      </trkpt>
      <trkpt lat="42.24173" lon="0.6722">
        <ele>1007.86</ele>
        <time>2021-08-01T16:05:11Z</time>
      </trkpt>
      <trkpt lat="42.24199" lon="0.67191">
        <ele>1009.63</ele>
        <time>2021-08-01T16:05:17Z</time>
      </trkpt>
      <trkpt lat="42.24218" lon="0.67152">
        <ele>1013.18</ele>
        <time>2021-08-01T16:05:23Z</time>
      </trkpt>
      <trkpt lat="42.24242" lon="0.67115">
        <ele>1016.42</ele>
        <time>2021-08-01T16:05:29Z</time>
      </trkpt>
      <trkpt lat="42.24248" lon="0.67096">
        <ele>1018.25</ele>
        <time>2021-08-01T16:05:34Z</time>
      </trkpt>
      <trkpt lat="42.24276" lon="0.67007">
        <ele>1020.9</ele>
        <time>2021-08-01T16:05:43Z</time>
      </trkpt>
      <trkpt lat="42.24317" lon="0.66851">
        <ele>1021.63</ele>
        <time>2021-08-01T16:05:55Z</time>
      </trkpt>
      <trkpt lat="42.24343" lon="0.6674">
        <ele>1021.44</ele>
        <time>2021-08-01T16:06:02Z</time>
      </trkpt>
      <trkpt lat="42.24356" lon="0.66691">
        <ele>1021.27</ele>
        <time>2021-08-01T16:06:05Z</time>
      </trkpt>
      <trkpt lat="42.24391" lon="0.66607">
        <ele>1020.48</ele>
        <time>2021-08-01T16:06:12Z</time>
      </trkpt>
      <trkpt lat="42.24409" lon="0.66595">
        <ele>1020.06</ele>
        <time>2021-08-01T16:06:14Z</time>
      </trkpt>
      <trkpt lat="42.2443" lon="0.66577">
        <ele>1018.87</ele>
        <time>2021-08-01T16:06:18Z</time>
      </trkpt>
      <trkpt lat="42.2444" lon="0.66574">
        <ele>1017.97</ele>
        <time>2021-08-01T16:06:20Z</time>
      </trkpt>
      <trkpt lat="42.24471" lon="0.6655">
        <ele>1016.37</ele>
        <time>2021-08-01T16:06:24Z</time>
      </trkpt>
      <trkpt lat="42.24489" lon="0.66526">
        <ele>1015.78</ele>
        <time>2021-08-01T16:06:26Z</time>
      </trkpt>
      <trkpt lat="42.24517" lon="0.66403">
        <ele>1014.96</ele>
        <time>2021-08-01T16:06:33Z</time>
      </trkpt>
      <trkpt lat="42.24546" lon="0.66309">
        <ele>1013.75</ele>
        <time>2021-08-01T16:06:40Z</time>
      </trkpt>
      <trkpt lat="42.24574" lon="0.66256">
        <ele>1013.02</ele>
        <time>2021-08-01T16:06:46Z</time>
      </trkpt>
      <trkpt lat="42.24587" lon="0.66223">
        <ele>1013.32</ele>
        <time>2021-08-01T16:06:49Z</time>
      </trkpt>
      <trkpt lat="42.24617" lon="0.66185">
        <ele>1014.44</ele>
        <time>2021-08-01T16:06:54Z</time>
      </trkpt>
      <trkpt lat="42.24646" lon="0.6609">
        <ele>1016.66</ele>
        <time>2021-08-01T16:07:01Z</time>
      </trkpt>
      <trkpt lat="42.24651" lon="0.66062">
        <ele>1017.33</ele>
        <time>2021-08-01T16:07:03Z</time>
      </trkpt>
      <trkpt lat="42.24665" lon="0.66025">
        <ele>1018.23</ele>
        <time>2021-08-01T16:07:06Z</time>
      </trkpt>
      <trkpt lat="42.24687" lon="0.65991">
        <ele>1018.75</ele>
        <time>2021-08-01T16:07:09Z</time>
      </trkpt>
      <trkpt lat="42.24718" lon="0.6592">
        <ele>1020.66</ele>
        <time>2021-08-01T16:07:15Z</time>
      </trkpt>
      <trkpt lat="42.24727" lon="0.65876">
        <ele>1023.08</ele>
        <time>2021-08-01T16:07:20Z</time>
      </trkpt>
      <trkpt lat="42.24731" lon="0.65861">
        <ele>1024.21</ele>
        <time>2021-08-01T16:07:22Z</time>
      </trkpt>
      <trkpt lat="42.24743" lon="0.65818">
        <ele>1028.41</ele>
        <time>2021-08-01T16:07:28Z</time>
      </trkpt>
      <trkpt lat="42.24787" lon="0.65763">
        <ele>1032.4</ele>
        <time>2021-08-01T16:07:34Z</time>
      </trkpt>
      <trkpt lat="42.24797" lon="0.65753">
        <ele>1032.89</ele>
        <time>2021-08-01T16:07:35Z</time>
      </trkpt>
      <trkpt lat="42.24825" lon="0.65702">
        <ele>1035.45</ele>
        <time>2021-08-01T16:07:39Z</time>
      </trkpt>
      <trkpt lat="42.24858" lon="0.65582">
        <ele>1038.77</ele>
        <time>2021-08-01T16:07:47Z</time>
      </trkpt>
      <trkpt lat="42.24858" lon="0.65546">
        <ele>1039.1</ele>
        <time>2021-08-01T16:07:49Z</time>
      </trkpt>
      <trkpt lat="42.24868" lon="0.65506">
        <ele>1039.03</ele>
        <time>2021-08-01T16:07:53Z</time>
      </trkpt>
      <trkpt lat="42.24876" lon="0.65411">
        <ele>1036.95</ele>
        <time>2021-08-01T16:08:01Z</time>
      </trkpt>
      <trkpt lat="42.24877" lon="0.65321">
        <ele>1035.09</ele>
        <time>2021-08-01T16:08:07Z</time>
      </trkpt>
      <trkpt lat="42.24888" lon="0.65282">
        <ele>1033.56</ele>
        <time>2021-08-01T16:08:11Z</time>
      </trkpt>
      <trkpt lat="42.249" lon="0.65263">
        <ele>1032.59</ele>
        <time>2021-08-01T16:08:13Z</time>
      </trkpt>
      <trkpt lat="42.24943" lon="0.6524">
        <ele>1029.99</ele>
        <time>2021-08-01T16:08:19Z</time>
      </trkpt>
      <trkpt lat="42.24955" lon="0.65242">
        <ele>1028.93</ele>
        <time>2021-08-01T16:08:25Z</time>
      </trkpt>
      <trkpt lat="42.24954" lon="0.65242">
        <ele>1028.54</ele>
        <time>2021-08-01T16:08:31Z</time>
      </trkpt>
      <trkpt lat="42.2496" lon="0.65244">
        <ele>1028.49</ele>
        <time>2021-08-01T16:08:41Z</time>
      </trkpt>
      <trkpt lat="42.24966" lon="0.65247">
        <ele>1028.69</ele>
        <time>2021-08-01T16:08:44Z</time>
      </trkpt>
      <trkpt lat="42.24986" lon="0.65271">
        <ele>1029.04</ele>
        <time>2021-08-01T16:08:48Z</time>
      </trkpt>
      <trkpt lat="42.25" lon="0.65288">
        <ele>1029.25</ele>
        <time>2021-08-01T16:08:50Z</time>
      </trkpt>
      <trkpt lat="42.25049" lon="0.65291">
        <ele>1029.93</ele>
        <time>2021-08-01T16:08:56Z</time>
      </trkpt>
      <trkpt lat="42.25062" lon="0.6527">
        <ele>1030.12</ele>
        <time>2021-08-01T16:08:58Z</time>
      </trkpt>
      <trkpt lat="42.25093" lon="0.65191">
        <ele>1031.02</ele>
        <time>2021-08-01T16:09:04Z</time>
      </trkpt>
      <trkpt lat="42.25123" lon="0.65128">
        <ele>1031.82</ele>
        <time>2021-08-01T16:09:09Z</time>
      </trkpt>
      <trkpt lat="42.25149" lon="0.65088">
        <ele>1032.18</ele>
        <time>2021-08-01T16:09:13Z</time>
      </trkpt>
      <trkpt lat="42.25166" lon="0.6503">
        <ele>1031.14</ele>
        <time>2021-08-01T16:09:17Z</time>
      </trkpt>
      <trkpt lat="42.25186" lon="0.64911">
        <ele>1032.24</ele>
        <time>2021-08-01T16:09:27Z</time>
      </trkpt>
      <trkpt lat="42.25236" lon="0.64855">
        <ele>1035.07</ele>
        <time>2021-08-01T16:09:34Z</time>
      </trkpt>
      <trkpt lat="42.2526" lon="0.6486">
        <ele>1035.52</ele>
        <time>2021-08-01T16:09:36Z</time>
      </trkpt>
      <trkpt lat="42.25312" lon="0.64875">
        <ele>1036.36</ele>
        <time>2021-08-01T16:09:41Z</time>
      </trkpt>
      <trkpt lat="42.25363" lon="0.64876">
        <ele>1036.73</ele>
        <time>2021-08-01T16:09:47Z</time>
      </trkpt>
      <trkpt lat="42.25404" lon="0.64843">
        <ele>1036.57</ele>
        <time>2021-08-01T16:09:52Z</time>
      </trkpt>
      <trkpt lat="42.25453" lon="0.6483">
        <ele>1038.36</ele>
        <time>2021-08-01T16:09:58Z</time>
      </trkpt>
      <trkpt lat="42.25482" lon="0.64818">
        <ele>1040.77</ele>
        <time>2021-08-01T16:10:04Z</time>
      </trkpt>
      <trkpt lat="42.25502" lon="0.64796">
        <ele>1044.58</ele>
        <time>2021-08-01T16:10:13Z</time>
      </trkpt>
      <trkpt lat="42.25533" lon="0.64776">
        <ele>1045.47</ele>
        <time>2021-08-01T16:10:18Z</time>
      </trkpt>
      <trkpt lat="42.25558" lon="0.6477">
        <ele>1044.89</ele>
        <time>2021-08-01T16:10:26Z</time>
      </trkpt>
      <trkpt lat="42.25585" lon="0.64756">
        <ele>1044.67</ele>
        <time>2021-08-01T16:10:36Z</time>
      </trkpt>
      <trkpt lat="42.25588" lon="0.6473">
        <ele>1045.42</ele>
        <time>2021-08-01T16:10:41Z</time>
      </trkpt>
      <trkpt lat="42.256" lon="0.64697">
        <ele>1046.17</ele>
        <time>2021-08-01T16:10:45Z</time>
      </trkpt>
      <trkpt lat="42.25638" lon="0.64639">
        <ele>1046.56</ele>
        <time>2021-08-01T16:10:51Z</time>
      </trkpt>
      <trkpt lat="42.25705" lon="0.64602">
        <ele>1046.8</ele>
        <time>2021-08-01T16:10:58Z</time>
      </trkpt>
      <trkpt lat="42.25757" lon="0.64575">
        <ele>1046.65</ele>
        <time>2021-08-01T16:11:03Z</time>
      </trkpt>
      <trkpt lat="42.25826" lon="0.64501">
        <ele>1044.37</ele>
        <time>2021-08-01T16:11:10Z</time>
      </trkpt>
      <trkpt lat="42.25839" lon="0.64471">
        <ele>1043.31</ele>
        <time>2021-08-01T16:11:13Z</time>
      </trkpt>
      <trkpt lat="42.25863" lon="0.64445">
        <ele>1041.83</ele>
        <time>2021-08-01T16:11:17Z</time>
      </trkpt>
      <trkpt lat="42.25901" lon="0.6438">
        <ele>1037.56</ele>
        <time>2021-08-01T16:11:24Z</time>
      </trkpt>
      <trkpt lat="42.25906" lon="0.64354">
        <ele>1035.89</ele>
        <time>2021-08-01T16:11:26Z</time>
      </trkpt>
      <trkpt lat="42.25916" lon="0.64316">
        <ele>1033.66</ele>
        <time>2021-08-01T16:11:29Z</time>
      </trkpt>
      <trkpt lat="42.25902" lon="0.64265">
        <ele>1028.97</ele>
        <time>2021-08-01T16:11:34Z</time>
      </trkpt>
      <trkpt lat="42.25876" lon="0.64229">
        <ele>1027.21</ele>
        <time>2021-08-01T16:11:38Z</time>
      </trkpt>
      <trkpt lat="42.25845" lon="0.64174">
        <ele>1027.52</ele>
        <time>2021-08-01T16:11:43Z</time>
      </trkpt>
      <trkpt lat="42.25734" lon="0.64041">
        <ele>1028.31</ele>
        <time>2021-08-01T16:11:52Z</time>
      </trkpt>
      <trkpt lat="42.25662" lon="0.63953">
        <ele>1031.89</ele>
        <time>2021-08-01T16:11:59Z</time>
      </trkpt>
      <trkpt lat="42.2561" lon="0.63897">
        <ele>1035.39</ele>
        <time>2021-08-01T16:12:04Z</time>
      </trkpt>
      <trkpt lat="42.25563" lon="0.6388">
        <ele>1039.55</ele>
        <time>2021-08-01T16:12:09Z</time>
      </trkpt>
      <trkpt lat="42.25542" lon="0.63869">
        <ele>1041.94</ele>
        <time>2021-08-01T16:12:12Z</time>
      </trkpt>
      <trkpt lat="42.25468" lon="0.63815">
        <ele>1046.23</ele>
        <time>2021-08-01T16:12:19Z</time>
      </trkpt>
      <trkpt lat="42.25377" lon="0.63748">
        <ele>1049.33</ele>
        <time>2021-08-01T16:12:26Z</time>
      </trkpt>
      <trkpt lat="42.25343" lon="0.63724">
        <ele>1049.94</ele>
        <time>2021-08-01T16:12:29Z</time>
      </trkpt>
      <trkpt lat="42.25299" lon="0.63709">
        <ele>1050.24</ele>
        <time>2021-08-01T16:12:33Z</time>
      </trkpt>
      <trkpt lat="42.25197" lon="0.63688">
        <ele>1049.38</ele>
        <time>2021-08-01T16:12:42Z</time>
      </trkpt>
      <trkpt lat="42.2517" lon="0.63667">
        <ele>1049.7</ele>
        <time>2021-08-01T16:12:49Z</time>
      </trkpt>
      <trkpt lat="42.25177" lon="0.63616">
        <ele>1049.69</ele>
        <time>2021-08-01T16:12:55Z</time>
      </trkpt>
      <trkpt lat="42.252" lon="0.63547">
        <ele>1048.72</ele>
        <time>2021-08-01T16:13:01Z</time>
      </trkpt>
      <trkpt lat="42.25244" lon="0.63427">
        <ele>1045.15</ele>
        <time>2021-08-01T16:13:09Z</time>
      </trkpt>
      <trkpt lat="42.25289" lon="0.63311">
        <ele>1042.11</ele>
        <time>2021-08-01T16:13:17Z</time>
      </trkpt>
      <trkpt lat="42.25344" lon="0.63223">
        <ele>1038.45</ele>
        <time>2021-08-01T16:13:23Z</time>
      </trkpt>
      <trkpt lat="42.25374" lon="0.63173">
        <ele>1035.34</ele>
        <time>2021-08-01T16:13:26Z</time>
      </trkpt>
      <trkpt lat="42.25392" lon="0.6314">
        <ele>1032.87</ele>
        <time>2021-08-01T16:13:28Z</time>
      </trkpt>
      <trkpt lat="42.25442" lon="0.63088">
        <ele>1027.46</ele>
        <time>2021-08-01T16:13:32Z</time>
      </trkpt>
      <trkpt lat="42.2548" lon="0.63043">
        <ele>1023.48</ele>
        <time>2021-08-01T16:13:35Z</time>
      </trkpt>
      <trkpt lat="42.25519" lon="0.63001">
        <ele>1020.27</ele>
        <time>2021-08-01T16:13:38Z</time>
      </trkpt>
      <trkpt lat="42.25579" lon="0.62936">
        <ele>1017.08</ele>
        <time>2021-08-01T16:13:43Z</time>
      </trkpt>
      <trkpt lat="42.25682" lon="0.6283">
        <ele>1013.53</ele>
        <time>2021-08-01T16:13:50Z</time>
      </trkpt>
      <trkpt lat="42.25708" lon="0.62804">
        <ele>1012.15</ele>
        <time>2021-08-01T16:13:52Z</time>
      </trkpt>
      <trkpt lat="42.25779" lon="0.62761">
        <ele>1008.34</ele>
        <time>2021-08-01T16:13:57Z</time>
      </trkpt>
      <trkpt lat="42.2586" lon="0.62723">
        <ele>1005.23</ele>
        <time>2021-08-01T16:14:03Z</time>
      </trkpt>
      <trkpt lat="42.25899" lon="0.62709">
        <ele>1003.7</ele>
        <time>2021-08-01T16:14:06Z</time>
      </trkpt>
      <trkpt lat="42.25935" lon="0.62662">
        <ele>1000.22</ele>
        <time>2021-08-01T16:14:11Z</time>
      </trkpt>
      <trkpt lat="42.25943" lon="0.62616">
        <ele>997.9</ele>
        <time>2021-08-01T16:14:14Z</time>
      </trkpt>
      <trkpt lat="42.25899" lon="0.62542">
        <ele>994.14</ele>
        <time>2021-08-01T16:14:20Z</time>
      </trkpt>
      <trkpt lat="42.25889" lon="0.62525">
        <ele>993.8</ele>
        <time>2021-08-01T16:14:21Z</time>
      </trkpt>
      <trkpt lat="42.25786" lon="0.62325">
        <ele>993.97</ele>
        <time>2021-08-01T16:14:31Z</time>
      </trkpt>
      <trkpt lat="42.25732" lon="0.62215">
        <ele>993.04</ele>
        <time>2021-08-01T16:14:36Z</time>
      </trkpt>
      <trkpt lat="42.25718" lon="0.62137">
        <ele>991.25</ele>
        <time>2021-08-01T16:14:40Z</time>
      </trkpt>
      <trkpt lat="42.25694" lon="0.62078">
        <ele>990.63</ele>
        <time>2021-08-01T16:14:44Z</time>
      </trkpt>
      <trkpt lat="42.25631" lon="0.61976">
        <ele>994.18</ele>
        <time>2021-08-01T16:14:51Z</time>
      </trkpt>
      <trkpt lat="42.25596" lon="0.61906">
        <ele>997.64</ele>
        <time>2021-08-01T16:14:55Z</time>
      </trkpt>
      <trkpt lat="42.25549" lon="0.61832">
        <ele>1000.85</ele>
        <time>2021-08-01T16:15:01Z</time>
      </trkpt>
      <trkpt lat="42.25513" lon="0.61788">
        <ele>1001.17</ele>
        <time>2021-08-01T16:15:05Z</time>
      </trkpt>
      <trkpt lat="42.25502" lon="0.61725">
        <ele>1000.6</ele>
        <time>2021-08-01T16:15:10Z</time>
      </trkpt>
      <trkpt lat="42.25509" lon="0.61658">
        <ele>999.04</ele>
        <time>2021-08-01T16:15:14Z</time>
      </trkpt>
      <trkpt lat="42.25466" lon="0.61604">
        <ele>996.56</ele>
        <time>2021-08-01T16:15:20Z</time>
      </trkpt>
      <trkpt lat="42.2541" lon="0.61604">
        <ele>993.85</ele>
        <time>2021-08-01T16:15:25Z</time>
      </trkpt>
      <trkpt lat="42.25381" lon="0.61562">
        <ele>991.95</ele>
        <time>2021-08-01T16:15:29Z</time>
      </trkpt>
      <trkpt lat="42.25378" lon="0.61546">
        <ele>991.7</ele>
        <time>2021-08-01T16:15:30Z</time>
      </trkpt>
      <trkpt lat="42.25335" lon="0.61463">
        <ele>990.05</ele>
        <time>2021-08-01T16:15:36Z</time>
      </trkpt>
      <trkpt lat="42.25314" lon="0.61442">
        <ele>989.13</ele>
        <time>2021-08-01T16:15:39Z</time>
      </trkpt>
      <trkpt lat="42.25314" lon="0.61378">
        <ele>987.98</ele>
        <time>2021-08-01T16:15:47Z</time>
      </trkpt>
      <trkpt lat="42.25352" lon="0.61354">
        <ele>987.94</ele>
        <time>2021-08-01T16:15:52Z</time>
      </trkpt>
      <trkpt lat="42.25403" lon="0.61345">
        <ele>987.56</ele>
        <time>2021-08-01T16:15:57Z</time>
      </trkpt>
      <trkpt lat="42.25434" lon="0.61306">
        <ele>987.26</ele>
        <time>2021-08-01T16:16:02Z</time>
      </trkpt>
      <trkpt lat="42.25423" lon="0.61244">
        <ele>987.45</ele>
        <time>2021-08-01T16:16:06Z</time>
      </trkpt>
      <trkpt lat="42.25422" lon="0.61201">
        <ele>987.91</ele>
        <time>2021-08-01T16:16:09Z</time>
      </trkpt>
      <trkpt lat="42.25443" lon="0.61146">
        <ele>989.48</ele>
        <time>2021-08-01T16:16:13Z</time>
      </trkpt>
      <trkpt lat="42.25456" lon="0.61117">
        <ele>990.49</ele>
        <time>2021-08-01T16:16:15Z</time>
      </trkpt>
      <trkpt lat="42.25483" lon="0.6108">
        <ele>991.86</ele>
        <time>2021-08-01T16:16:18Z</time>
      </trkpt>
      <trkpt lat="42.25526" lon="0.61005">
        <ele>993.84</ele>
        <time>2021-08-01T16:16:24Z</time>
      </trkpt>
      <trkpt lat="42.25541" lon="0.60939">
        <ele>993.75</ele>
        <time>2021-08-01T16:16:30Z</time>
      </trkpt>
      <trkpt lat="42.25541" lon="0.60901">
        <ele>992.65</ele>
        <time>2021-08-01T16:16:33Z</time>
      </trkpt>
      <trkpt lat="42.25512" lon="0.60847">
        <ele>992.38</ele>
        <time>2021-08-01T16:16:40Z</time>
      </trkpt>
      <trkpt lat="42.25487" lon="0.60802">
        <ele>993.34</ele>
        <time>2021-08-01T16:16:45Z</time>
      </trkpt>
      <trkpt lat="42.255" lon="0.60755">
        <ele>994.6</ele>
        <time>2021-08-01T16:16:50Z</time>
      </trkpt>
      <trkpt lat="42.25481" lon="0.60723">
        <ele>994.84</ele>
        <time>2021-08-01T16:16:53Z</time>
      </trkpt>
      <trkpt lat="42.25397" lon="0.60606">
        <ele>991.11</ele>
        <time>2021-08-01T16:17:02Z</time>
      </trkpt>
      <trkpt lat="42.25378" lon="0.60579">
        <ele>989.43</ele>
        <time>2021-08-01T16:17:04Z</time>
      </trkpt>
      <trkpt lat="42.25315" lon="0.60526">
        <ele>985.27</ele>
        <time>2021-08-01T16:17:10Z</time>
      </trkpt>
      <trkpt lat="42.25308" lon="0.60519">
        <ele>984.6</ele>
        <time>2021-08-01T16:17:11Z</time>
      </trkpt>
      <trkpt lat="42.25294" lon="0.605">
        <ele>982.12</ele>
        <time>2021-08-01T16:17:15Z</time>
      </trkpt>
      <trkpt lat="42.25294" lon="0.60483">
        <ele>979.71</ele>
        <time>2021-08-01T16:17:22Z</time>
      </trkpt>
      <trkpt lat="42.25294" lon="0.60483">
        <ele>978.65</ele>
        <time>2021-08-01T16:17:31Z</time>
      </trkpt>
      <trkpt lat="42.25315" lon="0.60474">
        <ele>978.5</ele>
        <time>2021-08-01T16:17:35Z</time>
      </trkpt>
      <trkpt lat="42.25358" lon="0.60445">
        <ele>978.52</ele>
        <time>2021-08-01T16:17:39Z</time>
      </trkpt>
      <trkpt lat="42.25383" lon="0.60419">
        <ele>978.65</ele>
        <time>2021-08-01T16:17:41Z</time>
      </trkpt>
      <trkpt lat="42.25451" lon="0.60298">
        <ele>979.59</ele>
        <time>2021-08-01T16:17:48Z</time>
      </trkpt>
      <trkpt lat="42.25496" lon="0.60258">
        <ele>980.2</ele>
        <time>2021-08-01T16:17:52Z</time>
      </trkpt>
      <trkpt lat="42.25591" lon="0.60193">
        <ele>981.76</ele>
        <time>2021-08-01T16:18:01Z</time>
      </trkpt>
      <trkpt lat="42.25637" lon="0.60171">
        <ele>981.23</ele>
        <time>2021-08-01T16:18:05Z</time>
      </trkpt>
      <trkpt lat="42.257" lon="0.60167">
        <ele>979.76</ele>
        <time>2021-08-01T16:18:10Z</time>
      </trkpt>
      <trkpt lat="42.2575" lon="0.60141">
        <ele>978.49</ele>
        <time>2021-08-01T16:18:14Z</time>
      </trkpt>
      <trkpt lat="42.25909" lon="0.59985">
        <ele>979.2</ele>
        <time>2021-08-01T16:18:25Z</time>
      </trkpt>
      <trkpt lat="42.25937" lon="0.59956">
        <ele>979.64</ele>
        <time>2021-08-01T16:18:27Z</time>
      </trkpt>
      <trkpt lat="42.25969" lon="0.59878">
        <ele>980.33</ele>
        <time>2021-08-01T16:18:31Z</time>
      </trkpt>
      <trkpt lat="42.25994" lon="0.59795">
        <ele>980.16</ele>
        <time>2021-08-01T16:18:36Z</time>
      </trkpt>
      <trkpt lat="42.26042" lon="0.59764">
        <ele>978.82</ele>
        <time>2021-08-01T16:18:42Z</time>
      </trkpt>
      <trkpt lat="42.2605" lon="0.59769">
        <ele>978.66</ele>
        <time>2021-08-01T16:18:43Z</time>
      </trkpt>
      <trkpt lat="42.26109" lon="0.59795">
        <ele>978.64</ele>
        <time>2021-08-01T16:18:51Z</time>
      </trkpt>
      <trkpt lat="42.26111" lon="0.59798">
        <ele>978.86</ele>
        <time>2021-08-01T16:18:58Z</time>
      </trkpt>
      <trkpt lat="42.26111" lon="0.59798">
        <ele>978.43</ele>
        <time>2021-08-01T16:19:20Z</time>
      </trkpt>
      <trkpt lat="42.26122" lon="0.59812">
        <ele>979</ele>
        <time>2021-08-01T16:19:29Z</time>
      </trkpt>
      <trkpt lat="42.26147" lon="0.59857">
        <ele>979.27</ele>
        <time>2021-08-01T16:19:37Z</time>
      </trkpt>
      <trkpt lat="42.26173" lon="0.59904">
        <ele>979.97</ele>
        <time>2021-08-01T16:19:42Z</time>
      </trkpt>
      <trkpt lat="42.26177" lon="0.59944">
        <ele>980.92</ele>
        <time>2021-08-01T16:19:46Z</time>
      </trkpt>
      <trkpt lat="42.26165" lon="0.60027">
        <ele>984.23</ele>
        <time>2021-08-01T16:19:54Z</time>
      </trkpt>
      <trkpt lat="42.26184" lon="0.60059">
        <ele>988.3</ele>
        <time>2021-08-01T16:20:00Z</time>
      </trkpt>
      <trkpt lat="42.26191" lon="0.60055">
        <ele>989.03</ele>
        <time>2021-08-01T16:20:01Z</time>
      </trkpt>
      <trkpt lat="42.26228" lon="0.60031">
        <ele>992.27</ele>
        <time>2021-08-01T16:20:06Z</time>
      </trkpt>
      <trkpt lat="42.26264" lon="0.60039">
        <ele>996.36</ele>
        <time>2021-08-01T16:20:12Z</time>
      </trkpt>
      <trkpt lat="42.26269" lon="0.60047">
        <ele>996.89</ele>
        <time>2021-08-01T16:20:13Z</time>
      </trkpt>
      <trkpt lat="42.26309" lon="0.60115">
        <ele>1000.57</ele>
        <time>2021-08-01T16:20:22Z</time>
      </trkpt>
      <trkpt lat="42.26334" lon="0.60174">
        <ele>1000.37</ele>
        <time>2021-08-01T16:20:28Z</time>
      </trkpt>
      <trkpt lat="42.26379" lon="0.60196">
        <ele>998.84</ele>
        <time>2021-08-01T16:20:33Z</time>
      </trkpt>
      <trkpt lat="42.2648" lon="0.60204">
        <ele>995.36</ele>
        <time>2021-08-01T16:20:43Z</time>
      </trkpt>
      <trkpt lat="42.26529" lon="0.60193">
        <ele>993.79</ele>
        <time>2021-08-01T16:20:48Z</time>
      </trkpt>
      <trkpt lat="42.26545" lon="0.60181">
        <ele>993.15</ele>
        <time>2021-08-01T16:20:50Z</time>
      </trkpt>
      <trkpt lat="42.26594" lon="0.60184">
        <ele>991.23</ele>
        <time>2021-08-01T16:20:56Z</time>
      </trkpt>
      <trkpt lat="42.2665" lon="0.60209">
        <ele>990.77</ele>
        <time>2021-08-01T16:21:04Z</time>
      </trkpt>
      <trkpt lat="42.26697" lon="0.60204">
        <ele>991.5</ele>
        <time>2021-08-01T16:21:10Z</time>
      </trkpt>
      <trkpt lat="42.26737" lon="0.60218">
        <ele>993.28</ele>
        <time>2021-08-01T16:21:14Z</time>
      </trkpt>
      <trkpt lat="42.2678" lon="0.60243">
        <ele>995.6</ele>
        <time>2021-08-01T16:21:18Z</time>
      </trkpt>
      <trkpt lat="42.26841" lon="0.60293">
        <ele>999.83</ele>
        <time>2021-08-01T16:21:24Z</time>
      </trkpt>
      <trkpt lat="42.26881" lon="0.60324">
        <ele>1003.21</ele>
        <time>2021-08-01T16:21:28Z</time>
      </trkpt>
      <trkpt lat="42.2689" lon="0.60332">
        <ele>1004.01</ele>
        <time>2021-08-01T16:21:29Z</time>
      </trkpt>
      <trkpt lat="42.26939" lon="0.60339">
        <ele>1007.79</ele>
        <time>2021-08-01T16:21:34Z</time>
      </trkpt>
      <trkpt lat="42.2695" lon="0.60339">
        <ele>1008.78</ele>
        <time>2021-08-01T16:21:35Z</time>
      </trkpt>
      <trkpt lat="42.27009" lon="0.60354">
        <ele>1013.88</ele>
        <time>2021-08-01T16:21:40Z</time>
      </trkpt>
      <trkpt lat="42.27034" lon="0.60361">
        <ele>1015.44</ele>
        <time>2021-08-01T16:21:42Z</time>
      </trkpt>
      <trkpt lat="42.27073" lon="0.60398">
        <ele>1018.5</ele>
        <time>2021-08-01T16:21:46Z</time>
      </trkpt>
      <trkpt lat="42.27114" lon="0.60405">
        <ele>1021.73</ele>
        <time>2021-08-01T16:21:50Z</time>
      </trkpt>
      <trkpt lat="42.27176" lon="0.60396">
        <ele>1026.45</ele>
        <time>2021-08-01T16:21:55Z</time>
      </trkpt>
      <trkpt lat="42.27217" lon="0.604">
        <ele>1029.55</ele>
        <time>2021-08-01T16:21:58Z</time>
      </trkpt>
      <trkpt lat="42.27244" lon="0.60396">
        <ele>1031.49</ele>
        <time>2021-08-01T16:22:00Z</time>
      </trkpt>
      <trkpt lat="42.27306" lon="0.60395">
        <ele>1036.53</ele>
        <time>2021-08-01T16:22:05Z</time>
      </trkpt>
      <trkpt lat="42.27357" lon="0.604">
        <ele>1041.06</ele>
        <time>2021-08-01T16:22:09Z</time>
      </trkpt>
      <trkpt lat="42.27403" lon="0.60446">
        <ele>1045.29</ele>
        <time>2021-08-01T16:22:14Z</time>
      </trkpt>
      <trkpt lat="42.27426" lon="0.60497">
        <ele>1048.3</ele>
        <time>2021-08-01T16:22:18Z</time>
      </trkpt>
      <trkpt lat="42.27456" lon="0.60565">
        <ele>1052.5</ele>
        <time>2021-08-01T16:22:23Z</time>
      </trkpt>
      <trkpt lat="42.27461" lon="0.60599">
        <ele>1055.27</ele>
        <time>2021-08-01T16:22:26Z</time>
      </trkpt>
      <trkpt lat="42.27476" lon="0.60648">
        <ele>1059.42</ele>
        <time>2021-08-01T16:22:31Z</time>
      </trkpt>
      <trkpt lat="42.27489" lon="0.60692">
        <ele>1061.31</ele>
        <time>2021-08-01T16:22:35Z</time>
      </trkpt>
      <trkpt lat="42.27488" lon="0.60793">
        <ele>1064.1</ele>
        <time>2021-08-01T16:22:43Z</time>
      </trkpt>
      <trkpt lat="42.27478" lon="0.6083">
        <ele>1065.07</ele>
        <time>2021-08-01T16:22:46Z</time>
      </trkpt>
      <trkpt lat="42.27481" lon="0.60928">
        <ele>1067.71</ele>
        <time>2021-08-01T16:22:53Z</time>
      </trkpt>
      <trkpt lat="42.27517" lon="0.60996">
        <ele>1069.72</ele>
        <time>2021-08-01T16:22:58Z</time>
      </trkpt>
      <trkpt lat="42.27556" lon="0.61021">
        <ele>1072.18</ele>
        <time>2021-08-01T16:23:03Z</time>
      </trkpt>
      <trkpt lat="42.27587" lon="0.6106">
        <ele>1074.1</ele>
        <time>2021-08-01T16:23:07Z</time>
      </trkpt>
      <trkpt lat="42.27628" lon="0.61098">
        <ele>1076</ele>
        <time>2021-08-01T16:23:11Z</time>
      </trkpt>
      <trkpt lat="42.2765" lon="0.61112">
        <ele>1077.39</ele>
        <time>2021-08-01T16:23:13Z</time>
      </trkpt>
      <trkpt lat="42.27681" lon="0.61167">
        <ele>1080.6</ele>
        <time>2021-08-01T16:23:18Z</time>
      </trkpt>
      <trkpt lat="42.27727" lon="0.61283">
        <ele>1084.65</ele>
        <time>2021-08-01T16:23:27Z</time>
      </trkpt>
      <trkpt lat="42.27739" lon="0.61312">
        <ele>1085.19</ele>
        <time>2021-08-01T16:23:29Z</time>
      </trkpt>
      <trkpt lat="42.27791" lon="0.61344">
        <ele>1086.17</ele>
        <time>2021-08-01T16:23:35Z</time>
      </trkpt>
      <trkpt lat="42.27814" lon="0.6134">
        <ele>1086.54</ele>
        <time>2021-08-01T16:23:37Z</time>
      </trkpt>
      <trkpt lat="42.27862" lon="0.61351">
        <ele>1087.05</ele>
        <time>2021-08-01T16:23:41Z</time>
      </trkpt>
      <trkpt lat="42.27883" lon="0.61364">
        <ele>1087.24</ele>
        <time>2021-08-01T16:23:43Z</time>
      </trkpt>
      <trkpt lat="42.27917" lon="0.61374">
        <ele>1088.24</ele>
        <time>2021-08-01T16:23:46Z</time>
      </trkpt>
      <trkpt lat="42.27985" lon="0.61433">
        <ele>1092.09</ele>
        <time>2021-08-01T16:23:52Z</time>
      </trkpt>
      <trkpt lat="42.27997" lon="0.61445">
        <ele>1092.81</ele>
        <time>2021-08-01T16:23:53Z</time>
      </trkpt>
      <trkpt lat="42.28074" lon="0.61548">
        <ele>1096.86</ele>
        <time>2021-08-01T16:24:00Z</time>
      </trkpt>
      <trkpt lat="42.28084" lon="0.61559">
        <ele>1097.4</ele>
        <time>2021-08-01T16:24:01Z</time>
      </trkpt>
      <trkpt lat="42.28105" lon="0.61573">
        <ele>1098.37</ele>
        <time>2021-08-01T16:24:03Z</time>
      </trkpt>
      <trkpt lat="42.28124" lon="0.61601">
        <ele>1099.64</ele>
        <time>2021-08-01T16:24:06Z</time>
      </trkpt>
      <trkpt lat="42.2816" lon="0.61669">
        <ele>1100.61</ele>
        <time>2021-08-01T16:24:12Z</time>
      </trkpt>
      <trkpt lat="42.28176" lon="0.61719">
        <ele>1100.76</ele>
        <time>2021-08-01T16:24:17Z</time>
      </trkpt>
      <trkpt lat="42.28186" lon="0.61764">
        <ele>1100.98</ele>
        <time>2021-08-01T16:24:21Z</time>
      </trkpt>
      <trkpt lat="42.28207" lon="0.61797">
        <ele>1101.82</ele>
        <time>2021-08-01T16:24:24Z</time>
      </trkpt>
      <trkpt lat="42.28215" lon="0.61806">
        <ele>1102.09</ele>
        <time>2021-08-01T16:24:25Z</time>
      </trkpt>
      <trkpt lat="42.28223" lon="0.61814">
        <ele>1102.37</ele>
        <time>2021-08-01T16:24:26Z</time>
      </trkpt>
      <trkpt lat="42.28233" lon="0.61817">
        <ele>1102.7</ele>
        <time>2021-08-01T16:24:27Z</time>
      </trkpt>
      <trkpt lat="42.28272" lon="0.61801">
        <ele>1103.94</ele>
        <time>2021-08-01T16:24:31Z</time>
      </trkpt>
      <trkpt lat="42.28337" lon="0.61762">
        <ele>1106.14</ele>
        <time>2021-08-01T16:24:37Z</time>
      </trkpt>
      <trkpt lat="42.28379" lon="0.61738">
        <ele>1107.26</ele>
        <time>2021-08-01T16:24:41Z</time>
      </trkpt>
      <trkpt lat="42.28418" lon="0.61723">
        <ele>1108.66</ele>
        <time>2021-08-01T16:24:45Z</time>
      </trkpt>
      <trkpt lat="42.28462" lon="0.61668">
        <ele>1111.33</ele>
        <time>2021-08-01T16:24:52Z</time>
      </trkpt>
      <trkpt lat="42.28484" lon="0.61636">
        <ele>1113.83</ele>
        <time>2021-08-01T16:25:00Z</time>
      </trkpt>
      <trkpt lat="42.28499" lon="0.61611">
        <ele>1115.91</ele>
        <time>2021-08-01T16:25:05Z</time>
      </trkpt>
      <trkpt lat="42.28544" lon="0.61548">
        <ele>1119.02</ele>
        <time>2021-08-01T16:25:14Z</time>
      </trkpt>
      <trkpt lat="42.28598" lon="0.61462">
        <ele>1122.12</ele>
        <time>2021-08-01T16:25:23Z</time>
      </trkpt>
      <trkpt lat="42.28602" lon="0.61454">
        <ele>1122.47</ele>
        <time>2021-08-01T16:25:24Z</time>
      </trkpt>
      <trkpt lat="42.28621" lon="0.61442">
        <ele>1123.47</ele>
        <time>2021-08-01T16:25:28Z</time>
      </trkpt>
      <trkpt lat="42.28686" lon="0.61455">
        <ele>1124.3</ele>
        <time>2021-08-01T16:25:38Z</time>
      </trkpt>
      <trkpt lat="42.28714" lon="0.61464">
        <ele>1124.51</ele>
        <time>2021-08-01T16:25:42Z</time>
      </trkpt>
      <trkpt lat="42.2877" lon="0.61456">
        <ele>1124.89</ele>
        <time>2021-08-01T16:25:50Z</time>
      </trkpt>
      <trkpt lat="42.28823" lon="0.61481">
        <ele>1122.39</ele>
        <time>2021-08-01T16:26:00Z</time>
      </trkpt>
      <trkpt lat="42.28888" lon="0.61504">
        <ele>1120.13</ele>
        <time>2021-08-01T16:26:10Z</time>
      </trkpt>
      <trkpt lat="42.28895" lon="0.61507">
        <ele>1120.1</ele>
        <time>2021-08-01T16:26:11Z</time>
      </trkpt>
      <trkpt lat="42.28909" lon="0.61512">
        <ele>1120.43</ele>
        <time>2021-08-01T16:26:13Z</time>
      </trkpt>
      <trkpt lat="42.28921" lon="0.61529">
        <ele>1122.19</ele>
        <time>2021-08-01T16:26:17Z</time>
      </trkpt>
      <trkpt lat="42.2893" lon="0.61556">
        <ele>1125.3</ele>
        <time>2021-08-01T16:26:23Z</time>
      </trkpt>
      <trkpt lat="42.28983" lon="0.61515">
        <ele>1182.7</ele>
      </trkpt>
    </trkseg>
  </trk>
</gpx>